<?xml version="1.0" encoding="UTF-8" standalone="no" ?>
<gpx xmlns="http://www.topografix.com/GPX/1/1" xmlns:xsi="http://www.w3.org/2001/XMLSchema-instance" xsi:schemaLocation="http://www.topografix.com/GPX/1/1 http://www.topografix.com/GPX/1/1/gpx.xsd" version="1.1" creator="VisuGPX - https://www.visugpx.com">
  <metadata>
    <name>Vélo en soirée mercues crayssac</name>
  </metadata>
  <trk>
    <name><![CDATA[Vélo en soirée mercues crayssac_1]]></name>
    <trkseg>
      <trkpt lat="44.501" lon="1.41181">
        <ele>162.9</ele>
        <time>2021-10-07T17:49:32Z</time>
      </trkpt>
      <trkpt lat="44.50106" lon="1.41181">
        <ele>162.8</ele>
        <time>2021-10-07T17:49:34Z</time>
      </trkpt>
      <trkpt lat="44.5011" lon="1.4118">
        <ele>162.8</ele>
        <time>2021-10-07T17:49:35Z</time>
      </trkpt>
      <trkpt lat="44.50113" lon="1.41179">
        <ele>162.8</ele>
        <time>2021-10-07T17:49:36Z</time>
      </trkpt>
      <trkpt lat="44.50117" lon="1.41182">
        <ele>162.8</ele>
        <time>2021-10-07T17:49:38Z</time>
      </trkpt>
      <trkpt lat="44.50119" lon="1.41182">
        <ele>162.8</ele>
        <time>2021-10-07T17:49:39Z</time>
      </trkpt>
      <trkpt lat="44.50121" lon="1.41182">
        <ele>162.8</ele>
        <time>2021-10-07T17:49:40Z</time>
      </trkpt>
      <trkpt lat="44.50125" lon="1.41182">
        <ele>162.7</ele>
        <time>2021-10-07T17:49:42Z</time>
      </trkpt>
      <trkpt lat="44.50128" lon="1.41183">
        <ele>162.4</ele>
        <time>2021-10-07T17:49:43Z</time>
      </trkpt>
      <trkpt lat="44.50131" lon="1.41184">
        <ele>162.4</ele>
        <time>2021-10-07T17:49:44Z</time>
      </trkpt>
      <trkpt lat="44.50135" lon="1.41184">
        <ele>162.3</ele>
        <time>2021-10-07T17:49:46Z</time>
      </trkpt>
      <trkpt lat="44.50136" lon="1.41185">
        <ele>162.3</ele>
        <time>2021-10-07T17:49:47Z</time>
      </trkpt>
      <trkpt lat="44.50138" lon="1.41186">
        <ele>162.3</ele>
        <time>2021-10-07T17:49:48Z</time>
      </trkpt>
      <trkpt lat="44.50142" lon="1.41183">
        <ele>162.5</ele>
        <time>2021-10-07T17:49:50Z</time>
      </trkpt>
      <trkpt lat="44.50144" lon="1.41182">
        <ele>162.5</ele>
        <time>2021-10-07T17:49:51Z</time>
      </trkpt>
      <trkpt lat="44.50145" lon="1.41181">
        <ele>162.5</ele>
        <time>2021-10-07T17:49:52Z</time>
      </trkpt>
      <trkpt lat="44.50148" lon="1.41179">
        <ele>162.7</ele>
        <time>2021-10-07T17:49:53Z</time>
      </trkpt>
      <trkpt lat="44.50151" lon="1.41178">
        <ele>162.6</ele>
        <time>2021-10-07T17:49:54Z</time>
      </trkpt>
      <trkpt lat="44.50152" lon="1.41177">
        <ele>162.6</ele>
        <time>2021-10-07T17:49:55Z</time>
      </trkpt>
      <trkpt lat="44.50155" lon="1.41175">
        <ele>162.7</ele>
        <time>2021-10-07T17:49:57Z</time>
      </trkpt>
      <trkpt lat="44.50156" lon="1.41178">
        <ele>162.7</ele>
        <time>2021-10-07T17:49:58Z</time>
      </trkpt>
      <trkpt lat="44.50156" lon="1.4118">
        <ele>162.6</ele>
        <time>2021-10-07T17:49:59Z</time>
      </trkpt>
      <trkpt lat="44.50157" lon="1.4118">
        <ele>162.6</ele>
        <time>2021-10-07T17:50:00Z</time>
      </trkpt>
      <trkpt lat="44.50159" lon="1.4118">
        <ele>162.6</ele>
        <time>2021-10-07T17:50:01Z</time>
      </trkpt>
      <trkpt lat="44.50161" lon="1.41181">
        <ele>162.7</ele>
        <time>2021-10-07T17:50:03Z</time>
      </trkpt>
      <trkpt lat="44.50163" lon="1.41182">
        <ele>162.9</ele>
        <time>2021-10-07T17:50:04Z</time>
      </trkpt>
      <trkpt lat="44.50164" lon="1.41183">
        <ele>162.9</ele>
        <time>2021-10-07T17:50:05Z</time>
      </trkpt>
      <trkpt lat="44.50167" lon="1.41183">
        <ele>163.1</ele>
        <time>2021-10-07T17:50:07Z</time>
      </trkpt>
      <trkpt lat="44.50169" lon="1.41183">
        <ele>163.4</ele>
        <time>2021-10-07T17:50:08Z</time>
      </trkpt>
      <trkpt lat="44.50174" lon="1.41182">
        <ele>164.2</ele>
        <time>2021-10-07T17:50:09Z</time>
      </trkpt>
      <trkpt lat="44.50176" lon="1.41184">
        <ele>164.1</ele>
        <time>2021-10-07T17:50:10Z</time>
      </trkpt>
      <trkpt lat="44.50179" lon="1.41188">
        <ele>164.4</ele>
        <time>2021-10-07T17:50:12Z</time>
      </trkpt>
      <trkpt lat="44.50183" lon="1.41192">
        <ele>164.8</ele>
        <time>2021-10-07T17:50:14Z</time>
      </trkpt>
      <trkpt lat="44.50185" lon="1.41193">
        <ele>165.2</ele>
        <time>2021-10-07T17:50:15Z</time>
      </trkpt>
      <trkpt lat="44.50186" lon="1.41193">
        <ele>165.2</ele>
        <time>2021-10-07T17:50:16Z</time>
      </trkpt>
      <trkpt lat="44.50188" lon="1.41196">
        <ele>165.8</ele>
        <time>2021-10-07T17:50:18Z</time>
      </trkpt>
      <trkpt lat="44.50191" lon="1.41198">
        <ele>166.2</ele>
        <time>2021-10-07T17:50:19Z</time>
      </trkpt>
      <trkpt lat="44.50194" lon="1.41201">
        <ele>166.7</ele>
        <time>2021-10-07T17:50:20Z</time>
      </trkpt>
      <trkpt lat="44.50195" lon="1.41202">
        <ele>166.7</ele>
        <time>2021-10-07T17:50:21Z</time>
      </trkpt>
      <trkpt lat="44.50196" lon="1.41203">
        <ele>167.4</ele>
        <time>2021-10-07T17:50:22Z</time>
      </trkpt>
      <trkpt lat="44.50199" lon="1.41205">
        <ele>167.9</ele>
        <time>2021-10-07T17:50:24Z</time>
      </trkpt>
      <trkpt lat="44.50201" lon="1.41208">
        <ele>167.9</ele>
        <time>2021-10-07T17:50:25Z</time>
      </trkpt>
      <trkpt lat="44.50203" lon="1.4121">
        <ele>168.4</ele>
        <time>2021-10-07T17:50:26Z</time>
      </trkpt>
      <trkpt lat="44.50206" lon="1.41212">
        <ele>169.1</ele>
        <time>2021-10-07T17:50:28Z</time>
      </trkpt>
      <trkpt lat="44.50209" lon="1.41216">
        <ele>169.6</ele>
        <time>2021-10-07T17:50:30Z</time>
      </trkpt>
      <trkpt lat="44.5021" lon="1.41217">
        <ele>169.6</ele>
        <time>2021-10-07T17:50:31Z</time>
      </trkpt>
      <trkpt lat="44.50211" lon="1.41218">
        <ele>170.1</ele>
        <time>2021-10-07T17:50:32Z</time>
      </trkpt>
      <trkpt lat="44.50214" lon="1.41222">
        <ele>170.5</ele>
        <time>2021-10-07T17:50:34Z</time>
      </trkpt>
      <trkpt lat="44.50217" lon="1.41225">
        <ele>170.5</ele>
        <time>2021-10-07T17:50:35Z</time>
      </trkpt>
      <trkpt lat="44.50218" lon="1.41225">
        <ele>171.2</ele>
        <time>2021-10-07T17:50:36Z</time>
      </trkpt>
      <trkpt lat="44.5022" lon="1.41228">
        <ele>171</ele>
        <time>2021-10-07T17:50:38Z</time>
      </trkpt>
      <trkpt lat="44.50221" lon="1.41229">
        <ele>171.7</ele>
        <time>2021-10-07T17:50:39Z</time>
      </trkpt>
      <trkpt lat="44.50223" lon="1.41232">
        <ele>171.4</ele>
        <time>2021-10-07T17:50:41Z</time>
      </trkpt>
      <trkpt lat="44.50226" lon="1.41233">
        <ele>172.2</ele>
        <time>2021-10-07T17:50:42Z</time>
      </trkpt>
      <trkpt lat="44.50227" lon="1.41234">
        <ele>173</ele>
        <time>2021-10-07T17:50:43Z</time>
      </trkpt>
      <trkpt lat="44.50229" lon="1.41236">
        <ele>173.4</ele>
        <time>2021-10-07T17:50:44Z</time>
      </trkpt>
      <trkpt lat="44.50232" lon="1.41239">
        <ele>173.1</ele>
        <time>2021-10-07T17:50:46Z</time>
      </trkpt>
      <trkpt lat="44.50233" lon="1.4124">
        <ele>173.8</ele>
        <time>2021-10-07T17:50:47Z</time>
      </trkpt>
      <trkpt lat="44.50235" lon="1.41242">
        <ele>174.6</ele>
        <time>2021-10-07T17:50:48Z</time>
      </trkpt>
      <trkpt lat="44.50236" lon="1.41243">
        <ele>174.6</ele>
        <time>2021-10-07T17:50:49Z</time>
      </trkpt>
      <trkpt lat="44.50239" lon="1.41245">
        <ele>174.9</ele>
        <time>2021-10-07T17:50:50Z</time>
      </trkpt>
      <trkpt lat="44.50242" lon="1.41248">
        <ele>175.2</ele>
        <time>2021-10-07T17:50:52Z</time>
      </trkpt>
      <trkpt lat="44.50243" lon="1.41248">
        <ele>175.2</ele>
        <time>2021-10-07T17:50:53Z</time>
      </trkpt>
      <trkpt lat="44.50246" lon="1.41251">
        <ele>176</ele>
        <time>2021-10-07T17:50:54Z</time>
      </trkpt>
      <trkpt lat="44.50248" lon="1.41252">
        <ele>176.4</ele>
        <time>2021-10-07T17:50:55Z</time>
      </trkpt>
      <trkpt lat="44.5025" lon="1.41254">
        <ele>176.4</ele>
        <time>2021-10-07T17:50:57Z</time>
      </trkpt>
      <trkpt lat="44.50253" lon="1.41256">
        <ele>176.8</ele>
        <time>2021-10-07T17:50:58Z</time>
      </trkpt>
      <trkpt lat="44.50255" lon="1.41258">
        <ele>177.6</ele>
        <time>2021-10-07T17:50:59Z</time>
      </trkpt>
      <trkpt lat="44.50258" lon="1.4126">
        <ele>178</ele>
        <time>2021-10-07T17:51:01Z</time>
      </trkpt>
      <trkpt lat="44.5026" lon="1.41262">
        <ele>178.7</ele>
        <time>2021-10-07T17:51:02Z</time>
      </trkpt>
      <trkpt lat="44.50262" lon="1.41264">
        <ele>178.7</ele>
        <time>2021-10-07T17:51:03Z</time>
      </trkpt>
      <trkpt lat="44.50264" lon="1.41266">
        <ele>178.9</ele>
        <time>2021-10-07T17:51:05Z</time>
      </trkpt>
      <trkpt lat="44.50267" lon="1.41269">
        <ele>179.2</ele>
        <time>2021-10-07T17:51:06Z</time>
      </trkpt>
      <trkpt lat="44.50268" lon="1.4127">
        <ele>179.2</ele>
        <time>2021-10-07T17:51:07Z</time>
      </trkpt>
      <trkpt lat="44.50273" lon="1.41272">
        <ele>180.6</ele>
        <time>2021-10-07T17:51:09Z</time>
      </trkpt>
      <trkpt lat="44.50274" lon="1.41273">
        <ele>180.3</ele>
        <time>2021-10-07T17:51:10Z</time>
      </trkpt>
      <trkpt lat="44.50275" lon="1.41274">
        <ele>180.9</ele>
        <time>2021-10-07T17:51:11Z</time>
      </trkpt>
      <trkpt lat="44.50279" lon="1.41275">
        <ele>181.6</ele>
        <time>2021-10-07T17:51:13Z</time>
      </trkpt>
      <trkpt lat="44.5028" lon="1.41276">
        <ele>181.6</ele>
        <time>2021-10-07T17:51:14Z</time>
      </trkpt>
      <trkpt lat="44.50281" lon="1.41277">
        <ele>181.6</ele>
        <time>2021-10-07T17:51:15Z</time>
      </trkpt>
      <trkpt lat="44.50283" lon="1.41277">
        <ele>182.2</ele>
        <time>2021-10-07T17:51:17Z</time>
      </trkpt>
      <trkpt lat="44.50285" lon="1.41279">
        <ele>182.4</ele>
        <time>2021-10-07T17:51:18Z</time>
      </trkpt>
      <trkpt lat="44.50286" lon="1.4128">
        <ele>182.4</ele>
        <time>2021-10-07T17:51:19Z</time>
      </trkpt>
      <trkpt lat="44.50289" lon="1.41281">
        <ele>182.9</ele>
        <time>2021-10-07T17:51:20Z</time>
      </trkpt>
      <trkpt lat="44.50292" lon="1.41282">
        <ele>182.9</ele>
        <time>2021-10-07T17:51:22Z</time>
      </trkpt>
      <trkpt lat="44.50294" lon="1.41283">
        <ele>183.4</ele>
        <time>2021-10-07T17:51:23Z</time>
      </trkpt>
      <trkpt lat="44.50297" lon="1.41284">
        <ele>183.9</ele>
        <time>2021-10-07T17:51:25Z</time>
      </trkpt>
      <trkpt lat="44.50301" lon="1.41285">
        <ele>184.3</ele>
        <time>2021-10-07T17:51:26Z</time>
      </trkpt>
      <trkpt lat="44.50305" lon="1.41287">
        <ele>184.1</ele>
        <time>2021-10-07T17:51:27Z</time>
      </trkpt>
      <trkpt lat="44.50306" lon="1.41288">
        <ele>184.6</ele>
        <time>2021-10-07T17:51:28Z</time>
      </trkpt>
      <trkpt lat="44.5031" lon="1.41289">
        <ele>184.9</ele>
        <time>2021-10-07T17:51:30Z</time>
      </trkpt>
      <trkpt lat="44.50311" lon="1.41289">
        <ele>184.9</ele>
        <time>2021-10-07T17:51:31Z</time>
      </trkpt>
      <trkpt lat="44.50314" lon="1.41291">
        <ele>184.6</ele>
        <time>2021-10-07T17:51:32Z</time>
      </trkpt>
      <trkpt lat="44.50314" lon="1.41292">
        <ele>184.6</ele>
        <time>2021-10-07T17:51:33Z</time>
      </trkpt>
      <trkpt lat="44.50318" lon="1.41293">
        <ele>185.3</ele>
        <time>2021-10-07T17:51:35Z</time>
      </trkpt>
      <trkpt lat="44.50322" lon="1.41294">
        <ele>185.5</ele>
        <time>2021-10-07T17:51:37Z</time>
      </trkpt>
      <trkpt lat="44.50326" lon="1.41294">
        <ele>185.7</ele>
        <time>2021-10-07T17:51:38Z</time>
      </trkpt>
      <trkpt lat="44.50329" lon="1.41294">
        <ele>185.9</ele>
        <time>2021-10-07T17:51:39Z</time>
      </trkpt>
      <trkpt lat="44.50332" lon="1.41294">
        <ele>186</ele>
        <time>2021-10-07T17:51:41Z</time>
      </trkpt>
      <trkpt lat="44.50336" lon="1.41295">
        <ele>185.7</ele>
        <time>2021-10-07T17:51:43Z</time>
      </trkpt>
      <trkpt lat="44.50339" lon="1.41295">
        <ele>185.8</ele>
        <time>2021-10-07T17:51:44Z</time>
      </trkpt>
      <trkpt lat="44.50343" lon="1.41294">
        <ele>186.2</ele>
        <time>2021-10-07T17:51:45Z</time>
      </trkpt>
      <trkpt lat="44.50345" lon="1.41294">
        <ele>186.2</ele>
        <time>2021-10-07T17:51:46Z</time>
      </trkpt>
      <trkpt lat="44.5035" lon="1.41296">
        <ele>185.6</ele>
        <time>2021-10-07T17:51:48Z</time>
      </trkpt>
      <trkpt lat="44.50352" lon="1.41296">
        <ele>185.5</ele>
        <time>2021-10-07T17:51:49Z</time>
      </trkpt>
      <trkpt lat="44.50355" lon="1.41296">
        <ele>185.4</ele>
        <time>2021-10-07T17:51:51Z</time>
      </trkpt>
      <trkpt lat="44.50358" lon="1.41296">
        <ele>185.4</ele>
        <time>2021-10-07T17:51:52Z</time>
      </trkpt>
      <trkpt lat="44.50361" lon="1.41297">
        <ele>185</ele>
        <time>2021-10-07T17:51:54Z</time>
      </trkpt>
      <trkpt lat="44.50363" lon="1.41297">
        <ele>185</ele>
        <time>2021-10-07T17:51:55Z</time>
      </trkpt>
      <trkpt lat="44.50367" lon="1.41297">
        <ele>184.6</ele>
        <time>2021-10-07T17:51:57Z</time>
      </trkpt>
      <trkpt lat="44.5037" lon="1.41297">
        <ele>184.6</ele>
        <time>2021-10-07T17:51:58Z</time>
      </trkpt>
      <trkpt lat="44.50374" lon="1.41296">
        <ele>184.1</ele>
        <time>2021-10-07T17:52:00Z</time>
      </trkpt>
      <trkpt lat="44.50377" lon="1.41296">
        <ele>183.7</ele>
        <time>2021-10-07T17:52:01Z</time>
      </trkpt>
      <trkpt lat="44.50379" lon="1.41296">
        <ele>183.7</ele>
        <time>2021-10-07T17:52:02Z</time>
      </trkpt>
      <trkpt lat="44.50383" lon="1.41296">
        <ele>183.1</ele>
        <time>2021-10-07T17:52:04Z</time>
      </trkpt>
      <trkpt lat="44.50385" lon="1.41295">
        <ele>182.7</ele>
        <time>2021-10-07T17:52:05Z</time>
      </trkpt>
      <trkpt lat="44.50389" lon="1.41295">
        <ele>182.3</ele>
        <time>2021-10-07T17:52:07Z</time>
      </trkpt>
      <trkpt lat="44.50391" lon="1.41295">
        <ele>181.9</ele>
        <time>2021-10-07T17:52:08Z</time>
      </trkpt>
      <trkpt lat="44.50395" lon="1.41296">
        <ele>181.4</ele>
        <time>2021-10-07T17:52:10Z</time>
      </trkpt>
      <trkpt lat="44.50398" lon="1.41296">
        <ele>181</ele>
        <time>2021-10-07T17:52:11Z</time>
      </trkpt>
      <trkpt lat="44.50401" lon="1.41296">
        <ele>180.5</ele>
        <time>2021-10-07T17:52:12Z</time>
      </trkpt>
      <trkpt lat="44.50403" lon="1.41296">
        <ele>180.5</ele>
        <time>2021-10-07T17:52:13Z</time>
      </trkpt>
      <trkpt lat="44.50406" lon="1.41296">
        <ele>180</ele>
        <time>2021-10-07T17:52:15Z</time>
      </trkpt>
      <trkpt lat="44.50408" lon="1.41297">
        <ele>179.4</ele>
        <time>2021-10-07T17:52:16Z</time>
      </trkpt>
      <trkpt lat="44.50412" lon="1.41298">
        <ele>178.9</ele>
        <time>2021-10-07T17:52:17Z</time>
      </trkpt>
      <trkpt lat="44.50412" lon="1.41298">
        <ele>178.9</ele>
        <time>2021-10-07T17:52:18Z</time>
      </trkpt>
      <trkpt lat="44.50414" lon="1.41299">
        <ele>178.3</ele>
        <time>2021-10-07T17:52:19Z</time>
      </trkpt>
      <trkpt lat="44.50416" lon="1.41299">
        <ele>177.3</ele>
        <time>2021-10-07T17:52:21Z</time>
      </trkpt>
      <trkpt lat="44.5042" lon="1.413">
        <ele>176.7</ele>
        <time>2021-10-07T17:52:22Z</time>
      </trkpt>
      <trkpt lat="44.50421" lon="1.413">
        <ele>176.7</ele>
        <time>2021-10-07T17:52:23Z</time>
      </trkpt>
      <trkpt lat="44.50423" lon="1.413">
        <ele>176.2</ele>
        <time>2021-10-07T17:52:24Z</time>
      </trkpt>
      <trkpt lat="44.50426" lon="1.41299">
        <ele>175.7</ele>
        <time>2021-10-07T17:52:26Z</time>
      </trkpt>
      <trkpt lat="44.50428" lon="1.41298">
        <ele>176.1</ele>
        <time>2021-10-07T17:52:27Z</time>
      </trkpt>
      <trkpt lat="44.50431" lon="1.41297">
        <ele>175.7</ele>
        <time>2021-10-07T17:52:29Z</time>
      </trkpt>
      <trkpt lat="44.50434" lon="1.41295">
        <ele>175.3</ele>
        <time>2021-10-07T17:52:30Z</time>
      </trkpt>
      <trkpt lat="44.50436" lon="1.41294">
        <ele>175.3</ele>
        <time>2021-10-07T17:52:31Z</time>
      </trkpt>
      <trkpt lat="44.50437" lon="1.41294">
        <ele>175</ele>
        <time>2021-10-07T17:52:32Z</time>
      </trkpt>
      <trkpt lat="44.5044" lon="1.41291">
        <ele>175</ele>
        <time>2021-10-07T17:52:34Z</time>
      </trkpt>
      <trkpt lat="44.50443" lon="1.41289">
        <ele>175.3</ele>
        <time>2021-10-07T17:52:35Z</time>
      </trkpt>
      <trkpt lat="44.50446" lon="1.41287">
        <ele>175</ele>
        <time>2021-10-07T17:52:36Z</time>
      </trkpt>
      <trkpt lat="44.50448" lon="1.41285">
        <ele>175.4</ele>
        <time>2021-10-07T17:52:38Z</time>
      </trkpt>
      <trkpt lat="44.50452" lon="1.41281">
        <ele>175.9</ele>
        <time>2021-10-07T17:52:39Z</time>
      </trkpt>
      <trkpt lat="44.50454" lon="1.4128">
        <ele>175.6</ele>
        <time>2021-10-07T17:52:40Z</time>
      </trkpt>
      <trkpt lat="44.50457" lon="1.41278">
        <ele>175.4</ele>
        <time>2021-10-07T17:52:42Z</time>
      </trkpt>
      <trkpt lat="44.50459" lon="1.41277">
        <ele>175.9</ele>
        <time>2021-10-07T17:52:43Z</time>
      </trkpt>
      <trkpt lat="44.5046" lon="1.41275">
        <ele>175.9</ele>
        <time>2021-10-07T17:52:44Z</time>
      </trkpt>
      <trkpt lat="44.50462" lon="1.41274">
        <ele>175.9</ele>
        <time>2021-10-07T17:52:45Z</time>
      </trkpt>
      <trkpt lat="44.50463" lon="1.41273">
        <ele>175.7</ele>
        <time>2021-10-07T17:52:47Z</time>
      </trkpt>
      <trkpt lat="44.50464" lon="1.41271">
        <ele>176.4</ele>
        <time>2021-10-07T17:52:48Z</time>
      </trkpt>
      <trkpt lat="44.50466" lon="1.41269">
        <ele>176.1</ele>
        <time>2021-10-07T17:52:50Z</time>
      </trkpt>
      <trkpt lat="44.50467" lon="1.41268">
        <ele>176.8</ele>
        <time>2021-10-07T17:52:51Z</time>
      </trkpt>
      <trkpt lat="44.50469" lon="1.41266">
        <ele>176.5</ele>
        <time>2021-10-07T17:52:53Z</time>
      </trkpt>
      <trkpt lat="44.5047" lon="1.41265">
        <ele>176.5</ele>
        <time>2021-10-07T17:52:54Z</time>
      </trkpt>
      <trkpt lat="44.50472" lon="1.41263">
        <ele>176.8</ele>
        <time>2021-10-07T17:52:56Z</time>
      </trkpt>
      <trkpt lat="44.50475" lon="1.4126">
        <ele>177.1</ele>
        <time>2021-10-07T17:52:57Z</time>
      </trkpt>
      <trkpt lat="44.50476" lon="1.41259">
        <ele>177.1</ele>
        <time>2021-10-07T17:52:58Z</time>
      </trkpt>
      <trkpt lat="44.50479" lon="1.41257">
        <ele>176.8</ele>
        <time>2021-10-07T17:52:59Z</time>
      </trkpt>
      <trkpt lat="44.5048" lon="1.41256">
        <ele>176.8</ele>
        <time>2021-10-07T17:53:00Z</time>
      </trkpt>
      <trkpt lat="44.50483" lon="1.41254">
        <ele>176.7</ele>
        <time>2021-10-07T17:53:02Z</time>
      </trkpt>
      <trkpt lat="44.50486" lon="1.4125">
        <ele>177.3</ele>
        <time>2021-10-07T17:53:03Z</time>
      </trkpt>
      <trkpt lat="44.50486" lon="1.41249">
        <ele>177.3</ele>
        <time>2021-10-07T17:53:04Z</time>
      </trkpt>
      <trkpt lat="44.50488" lon="1.41246">
        <ele>177.5</ele>
        <time>2021-10-07T17:53:06Z</time>
      </trkpt>
      <trkpt lat="44.50489" lon="1.41246">
        <ele>177.5</ele>
        <time>2021-10-07T17:53:07Z</time>
      </trkpt>
      <trkpt lat="44.50493" lon="1.41243">
        <ele>177.2</ele>
        <time>2021-10-07T17:53:09Z</time>
      </trkpt>
      <trkpt lat="44.50495" lon="1.41242">
        <ele>177.2</ele>
        <time>2021-10-07T17:53:11Z</time>
      </trkpt>
      <trkpt lat="44.50496" lon="1.41241">
        <ele>176.8</ele>
        <time>2021-10-07T17:53:13Z</time>
      </trkpt>
      <trkpt lat="44.50498" lon="1.4124">
        <ele>176.8</ele>
        <time>2021-10-07T17:53:14Z</time>
      </trkpt>
      <trkpt lat="44.505" lon="1.41238">
        <ele>177</ele>
        <time>2021-10-07T17:53:15Z</time>
      </trkpt>
      <trkpt lat="44.50503" lon="1.41236">
        <ele>176.6</ele>
        <time>2021-10-07T17:53:17Z</time>
      </trkpt>
      <trkpt lat="44.50505" lon="1.41235">
        <ele>176.3</ele>
        <time>2021-10-07T17:53:18Z</time>
      </trkpt>
      <trkpt lat="44.50507" lon="1.41232">
        <ele>177</ele>
        <time>2021-10-07T17:53:20Z</time>
      </trkpt>
      <trkpt lat="44.50509" lon="1.41229">
        <ele>177.4</ele>
        <time>2021-10-07T17:53:21Z</time>
      </trkpt>
      <trkpt lat="44.5051" lon="1.41228">
        <ele>177.4</ele>
        <time>2021-10-07T17:53:22Z</time>
      </trkpt>
      <trkpt lat="44.50512" lon="1.41225">
        <ele>177.7</ele>
        <time>2021-10-07T17:53:24Z</time>
      </trkpt>
      <trkpt lat="44.50513" lon="1.41222">
        <ele>177.7</ele>
        <time>2021-10-07T17:53:25Z</time>
      </trkpt>
      <trkpt lat="44.50514" lon="1.4122">
        <ele>178</ele>
        <time>2021-10-07T17:53:27Z</time>
      </trkpt>
      <trkpt lat="44.50516" lon="1.41217">
        <ele>178.7</ele>
        <time>2021-10-07T17:53:28Z</time>
      </trkpt>
      <trkpt lat="44.50518" lon="1.41215">
        <ele>178.3</ele>
        <time>2021-10-07T17:53:29Z</time>
      </trkpt>
      <trkpt lat="44.5052" lon="1.41213">
        <ele>178.9</ele>
        <time>2021-10-07T17:53:31Z</time>
      </trkpt>
      <trkpt lat="44.50523" lon="1.4121">
        <ele>178.4</ele>
        <time>2021-10-07T17:53:33Z</time>
      </trkpt>
      <trkpt lat="44.50524" lon="1.41208">
        <ele>178.6</ele>
        <time>2021-10-07T17:53:34Z</time>
      </trkpt>
      <trkpt lat="44.50525" lon="1.41207">
        <ele>178.6</ele>
        <time>2021-10-07T17:53:35Z</time>
      </trkpt>
      <trkpt lat="44.50527" lon="1.41206">
        <ele>178</ele>
        <time>2021-10-07T17:53:36Z</time>
      </trkpt>
      <trkpt lat="44.50527" lon="1.41205">
        <ele>178</ele>
        <time>2021-10-07T17:53:37Z</time>
      </trkpt>
      <trkpt lat="44.50529" lon="1.41203">
        <ele>178.7</ele>
        <time>2021-10-07T17:53:39Z</time>
      </trkpt>
      <trkpt lat="44.5053" lon="1.41201">
        <ele>178.2</ele>
        <time>2021-10-07T17:53:40Z</time>
      </trkpt>
      <trkpt lat="44.50531" lon="1.412">
        <ele>178.9</ele>
        <time>2021-10-07T17:53:41Z</time>
      </trkpt>
      <trkpt lat="44.50534" lon="1.41197">
        <ele>178.4</ele>
        <time>2021-10-07T17:53:42Z</time>
      </trkpt>
      <trkpt lat="44.50534" lon="1.41197">
        <ele>178.4</ele>
        <time>2021-10-07T17:53:43Z</time>
      </trkpt>
      <trkpt lat="44.50537" lon="1.41194">
        <ele>178.7</ele>
        <time>2021-10-07T17:53:45Z</time>
      </trkpt>
      <trkpt lat="44.50538" lon="1.41193">
        <ele>178.7</ele>
        <time>2021-10-07T17:53:46Z</time>
      </trkpt>
      <trkpt lat="44.50541" lon="1.4119">
        <ele>178.8</ele>
        <time>2021-10-07T17:53:48Z</time>
      </trkpt>
      <trkpt lat="44.50544" lon="1.41188">
        <ele>178.8</ele>
        <time>2021-10-07T17:53:49Z</time>
      </trkpt>
      <trkpt lat="44.50546" lon="1.41185">
        <ele>179.3</ele>
        <time>2021-10-07T17:53:51Z</time>
      </trkpt>
      <trkpt lat="44.50547" lon="1.41184">
        <ele>179.3</ele>
        <time>2021-10-07T17:53:52Z</time>
      </trkpt>
      <trkpt lat="44.50548" lon="1.41183">
        <ele>179</ele>
        <time>2021-10-07T17:53:53Z</time>
      </trkpt>
      <trkpt lat="44.5055" lon="1.41182">
        <ele>179.9</ele>
        <time>2021-10-07T17:53:54Z</time>
      </trkpt>
      <trkpt lat="44.50552" lon="1.4118">
        <ele>179.6</ele>
        <time>2021-10-07T17:53:56Z</time>
      </trkpt>
      <trkpt lat="44.50554" lon="1.41179">
        <ele>179.4</ele>
        <time>2021-10-07T17:53:58Z</time>
      </trkpt>
      <trkpt lat="44.50555" lon="1.41178">
        <ele>180.3</ele>
        <time>2021-10-07T17:53:59Z</time>
      </trkpt>
      <trkpt lat="44.50556" lon="1.41176">
        <ele>180.3</ele>
        <time>2021-10-07T17:54:01Z</time>
      </trkpt>
      <trkpt lat="44.50556" lon="1.41176">
        <ele>180.3</ele>
        <time>2021-10-07T17:54:03Z</time>
      </trkpt>
      <trkpt lat="44.50556" lon="1.41176">
        <ele>180.3</ele>
        <time>2021-10-07T17:54:04Z</time>
      </trkpt>
      <trkpt lat="44.50557" lon="1.41177">
        <ele>180.3</ele>
        <time>2021-10-07T17:54:05Z</time>
      </trkpt>
      <trkpt lat="44.50557" lon="1.41177">
        <ele>180.1</ele>
        <time>2021-10-07T17:54:06Z</time>
      </trkpt>
      <trkpt lat="44.50557" lon="1.41178">
        <ele>180.1</ele>
        <time>2021-10-07T17:54:08Z</time>
      </trkpt>
      <trkpt lat="44.50557" lon="1.41178">
        <ele>180.1</ele>
        <time>2021-10-07T17:54:09Z</time>
      </trkpt>
      <trkpt lat="44.50557" lon="1.41178">
        <ele>180.1</ele>
        <time>2021-10-07T17:54:11Z</time>
      </trkpt>
      <trkpt lat="44.50557" lon="1.41178">
        <ele>180.1</ele>
        <time>2021-10-07T17:54:12Z</time>
      </trkpt>
      <trkpt lat="44.50558" lon="1.41178">
        <ele>180.1</ele>
        <time>2021-10-07T17:54:14Z</time>
      </trkpt>
      <trkpt lat="44.50559" lon="1.41173">
        <ele>180.9</ele>
        <time>2021-10-07T17:54:39Z</time>
      </trkpt>
      <trkpt lat="44.50559" lon="1.41172">
        <ele>180.9</ele>
        <time>2021-10-07T17:54:40Z</time>
      </trkpt>
      <trkpt lat="44.50561" lon="1.41171">
        <ele>180.7</ele>
        <time>2021-10-07T17:54:41Z</time>
      </trkpt>
      <trkpt lat="44.50562" lon="1.41169">
        <ele>181.6</ele>
        <time>2021-10-07T17:54:42Z</time>
      </trkpt>
      <trkpt lat="44.50564" lon="1.41167">
        <ele>181.4</ele>
        <time>2021-10-07T17:54:44Z</time>
      </trkpt>
      <trkpt lat="44.50565" lon="1.41166">
        <ele>181.4</ele>
        <time>2021-10-07T17:54:45Z</time>
      </trkpt>
      <trkpt lat="44.50567" lon="1.41165">
        <ele>182.2</ele>
        <time>2021-10-07T17:54:46Z</time>
      </trkpt>
      <trkpt lat="44.5057" lon="1.41164">
        <ele>182.1</ele>
        <time>2021-10-07T17:54:47Z</time>
      </trkpt>
      <trkpt lat="44.50571" lon="1.41164">
        <ele>182.1</ele>
        <time>2021-10-07T17:54:48Z</time>
      </trkpt>
      <trkpt lat="44.50575" lon="1.41163">
        <ele>182.1</ele>
        <time>2021-10-07T17:54:50Z</time>
      </trkpt>
      <trkpt lat="44.50575" lon="1.41163">
        <ele>182.1</ele>
        <time>2021-10-07T17:54:51Z</time>
      </trkpt>
      <trkpt lat="44.50576" lon="1.41162">
        <ele>182.1</ele>
        <time>2021-10-07T17:54:52Z</time>
      </trkpt>
      <trkpt lat="44.50579" lon="1.4116">
        <ele>182.9</ele>
        <time>2021-10-07T17:54:54Z</time>
      </trkpt>
      <trkpt lat="44.5058" lon="1.41159">
        <ele>182.9</ele>
        <time>2021-10-07T17:54:55Z</time>
      </trkpt>
      <trkpt lat="44.50583" lon="1.41157">
        <ele>183</ele>
        <time>2021-10-07T17:54:57Z</time>
      </trkpt>
      <trkpt lat="44.50585" lon="1.41155">
        <ele>183.9</ele>
        <time>2021-10-07T17:54:59Z</time>
      </trkpt>
      <trkpt lat="44.50586" lon="1.41154">
        <ele>183.9</ele>
        <time>2021-10-07T17:55:00Z</time>
      </trkpt>
      <trkpt lat="44.50588" lon="1.41152">
        <ele>184.8</ele>
        <time>2021-10-07T17:55:01Z</time>
      </trkpt>
      <trkpt lat="44.50589" lon="1.41151">
        <ele>184.8</ele>
        <time>2021-10-07T17:55:02Z</time>
      </trkpt>
      <trkpt lat="44.5059" lon="1.41149">
        <ele>184.9</ele>
        <time>2021-10-07T17:55:03Z</time>
      </trkpt>
      <trkpt lat="44.50593" lon="1.41145">
        <ele>185.8</ele>
        <time>2021-10-07T17:55:05Z</time>
      </trkpt>
      <trkpt lat="44.50594" lon="1.41144">
        <ele>186.7</ele>
        <time>2021-10-07T17:55:06Z</time>
      </trkpt>
      <trkpt lat="44.50595" lon="1.41143">
        <ele>186.7</ele>
        <time>2021-10-07T17:55:07Z</time>
      </trkpt>
      <trkpt lat="44.50597" lon="1.4114">
        <ele>186.8</ele>
        <time>2021-10-07T17:55:08Z</time>
      </trkpt>
      <trkpt lat="44.50598" lon="1.41139">
        <ele>187.6</ele>
        <time>2021-10-07T17:55:10Z</time>
      </trkpt>
      <trkpt lat="44.50601" lon="1.41137">
        <ele>187.7</ele>
        <time>2021-10-07T17:55:11Z</time>
      </trkpt>
      <trkpt lat="44.50601" lon="1.41137">
        <ele>187.7</ele>
        <time>2021-10-07T17:55:12Z</time>
      </trkpt>
      <trkpt lat="44.50603" lon="1.41135">
        <ele>188.6</ele>
        <time>2021-10-07T17:55:13Z</time>
      </trkpt>
      <trkpt lat="44.50605" lon="1.41133">
        <ele>188.6</ele>
        <time>2021-10-07T17:55:15Z</time>
      </trkpt>
      <trkpt lat="44.50607" lon="1.41131">
        <ele>189.5</ele>
        <time>2021-10-07T17:55:16Z</time>
      </trkpt>
      <trkpt lat="44.5061" lon="1.41127">
        <ele>189.6</ele>
        <time>2021-10-07T17:55:18Z</time>
      </trkpt>
      <trkpt lat="44.50614" lon="1.41123">
        <ele>190.5</ele>
        <time>2021-10-07T17:55:20Z</time>
      </trkpt>
      <trkpt lat="44.50616" lon="1.41121">
        <ele>191.3</ele>
        <time>2021-10-07T17:55:21Z</time>
      </trkpt>
      <trkpt lat="44.5062" lon="1.41117">
        <ele>192</ele>
        <time>2021-10-07T17:55:23Z</time>
      </trkpt>
      <trkpt lat="44.50621" lon="1.41116">
        <ele>192.2</ele>
        <time>2021-10-07T17:55:24Z</time>
      </trkpt>
      <trkpt lat="44.50623" lon="1.41115">
        <ele>192.2</ele>
        <time>2021-10-07T17:55:25Z</time>
      </trkpt>
      <trkpt lat="44.50625" lon="1.41112">
        <ele>192.8</ele>
        <time>2021-10-07T17:55:26Z</time>
      </trkpt>
      <trkpt lat="44.50629" lon="1.41108">
        <ele>193.4</ele>
        <time>2021-10-07T17:55:28Z</time>
      </trkpt>
      <trkpt lat="44.5063" lon="1.41106">
        <ele>193.4</ele>
        <time>2021-10-07T17:55:29Z</time>
      </trkpt>
      <trkpt lat="44.50632" lon="1.41104">
        <ele>193.9</ele>
        <time>2021-10-07T17:55:30Z</time>
      </trkpt>
      <trkpt lat="44.50635" lon="1.411">
        <ele>194.4</ele>
        <time>2021-10-07T17:55:32Z</time>
      </trkpt>
      <trkpt lat="44.50636" lon="1.41096">
        <ele>194.6</ele>
        <time>2021-10-07T17:55:34Z</time>
      </trkpt>
      <trkpt lat="44.50637" lon="1.41092">
        <ele>195</ele>
        <time>2021-10-07T17:55:35Z</time>
      </trkpt>
      <trkpt lat="44.5064" lon="1.41089">
        <ele>195.2</ele>
        <time>2021-10-07T17:55:36Z</time>
      </trkpt>
      <trkpt lat="44.50641" lon="1.41087">
        <ele>195.3</ele>
        <time>2021-10-07T17:55:37Z</time>
      </trkpt>
      <trkpt lat="44.50643" lon="1.41084">
        <ele>195.5</ele>
        <time>2021-10-07T17:55:39Z</time>
      </trkpt>
      <trkpt lat="44.50646" lon="1.41081">
        <ele>195.7</ele>
        <time>2021-10-07T17:55:40Z</time>
      </trkpt>
      <trkpt lat="44.50649" lon="1.41077">
        <ele>195.8</ele>
        <time>2021-10-07T17:55:42Z</time>
      </trkpt>
      <trkpt lat="44.50651" lon="1.41075">
        <ele>195.6</ele>
        <time>2021-10-07T17:55:43Z</time>
      </trkpt>
      <trkpt lat="44.50652" lon="1.41074">
        <ele>195.8</ele>
        <time>2021-10-07T17:55:44Z</time>
      </trkpt>
      <trkpt lat="44.50654" lon="1.4107">
        <ele>195.5</ele>
        <time>2021-10-07T17:55:46Z</time>
      </trkpt>
      <trkpt lat="44.50654" lon="1.41068">
        <ele>195.5</ele>
        <time>2021-10-07T17:55:47Z</time>
      </trkpt>
      <trkpt lat="44.50656" lon="1.41064">
        <ele>195.5</ele>
        <time>2021-10-07T17:55:49Z</time>
      </trkpt>
      <trkpt lat="44.50658" lon="1.41058">
        <ele>195.2</ele>
        <time>2021-10-07T17:55:50Z</time>
      </trkpt>
      <trkpt lat="44.50659" lon="1.41056">
        <ele>195.2</ele>
        <time>2021-10-07T17:55:51Z</time>
      </trkpt>
      <trkpt lat="44.5066" lon="1.41051">
        <ele>194.9</ele>
        <time>2021-10-07T17:55:53Z</time>
      </trkpt>
      <trkpt lat="44.50661" lon="1.41047">
        <ele>194.9</ele>
        <time>2021-10-07T17:55:54Z</time>
      </trkpt>
      <trkpt lat="44.50662" lon="1.41042">
        <ele>194.7</ele>
        <time>2021-10-07T17:55:55Z</time>
      </trkpt>
      <trkpt lat="44.50665" lon="1.41036">
        <ele>194.7</ele>
        <time>2021-10-07T17:55:57Z</time>
      </trkpt>
      <trkpt lat="44.50666" lon="1.41031">
        <ele>194.6</ele>
        <time>2021-10-07T17:55:58Z</time>
      </trkpt>
      <trkpt lat="44.50666" lon="1.41027">
        <ele>194.6</ele>
        <time>2021-10-07T17:56:00Z</time>
      </trkpt>
      <trkpt lat="44.50666" lon="1.41025">
        <ele>194.6</ele>
        <time>2021-10-07T17:56:01Z</time>
      </trkpt>
      <trkpt lat="44.50666" lon="1.41021">
        <ele>194.7</ele>
        <time>2021-10-07T17:56:02Z</time>
      </trkpt>
      <trkpt lat="44.50665" lon="1.41019">
        <ele>194.8</ele>
        <time>2021-10-07T17:56:03Z</time>
      </trkpt>
      <trkpt lat="44.50666" lon="1.41017">
        <ele>194.8</ele>
        <time>2021-10-07T17:56:04Z</time>
      </trkpt>
      <trkpt lat="44.50666" lon="1.41015">
        <ele>194.9</ele>
        <time>2021-10-07T17:56:05Z</time>
      </trkpt>
      <trkpt lat="44.50666" lon="1.41013">
        <ele>194.9</ele>
        <time>2021-10-07T17:56:06Z</time>
      </trkpt>
      <trkpt lat="44.50667" lon="1.4101">
        <ele>195.2</ele>
        <time>2021-10-07T17:56:08Z</time>
      </trkpt>
      <trkpt lat="44.50667" lon="1.41006">
        <ele>195.7</ele>
        <time>2021-10-07T17:56:09Z</time>
      </trkpt>
      <trkpt lat="44.50667" lon="1.41004">
        <ele>195.7</ele>
        <time>2021-10-07T17:56:10Z</time>
      </trkpt>
      <trkpt lat="44.50667" lon="1.41">
        <ele>196</ele>
        <time>2021-10-07T17:56:11Z</time>
      </trkpt>
      <trkpt lat="44.50667" lon="1.40999">
        <ele>196</ele>
        <time>2021-10-07T17:56:12Z</time>
      </trkpt>
      <trkpt lat="44.50667" lon="1.40994">
        <ele>196.3</ele>
        <time>2021-10-07T17:56:14Z</time>
      </trkpt>
      <trkpt lat="44.50667" lon="1.40993">
        <ele>196.7</ele>
        <time>2021-10-07T17:56:15Z</time>
      </trkpt>
      <trkpt lat="44.50668" lon="1.40989">
        <ele>197</ele>
        <time>2021-10-07T17:56:16Z</time>
      </trkpt>
      <trkpt lat="44.50669" lon="1.40988">
        <ele>197</ele>
        <time>2021-10-07T17:56:17Z</time>
      </trkpt>
      <trkpt lat="44.50669" lon="1.40985">
        <ele>197.4</ele>
        <time>2021-10-07T17:56:18Z</time>
      </trkpt>
      <trkpt lat="44.5067" lon="1.40982">
        <ele>197.7</ele>
        <time>2021-10-07T17:56:20Z</time>
      </trkpt>
      <trkpt lat="44.50671" lon="1.40978">
        <ele>198.1</ele>
        <time>2021-10-07T17:56:21Z</time>
      </trkpt>
      <trkpt lat="44.50671" lon="1.40977">
        <ele>198.1</ele>
        <time>2021-10-07T17:56:22Z</time>
      </trkpt>
      <trkpt lat="44.50672" lon="1.40975">
        <ele>198.6</ele>
        <time>2021-10-07T17:56:23Z</time>
      </trkpt>
      <trkpt lat="44.50673" lon="1.40973">
        <ele>198.9</ele>
        <time>2021-10-07T17:56:24Z</time>
      </trkpt>
      <trkpt lat="44.50674" lon="1.40972">
        <ele>199.5</ele>
        <time>2021-10-07T17:56:25Z</time>
      </trkpt>
      <trkpt lat="44.50675" lon="1.4097">
        <ele>199.5</ele>
        <time>2021-10-07T17:56:27Z</time>
      </trkpt>
      <trkpt lat="44.50676" lon="1.40967">
        <ele>200</ele>
        <time>2021-10-07T17:56:28Z</time>
      </trkpt>
      <trkpt lat="44.50676" lon="1.40966">
        <ele>200.4</ele>
        <time>2021-10-07T17:56:29Z</time>
      </trkpt>
      <trkpt lat="44.50676" lon="1.40962">
        <ele>201.1</ele>
        <time>2021-10-07T17:56:31Z</time>
      </trkpt>
      <trkpt lat="44.50676" lon="1.40959">
        <ele>201.7</ele>
        <time>2021-10-07T17:56:33Z</time>
      </trkpt>
      <trkpt lat="44.50675" lon="1.40957">
        <ele>201.3</ele>
        <time>2021-10-07T17:56:34Z</time>
      </trkpt>
      <trkpt lat="44.50674" lon="1.40956">
        <ele>201.3</ele>
        <time>2021-10-07T17:56:35Z</time>
      </trkpt>
      <trkpt lat="44.50673" lon="1.40956">
        <ele>201.3</ele>
        <time>2021-10-07T17:56:36Z</time>
      </trkpt>
      <trkpt lat="44.50672" lon="1.40956">
        <ele>201</ele>
        <time>2021-10-07T17:56:37Z</time>
      </trkpt>
      <trkpt lat="44.50671" lon="1.40956">
        <ele>201</ele>
        <time>2021-10-07T17:56:39Z</time>
      </trkpt>
      <trkpt lat="44.50669" lon="1.40956">
        <ele>200.7</ele>
        <time>2021-10-07T17:56:40Z</time>
      </trkpt>
      <trkpt lat="44.50668" lon="1.40955">
        <ele>201.5</ele>
        <time>2021-10-07T17:56:41Z</time>
      </trkpt>
      <trkpt lat="44.50666" lon="1.40957">
        <ele>200.6</ele>
        <time>2021-10-07T17:56:43Z</time>
      </trkpt>
      <trkpt lat="44.50665" lon="1.40957">
        <ele>200.6</ele>
        <time>2021-10-07T17:56:45Z</time>
      </trkpt>
      <trkpt lat="44.50664" lon="1.40957">
        <ele>200.6</ele>
        <time>2021-10-07T17:56:46Z</time>
      </trkpt>
      <trkpt lat="44.50662" lon="1.40958">
        <ele>200.5</ele>
        <time>2021-10-07T17:56:47Z</time>
      </trkpt>
      <trkpt lat="44.50661" lon="1.40958">
        <ele>200.5</ele>
        <time>2021-10-07T17:56:48Z</time>
      </trkpt>
      <trkpt lat="44.5066" lon="1.40958">
        <ele>200.5</ele>
        <time>2021-10-07T17:56:49Z</time>
      </trkpt>
      <trkpt lat="44.50658" lon="1.40958">
        <ele>200.5</ele>
        <time>2021-10-07T17:56:50Z</time>
      </trkpt>
      <trkpt lat="44.50657" lon="1.40958">
        <ele>200.5</ele>
        <time>2021-10-07T17:56:51Z</time>
      </trkpt>
      <trkpt lat="44.50655" lon="1.40957">
        <ele>200.5</ele>
        <time>2021-10-07T17:56:53Z</time>
      </trkpt>
      <trkpt lat="44.50654" lon="1.40957">
        <ele>200.7</ele>
        <time>2021-10-07T17:56:54Z</time>
      </trkpt>
      <trkpt lat="44.50652" lon="1.40958">
        <ele>200.7</ele>
        <time>2021-10-07T17:56:55Z</time>
      </trkpt>
      <trkpt lat="44.50651" lon="1.40958">
        <ele>201</ele>
        <time>2021-10-07T17:56:57Z</time>
      </trkpt>
      <trkpt lat="44.50649" lon="1.40958">
        <ele>201</ele>
        <time>2021-10-07T17:56:59Z</time>
      </trkpt>
      <trkpt lat="44.50648" lon="1.40959">
        <ele>201.4</ele>
        <time>2021-10-07T17:57:00Z</time>
      </trkpt>
      <trkpt lat="44.50647" lon="1.40959">
        <ele>201.4</ele>
        <time>2021-10-07T17:57:02Z</time>
      </trkpt>
      <trkpt lat="44.50646" lon="1.4096">
        <ele>200.6</ele>
        <time>2021-10-07T17:57:03Z</time>
      </trkpt>
      <trkpt lat="44.50645" lon="1.40961">
        <ele>200.6</ele>
        <time>2021-10-07T17:57:04Z</time>
      </trkpt>
      <trkpt lat="44.50644" lon="1.40962">
        <ele>201.1</ele>
        <time>2021-10-07T17:57:05Z</time>
      </trkpt>
      <trkpt lat="44.50643" lon="1.40964">
        <ele>200.3</ele>
        <time>2021-10-07T17:57:07Z</time>
      </trkpt>
      <trkpt lat="44.50641" lon="1.40967">
        <ele>200.8</ele>
        <time>2021-10-07T17:57:09Z</time>
      </trkpt>
      <trkpt lat="44.5064" lon="1.40969">
        <ele>200.1</ele>
        <time>2021-10-07T17:57:11Z</time>
      </trkpt>
      <trkpt lat="44.5064" lon="1.40971">
        <ele>200.1</ele>
        <time>2021-10-07T17:57:12Z</time>
      </trkpt>
      <trkpt lat="44.5064" lon="1.40973">
        <ele>200.1</ele>
        <time>2021-10-07T17:57:14Z</time>
      </trkpt>
      <trkpt lat="44.5064" lon="1.40973">
        <ele>199.4</ele>
        <time>2021-10-07T17:57:15Z</time>
      </trkpt>
      <trkpt lat="44.50639" lon="1.40974">
        <ele>199.4</ele>
        <time>2021-10-07T17:57:16Z</time>
      </trkpt>
      <trkpt lat="44.50639" lon="1.40975">
        <ele>199.4</ele>
        <time>2021-10-07T17:57:18Z</time>
      </trkpt>
      <trkpt lat="44.50639" lon="1.40976">
        <ele>199.9</ele>
        <time>2021-10-07T17:57:19Z</time>
      </trkpt>
      <trkpt lat="44.50639" lon="1.40976">
        <ele>199.9</ele>
        <time>2021-10-07T17:57:20Z</time>
      </trkpt>
      <trkpt lat="44.50638" lon="1.40977">
        <ele>199.9</ele>
        <time>2021-10-07T17:57:21Z</time>
      </trkpt>
      <trkpt lat="44.50637" lon="1.40979">
        <ele>199.2</ele>
        <time>2021-10-07T17:57:22Z</time>
      </trkpt>
      <trkpt lat="44.50637" lon="1.4098">
        <ele>199.2</ele>
        <time>2021-10-07T17:57:24Z</time>
      </trkpt>
      <trkpt lat="44.50636" lon="1.40982">
        <ele>199.1</ele>
        <time>2021-10-07T17:57:25Z</time>
      </trkpt>
      <trkpt lat="44.50636" lon="1.40985">
        <ele>199.1</ele>
        <time>2021-10-07T17:57:26Z</time>
      </trkpt>
      <trkpt lat="44.50635" lon="1.40987">
        <ele>198.4</ele>
        <time>2021-10-07T17:57:27Z</time>
      </trkpt>
      <trkpt lat="44.50635" lon="1.40989">
        <ele>198.4</ele>
        <time>2021-10-07T17:57:28Z</time>
      </trkpt>
      <trkpt lat="44.50634" lon="1.40991">
        <ele>197.8</ele>
        <time>2021-10-07T17:57:29Z</time>
      </trkpt>
      <trkpt lat="44.50633" lon="1.40993">
        <ele>198.4</ele>
        <time>2021-10-07T17:57:31Z</time>
      </trkpt>
      <trkpt lat="44.50632" lon="1.40994">
        <ele>198.4</ele>
        <time>2021-10-07T17:57:32Z</time>
      </trkpt>
      <trkpt lat="44.50631" lon="1.40994">
        <ele>197.7</ele>
        <time>2021-10-07T17:57:33Z</time>
      </trkpt>
      <trkpt lat="44.50631" lon="1.40997">
        <ele>197.7</ele>
        <time>2021-10-07T17:57:35Z</time>
      </trkpt>
      <trkpt lat="44.5063" lon="1.40998">
        <ele>197.7</ele>
        <time>2021-10-07T17:57:37Z</time>
      </trkpt>
      <trkpt lat="44.50629" lon="1.41">
        <ele>197.7</ele>
        <time>2021-10-07T17:57:39Z</time>
      </trkpt>
      <trkpt lat="44.50629" lon="1.41001">
        <ele>197.7</ele>
        <time>2021-10-07T17:57:40Z</time>
      </trkpt>
      <trkpt lat="44.50628" lon="1.41002">
        <ele>197.7</ele>
        <time>2021-10-07T17:57:41Z</time>
      </trkpt>
      <trkpt lat="44.50628" lon="1.41005">
        <ele>197.1</ele>
        <time>2021-10-07T17:57:42Z</time>
      </trkpt>
      <trkpt lat="44.50627" lon="1.41006">
        <ele>197.1</ele>
        <time>2021-10-07T17:57:44Z</time>
      </trkpt>
      <trkpt lat="44.50627" lon="1.41007">
        <ele>197.2</ele>
        <time>2021-10-07T17:57:45Z</time>
      </trkpt>
      <trkpt lat="44.50625" lon="1.41009">
        <ele>197.2</ele>
        <time>2021-10-07T17:57:46Z</time>
      </trkpt>
      <trkpt lat="44.50624" lon="1.4101">
        <ele>197.9</ele>
        <time>2021-10-07T17:57:47Z</time>
      </trkpt>
      <trkpt lat="44.50622" lon="1.41012">
        <ele>197.4</ele>
        <time>2021-10-07T17:57:49Z</time>
      </trkpt>
      <trkpt lat="44.50621" lon="1.41012">
        <ele>197.4</ele>
        <time>2021-10-07T17:57:50Z</time>
      </trkpt>
      <trkpt lat="44.5062" lon="1.41013">
        <ele>198.1</ele>
        <time>2021-10-07T17:57:52Z</time>
      </trkpt>
      <trkpt lat="44.5062" lon="1.41013">
        <ele>198.1</ele>
        <time>2021-10-07T17:57:53Z</time>
      </trkpt>
      <trkpt lat="44.50619" lon="1.41013">
        <ele>198.1</ele>
        <time>2021-10-07T17:57:55Z</time>
      </trkpt>
      <trkpt lat="44.50618" lon="1.41013">
        <ele>198.1</ele>
        <time>2021-10-07T17:57:56Z</time>
      </trkpt>
      <trkpt lat="44.50618" lon="1.41014">
        <ele>198.1</ele>
        <time>2021-10-07T17:57:58Z</time>
      </trkpt>
      <trkpt lat="44.50617" lon="1.41014">
        <ele>198.9</ele>
        <time>2021-10-07T17:57:59Z</time>
      </trkpt>
      <trkpt lat="44.50616" lon="1.41015">
        <ele>198.9</ele>
        <time>2021-10-07T17:58:00Z</time>
      </trkpt>
      <trkpt lat="44.50614" lon="1.41017">
        <ele>199.4</ele>
        <time>2021-10-07T17:58:02Z</time>
      </trkpt>
      <trkpt lat="44.50612" lon="1.41018">
        <ele>199.4</ele>
        <time>2021-10-07T17:58:03Z</time>
      </trkpt>
      <trkpt lat="44.50611" lon="1.41018">
        <ele>200.3</ele>
        <time>2021-10-07T17:58:04Z</time>
      </trkpt>
      <trkpt lat="44.5061" lon="1.41019">
        <ele>200.3</ele>
        <time>2021-10-07T17:58:05Z</time>
      </trkpt>
      <trkpt lat="44.50608" lon="1.4102">
        <ele>200.8</ele>
        <time>2021-10-07T17:58:07Z</time>
      </trkpt>
      <trkpt lat="44.50606" lon="1.41022">
        <ele>200.8</ele>
        <time>2021-10-07T17:58:09Z</time>
      </trkpt>
      <trkpt lat="44.50604" lon="1.41023">
        <ele>201.8</ele>
        <time>2021-10-07T17:58:11Z</time>
      </trkpt>
      <trkpt lat="44.50604" lon="1.41024">
        <ele>201.8</ele>
        <time>2021-10-07T17:58:12Z</time>
      </trkpt>
      <trkpt lat="44.50602" lon="1.41026">
        <ele>202.4</ele>
        <time>2021-10-07T17:58:14Z</time>
      </trkpt>
      <trkpt lat="44.50601" lon="1.41026">
        <ele>202.4</ele>
        <time>2021-10-07T17:58:15Z</time>
      </trkpt>
      <trkpt lat="44.50601" lon="1.41027">
        <ele>202.4</ele>
        <time>2021-10-07T17:58:16Z</time>
      </trkpt>
      <trkpt lat="44.50599" lon="1.41029">
        <ele>202.9</ele>
        <time>2021-10-07T17:58:18Z</time>
      </trkpt>
      <trkpt lat="44.50597" lon="1.41031">
        <ele>202.9</ele>
        <time>2021-10-07T17:58:20Z</time>
      </trkpt>
      <trkpt lat="44.50596" lon="1.41032">
        <ele>203.8</ele>
        <time>2021-10-07T17:58:21Z</time>
      </trkpt>
      <trkpt lat="44.50595" lon="1.41033">
        <ele>203.3</ele>
        <time>2021-10-07T17:58:22Z</time>
      </trkpt>
      <trkpt lat="44.50593" lon="1.41035">
        <ele>204.2</ele>
        <time>2021-10-07T17:58:24Z</time>
      </trkpt>
      <trkpt lat="44.50591" lon="1.41037">
        <ele>204.2</ele>
        <time>2021-10-07T17:58:26Z</time>
      </trkpt>
      <trkpt lat="44.50589" lon="1.41038">
        <ele>204.7</ele>
        <time>2021-10-07T17:58:28Z</time>
      </trkpt>
      <trkpt lat="44.50587" lon="1.41039">
        <ele>204.7</ele>
        <time>2021-10-07T17:58:29Z</time>
      </trkpt>
      <trkpt lat="44.50586" lon="1.41039">
        <ele>205.7</ele>
        <time>2021-10-07T17:58:30Z</time>
      </trkpt>
      <trkpt lat="44.50585" lon="1.4104">
        <ele>205.7</ele>
        <time>2021-10-07T17:58:31Z</time>
      </trkpt>
      <trkpt lat="44.50584" lon="1.41041">
        <ele>206.7</ele>
        <time>2021-10-07T17:58:32Z</time>
      </trkpt>
      <trkpt lat="44.50581" lon="1.41042">
        <ele>207.2</ele>
        <time>2021-10-07T17:58:34Z</time>
      </trkpt>
      <trkpt lat="44.5058" lon="1.41042">
        <ele>207.2</ele>
        <time>2021-10-07T17:58:35Z</time>
      </trkpt>
      <trkpt lat="44.50578" lon="1.41043">
        <ele>207.2</ele>
        <time>2021-10-07T17:58:36Z</time>
      </trkpt>
      <trkpt lat="44.50577" lon="1.41044">
        <ele>208.2</ele>
        <time>2021-10-07T17:58:37Z</time>
      </trkpt>
      <trkpt lat="44.50575" lon="1.41045">
        <ele>209.2</ele>
        <time>2021-10-07T17:58:39Z</time>
      </trkpt>
      <trkpt lat="44.50574" lon="1.41046">
        <ele>208.5</ele>
        <time>2021-10-07T17:58:40Z</time>
      </trkpt>
      <trkpt lat="44.50571" lon="1.41047">
        <ele>209.4</ele>
        <time>2021-10-07T17:58:42Z</time>
      </trkpt>
      <trkpt lat="44.5057" lon="1.41048">
        <ele>209.4</ele>
        <time>2021-10-07T17:58:43Z</time>
      </trkpt>
      <trkpt lat="44.50568" lon="1.41049">
        <ele>210.3</ele>
        <time>2021-10-07T17:58:45Z</time>
      </trkpt>
      <trkpt lat="44.50567" lon="1.4105">
        <ele>209.5</ele>
        <time>2021-10-07T17:58:46Z</time>
      </trkpt>
      <trkpt lat="44.50565" lon="1.41051">
        <ele>210.4</ele>
        <time>2021-10-07T17:58:47Z</time>
      </trkpt>
      <trkpt lat="44.50564" lon="1.41052">
        <ele>210.4</ele>
        <time>2021-10-07T17:58:49Z</time>
      </trkpt>
      <trkpt lat="44.50562" lon="1.41052">
        <ele>211.3</ele>
        <time>2021-10-07T17:58:50Z</time>
      </trkpt>
      <trkpt lat="44.50561" lon="1.41053">
        <ele>211.3</ele>
        <time>2021-10-07T17:58:51Z</time>
      </trkpt>
      <trkpt lat="44.5056" lon="1.41054">
        <ele>212.3</ele>
        <time>2021-10-07T17:58:52Z</time>
      </trkpt>
      <trkpt lat="44.50558" lon="1.41053">
        <ele>212.3</ele>
        <time>2021-10-07T17:58:53Z</time>
      </trkpt>
      <trkpt lat="44.50557" lon="1.41052">
        <ele>212.3</ele>
        <time>2021-10-07T17:58:55Z</time>
      </trkpt>
      <trkpt lat="44.50556" lon="1.41051">
        <ele>213.4</ele>
        <time>2021-10-07T17:58:57Z</time>
      </trkpt>
      <trkpt lat="44.50556" lon="1.4105">
        <ele>213.4</ele>
        <time>2021-10-07T17:58:58Z</time>
      </trkpt>
      <trkpt lat="44.50555" lon="1.41049">
        <ele>214.4</ele>
        <time>2021-10-07T17:58:59Z</time>
      </trkpt>
      <trkpt lat="44.50556" lon="1.41048">
        <ele>214.4</ele>
        <time>2021-10-07T17:59:01Z</time>
      </trkpt>
      <trkpt lat="44.50557" lon="1.41048">
        <ele>213.3</ele>
        <time>2021-10-07T17:59:02Z</time>
      </trkpt>
      <trkpt lat="44.50558" lon="1.41047">
        <ele>213.3</ele>
        <time>2021-10-07T17:59:03Z</time>
      </trkpt>
      <trkpt lat="44.50559" lon="1.41046">
        <ele>213.3</ele>
        <time>2021-10-07T17:59:05Z</time>
      </trkpt>
      <trkpt lat="44.5056" lon="1.41044">
        <ele>213.1</ele>
        <time>2021-10-07T17:59:06Z</time>
      </trkpt>
      <trkpt lat="44.50561" lon="1.41042">
        <ele>213.1</ele>
        <time>2021-10-07T17:59:07Z</time>
      </trkpt>
      <trkpt lat="44.50562" lon="1.41041">
        <ele>213.9</ele>
        <time>2021-10-07T17:59:08Z</time>
      </trkpt>
      <trkpt lat="44.50564" lon="1.41038">
        <ele>212.9</ele>
        <time>2021-10-07T17:59:10Z</time>
      </trkpt>
      <trkpt lat="44.50564" lon="1.41037">
        <ele>212.9</ele>
        <time>2021-10-07T17:59:11Z</time>
      </trkpt>
      <trkpt lat="44.50566" lon="1.41035">
        <ele>212.6</ele>
        <time>2021-10-07T17:59:12Z</time>
      </trkpt>
      <trkpt lat="44.50567" lon="1.41034">
        <ele>212.6</ele>
        <time>2021-10-07T17:59:13Z</time>
      </trkpt>
      <trkpt lat="44.50568" lon="1.41032">
        <ele>213.3</ele>
        <time>2021-10-07T17:59:14Z</time>
      </trkpt>
      <trkpt lat="44.50568" lon="1.41031">
        <ele>213.3</ele>
        <time>2021-10-07T17:59:16Z</time>
      </trkpt>
      <trkpt lat="44.50569" lon="1.41029">
        <ele>212.3</ele>
        <time>2021-10-07T17:59:17Z</time>
      </trkpt>
      <trkpt lat="44.5057" lon="1.41028">
        <ele>213</ele>
        <time>2021-10-07T17:59:18Z</time>
      </trkpt>
      <trkpt lat="44.5057" lon="1.41025">
        <ele>213</ele>
        <time>2021-10-07T17:59:20Z</time>
      </trkpt>
      <trkpt lat="44.50571" lon="1.41023">
        <ele>213.7</ele>
        <time>2021-10-07T17:59:21Z</time>
      </trkpt>
      <trkpt lat="44.50572" lon="1.41022">
        <ele>213.7</ele>
        <time>2021-10-07T17:59:22Z</time>
      </trkpt>
      <trkpt lat="44.50573" lon="1.4102">
        <ele>213.3</ele>
        <time>2021-10-07T17:59:24Z</time>
      </trkpt>
      <trkpt lat="44.50574" lon="1.41018">
        <ele>213.3</ele>
        <time>2021-10-07T17:59:25Z</time>
      </trkpt>
      <trkpt lat="44.50575" lon="1.41016">
        <ele>213.3</ele>
        <time>2021-10-07T17:59:26Z</time>
      </trkpt>
      <trkpt lat="44.50576" lon="1.41012">
        <ele>212.9</ele>
        <time>2021-10-07T17:59:28Z</time>
      </trkpt>
      <trkpt lat="44.50577" lon="1.41011">
        <ele>213.7</ele>
        <time>2021-10-07T17:59:29Z</time>
      </trkpt>
      <trkpt lat="44.50578" lon="1.41008">
        <ele>213.7</ele>
        <time>2021-10-07T17:59:31Z</time>
      </trkpt>
      <trkpt lat="44.50578" lon="1.41006">
        <ele>213.3</ele>
        <time>2021-10-07T17:59:32Z</time>
      </trkpt>
      <trkpt lat="44.50579" lon="1.41005">
        <ele>213.3</ele>
        <time>2021-10-07T17:59:33Z</time>
      </trkpt>
      <trkpt lat="44.5058" lon="1.41002">
        <ele>214</ele>
        <time>2021-10-07T17:59:35Z</time>
      </trkpt>
      <trkpt lat="44.5058" lon="1.40999">
        <ele>214</ele>
        <time>2021-10-07T17:59:36Z</time>
      </trkpt>
      <trkpt lat="44.50581" lon="1.40997">
        <ele>213.5</ele>
        <time>2021-10-07T17:59:37Z</time>
      </trkpt>
      <trkpt lat="44.50582" lon="1.40996">
        <ele>213.5</ele>
        <time>2021-10-07T17:59:38Z</time>
      </trkpt>
      <trkpt lat="44.50583" lon="1.40994">
        <ele>214.3</ele>
        <time>2021-10-07T17:59:40Z</time>
      </trkpt>
      <trkpt lat="44.50583" lon="1.40991">
        <ele>214.3</ele>
        <time>2021-10-07T17:59:41Z</time>
      </trkpt>
      <trkpt lat="44.50584" lon="1.40989">
        <ele>215</ele>
        <time>2021-10-07T17:59:43Z</time>
      </trkpt>
      <trkpt lat="44.50584" lon="1.40987">
        <ele>213.8</ele>
        <time>2021-10-07T17:59:44Z</time>
      </trkpt>
      <trkpt lat="44.50585" lon="1.40985">
        <ele>214.5</ele>
        <time>2021-10-07T17:59:45Z</time>
      </trkpt>
      <trkpt lat="44.50585" lon="1.40982">
        <ele>214.5</ele>
        <time>2021-10-07T17:59:47Z</time>
      </trkpt>
      <trkpt lat="44.50587" lon="1.40979">
        <ele>215.2</ele>
        <time>2021-10-07T17:59:49Z</time>
      </trkpt>
      <trkpt lat="44.50587" lon="1.40977">
        <ele>214.9</ele>
        <time>2021-10-07T17:59:51Z</time>
      </trkpt>
      <trkpt lat="44.50587" lon="1.40976">
        <ele>216.1</ele>
        <time>2021-10-07T17:59:52Z</time>
      </trkpt>
      <trkpt lat="44.50587" lon="1.40974">
        <ele>216.1</ele>
        <time>2021-10-07T17:59:53Z</time>
      </trkpt>
      <trkpt lat="44.50587" lon="1.40973">
        <ele>214.9</ele>
        <time>2021-10-07T17:59:54Z</time>
      </trkpt>
      <trkpt lat="44.50588" lon="1.40972">
        <ele>215.7</ele>
        <time>2021-10-07T17:59:55Z</time>
      </trkpt>
      <trkpt lat="44.50589" lon="1.4097">
        <ele>215.7</ele>
        <time>2021-10-07T17:59:56Z</time>
      </trkpt>
      <trkpt lat="44.50589" lon="1.40968">
        <ele>216.7</ele>
        <time>2021-10-07T17:59:58Z</time>
      </trkpt>
      <trkpt lat="44.50589" lon="1.40965">
        <ele>216.7</ele>
        <time>2021-10-07T18:00:00Z</time>
      </trkpt>
      <trkpt lat="44.50589" lon="1.40964">
        <ele>217.6</ele>
        <time>2021-10-07T18:00:01Z</time>
      </trkpt>
      <trkpt lat="44.50589" lon="1.40962">
        <ele>217.6</ele>
        <time>2021-10-07T18:00:03Z</time>
      </trkpt>
      <trkpt lat="44.50589" lon="1.40959">
        <ele>218.6</ele>
        <time>2021-10-07T18:00:04Z</time>
      </trkpt>
      <trkpt lat="44.50589" lon="1.40958">
        <ele>218.6</ele>
        <time>2021-10-07T18:00:06Z</time>
      </trkpt>
      <trkpt lat="44.50589" lon="1.40955">
        <ele>219.6</ele>
        <time>2021-10-07T18:00:07Z</time>
      </trkpt>
      <trkpt lat="44.50589" lon="1.40954">
        <ele>219.6</ele>
        <time>2021-10-07T18:00:08Z</time>
      </trkpt>
      <trkpt lat="44.50589" lon="1.4095">
        <ele>220.6</ele>
        <time>2021-10-07T18:00:10Z</time>
      </trkpt>
      <trkpt lat="44.50588" lon="1.40948">
        <ele>220.6</ele>
        <time>2021-10-07T18:00:11Z</time>
      </trkpt>
      <trkpt lat="44.50588" lon="1.40946">
        <ele>221.6</ele>
        <time>2021-10-07T18:00:12Z</time>
      </trkpt>
      <trkpt lat="44.50588" lon="1.40945">
        <ele>221.6</ele>
        <time>2021-10-07T18:00:14Z</time>
      </trkpt>
      <trkpt lat="44.50587" lon="1.40943">
        <ele>221.6</ele>
        <time>2021-10-07T18:00:15Z</time>
      </trkpt>
      <trkpt lat="44.50587" lon="1.40942">
        <ele>223.9</ele>
        <time>2021-10-07T18:00:16Z</time>
      </trkpt>
      <trkpt lat="44.50587" lon="1.40941">
        <ele>223.9</ele>
        <time>2021-10-07T18:00:17Z</time>
      </trkpt>
      <trkpt lat="44.50587" lon="1.40939">
        <ele>223.9</ele>
        <time>2021-10-07T18:00:19Z</time>
      </trkpt>
      <trkpt lat="44.50587" lon="1.40937">
        <ele>223.6</ele>
        <time>2021-10-07T18:00:20Z</time>
      </trkpt>
      <trkpt lat="44.50588" lon="1.40934">
        <ele>224.7</ele>
        <time>2021-10-07T18:00:21Z</time>
      </trkpt>
      <trkpt lat="44.50588" lon="1.40933">
        <ele>224.7</ele>
        <time>2021-10-07T18:00:23Z</time>
      </trkpt>
      <trkpt lat="44.50588" lon="1.40931">
        <ele>224.7</ele>
        <time>2021-10-07T18:00:24Z</time>
      </trkpt>
      <trkpt lat="44.50588" lon="1.4093">
        <ele>224.7</ele>
        <time>2021-10-07T18:00:25Z</time>
      </trkpt>
      <trkpt lat="44.50589" lon="1.40928">
        <ele>225.9</ele>
        <time>2021-10-07T18:00:27Z</time>
      </trkpt>
      <trkpt lat="44.5059" lon="1.40927">
        <ele>225.9</ele>
        <time>2021-10-07T18:00:28Z</time>
      </trkpt>
      <trkpt lat="44.50589" lon="1.40926">
        <ele>225.9</ele>
        <time>2021-10-07T18:00:30Z</time>
      </trkpt>
      <trkpt lat="44.50589" lon="1.40926">
        <ele>225.9</ele>
        <time>2021-10-07T18:00:31Z</time>
      </trkpt>
      <trkpt lat="44.50588" lon="1.40926">
        <ele>225.9</ele>
        <time>2021-10-07T18:00:32Z</time>
      </trkpt>
      <trkpt lat="44.50588" lon="1.40926">
        <ele>225.9</ele>
        <time>2021-10-07T18:00:33Z</time>
      </trkpt>
      <trkpt lat="44.50588" lon="1.40926">
        <ele>225.9</ele>
        <time>2021-10-07T18:00:35Z</time>
      </trkpt>
      <trkpt lat="44.50588" lon="1.40926">
        <ele>225.9</ele>
        <time>2021-10-07T18:00:36Z</time>
      </trkpt>
      <trkpt lat="44.50588" lon="1.40926">
        <ele>225.9</ele>
        <time>2021-10-07T18:00:37Z</time>
      </trkpt>
      <trkpt lat="44.50588" lon="1.40926">
        <ele>225.9</ele>
        <time>2021-10-07T18:00:38Z</time>
      </trkpt>
      <trkpt lat="44.50588" lon="1.40926">
        <ele>225.9</ele>
        <time>2021-10-07T18:00:40Z</time>
      </trkpt>
      <trkpt lat="44.50588" lon="1.40926">
        <ele>225.9</ele>
        <time>2021-10-07T18:00:41Z</time>
      </trkpt>
      <trkpt lat="44.50588" lon="1.40926">
        <ele>225.9</ele>
        <time>2021-10-07T18:00:42Z</time>
      </trkpt>
      <trkpt lat="44.50588" lon="1.40924">
        <ele>227.1</ele>
        <time>2021-10-07T18:00:44Z</time>
      </trkpt>
      <trkpt lat="44.50588" lon="1.40923">
        <ele>227.1</ele>
        <time>2021-10-07T18:00:45Z</time>
      </trkpt>
      <trkpt lat="44.50588" lon="1.40921">
        <ele>228.5</ele>
        <time>2021-10-07T18:00:46Z</time>
      </trkpt>
      <trkpt lat="44.50588" lon="1.40919">
        <ele>228.5</ele>
        <time>2021-10-07T18:00:48Z</time>
      </trkpt>
      <trkpt lat="44.50588" lon="1.40917">
        <ele>228.5</ele>
        <time>2021-10-07T18:00:49Z</time>
      </trkpt>
      <trkpt lat="44.50588" lon="1.40915">
        <ele>230</ele>
        <time>2021-10-07T18:00:50Z</time>
      </trkpt>
      <trkpt lat="44.50588" lon="1.40914">
        <ele>230</ele>
        <time>2021-10-07T18:00:51Z</time>
      </trkpt>
      <trkpt lat="44.50589" lon="1.40908">
        <ele>232.9</ele>
        <time>2021-10-07T18:00:53Z</time>
      </trkpt>
      <trkpt lat="44.50589" lon="1.40906">
        <ele>232.9</ele>
        <time>2021-10-07T18:00:54Z</time>
      </trkpt>
      <trkpt lat="44.5059" lon="1.40904">
        <ele>232.9</ele>
        <time>2021-10-07T18:00:55Z</time>
      </trkpt>
      <trkpt lat="44.50591" lon="1.409">
        <ele>233.2</ele>
        <time>2021-10-07T18:00:56Z</time>
      </trkpt>
      <trkpt lat="44.50592" lon="1.40899">
        <ele>234.7</ele>
        <time>2021-10-07T18:00:57Z</time>
      </trkpt>
      <trkpt lat="44.50593" lon="1.40895">
        <ele>236.2</ele>
        <time>2021-10-07T18:00:59Z</time>
      </trkpt>
      <trkpt lat="44.50593" lon="1.40894">
        <ele>236.2</ele>
        <time>2021-10-07T18:01:00Z</time>
      </trkpt>
      <trkpt lat="44.50594" lon="1.4089">
        <ele>236.7</ele>
        <time>2021-10-07T18:01:01Z</time>
      </trkpt>
      <trkpt lat="44.50594" lon="1.40888">
        <ele>236.7</ele>
        <time>2021-10-07T18:01:02Z</time>
      </trkpt>
      <trkpt lat="44.50596" lon="1.40884">
        <ele>238.4</ele>
        <time>2021-10-07T18:01:04Z</time>
      </trkpt>
      <trkpt lat="44.50596" lon="1.40883">
        <ele>238.4</ele>
        <time>2021-10-07T18:01:05Z</time>
      </trkpt>
      <trkpt lat="44.50597" lon="1.40881">
        <ele>239.1</ele>
        <time>2021-10-07T18:01:06Z</time>
      </trkpt>
      <trkpt lat="44.50599" lon="1.40878">
        <ele>240.9</ele>
        <time>2021-10-07T18:01:08Z</time>
      </trkpt>
      <trkpt lat="44.506" lon="1.40876">
        <ele>239.8</ele>
        <time>2021-10-07T18:01:09Z</time>
      </trkpt>
      <trkpt lat="44.506" lon="1.40875">
        <ele>239.8</ele>
        <time>2021-10-07T18:01:10Z</time>
      </trkpt>
      <trkpt lat="44.50601" lon="1.40874">
        <ele>241.7</ele>
        <time>2021-10-07T18:01:12Z</time>
      </trkpt>
      <trkpt lat="44.50601" lon="1.40872">
        <ele>241.7</ele>
        <time>2021-10-07T18:01:13Z</time>
      </trkpt>
      <trkpt lat="44.50602" lon="1.4087">
        <ele>241.7</ele>
        <time>2021-10-07T18:01:14Z</time>
      </trkpt>
      <trkpt lat="44.50603" lon="1.40868">
        <ele>242.6</ele>
        <time>2021-10-07T18:01:15Z</time>
      </trkpt>
      <trkpt lat="44.50605" lon="1.40866">
        <ele>242.6</ele>
        <time>2021-10-07T18:01:17Z</time>
      </trkpt>
      <trkpt lat="44.50606" lon="1.40865">
        <ele>244.5</ele>
        <time>2021-10-07T18:01:18Z</time>
      </trkpt>
      <trkpt lat="44.50607" lon="1.40863">
        <ele>243.5</ele>
        <time>2021-10-07T18:01:20Z</time>
      </trkpt>
      <trkpt lat="44.50608" lon="1.40862">
        <ele>243.5</ele>
        <time>2021-10-07T18:01:21Z</time>
      </trkpt>
      <trkpt lat="44.5061" lon="1.4086">
        <ele>244.3</ele>
        <time>2021-10-07T18:01:22Z</time>
      </trkpt>
      <trkpt lat="44.50611" lon="1.40859">
        <ele>244.3</ele>
        <time>2021-10-07T18:01:23Z</time>
      </trkpt>
      <trkpt lat="44.50612" lon="1.40858">
        <ele>243.3</ele>
        <time>2021-10-07T18:01:24Z</time>
      </trkpt>
      <trkpt lat="44.50615" lon="1.40856">
        <ele>245.1</ele>
        <time>2021-10-07T18:01:26Z</time>
      </trkpt>
      <trkpt lat="44.50617" lon="1.40855">
        <ele>244.1</ele>
        <time>2021-10-07T18:01:28Z</time>
      </trkpt>
      <trkpt lat="44.50618" lon="1.40855">
        <ele>243.1</ele>
        <time>2021-10-07T18:01:29Z</time>
      </trkpt>
      <trkpt lat="44.50619" lon="1.40854">
        <ele>243.1</ele>
        <time>2021-10-07T18:01:30Z</time>
      </trkpt>
      <trkpt lat="44.50621" lon="1.40853">
        <ele>242.2</ele>
        <time>2021-10-07T18:01:31Z</time>
      </trkpt>
      <trkpt lat="44.50622" lon="1.40852">
        <ele>243.9</ele>
        <time>2021-10-07T18:01:32Z</time>
      </trkpt>
      <trkpt lat="44.50623" lon="1.40852">
        <ele>243.9</ele>
        <time>2021-10-07T18:01:33Z</time>
      </trkpt>
      <trkpt lat="44.50626" lon="1.4085">
        <ele>243</ele>
        <time>2021-10-07T18:01:35Z</time>
      </trkpt>
      <trkpt lat="44.50627" lon="1.40849">
        <ele>243</ele>
        <time>2021-10-07T18:01:36Z</time>
      </trkpt>
      <trkpt lat="44.50628" lon="1.40848">
        <ele>243.8</ele>
        <time>2021-10-07T18:01:37Z</time>
      </trkpt>
      <trkpt lat="44.50629" lon="1.40847">
        <ele>243.8</ele>
        <time>2021-10-07T18:01:38Z</time>
      </trkpt>
      <trkpt lat="44.50632" lon="1.40844">
        <ele>242.9</ele>
        <time>2021-10-07T18:01:40Z</time>
      </trkpt>
      <trkpt lat="44.50633" lon="1.40843">
        <ele>244.7</ele>
        <time>2021-10-07T18:01:41Z</time>
      </trkpt>
      <trkpt lat="44.50634" lon="1.40842">
        <ele>243.9</ele>
        <time>2021-10-07T18:01:42Z</time>
      </trkpt>
      <trkpt lat="44.50636" lon="1.4084">
        <ele>243.9</ele>
        <time>2021-10-07T18:01:44Z</time>
      </trkpt>
      <trkpt lat="44.50637" lon="1.40838">
        <ele>245</ele>
        <time>2021-10-07T18:01:45Z</time>
      </trkpt>
      <trkpt lat="44.50639" lon="1.40838">
        <ele>245</ele>
        <time>2021-10-07T18:01:46Z</time>
      </trkpt>
      <trkpt lat="44.5064" lon="1.40836">
        <ele>244.2</ele>
        <time>2021-10-07T18:01:47Z</time>
      </trkpt>
      <trkpt lat="44.50641" lon="1.40835">
        <ele>246.2</ele>
        <time>2021-10-07T18:01:48Z</time>
      </trkpt>
      <trkpt lat="44.50642" lon="1.40834">
        <ele>246.2</ele>
        <time>2021-10-07T18:01:49Z</time>
      </trkpt>
      <trkpt lat="44.50644" lon="1.40833">
        <ele>245.5</ele>
        <time>2021-10-07T18:01:50Z</time>
      </trkpt>
      <trkpt lat="44.50646" lon="1.40831">
        <ele>246.8</ele>
        <time>2021-10-07T18:01:52Z</time>
      </trkpt>
      <trkpt lat="44.50647" lon="1.4083">
        <ele>246.8</ele>
        <time>2021-10-07T18:01:53Z</time>
      </trkpt>
      <trkpt lat="44.50648" lon="1.40829">
        <ele>246.8</ele>
        <time>2021-10-07T18:01:54Z</time>
      </trkpt>
      <trkpt lat="44.5065" lon="1.40827">
        <ele>248.2</ele>
        <time>2021-10-07T18:01:56Z</time>
      </trkpt>
      <trkpt lat="44.50652" lon="1.40825">
        <ele>247.7</ele>
        <time>2021-10-07T18:01:58Z</time>
      </trkpt>
      <trkpt lat="44.50653" lon="1.40824">
        <ele>247.7</ele>
        <time>2021-10-07T18:01:59Z</time>
      </trkpt>
      <trkpt lat="44.50654" lon="1.40823">
        <ele>247.7</ele>
        <time>2021-10-07T18:02:00Z</time>
      </trkpt>
      <trkpt lat="44.50655" lon="1.40821">
        <ele>249.2</ele>
        <time>2021-10-07T18:02:01Z</time>
      </trkpt>
      <trkpt lat="44.50656" lon="1.4082">
        <ele>249.2</ele>
        <time>2021-10-07T18:02:03Z</time>
      </trkpt>
      <trkpt lat="44.50657" lon="1.4082">
        <ele>249.2</ele>
        <time>2021-10-07T18:02:04Z</time>
      </trkpt>
      <trkpt lat="44.50658" lon="1.40819">
        <ele>248.8</ele>
        <time>2021-10-07T18:02:05Z</time>
      </trkpt>
      <trkpt lat="44.5066" lon="1.40817">
        <ele>250.6</ele>
        <time>2021-10-07T18:02:07Z</time>
      </trkpt>
      <trkpt lat="44.50662" lon="1.40816">
        <ele>250.2</ele>
        <time>2021-10-07T18:02:08Z</time>
      </trkpt>
      <trkpt lat="44.50664" lon="1.40815">
        <ele>249.9</ele>
        <time>2021-10-07T18:02:10Z</time>
      </trkpt>
      <trkpt lat="44.50665" lon="1.40814">
        <ele>249.9</ele>
        <time>2021-10-07T18:02:11Z</time>
      </trkpt>
      <trkpt lat="44.50666" lon="1.40812">
        <ele>251.6</ele>
        <time>2021-10-07T18:02:12Z</time>
      </trkpt>
      <trkpt lat="44.50668" lon="1.40811">
        <ele>251.3</ele>
        <time>2021-10-07T18:02:14Z</time>
      </trkpt>
      <trkpt lat="44.50669" lon="1.40809">
        <ele>253</ele>
        <time>2021-10-07T18:02:16Z</time>
      </trkpt>
      <trkpt lat="44.50671" lon="1.40808">
        <ele>252.8</ele>
        <time>2021-10-07T18:02:17Z</time>
      </trkpt>
      <trkpt lat="44.50672" lon="1.40808">
        <ele>252.8</ele>
        <time>2021-10-07T18:02:18Z</time>
      </trkpt>
      <trkpt lat="44.50673" lon="1.40808">
        <ele>252.8</ele>
        <time>2021-10-07T18:02:19Z</time>
      </trkpt>
      <trkpt lat="44.50674" lon="1.40807">
        <ele>252.6</ele>
        <time>2021-10-07T18:02:20Z</time>
      </trkpt>
      <trkpt lat="44.50676" lon="1.40805">
        <ele>254.2</ele>
        <time>2021-10-07T18:02:22Z</time>
      </trkpt>
      <trkpt lat="44.50677" lon="1.40805">
        <ele>254.2</ele>
        <time>2021-10-07T18:02:23Z</time>
      </trkpt>
      <trkpt lat="44.50679" lon="1.40804">
        <ele>254.2</ele>
        <time>2021-10-07T18:02:24Z</time>
      </trkpt>
      <trkpt lat="44.50682" lon="1.40804">
        <ele>254.1</ele>
        <time>2021-10-07T18:02:26Z</time>
      </trkpt>
      <trkpt lat="44.50683" lon="1.40803">
        <ele>254.1</ele>
        <time>2021-10-07T18:02:27Z</time>
      </trkpt>
      <trkpt lat="44.50685" lon="1.40804">
        <ele>254.2</ele>
        <time>2021-10-07T18:02:28Z</time>
      </trkpt>
      <trkpt lat="44.50688" lon="1.40806">
        <ele>252.6</ele>
        <time>2021-10-07T18:02:30Z</time>
      </trkpt>
      <trkpt lat="44.50691" lon="1.40808">
        <ele>252.7</ele>
        <time>2021-10-07T18:02:32Z</time>
      </trkpt>
      <trkpt lat="44.50692" lon="1.40808">
        <ele>252.8</ele>
        <time>2021-10-07T18:02:33Z</time>
      </trkpt>
      <trkpt lat="44.50694" lon="1.40809">
        <ele>252.8</ele>
        <time>2021-10-07T18:02:34Z</time>
      </trkpt>
      <trkpt lat="44.50696" lon="1.40809">
        <ele>253</ele>
        <time>2021-10-07T18:02:36Z</time>
      </trkpt>
      <trkpt lat="44.50699" lon="1.40811">
        <ele>251.7</ele>
        <time>2021-10-07T18:02:37Z</time>
      </trkpt>
      <trkpt lat="44.507" lon="1.40811">
        <ele>251.7</ele>
        <time>2021-10-07T18:02:38Z</time>
      </trkpt>
      <trkpt lat="44.50702" lon="1.40812">
        <ele>252.1</ele>
        <time>2021-10-07T18:02:39Z</time>
      </trkpt>
      <trkpt lat="44.50705" lon="1.40814">
        <ele>252.5</ele>
        <time>2021-10-07T18:02:41Z</time>
      </trkpt>
      <trkpt lat="44.50708" lon="1.40816">
        <ele>251.4</ele>
        <time>2021-10-07T18:02:42Z</time>
      </trkpt>
      <trkpt lat="44.50708" lon="1.40816">
        <ele>251.4</ele>
        <time>2021-10-07T18:02:43Z</time>
      </trkpt>
      <trkpt lat="44.50713" lon="1.40818">
        <ele>251.1</ele>
        <time>2021-10-07T18:02:45Z</time>
      </trkpt>
      <trkpt lat="44.50714" lon="1.4082">
        <ele>251.1</ele>
        <time>2021-10-07T18:02:46Z</time>
      </trkpt>
      <trkpt lat="44.50716" lon="1.40821">
        <ele>251.1</ele>
        <time>2021-10-07T18:02:47Z</time>
      </trkpt>
      <trkpt lat="44.50717" lon="1.40822">
        <ele>251.7</ele>
        <time>2021-10-07T18:02:48Z</time>
      </trkpt>
      <trkpt lat="44.5072" lon="1.40823">
        <ele>250.9</ele>
        <time>2021-10-07T18:02:50Z</time>
      </trkpt>
      <trkpt lat="44.50723" lon="1.40825">
        <ele>251.7</ele>
        <time>2021-10-07T18:02:51Z</time>
      </trkpt>
      <trkpt lat="44.50724" lon="1.40827">
        <ele>250.2</ele>
        <time>2021-10-07T18:02:52Z</time>
      </trkpt>
      <trkpt lat="44.50726" lon="1.40829">
        <ele>251</ele>
        <time>2021-10-07T18:02:54Z</time>
      </trkpt>
      <trkpt lat="44.50728" lon="1.4083">
        <ele>251</ele>
        <time>2021-10-07T18:02:55Z</time>
      </trkpt>
      <trkpt lat="44.50729" lon="1.40832">
        <ele>250.4</ele>
        <time>2021-10-07T18:02:56Z</time>
      </trkpt>
      <trkpt lat="44.5073" lon="1.40833">
        <ele>250.4</ele>
        <time>2021-10-07T18:02:57Z</time>
      </trkpt>
      <trkpt lat="44.50732" lon="1.40835">
        <ele>249.9</ele>
        <time>2021-10-07T18:02:59Z</time>
      </trkpt>
      <trkpt lat="44.50735" lon="1.40838">
        <ele>250.7</ele>
        <time>2021-10-07T18:03:00Z</time>
      </trkpt>
      <trkpt lat="44.50736" lon="1.40839">
        <ele>250.7</ele>
        <time>2021-10-07T18:03:01Z</time>
      </trkpt>
      <trkpt lat="44.50738" lon="1.40842">
        <ele>250.3</ele>
        <time>2021-10-07T18:03:03Z</time>
      </trkpt>
      <trkpt lat="44.5074" lon="1.40845">
        <ele>249.9</ele>
        <time>2021-10-07T18:03:04Z</time>
      </trkpt>
      <trkpt lat="44.50742" lon="1.40848">
        <ele>248.7</ele>
        <time>2021-10-07T18:03:05Z</time>
      </trkpt>
      <trkpt lat="44.50743" lon="1.4085">
        <ele>248.7</ele>
        <time>2021-10-07T18:03:06Z</time>
      </trkpt>
      <trkpt lat="44.50744" lon="1.40851">
        <ele>249.6</ele>
        <time>2021-10-07T18:03:07Z</time>
      </trkpt>
      <trkpt lat="44.50747" lon="1.40853">
        <ele>249.3</ele>
        <time>2021-10-07T18:03:09Z</time>
      </trkpt>
      <trkpt lat="44.5075" lon="1.40856">
        <ele>250.3</ele>
        <time>2021-10-07T18:03:10Z</time>
      </trkpt>
      <trkpt lat="44.50751" lon="1.40857">
        <ele>249.1</ele>
        <time>2021-10-07T18:03:11Z</time>
      </trkpt>
      <trkpt lat="44.50753" lon="1.4086">
        <ele>250</ele>
        <time>2021-10-07T18:03:12Z</time>
      </trkpt>
      <trkpt lat="44.50754" lon="1.40861">
        <ele>248.8</ele>
        <time>2021-10-07T18:03:13Z</time>
      </trkpt>
      <trkpt lat="44.50756" lon="1.40864">
        <ele>249.7</ele>
        <time>2021-10-07T18:03:15Z</time>
      </trkpt>
      <trkpt lat="44.50758" lon="1.40868">
        <ele>248.5</ele>
        <time>2021-10-07T18:03:16Z</time>
      </trkpt>
      <trkpt lat="44.50761" lon="1.40872">
        <ele>248.2</ele>
        <time>2021-10-07T18:03:18Z</time>
      </trkpt>
      <trkpt lat="44.50763" lon="1.40875">
        <ele>247.9</ele>
        <time>2021-10-07T18:03:19Z</time>
      </trkpt>
      <trkpt lat="44.50766" lon="1.40878">
        <ele>247.7</ele>
        <time>2021-10-07T18:03:21Z</time>
      </trkpt>
      <trkpt lat="44.50768" lon="1.40882">
        <ele>248.5</ele>
        <time>2021-10-07T18:03:22Z</time>
      </trkpt>
      <trkpt lat="44.5077" lon="1.40884">
        <ele>247.5</ele>
        <time>2021-10-07T18:03:23Z</time>
      </trkpt>
      <trkpt lat="44.50774" lon="1.40888">
        <ele>247.4</ele>
        <time>2021-10-07T18:03:25Z</time>
      </trkpt>
      <trkpt lat="44.50777" lon="1.4089">
        <ele>249.3</ele>
        <time>2021-10-07T18:03:26Z</time>
      </trkpt>
      <trkpt lat="44.50778" lon="1.40891">
        <ele>248.3</ele>
        <time>2021-10-07T18:03:27Z</time>
      </trkpt>
      <trkpt lat="44.50779" lon="1.40893">
        <ele>248.3</ele>
        <time>2021-10-07T18:03:28Z</time>
      </trkpt>
      <trkpt lat="44.50782" lon="1.40894">
        <ele>249.3</ele>
        <time>2021-10-07T18:03:30Z</time>
      </trkpt>
      <trkpt lat="44.50785" lon="1.40895">
        <ele>250.1</ele>
        <time>2021-10-07T18:03:31Z</time>
      </trkpt>
      <trkpt lat="44.50788" lon="1.40896">
        <ele>249.9</ele>
        <time>2021-10-07T18:03:32Z</time>
      </trkpt>
      <trkpt lat="44.50791" lon="1.40896">
        <ele>250.6</ele>
        <time>2021-10-07T18:03:34Z</time>
      </trkpt>
      <trkpt lat="44.50793" lon="1.40896">
        <ele>251.3</ele>
        <time>2021-10-07T18:03:35Z</time>
      </trkpt>
      <trkpt lat="44.50796" lon="1.40896">
        <ele>252</ele>
        <time>2021-10-07T18:03:36Z</time>
      </trkpt>
      <trkpt lat="44.50799" lon="1.40897">
        <ele>252.7</ele>
        <time>2021-10-07T18:03:37Z</time>
      </trkpt>
      <trkpt lat="44.50803" lon="1.40897">
        <ele>253.5</ele>
        <time>2021-10-07T18:03:39Z</time>
      </trkpt>
      <trkpt lat="44.50806" lon="1.40898">
        <ele>254.2</ele>
        <time>2021-10-07T18:03:41Z</time>
      </trkpt>
      <trkpt lat="44.50809" lon="1.40898">
        <ele>254.8</ele>
        <time>2021-10-07T18:03:42Z</time>
      </trkpt>
      <trkpt lat="44.50812" lon="1.40897">
        <ele>255.4</ele>
        <time>2021-10-07T18:03:43Z</time>
      </trkpt>
      <trkpt lat="44.50813" lon="1.40897">
        <ele>255.4</ele>
        <time>2021-10-07T18:03:44Z</time>
      </trkpt>
      <trkpt lat="44.50815" lon="1.40897">
        <ele>255.9</ele>
        <time>2021-10-07T18:03:45Z</time>
      </trkpt>
      <trkpt lat="44.50818" lon="1.40898">
        <ele>256.4</ele>
        <time>2021-10-07T18:03:47Z</time>
      </trkpt>
      <trkpt lat="44.5082" lon="1.40899">
        <ele>256.9</ele>
        <time>2021-10-07T18:03:48Z</time>
      </trkpt>
      <trkpt lat="44.50823" lon="1.40899">
        <ele>257.4</ele>
        <time>2021-10-07T18:03:49Z</time>
      </trkpt>
      <trkpt lat="44.50826" lon="1.409">
        <ele>256.8</ele>
        <time>2021-10-07T18:03:50Z</time>
      </trkpt>
      <trkpt lat="44.5083" lon="1.40902">
        <ele>257.7</ele>
        <time>2021-10-07T18:03:52Z</time>
      </trkpt>
      <trkpt lat="44.50832" lon="1.40903">
        <ele>258.1</ele>
        <time>2021-10-07T18:03:53Z</time>
      </trkpt>
      <trkpt lat="44.50838" lon="1.40905">
        <ele>258</ele>
        <time>2021-10-07T18:03:55Z</time>
      </trkpt>
      <trkpt lat="44.50841" lon="1.40907">
        <ele>258.5</ele>
        <time>2021-10-07T18:03:57Z</time>
      </trkpt>
      <trkpt lat="44.50843" lon="1.40909">
        <ele>258.4</ele>
        <time>2021-10-07T18:03:58Z</time>
      </trkpt>
      <trkpt lat="44.50844" lon="1.40911">
        <ele>258.8</ele>
        <time>2021-10-07T18:04:00Z</time>
      </trkpt>
      <trkpt lat="44.50847" lon="1.40913">
        <ele>258.3</ele>
        <time>2021-10-07T18:04:01Z</time>
      </trkpt>
      <trkpt lat="44.50848" lon="1.40914">
        <ele>258.7</ele>
        <time>2021-10-07T18:04:02Z</time>
      </trkpt>
      <trkpt lat="44.5085" lon="1.40916">
        <ele>258.7</ele>
        <time>2021-10-07T18:04:03Z</time>
      </trkpt>
      <trkpt lat="44.50855" lon="1.4092">
        <ele>259.1</ele>
        <time>2021-10-07T18:04:05Z</time>
      </trkpt>
      <trkpt lat="44.50856" lon="1.40922">
        <ele>258.7</ele>
        <time>2021-10-07T18:04:07Z</time>
      </trkpt>
      <trkpt lat="44.50857" lon="1.40924">
        <ele>259.1</ele>
        <time>2021-10-07T18:04:08Z</time>
      </trkpt>
      <trkpt lat="44.50859" lon="1.40926">
        <ele>258.8</ele>
        <time>2021-10-07T18:04:09Z</time>
      </trkpt>
      <trkpt lat="44.50861" lon="1.40932">
        <ele>258.9</ele>
        <time>2021-10-07T18:04:11Z</time>
      </trkpt>
      <trkpt lat="44.50862" lon="1.40933">
        <ele>258.9</ele>
        <time>2021-10-07T18:04:13Z</time>
      </trkpt>
      <trkpt lat="44.50863" lon="1.40935">
        <ele>259.1</ele>
        <time>2021-10-07T18:04:14Z</time>
      </trkpt>
      <trkpt lat="44.50865" lon="1.40937">
        <ele>259.1</ele>
        <time>2021-10-07T18:04:15Z</time>
      </trkpt>
      <trkpt lat="44.50865" lon="1.40939">
        <ele>258.8</ele>
        <time>2021-10-07T18:04:16Z</time>
      </trkpt>
      <trkpt lat="44.50866" lon="1.40941">
        <ele>259.3</ele>
        <time>2021-10-07T18:04:17Z</time>
      </trkpt>
      <trkpt lat="44.50867" lon="1.40943">
        <ele>259</ele>
        <time>2021-10-07T18:04:19Z</time>
      </trkpt>
      <trkpt lat="44.50869" lon="1.40947">
        <ele>259.4</ele>
        <time>2021-10-07T18:04:20Z</time>
      </trkpt>
      <trkpt lat="44.5087" lon="1.40948">
        <ele>259.1</ele>
        <time>2021-10-07T18:04:21Z</time>
      </trkpt>
      <trkpt lat="44.50871" lon="1.4095">
        <ele>259.1</ele>
        <time>2021-10-07T18:04:22Z</time>
      </trkpt>
      <trkpt lat="44.50872" lon="1.40952">
        <ele>258.8</ele>
        <time>2021-10-07T18:04:23Z</time>
      </trkpt>
      <trkpt lat="44.50872" lon="1.40954">
        <ele>258.8</ele>
        <time>2021-10-07T18:04:24Z</time>
      </trkpt>
      <trkpt lat="44.50872" lon="1.40956">
        <ele>258.9</ele>
        <time>2021-10-07T18:04:25Z</time>
      </trkpt>
      <trkpt lat="44.50874" lon="1.40961">
        <ele>258.6</ele>
        <time>2021-10-07T18:04:27Z</time>
      </trkpt>
      <trkpt lat="44.50874" lon="1.40962">
        <ele>258.6</ele>
        <time>2021-10-07T18:04:28Z</time>
      </trkpt>
      <trkpt lat="44.50875" lon="1.40965">
        <ele>258.4</ele>
        <time>2021-10-07T18:04:29Z</time>
      </trkpt>
      <trkpt lat="44.50876" lon="1.40968">
        <ele>258.5</ele>
        <time>2021-10-07T18:04:31Z</time>
      </trkpt>
      <trkpt lat="44.50877" lon="1.40972">
        <ele>258.5</ele>
        <time>2021-10-07T18:04:32Z</time>
      </trkpt>
      <trkpt lat="44.50877" lon="1.40974">
        <ele>258.3</ele>
        <time>2021-10-07T18:04:34Z</time>
      </trkpt>
      <trkpt lat="44.50878" lon="1.40976">
        <ele>258.3</ele>
        <time>2021-10-07T18:04:35Z</time>
      </trkpt>
      <trkpt lat="44.50879" lon="1.40978">
        <ele>258.5</ele>
        <time>2021-10-07T18:04:36Z</time>
      </trkpt>
      <trkpt lat="44.50879" lon="1.4098">
        <ele>258.5</ele>
        <time>2021-10-07T18:04:37Z</time>
      </trkpt>
      <trkpt lat="44.5088" lon="1.40982">
        <ele>258.4</ele>
        <time>2021-10-07T18:04:38Z</time>
      </trkpt>
      <trkpt lat="44.50881" lon="1.40987">
        <ele>258.2</ele>
        <time>2021-10-07T18:04:40Z</time>
      </trkpt>
      <trkpt lat="44.50881" lon="1.40989">
        <ele>258.7</ele>
        <time>2021-10-07T18:04:41Z</time>
      </trkpt>
      <trkpt lat="44.50883" lon="1.40995">
        <ele>258.4</ele>
        <time>2021-10-07T18:04:43Z</time>
      </trkpt>
      <trkpt lat="44.50883" lon="1.40997">
        <ele>258.4</ele>
        <time>2021-10-07T18:04:45Z</time>
      </trkpt>
      <trkpt lat="44.50883" lon="1.40998">
        <ele>258.4</ele>
        <time>2021-10-07T18:04:46Z</time>
      </trkpt>
      <trkpt lat="44.50884" lon="1.41003">
        <ele>258</ele>
        <time>2021-10-07T18:04:47Z</time>
      </trkpt>
      <trkpt lat="44.50884" lon="1.41004">
        <ele>258</ele>
        <time>2021-10-07T18:04:48Z</time>
      </trkpt>
      <trkpt lat="44.50884" lon="1.41006">
        <ele>258</ele>
        <time>2021-10-07T18:04:49Z</time>
      </trkpt>
      <trkpt lat="44.50885" lon="1.41008">
        <ele>258.4</ele>
        <time>2021-10-07T18:04:50Z</time>
      </trkpt>
      <trkpt lat="44.50886" lon="1.41011">
        <ele>258.4</ele>
        <time>2021-10-07T18:04:52Z</time>
      </trkpt>
      <trkpt lat="44.50886" lon="1.41012">
        <ele>258.3</ele>
        <time>2021-10-07T18:04:53Z</time>
      </trkpt>
      <trkpt lat="44.50887" lon="1.41014">
        <ele>258.3</ele>
        <time>2021-10-07T18:04:54Z</time>
      </trkpt>
      <trkpt lat="44.50888" lon="1.41018">
        <ele>258.7</ele>
        <time>2021-10-07T18:04:56Z</time>
      </trkpt>
      <trkpt lat="44.50888" lon="1.4102">
        <ele>258.6</ele>
        <time>2021-10-07T18:04:57Z</time>
      </trkpt>
      <trkpt lat="44.50889" lon="1.41022">
        <ele>258.6</ele>
        <time>2021-10-07T18:04:58Z</time>
      </trkpt>
      <trkpt lat="44.50889" lon="1.41028">
        <ele>258.5</ele>
        <time>2021-10-07T18:05:00Z</time>
      </trkpt>
      <trkpt lat="44.5089" lon="1.4103">
        <ele>258.5</ele>
        <time>2021-10-07T18:05:01Z</time>
      </trkpt>
      <trkpt lat="44.5089" lon="1.41031">
        <ele>258.5</ele>
        <time>2021-10-07T18:05:02Z</time>
      </trkpt>
      <trkpt lat="44.50891" lon="1.41036">
        <ele>258.9</ele>
        <time>2021-10-07T18:05:04Z</time>
      </trkpt>
      <trkpt lat="44.50892" lon="1.41038">
        <ele>258.9</ele>
        <time>2021-10-07T18:05:05Z</time>
      </trkpt>
      <trkpt lat="44.50893" lon="1.41041">
        <ele>258.9</ele>
        <time>2021-10-07T18:05:07Z</time>
      </trkpt>
      <trkpt lat="44.50894" lon="1.41046">
        <ele>259.3</ele>
        <time>2021-10-07T18:05:08Z</time>
      </trkpt>
      <trkpt lat="44.50895" lon="1.41047">
        <ele>259.3</ele>
        <time>2021-10-07T18:05:09Z</time>
      </trkpt>
      <trkpt lat="44.50896" lon="1.41051">
        <ele>259.3</ele>
        <time>2021-10-07T18:05:11Z</time>
      </trkpt>
      <trkpt lat="44.50897" lon="1.41052">
        <ele>259.7</ele>
        <time>2021-10-07T18:05:12Z</time>
      </trkpt>
      <trkpt lat="44.50898" lon="1.41055">
        <ele>259.7</ele>
        <time>2021-10-07T18:05:13Z</time>
      </trkpt>
      <trkpt lat="44.50898" lon="1.41057">
        <ele>259.7</ele>
        <time>2021-10-07T18:05:14Z</time>
      </trkpt>
      <trkpt lat="44.50899" lon="1.41061">
        <ele>259.6</ele>
        <time>2021-10-07T18:05:16Z</time>
      </trkpt>
      <trkpt lat="44.50899" lon="1.41063">
        <ele>259.6</ele>
        <time>2021-10-07T18:05:17Z</time>
      </trkpt>
      <trkpt lat="44.509" lon="1.41065">
        <ele>260</ele>
        <time>2021-10-07T18:05:18Z</time>
      </trkpt>
      <trkpt lat="44.50901" lon="1.41068">
        <ele>260</ele>
        <time>2021-10-07T18:05:20Z</time>
      </trkpt>
      <trkpt lat="44.50902" lon="1.4107">
        <ele>260</ele>
        <time>2021-10-07T18:05:21Z</time>
      </trkpt>
      <trkpt lat="44.50904" lon="1.41072">
        <ele>260.3</ele>
        <time>2021-10-07T18:05:23Z</time>
      </trkpt>
      <trkpt lat="44.50906" lon="1.41073">
        <ele>260.7</ele>
        <time>2021-10-07T18:05:24Z</time>
      </trkpt>
      <trkpt lat="44.50907" lon="1.41074">
        <ele>260.7</ele>
        <time>2021-10-07T18:05:25Z</time>
      </trkpt>
      <trkpt lat="44.50909" lon="1.41074">
        <ele>261</ele>
        <time>2021-10-07T18:05:26Z</time>
      </trkpt>
      <trkpt lat="44.5091" lon="1.41075">
        <ele>261</ele>
        <time>2021-10-07T18:05:27Z</time>
      </trkpt>
      <trkpt lat="44.50912" lon="1.41075">
        <ele>261.4</ele>
        <time>2021-10-07T18:05:29Z</time>
      </trkpt>
      <trkpt lat="44.50914" lon="1.41075">
        <ele>261.4</ele>
        <time>2021-10-07T18:05:30Z</time>
      </trkpt>
      <trkpt lat="44.50916" lon="1.41075">
        <ele>261.8</ele>
        <time>2021-10-07T18:05:31Z</time>
      </trkpt>
      <trkpt lat="44.50917" lon="1.41075">
        <ele>261.8</ele>
        <time>2021-10-07T18:05:32Z</time>
      </trkpt>
      <trkpt lat="44.5092" lon="1.41074">
        <ele>262.1</ele>
        <time>2021-10-07T18:05:33Z</time>
      </trkpt>
      <trkpt lat="44.50921" lon="1.41073">
        <ele>262.5</ele>
        <time>2021-10-07T18:05:35Z</time>
      </trkpt>
      <trkpt lat="44.50923" lon="1.41073">
        <ele>262.5</ele>
        <time>2021-10-07T18:05:36Z</time>
      </trkpt>
      <trkpt lat="44.50925" lon="1.41072">
        <ele>262.8</ele>
        <time>2021-10-07T18:05:37Z</time>
      </trkpt>
      <trkpt lat="44.50926" lon="1.41072">
        <ele>262.8</ele>
        <time>2021-10-07T18:05:38Z</time>
      </trkpt>
      <trkpt lat="44.50927" lon="1.41072">
        <ele>263.1</ele>
        <time>2021-10-07T18:05:39Z</time>
      </trkpt>
      <trkpt lat="44.5093" lon="1.41073">
        <ele>263.4</ele>
        <time>2021-10-07T18:05:41Z</time>
      </trkpt>
      <trkpt lat="44.50931" lon="1.41074">
        <ele>263.4</ele>
        <time>2021-10-07T18:05:42Z</time>
      </trkpt>
      <trkpt lat="44.50935" lon="1.41075">
        <ele>263.7</ele>
        <time>2021-10-07T18:05:44Z</time>
      </trkpt>
      <trkpt lat="44.50936" lon="1.41075">
        <ele>263.7</ele>
        <time>2021-10-07T18:05:45Z</time>
      </trkpt>
      <trkpt lat="44.50937" lon="1.41076">
        <ele>263.7</ele>
        <time>2021-10-07T18:05:47Z</time>
      </trkpt>
      <trkpt lat="44.50938" lon="1.41076">
        <ele>263.7</ele>
        <time>2021-10-07T18:05:49Z</time>
      </trkpt>
      <trkpt lat="44.50938" lon="1.41076">
        <ele>263.7</ele>
        <time>2021-10-07T18:05:50Z</time>
      </trkpt>
      <trkpt lat="44.50938" lon="1.41077">
        <ele>263.7</ele>
        <time>2021-10-07T18:05:52Z</time>
      </trkpt>
      <trkpt lat="44.50937" lon="1.41076">
        <ele>263.7</ele>
        <time>2021-10-07T18:05:54Z</time>
      </trkpt>
      <trkpt lat="44.50937" lon="1.41076">
        <ele>263.7</ele>
        <time>2021-10-07T18:05:55Z</time>
      </trkpt>
      <trkpt lat="44.50937" lon="1.41076">
        <ele>263.7</ele>
        <time>2021-10-07T18:05:56Z</time>
      </trkpt>
      <trkpt lat="44.50937" lon="1.41076">
        <ele>263.7</ele>
        <time>2021-10-07T18:05:57Z</time>
      </trkpt>
      <trkpt lat="44.50937" lon="1.41076">
        <ele>263.7</ele>
        <time>2021-10-07T18:05:59Z</time>
      </trkpt>
      <trkpt lat="44.50937" lon="1.41075">
        <ele>263.7</ele>
        <time>2021-10-07T18:06:00Z</time>
      </trkpt>
      <trkpt lat="44.50937" lon="1.41075">
        <ele>263.7</ele>
        <time>2021-10-07T18:06:02Z</time>
      </trkpt>
      <trkpt lat="44.50938" lon="1.41071">
        <ele>263.7</ele>
        <time>2021-10-07T18:07:42Z</time>
      </trkpt>
      <trkpt lat="44.50938" lon="1.41068">
        <ele>263.7</ele>
        <time>2021-10-07T18:07:44Z</time>
      </trkpt>
      <trkpt lat="44.50937" lon="1.41065">
        <ele>263.7</ele>
        <time>2021-10-07T18:07:46Z</time>
      </trkpt>
      <trkpt lat="44.50938" lon="1.41061">
        <ele>263.6</ele>
        <time>2021-10-07T18:07:47Z</time>
      </trkpt>
      <trkpt lat="44.50938" lon="1.41059">
        <ele>263.6</ele>
        <time>2021-10-07T18:07:48Z</time>
      </trkpt>
      <trkpt lat="44.50938" lon="1.41057">
        <ele>263.6</ele>
        <time>2021-10-07T18:07:49Z</time>
      </trkpt>
      <trkpt lat="44.50939" lon="1.41054">
        <ele>263.6</ele>
        <time>2021-10-07T18:07:51Z</time>
      </trkpt>
      <trkpt lat="44.50939" lon="1.41051">
        <ele>263.5</ele>
        <time>2021-10-07T18:07:52Z</time>
      </trkpt>
      <trkpt lat="44.50939" lon="1.4105">
        <ele>263.5</ele>
        <time>2021-10-07T18:07:53Z</time>
      </trkpt>
      <trkpt lat="44.5094" lon="1.4105">
        <ele>263.5</ele>
        <time>2021-10-07T18:07:54Z</time>
      </trkpt>
      <trkpt lat="44.5094" lon="1.4105">
        <ele>263.5</ele>
        <time>2021-10-07T18:07:56Z</time>
      </trkpt>
      <trkpt lat="44.5094" lon="1.4105">
        <ele>263.5</ele>
        <time>2021-10-07T18:07:57Z</time>
      </trkpt>
      <trkpt lat="44.5094" lon="1.41051">
        <ele>263.5</ele>
        <time>2021-10-07T18:07:59Z</time>
      </trkpt>
      <trkpt lat="44.5094" lon="1.41051">
        <ele>263.5</ele>
        <time>2021-10-07T18:08:00Z</time>
      </trkpt>
      <trkpt lat="44.5094" lon="1.4105">
        <ele>263.5</ele>
        <time>2021-10-07T18:08:02Z</time>
      </trkpt>
      <trkpt lat="44.50939" lon="1.41047">
        <ele>263.4</ele>
        <time>2021-10-07T18:08:03Z</time>
      </trkpt>
      <trkpt lat="44.50939" lon="1.41042">
        <ele>263.3</ele>
        <time>2021-10-07T18:08:05Z</time>
      </trkpt>
      <trkpt lat="44.50938" lon="1.41037">
        <ele>263.2</ele>
        <time>2021-10-07T18:08:06Z</time>
      </trkpt>
      <trkpt lat="44.50938" lon="1.41027">
        <ele>263</ele>
        <time>2021-10-07T18:08:08Z</time>
      </trkpt>
      <trkpt lat="44.50938" lon="1.41023">
        <ele>262.9</ele>
        <time>2021-10-07T18:08:09Z</time>
      </trkpt>
      <trkpt lat="44.50937" lon="1.41017">
        <ele>262.8</ele>
        <time>2021-10-07T18:08:11Z</time>
      </trkpt>
      <trkpt lat="44.50936" lon="1.41013">
        <ele>262.7</ele>
        <time>2021-10-07T18:08:12Z</time>
      </trkpt>
      <trkpt lat="44.50935" lon="1.41008">
        <ele>262.6</ele>
        <time>2021-10-07T18:08:13Z</time>
      </trkpt>
      <trkpt lat="44.50934" lon="1.41001">
        <ele>262.5</ele>
        <time>2021-10-07T18:08:14Z</time>
      </trkpt>
      <trkpt lat="44.50932" lon="1.40994">
        <ele>262.4</ele>
        <time>2021-10-07T18:08:16Z</time>
      </trkpt>
      <trkpt lat="44.50931" lon="1.40988">
        <ele>262.4</ele>
        <time>2021-10-07T18:08:18Z</time>
      </trkpt>
      <trkpt lat="44.50931" lon="1.40983">
        <ele>262.3</ele>
        <time>2021-10-07T18:08:19Z</time>
      </trkpt>
      <trkpt lat="44.50931" lon="1.40978">
        <ele>262.3</ele>
        <time>2021-10-07T18:08:20Z</time>
      </trkpt>
      <trkpt lat="44.50931" lon="1.40973">
        <ele>262.2</ele>
        <time>2021-10-07T18:08:21Z</time>
      </trkpt>
      <trkpt lat="44.5093" lon="1.40968">
        <ele>262.2</ele>
        <time>2021-10-07T18:08:22Z</time>
      </trkpt>
      <trkpt lat="44.50929" lon="1.40966">
        <ele>262.2</ele>
        <time>2021-10-07T18:08:23Z</time>
      </trkpt>
      <trkpt lat="44.50928" lon="1.40959">
        <ele>262.1</ele>
        <time>2021-10-07T18:08:25Z</time>
      </trkpt>
      <trkpt lat="44.50927" lon="1.40953">
        <ele>262.1</ele>
        <time>2021-10-07T18:08:26Z</time>
      </trkpt>
      <trkpt lat="44.50925" lon="1.40944">
        <ele>262.1</ele>
        <time>2021-10-07T18:08:28Z</time>
      </trkpt>
      <trkpt lat="44.50925" lon="1.4094">
        <ele>262.1</ele>
        <time>2021-10-07T18:08:29Z</time>
      </trkpt>
      <trkpt lat="44.50924" lon="1.40936">
        <ele>262.1</ele>
        <time>2021-10-07T18:08:30Z</time>
      </trkpt>
      <trkpt lat="44.50923" lon="1.40929">
        <ele>262.1</ele>
        <time>2021-10-07T18:08:32Z</time>
      </trkpt>
      <trkpt lat="44.50923" lon="1.40923">
        <ele>262.1</ele>
        <time>2021-10-07T18:08:33Z</time>
      </trkpt>
      <trkpt lat="44.50922" lon="1.40919">
        <ele>262.1</ele>
        <time>2021-10-07T18:08:34Z</time>
      </trkpt>
      <trkpt lat="44.50921" lon="1.4091">
        <ele>262.2</ele>
        <time>2021-10-07T18:08:36Z</time>
      </trkpt>
      <trkpt lat="44.5092" lon="1.40906">
        <ele>262.3</ele>
        <time>2021-10-07T18:08:37Z</time>
      </trkpt>
      <trkpt lat="44.5092" lon="1.40898">
        <ele>262.4</ele>
        <time>2021-10-07T18:08:39Z</time>
      </trkpt>
      <trkpt lat="44.50919" lon="1.40894">
        <ele>262.4</ele>
        <time>2021-10-07T18:08:40Z</time>
      </trkpt>
      <trkpt lat="44.50918" lon="1.40886">
        <ele>262.6</ele>
        <time>2021-10-07T18:08:42Z</time>
      </trkpt>
      <trkpt lat="44.50918" lon="1.40882">
        <ele>262.7</ele>
        <time>2021-10-07T18:08:43Z</time>
      </trkpt>
      <trkpt lat="44.50918" lon="1.40878">
        <ele>262.8</ele>
        <time>2021-10-07T18:08:44Z</time>
      </trkpt>
      <trkpt lat="44.50916" lon="1.40871">
        <ele>263</ele>
        <time>2021-10-07T18:08:46Z</time>
      </trkpt>
      <trkpt lat="44.50915" lon="1.40866">
        <ele>263.2</ele>
        <time>2021-10-07T18:08:47Z</time>
      </trkpt>
      <trkpt lat="44.50915" lon="1.40862">
        <ele>263.4</ele>
        <time>2021-10-07T18:08:48Z</time>
      </trkpt>
      <trkpt lat="44.50913" lon="1.40854">
        <ele>263.7</ele>
        <time>2021-10-07T18:08:50Z</time>
      </trkpt>
      <trkpt lat="44.50912" lon="1.40847">
        <ele>264</ele>
        <time>2021-10-07T18:08:52Z</time>
      </trkpt>
      <trkpt lat="44.50912" lon="1.40844">
        <ele>264.1</ele>
        <time>2021-10-07T18:08:53Z</time>
      </trkpt>
      <trkpt lat="44.5091" lon="1.40836">
        <ele>264.4</ele>
        <time>2021-10-07T18:08:55Z</time>
      </trkpt>
      <trkpt lat="44.50909" lon="1.40829">
        <ele>264.7</ele>
        <time>2021-10-07T18:08:57Z</time>
      </trkpt>
      <trkpt lat="44.50907" lon="1.40821">
        <ele>265</ele>
        <time>2021-10-07T18:08:59Z</time>
      </trkpt>
      <trkpt lat="44.50905" lon="1.40815">
        <ele>265.3</ele>
        <time>2021-10-07T18:09:01Z</time>
      </trkpt>
      <trkpt lat="44.50904" lon="1.40809">
        <ele>265.5</ele>
        <time>2021-10-07T18:09:03Z</time>
      </trkpt>
      <trkpt lat="44.50904" lon="1.40801">
        <ele>265.7</ele>
        <time>2021-10-07T18:09:05Z</time>
      </trkpt>
      <trkpt lat="44.50904" lon="1.40797">
        <ele>265.9</ele>
        <time>2021-10-07T18:09:06Z</time>
      </trkpt>
      <trkpt lat="44.50903" lon="1.40796">
        <ele>265.9</ele>
        <time>2021-10-07T18:09:07Z</time>
      </trkpt>
      <trkpt lat="44.50903" lon="1.40793">
        <ele>266</ele>
        <time>2021-10-07T18:09:08Z</time>
      </trkpt>
      <trkpt lat="44.50901" lon="1.40785">
        <ele>266.3</ele>
        <time>2021-10-07T18:09:10Z</time>
      </trkpt>
      <trkpt lat="44.509" lon="1.40779">
        <ele>266.6</ele>
        <time>2021-10-07T18:09:12Z</time>
      </trkpt>
      <trkpt lat="44.509" lon="1.40774">
        <ele>266.8</ele>
        <time>2021-10-07T18:09:13Z</time>
      </trkpt>
      <trkpt lat="44.509" lon="1.40772">
        <ele>266.9</ele>
        <time>2021-10-07T18:09:14Z</time>
      </trkpt>
      <trkpt lat="44.50899" lon="1.40765">
        <ele>267.2</ele>
        <time>2021-10-07T18:09:16Z</time>
      </trkpt>
      <trkpt lat="44.50898" lon="1.40762">
        <ele>267.4</ele>
        <time>2021-10-07T18:09:17Z</time>
      </trkpt>
      <trkpt lat="44.50897" lon="1.40755">
        <ele>267.7</ele>
        <time>2021-10-07T18:09:19Z</time>
      </trkpt>
      <trkpt lat="44.50897" lon="1.40752">
        <ele>267.8</ele>
        <time>2021-10-07T18:09:20Z</time>
      </trkpt>
      <trkpt lat="44.50896" lon="1.40746">
        <ele>268.1</ele>
        <time>2021-10-07T18:09:22Z</time>
      </trkpt>
      <trkpt lat="44.50896" lon="1.40743">
        <ele>268.3</ele>
        <time>2021-10-07T18:09:23Z</time>
      </trkpt>
      <trkpt lat="44.50894" lon="1.40736">
        <ele>268.6</ele>
        <time>2021-10-07T18:09:25Z</time>
      </trkpt>
      <trkpt lat="44.50893" lon="1.40729">
        <ele>269</ele>
        <time>2021-10-07T18:09:27Z</time>
      </trkpt>
      <trkpt lat="44.50893" lon="1.40725">
        <ele>269.2</ele>
        <time>2021-10-07T18:09:28Z</time>
      </trkpt>
      <trkpt lat="44.50892" lon="1.40719">
        <ele>269.5</ele>
        <time>2021-10-07T18:09:30Z</time>
      </trkpt>
      <trkpt lat="44.50891" lon="1.40716">
        <ele>269.6</ele>
        <time>2021-10-07T18:09:31Z</time>
      </trkpt>
      <trkpt lat="44.5089" lon="1.40709">
        <ele>270</ele>
        <time>2021-10-07T18:09:33Z</time>
      </trkpt>
      <trkpt lat="44.50889" lon="1.40703">
        <ele>270.3</ele>
        <time>2021-10-07T18:09:35Z</time>
      </trkpt>
      <trkpt lat="44.50889" lon="1.40698">
        <ele>270.5</ele>
        <time>2021-10-07T18:09:36Z</time>
      </trkpt>
      <trkpt lat="44.50889" lon="1.40696">
        <ele>270.6</ele>
        <time>2021-10-07T18:09:37Z</time>
      </trkpt>
      <trkpt lat="44.50888" lon="1.40689">
        <ele>270.9</ele>
        <time>2021-10-07T18:09:39Z</time>
      </trkpt>
      <trkpt lat="44.50888" lon="1.40686">
        <ele>271.1</ele>
        <time>2021-10-07T18:09:40Z</time>
      </trkpt>
      <trkpt lat="44.50889" lon="1.40678">
        <ele>271.5</ele>
        <time>2021-10-07T18:09:42Z</time>
      </trkpt>
      <trkpt lat="44.50889" lon="1.40674">
        <ele>271.7</ele>
        <time>2021-10-07T18:09:43Z</time>
      </trkpt>
      <trkpt lat="44.5089" lon="1.40666">
        <ele>272</ele>
        <time>2021-10-07T18:09:45Z</time>
      </trkpt>
      <trkpt lat="44.5089" lon="1.40662">
        <ele>272.2</ele>
        <time>2021-10-07T18:09:46Z</time>
      </trkpt>
      <trkpt lat="44.5089" lon="1.40658">
        <ele>272.4</ele>
        <time>2021-10-07T18:09:47Z</time>
      </trkpt>
      <trkpt lat="44.50891" lon="1.40651">
        <ele>272.8</ele>
        <time>2021-10-07T18:09:49Z</time>
      </trkpt>
      <trkpt lat="44.50893" lon="1.40645">
        <ele>273.1</ele>
        <time>2021-10-07T18:09:51Z</time>
      </trkpt>
      <trkpt lat="44.50894" lon="1.40642">
        <ele>273.3</ele>
        <time>2021-10-07T18:09:52Z</time>
      </trkpt>
      <trkpt lat="44.50896" lon="1.40636">
        <ele>273.6</ele>
        <time>2021-10-07T18:09:54Z</time>
      </trkpt>
      <trkpt lat="44.50897" lon="1.40633">
        <ele>273.8</ele>
        <time>2021-10-07T18:09:55Z</time>
      </trkpt>
      <trkpt lat="44.50898" lon="1.40628">
        <ele>274</ele>
        <time>2021-10-07T18:09:57Z</time>
      </trkpt>
      <trkpt lat="44.50898" lon="1.40626">
        <ele>274.2</ele>
        <time>2021-10-07T18:09:58Z</time>
      </trkpt>
      <trkpt lat="44.50899" lon="1.40619">
        <ele>274.5</ele>
        <time>2021-10-07T18:10:00Z</time>
      </trkpt>
      <trkpt lat="44.509" lon="1.40616">
        <ele>274.7</ele>
        <time>2021-10-07T18:10:01Z</time>
      </trkpt>
      <trkpt lat="44.50901" lon="1.40609">
        <ele>275</ele>
        <time>2021-10-07T18:10:03Z</time>
      </trkpt>
      <trkpt lat="44.50901" lon="1.40603">
        <ele>275.3</ele>
        <time>2021-10-07T18:10:05Z</time>
      </trkpt>
      <trkpt lat="44.50902" lon="1.40596">
        <ele>275.6</ele>
        <time>2021-10-07T18:10:07Z</time>
      </trkpt>
      <trkpt lat="44.50903" lon="1.40593">
        <ele>275.8</ele>
        <time>2021-10-07T18:10:08Z</time>
      </trkpt>
      <trkpt lat="44.50905" lon="1.40589">
        <ele>276</ele>
        <time>2021-10-07T18:10:10Z</time>
      </trkpt>
      <trkpt lat="44.50909" lon="1.40585">
        <ele>276.3</ele>
        <time>2021-10-07T18:10:12Z</time>
      </trkpt>
      <trkpt lat="44.50913" lon="1.40581">
        <ele>276.2</ele>
        <time>2021-10-07T18:10:14Z</time>
      </trkpt>
      <trkpt lat="44.50918" lon="1.40578">
        <ele>276.1</ele>
        <time>2021-10-07T18:10:16Z</time>
      </trkpt>
      <trkpt lat="44.50921" lon="1.40577">
        <ele>276</ele>
        <time>2021-10-07T18:10:17Z</time>
      </trkpt>
      <trkpt lat="44.50926" lon="1.40575">
        <ele>275.9</ele>
        <time>2021-10-07T18:10:19Z</time>
      </trkpt>
      <trkpt lat="44.5093" lon="1.40574">
        <ele>275.8</ele>
        <time>2021-10-07T18:10:20Z</time>
      </trkpt>
      <trkpt lat="44.50935" lon="1.40573">
        <ele>275.7</ele>
        <time>2021-10-07T18:10:22Z</time>
      </trkpt>
      <trkpt lat="44.50938" lon="1.40573">
        <ele>275.6</ele>
        <time>2021-10-07T18:10:23Z</time>
      </trkpt>
      <trkpt lat="44.50945" lon="1.40571">
        <ele>275.4</ele>
        <time>2021-10-07T18:10:25Z</time>
      </trkpt>
      <trkpt lat="44.50948" lon="1.4057">
        <ele>275.3</ele>
        <time>2021-10-07T18:10:26Z</time>
      </trkpt>
      <trkpt lat="44.50955" lon="1.40568">
        <ele>275.2</ele>
        <time>2021-10-07T18:10:28Z</time>
      </trkpt>
      <trkpt lat="44.50962" lon="1.40565">
        <ele>275</ele>
        <time>2021-10-07T18:10:30Z</time>
      </trkpt>
      <trkpt lat="44.50969" lon="1.40563">
        <ele>274.9</ele>
        <time>2021-10-07T18:10:32Z</time>
      </trkpt>
      <trkpt lat="44.50975" lon="1.40561">
        <ele>274.7</ele>
        <time>2021-10-07T18:10:34Z</time>
      </trkpt>
      <trkpt lat="44.50979" lon="1.4056">
        <ele>274.7</ele>
        <time>2021-10-07T18:10:35Z</time>
      </trkpt>
      <trkpt lat="44.50984" lon="1.40559">
        <ele>274.5</ele>
        <time>2021-10-07T18:10:37Z</time>
      </trkpt>
      <trkpt lat="44.50989" lon="1.40558">
        <ele>274.5</ele>
        <time>2021-10-07T18:10:38Z</time>
      </trkpt>
      <trkpt lat="44.50992" lon="1.40557">
        <ele>274.4</ele>
        <time>2021-10-07T18:10:39Z</time>
      </trkpt>
      <trkpt lat="44.50997" lon="1.40555">
        <ele>274.3</ele>
        <time>2021-10-07T18:10:41Z</time>
      </trkpt>
      <trkpt lat="44.51001" lon="1.40554">
        <ele>274.2</ele>
        <time>2021-10-07T18:10:42Z</time>
      </trkpt>
      <trkpt lat="44.51006" lon="1.40553">
        <ele>274.1</ele>
        <time>2021-10-07T18:10:43Z</time>
      </trkpt>
      <trkpt lat="44.5101" lon="1.40551">
        <ele>274.1</ele>
        <time>2021-10-07T18:10:44Z</time>
      </trkpt>
      <trkpt lat="44.51015" lon="1.40549">
        <ele>274</ele>
        <time>2021-10-07T18:10:46Z</time>
      </trkpt>
      <trkpt lat="44.51019" lon="1.40548">
        <ele>273.9</ele>
        <time>2021-10-07T18:10:47Z</time>
      </trkpt>
      <trkpt lat="44.51022" lon="1.40547">
        <ele>273.9</ele>
        <time>2021-10-07T18:10:48Z</time>
      </trkpt>
      <trkpt lat="44.51025" lon="1.40546">
        <ele>273.8</ele>
        <time>2021-10-07T18:10:49Z</time>
      </trkpt>
      <trkpt lat="44.51029" lon="1.40546">
        <ele>273.8</ele>
        <time>2021-10-07T18:10:51Z</time>
      </trkpt>
      <trkpt lat="44.51032" lon="1.40545">
        <ele>273.7</ele>
        <time>2021-10-07T18:10:52Z</time>
      </trkpt>
      <trkpt lat="44.51038" lon="1.40543">
        <ele>273.6</ele>
        <time>2021-10-07T18:10:53Z</time>
      </trkpt>
      <trkpt lat="44.51041" lon="1.40543">
        <ele>273.5</ele>
        <time>2021-10-07T18:10:55Z</time>
      </trkpt>
      <trkpt lat="44.51045" lon="1.40541">
        <ele>273.4</ele>
        <time>2021-10-07T18:10:56Z</time>
      </trkpt>
      <trkpt lat="44.51048" lon="1.4054">
        <ele>273.3</ele>
        <time>2021-10-07T18:10:57Z</time>
      </trkpt>
      <trkpt lat="44.51049" lon="1.40539">
        <ele>273.3</ele>
        <time>2021-10-07T18:10:58Z</time>
      </trkpt>
      <trkpt lat="44.51053" lon="1.40537">
        <ele>273.2</ele>
        <time>2021-10-07T18:11:00Z</time>
      </trkpt>
      <trkpt lat="44.51056" lon="1.40536">
        <ele>273.1</ele>
        <time>2021-10-07T18:11:01Z</time>
      </trkpt>
      <trkpt lat="44.51059" lon="1.40536">
        <ele>273</ele>
        <time>2021-10-07T18:11:02Z</time>
      </trkpt>
      <trkpt lat="44.51063" lon="1.40536">
        <ele>272.9</ele>
        <time>2021-10-07T18:11:04Z</time>
      </trkpt>
      <trkpt lat="44.51066" lon="1.40535">
        <ele>272.8</ele>
        <time>2021-10-07T18:11:05Z</time>
      </trkpt>
      <trkpt lat="44.51072" lon="1.40534">
        <ele>272.6</ele>
        <time>2021-10-07T18:11:06Z</time>
      </trkpt>
      <trkpt lat="44.5108" lon="1.40531">
        <ele>272.3</ele>
        <time>2021-10-07T18:11:08Z</time>
      </trkpt>
      <trkpt lat="44.51085" lon="1.40524">
        <ele>272</ele>
        <time>2021-10-07T18:11:10Z</time>
      </trkpt>
      <trkpt lat="44.51087" lon="1.4052">
        <ele>271.8</ele>
        <time>2021-10-07T18:11:11Z</time>
      </trkpt>
      <trkpt lat="44.51087" lon="1.40518">
        <ele>271.8</ele>
        <time>2021-10-07T18:11:12Z</time>
      </trkpt>
      <trkpt lat="44.51088" lon="1.40513">
        <ele>271.6</ele>
        <time>2021-10-07T18:11:14Z</time>
      </trkpt>
      <trkpt lat="44.5109" lon="1.40508">
        <ele>271.4</ele>
        <time>2021-10-07T18:11:16Z</time>
      </trkpt>
      <trkpt lat="44.5109" lon="1.40506">
        <ele>271.4</ele>
        <time>2021-10-07T18:11:17Z</time>
      </trkpt>
      <trkpt lat="44.5109" lon="1.40503">
        <ele>271.3</ele>
        <time>2021-10-07T18:11:18Z</time>
      </trkpt>
      <trkpt lat="44.51091" lon="1.40496">
        <ele>271</ele>
        <time>2021-10-07T18:11:20Z</time>
      </trkpt>
      <trkpt lat="44.51092" lon="1.40489">
        <ele>270.7</ele>
        <time>2021-10-07T18:11:22Z</time>
      </trkpt>
      <trkpt lat="44.51096" lon="1.40482">
        <ele>270.3</ele>
        <time>2021-10-07T18:11:24Z</time>
      </trkpt>
      <trkpt lat="44.51098" lon="1.40479">
        <ele>270.1</ele>
        <time>2021-10-07T18:11:25Z</time>
      </trkpt>
      <trkpt lat="44.51105" lon="1.40476">
        <ele>269.7</ele>
        <time>2021-10-07T18:11:27Z</time>
      </trkpt>
      <trkpt lat="44.51109" lon="1.40473">
        <ele>269.4</ele>
        <time>2021-10-07T18:11:29Z</time>
      </trkpt>
      <trkpt lat="44.51112" lon="1.40472">
        <ele>269.2</ele>
        <time>2021-10-07T18:11:30Z</time>
      </trkpt>
      <trkpt lat="44.51114" lon="1.40471">
        <ele>269.1</ele>
        <time>2021-10-07T18:11:31Z</time>
      </trkpt>
      <trkpt lat="44.5112" lon="1.4047">
        <ele>268.7</ele>
        <time>2021-10-07T18:11:33Z</time>
      </trkpt>
      <trkpt lat="44.51127" lon="1.40466">
        <ele>268.3</ele>
        <time>2021-10-07T18:11:35Z</time>
      </trkpt>
      <trkpt lat="44.51134" lon="1.40462">
        <ele>267.8</ele>
        <time>2021-10-07T18:11:37Z</time>
      </trkpt>
      <trkpt lat="44.51142" lon="1.40462">
        <ele>267.4</ele>
        <time>2021-10-07T18:11:39Z</time>
      </trkpt>
      <trkpt lat="44.51149" lon="1.40461">
        <ele>267</ele>
        <time>2021-10-07T18:11:41Z</time>
      </trkpt>
      <trkpt lat="44.51154" lon="1.4046">
        <ele>266.4</ele>
        <time>2021-10-07T18:11:42Z</time>
      </trkpt>
      <trkpt lat="44.51157" lon="1.40458">
        <ele>266</ele>
        <time>2021-10-07T18:11:43Z</time>
      </trkpt>
      <trkpt lat="44.51163" lon="1.40456">
        <ele>265.6</ele>
        <time>2021-10-07T18:11:44Z</time>
      </trkpt>
      <trkpt lat="44.51168" lon="1.40454">
        <ele>265.1</ele>
        <time>2021-10-07T18:11:45Z</time>
      </trkpt>
      <trkpt lat="44.51176" lon="1.40448">
        <ele>264.1</ele>
        <time>2021-10-07T18:11:47Z</time>
      </trkpt>
      <trkpt lat="44.51181" lon="1.40442">
        <ele>263.3</ele>
        <time>2021-10-07T18:11:49Z</time>
      </trkpt>
      <trkpt lat="44.51186" lon="1.40434">
        <ele>262.9</ele>
        <time>2021-10-07T18:11:51Z</time>
      </trkpt>
      <trkpt lat="44.51188" lon="1.40427">
        <ele>262.3</ele>
        <time>2021-10-07T18:11:53Z</time>
      </trkpt>
      <trkpt lat="44.51187" lon="1.40423">
        <ele>262.3</ele>
        <time>2021-10-07T18:11:54Z</time>
      </trkpt>
      <trkpt lat="44.51189" lon="1.40417">
        <ele>262.2</ele>
        <time>2021-10-07T18:11:56Z</time>
      </trkpt>
      <trkpt lat="44.51192" lon="1.40416">
        <ele>261.5</ele>
        <time>2021-10-07T18:11:57Z</time>
      </trkpt>
      <trkpt lat="44.51193" lon="1.40416">
        <ele>261.5</ele>
        <time>2021-10-07T18:11:58Z</time>
      </trkpt>
      <trkpt lat="44.51197" lon="1.40418">
        <ele>260.1</ele>
        <time>2021-10-07T18:12:00Z</time>
      </trkpt>
      <trkpt lat="44.51198" lon="1.40418">
        <ele>260.1</ele>
        <time>2021-10-07T18:12:01Z</time>
      </trkpt>
      <trkpt lat="44.51199" lon="1.40418">
        <ele>260.1</ele>
        <time>2021-10-07T18:12:03Z</time>
      </trkpt>
      <trkpt lat="44.51199" lon="1.40418">
        <ele>260.1</ele>
        <time>2021-10-07T18:12:04Z</time>
      </trkpt>
      <trkpt lat="44.51201" lon="1.40419">
        <ele>259.6</ele>
        <time>2021-10-07T18:12:06Z</time>
      </trkpt>
      <trkpt lat="44.51202" lon="1.40418">
        <ele>259.4</ele>
        <time>2021-10-07T18:12:08Z</time>
      </trkpt>
      <trkpt lat="44.51203" lon="1.40418">
        <ele>258.8</ele>
        <time>2021-10-07T18:12:09Z</time>
      </trkpt>
      <trkpt lat="44.51207" lon="1.40418">
        <ele>258.1</ele>
        <time>2021-10-07T18:12:10Z</time>
      </trkpt>
      <trkpt lat="44.51208" lon="1.40418">
        <ele>258.1</ele>
        <time>2021-10-07T18:12:11Z</time>
      </trkpt>
      <trkpt lat="44.5121" lon="1.40419">
        <ele>257.5</ele>
        <time>2021-10-07T18:12:12Z</time>
      </trkpt>
      <trkpt lat="44.51214" lon="1.40419">
        <ele>257</ele>
        <time>2021-10-07T18:12:14Z</time>
      </trkpt>
      <trkpt lat="44.51215" lon="1.40415">
        <ele>255.7</ele>
        <time>2021-10-07T18:12:16Z</time>
      </trkpt>
      <trkpt lat="44.51215" lon="1.40413">
        <ele>255.7</ele>
        <time>2021-10-07T18:12:17Z</time>
      </trkpt>
      <trkpt lat="44.51215" lon="1.40408">
        <ele>256.2</ele>
        <time>2021-10-07T18:12:19Z</time>
      </trkpt>
      <trkpt lat="44.51214" lon="1.40406">
        <ele>256</ele>
        <time>2021-10-07T18:12:20Z</time>
      </trkpt>
      <trkpt lat="44.51211" lon="1.40402">
        <ele>256.7</ele>
        <time>2021-10-07T18:12:21Z</time>
      </trkpt>
      <trkpt lat="44.51208" lon="1.40398">
        <ele>257.1</ele>
        <time>2021-10-07T18:12:23Z</time>
      </trkpt>
      <trkpt lat="44.51205" lon="1.40393">
        <ele>257.1</ele>
        <time>2021-10-07T18:12:24Z</time>
      </trkpt>
      <trkpt lat="44.51202" lon="1.40387">
        <ele>257.5</ele>
        <time>2021-10-07T18:12:26Z</time>
      </trkpt>
      <trkpt lat="44.512" lon="1.40381">
        <ele>257.1</ele>
        <time>2021-10-07T18:12:27Z</time>
      </trkpt>
      <trkpt lat="44.51199" lon="1.40376">
        <ele>257</ele>
        <time>2021-10-07T18:12:28Z</time>
      </trkpt>
      <trkpt lat="44.51196" lon="1.40369">
        <ele>256.5</ele>
        <time>2021-10-07T18:12:30Z</time>
      </trkpt>
      <trkpt lat="44.51194" lon="1.40363">
        <ele>257</ele>
        <time>2021-10-07T18:12:31Z</time>
      </trkpt>
      <trkpt lat="44.51192" lon="1.40358">
        <ele>257.1</ele>
        <time>2021-10-07T18:12:32Z</time>
      </trkpt>
      <trkpt lat="44.51191" lon="1.40355">
        <ele>256.7</ele>
        <time>2021-10-07T18:12:33Z</time>
      </trkpt>
      <trkpt lat="44.51188" lon="1.4035">
        <ele>257.3</ele>
        <time>2021-10-07T18:12:35Z</time>
      </trkpt>
      <trkpt lat="44.51185" lon="1.40342">
        <ele>257.9</ele>
        <time>2021-10-07T18:12:36Z</time>
      </trkpt>
      <trkpt lat="44.51186" lon="1.40336">
        <ele>257.2</ele>
        <time>2021-10-07T18:12:37Z</time>
      </trkpt>
      <trkpt lat="44.51186" lon="1.4033">
        <ele>256.9</ele>
        <time>2021-10-07T18:12:38Z</time>
      </trkpt>
      <trkpt lat="44.51184" lon="1.40324">
        <ele>256.2</ele>
        <time>2021-10-07T18:12:40Z</time>
      </trkpt>
      <trkpt lat="44.51182" lon="1.40318">
        <ele>256.7</ele>
        <time>2021-10-07T18:12:41Z</time>
      </trkpt>
      <trkpt lat="44.51181" lon="1.40313">
        <ele>257</ele>
        <time>2021-10-07T18:12:42Z</time>
      </trkpt>
      <trkpt lat="44.51179" lon="1.40307">
        <ele>256.2</ele>
        <time>2021-10-07T18:12:43Z</time>
      </trkpt>
      <trkpt lat="44.51177" lon="1.40303">
        <ele>256.6</ele>
        <time>2021-10-07T18:12:44Z</time>
      </trkpt>
      <trkpt lat="44.51175" lon="1.40299">
        <ele>256.1</ele>
        <time>2021-10-07T18:12:45Z</time>
      </trkpt>
      <trkpt lat="44.51172" lon="1.40294">
        <ele>256.5</ele>
        <time>2021-10-07T18:12:47Z</time>
      </trkpt>
      <trkpt lat="44.5117" lon="1.40289">
        <ele>257</ele>
        <time>2021-10-07T18:12:48Z</time>
      </trkpt>
      <trkpt lat="44.51167" lon="1.40285">
        <ele>257.5</ele>
        <time>2021-10-07T18:12:49Z</time>
      </trkpt>
      <trkpt lat="44.51164" lon="1.4028">
        <ele>257.9</ele>
        <time>2021-10-07T18:12:51Z</time>
      </trkpt>
      <trkpt lat="44.51164" lon="1.40275">
        <ele>257.5</ele>
        <time>2021-10-07T18:12:52Z</time>
      </trkpt>
      <trkpt lat="44.51162" lon="1.40269">
        <ele>257.4</ele>
        <time>2021-10-07T18:12:54Z</time>
      </trkpt>
      <trkpt lat="44.51161" lon="1.40263">
        <ele>257</ele>
        <time>2021-10-07T18:12:55Z</time>
      </trkpt>
      <trkpt lat="44.51159" lon="1.40258">
        <ele>257.3</ele>
        <time>2021-10-07T18:12:56Z</time>
      </trkpt>
      <trkpt lat="44.51157" lon="1.40251">
        <ele>256.3</ele>
        <time>2021-10-07T18:12:57Z</time>
      </trkpt>
      <trkpt lat="44.51155" lon="1.40245">
        <ele>256.5</ele>
        <time>2021-10-07T18:12:58Z</time>
      </trkpt>
      <trkpt lat="44.51152" lon="1.40239">
        <ele>256.2</ele>
        <time>2021-10-07T18:12:59Z</time>
      </trkpt>
      <trkpt lat="44.51151" lon="1.4023">
        <ele>255.7</ele>
        <time>2021-10-07T18:13:01Z</time>
      </trkpt>
      <trkpt lat="44.5115" lon="1.40221">
        <ele>254.6</ele>
        <time>2021-10-07T18:13:02Z</time>
      </trkpt>
      <trkpt lat="44.5115" lon="1.4021">
        <ele>254.6</ele>
        <time>2021-10-07T18:13:04Z</time>
      </trkpt>
      <trkpt lat="44.51149" lon="1.40203">
        <ele>253.8</ele>
        <time>2021-10-07T18:13:05Z</time>
      </trkpt>
      <trkpt lat="44.51147" lon="1.40199">
        <ele>253.4</ele>
        <time>2021-10-07T18:13:06Z</time>
      </trkpt>
      <trkpt lat="44.51147" lon="1.40191">
        <ele>253.1</ele>
        <time>2021-10-07T18:13:08Z</time>
      </trkpt>
      <trkpt lat="44.51145" lon="1.40185">
        <ele>252.6</ele>
        <time>2021-10-07T18:13:09Z</time>
      </trkpt>
      <trkpt lat="44.51143" lon="1.40181">
        <ele>252.7</ele>
        <time>2021-10-07T18:13:10Z</time>
      </trkpt>
      <trkpt lat="44.51142" lon="1.40179">
        <ele>252.7</ele>
        <time>2021-10-07T18:13:11Z</time>
      </trkpt>
      <trkpt lat="44.51141" lon="1.40174">
        <ele>252.1</ele>
        <time>2021-10-07T18:13:12Z</time>
      </trkpt>
      <trkpt lat="44.51141" lon="1.40167">
        <ele>251.5</ele>
        <time>2021-10-07T18:13:14Z</time>
      </trkpt>
      <trkpt lat="44.51141" lon="1.40164">
        <ele>250.3</ele>
        <time>2021-10-07T18:13:15Z</time>
      </trkpt>
      <trkpt lat="44.51141" lon="1.40154">
        <ele>249.3</ele>
        <time>2021-10-07T18:13:17Z</time>
      </trkpt>
      <trkpt lat="44.5114" lon="1.40148">
        <ele>247.7</ele>
        <time>2021-10-07T18:13:18Z</time>
      </trkpt>
      <trkpt lat="44.51141" lon="1.40143">
        <ele>246.8</ele>
        <time>2021-10-07T18:13:19Z</time>
      </trkpt>
      <trkpt lat="44.51142" lon="1.40132">
        <ele>244.9</ele>
        <time>2021-10-07T18:13:21Z</time>
      </trkpt>
      <trkpt lat="44.51142" lon="1.40125">
        <ele>243.4</ele>
        <time>2021-10-07T18:13:22Z</time>
      </trkpt>
      <trkpt lat="44.51143" lon="1.4012">
        <ele>242.6</ele>
        <time>2021-10-07T18:13:23Z</time>
      </trkpt>
      <trkpt lat="44.51146" lon="1.40112">
        <ele>240.6</ele>
        <time>2021-10-07T18:13:25Z</time>
      </trkpt>
      <trkpt lat="44.51146" lon="1.40108">
        <ele>239.8</ele>
        <time>2021-10-07T18:13:26Z</time>
      </trkpt>
      <trkpt lat="44.51147" lon="1.40103">
        <ele>238.9</ele>
        <time>2021-10-07T18:13:27Z</time>
      </trkpt>
      <trkpt lat="44.51146" lon="1.40098">
        <ele>238</ele>
        <time>2021-10-07T18:13:29Z</time>
      </trkpt>
      <trkpt lat="44.51145" lon="1.40093">
        <ele>237.1</ele>
        <time>2021-10-07T18:13:30Z</time>
      </trkpt>
      <trkpt lat="44.51146" lon="1.40089">
        <ele>236.3</ele>
        <time>2021-10-07T18:13:31Z</time>
      </trkpt>
      <trkpt lat="44.51147" lon="1.40084">
        <ele>234.6</ele>
        <time>2021-10-07T18:13:33Z</time>
      </trkpt>
      <trkpt lat="44.51148" lon="1.40081">
        <ele>234.5</ele>
        <time>2021-10-07T18:13:34Z</time>
      </trkpt>
      <trkpt lat="44.51149" lon="1.40077">
        <ele>233.7</ele>
        <time>2021-10-07T18:13:35Z</time>
      </trkpt>
      <trkpt lat="44.51153" lon="1.40072">
        <ele>232.7</ele>
        <time>2021-10-07T18:13:36Z</time>
      </trkpt>
      <trkpt lat="44.51156" lon="1.40068">
        <ele>231.7</ele>
        <time>2021-10-07T18:13:37Z</time>
      </trkpt>
      <trkpt lat="44.51158" lon="1.4006">
        <ele>229.8</ele>
        <time>2021-10-07T18:13:39Z</time>
      </trkpt>
      <trkpt lat="44.51159" lon="1.40054">
        <ele>228.9</ele>
        <time>2021-10-07T18:13:40Z</time>
      </trkpt>
      <trkpt lat="44.51161" lon="1.40047">
        <ele>227.2</ele>
        <time>2021-10-07T18:13:41Z</time>
      </trkpt>
      <trkpt lat="44.51169" lon="1.4004">
        <ele>225.5</ele>
        <time>2021-10-07T18:13:43Z</time>
      </trkpt>
      <trkpt lat="44.51173" lon="1.40037">
        <ele>225.4</ele>
        <time>2021-10-07T18:13:45Z</time>
      </trkpt>
      <trkpt lat="44.51177" lon="1.40039">
        <ele>225.3</ele>
        <time>2021-10-07T18:13:46Z</time>
      </trkpt>
      <trkpt lat="44.51183" lon="1.40039">
        <ele>225.1</ele>
        <time>2021-10-07T18:13:47Z</time>
      </trkpt>
      <trkpt lat="44.51187" lon="1.40036">
        <ele>224.4</ele>
        <time>2021-10-07T18:13:48Z</time>
      </trkpt>
      <trkpt lat="44.51193" lon="1.40028">
        <ele>223.2</ele>
        <time>2021-10-07T18:13:50Z</time>
      </trkpt>
      <trkpt lat="44.51197" lon="1.40026">
        <ele>223.1</ele>
        <time>2021-10-07T18:13:51Z</time>
      </trkpt>
      <trkpt lat="44.51202" lon="1.40019">
        <ele>222.1</ele>
        <time>2021-10-07T18:13:53Z</time>
      </trkpt>
      <trkpt lat="44.51207" lon="1.40011">
        <ele>221.2</ele>
        <time>2021-10-07T18:13:54Z</time>
      </trkpt>
      <trkpt lat="44.51208" lon="1.40005">
        <ele>220.8</ele>
        <time>2021-10-07T18:13:55Z</time>
      </trkpt>
      <trkpt lat="44.51211" lon="1.39996">
        <ele>220.1</ele>
        <time>2021-10-07T18:13:57Z</time>
      </trkpt>
      <trkpt lat="44.51215" lon="1.39994">
        <ele>220</ele>
        <time>2021-10-07T18:13:58Z</time>
      </trkpt>
      <trkpt lat="44.51218" lon="1.39993">
        <ele>219.6</ele>
        <time>2021-10-07T18:13:59Z</time>
      </trkpt>
      <trkpt lat="44.51225" lon="1.3999">
        <ele>219</ele>
        <time>2021-10-07T18:14:01Z</time>
      </trkpt>
      <trkpt lat="44.51231" lon="1.39986">
        <ele>218.6</ele>
        <time>2021-10-07T18:14:02Z</time>
      </trkpt>
      <trkpt lat="44.51234" lon="1.3998">
        <ele>217.9</ele>
        <time>2021-10-07T18:14:03Z</time>
      </trkpt>
      <trkpt lat="44.51236" lon="1.39973">
        <ele>217.7</ele>
        <time>2021-10-07T18:14:05Z</time>
      </trkpt>
      <trkpt lat="44.51237" lon="1.39967">
        <ele>217</ele>
        <time>2021-10-07T18:14:06Z</time>
      </trkpt>
      <trkpt lat="44.5124" lon="1.39962">
        <ele>216.6</ele>
        <time>2021-10-07T18:14:07Z</time>
      </trkpt>
      <trkpt lat="44.5124" lon="1.39956">
        <ele>216.5</ele>
        <time>2021-10-07T18:14:08Z</time>
      </trkpt>
      <trkpt lat="44.51241" lon="1.39949">
        <ele>216.2</ele>
        <time>2021-10-07T18:14:09Z</time>
      </trkpt>
      <trkpt lat="44.51243" lon="1.39943">
        <ele>216</ele>
        <time>2021-10-07T18:14:11Z</time>
      </trkpt>
      <trkpt lat="44.51246" lon="1.39935">
        <ele>215.9</ele>
        <time>2021-10-07T18:14:12Z</time>
      </trkpt>
      <trkpt lat="44.51249" lon="1.39926">
        <ele>216</ele>
        <time>2021-10-07T18:14:14Z</time>
      </trkpt>
      <trkpt lat="44.51252" lon="1.39918">
        <ele>216.1</ele>
        <time>2021-10-07T18:14:15Z</time>
      </trkpt>
      <trkpt lat="44.51255" lon="1.39909">
        <ele>216.2</ele>
        <time>2021-10-07T18:14:16Z</time>
      </trkpt>
      <trkpt lat="44.51257" lon="1.39897">
        <ele>216.7</ele>
        <time>2021-10-07T18:14:17Z</time>
      </trkpt>
      <trkpt lat="44.51257" lon="1.39881">
        <ele>217.3</ele>
        <time>2021-10-07T18:14:19Z</time>
      </trkpt>
      <trkpt lat="44.51258" lon="1.39866">
        <ele>217.4</ele>
        <time>2021-10-07T18:14:21Z</time>
      </trkpt>
      <trkpt lat="44.51259" lon="1.39859">
        <ele>217.7</ele>
        <time>2021-10-07T18:14:22Z</time>
      </trkpt>
      <trkpt lat="44.51262" lon="1.39847">
        <ele>217.8</ele>
        <time>2021-10-07T18:14:24Z</time>
      </trkpt>
      <trkpt lat="44.5126" lon="1.39835">
        <ele>218.1</ele>
        <time>2021-10-07T18:14:26Z</time>
      </trkpt>
      <trkpt lat="44.51258" lon="1.39824">
        <ele>218.2</ele>
        <time>2021-10-07T18:14:28Z</time>
      </trkpt>
      <trkpt lat="44.51256" lon="1.39821">
        <ele>218.3</ele>
        <time>2021-10-07T18:14:29Z</time>
      </trkpt>
      <trkpt lat="44.51253" lon="1.3981">
        <ele>218.3</ele>
        <time>2021-10-07T18:14:31Z</time>
      </trkpt>
      <trkpt lat="44.51254" lon="1.39804">
        <ele>218.3</ele>
        <time>2021-10-07T18:14:32Z</time>
      </trkpt>
      <trkpt lat="44.51255" lon="1.39798">
        <ele>218.2</ele>
        <time>2021-10-07T18:14:34Z</time>
      </trkpt>
      <trkpt lat="44.51254" lon="1.39791">
        <ele>218.1</ele>
        <time>2021-10-07T18:14:35Z</time>
      </trkpt>
      <trkpt lat="44.51253" lon="1.3978">
        <ele>217.9</ele>
        <time>2021-10-07T18:14:37Z</time>
      </trkpt>
      <trkpt lat="44.51256" lon="1.3977">
        <ele>217.5</ele>
        <time>2021-10-07T18:14:38Z</time>
      </trkpt>
      <trkpt lat="44.51257" lon="1.39763">
        <ele>217.4</ele>
        <time>2021-10-07T18:14:39Z</time>
      </trkpt>
      <trkpt lat="44.51256" lon="1.39755">
        <ele>217.1</ele>
        <time>2021-10-07T18:14:40Z</time>
      </trkpt>
      <trkpt lat="44.51254" lon="1.39749">
        <ele>216.7</ele>
        <time>2021-10-07T18:14:41Z</time>
      </trkpt>
      <trkpt lat="44.51253" lon="1.39743">
        <ele>216.5</ele>
        <time>2021-10-07T18:14:43Z</time>
      </trkpt>
      <trkpt lat="44.51253" lon="1.39737">
        <ele>216.3</ele>
        <time>2021-10-07T18:14:44Z</time>
      </trkpt>
      <trkpt lat="44.51252" lon="1.39732">
        <ele>215.8</ele>
        <time>2021-10-07T18:14:45Z</time>
      </trkpt>
      <trkpt lat="44.51252" lon="1.39728">
        <ele>215.6</ele>
        <time>2021-10-07T18:14:46Z</time>
      </trkpt>
      <trkpt lat="44.51253" lon="1.39724">
        <ele>215.6</ele>
        <time>2021-10-07T18:14:48Z</time>
      </trkpt>
      <trkpt lat="44.51253" lon="1.39723">
        <ele>215.4</ele>
        <time>2021-10-07T18:14:49Z</time>
      </trkpt>
      <trkpt lat="44.51253" lon="1.39721">
        <ele>215.4</ele>
        <time>2021-10-07T18:14:50Z</time>
      </trkpt>
      <trkpt lat="44.51253" lon="1.39719">
        <ele>215.1</ele>
        <time>2021-10-07T18:14:51Z</time>
      </trkpt>
      <trkpt lat="44.51253" lon="1.39714">
        <ele>214.9</ele>
        <time>2021-10-07T18:14:53Z</time>
      </trkpt>
      <trkpt lat="44.51253" lon="1.39712">
        <ele>214.9</ele>
        <time>2021-10-07T18:14:54Z</time>
      </trkpt>
      <trkpt lat="44.51252" lon="1.3971">
        <ele>214.6</ele>
        <time>2021-10-07T18:14:56Z</time>
      </trkpt>
      <trkpt lat="44.51251" lon="1.39707">
        <ele>214.5</ele>
        <time>2021-10-07T18:14:57Z</time>
      </trkpt>
      <trkpt lat="44.51252" lon="1.39706">
        <ele>214.3</ele>
        <time>2021-10-07T18:14:59Z</time>
      </trkpt>
      <trkpt lat="44.51253" lon="1.39706">
        <ele>214.3</ele>
        <time>2021-10-07T18:15:00Z</time>
      </trkpt>
      <trkpt lat="44.51254" lon="1.39706">
        <ele>214.3</ele>
        <time>2021-10-07T18:15:02Z</time>
      </trkpt>
      <trkpt lat="44.51254" lon="1.39706">
        <ele>214.4</ele>
        <time>2021-10-07T18:15:03Z</time>
      </trkpt>
      <trkpt lat="44.51254" lon="1.39707">
        <ele>214.4</ele>
        <time>2021-10-07T18:15:05Z</time>
      </trkpt>
      <trkpt lat="44.51253" lon="1.39706">
        <ele>214.4</ele>
        <time>2021-10-07T18:15:06Z</time>
      </trkpt>
      <trkpt lat="44.51253" lon="1.39706">
        <ele>214.4</ele>
        <time>2021-10-07T18:15:08Z</time>
      </trkpt>
      <trkpt lat="44.51252" lon="1.39704">
        <ele>214.4</ele>
        <time>2021-10-07T18:15:09Z</time>
      </trkpt>
      <trkpt lat="44.51253" lon="1.39702">
        <ele>214</ele>
        <time>2021-10-07T18:15:10Z</time>
      </trkpt>
      <trkpt lat="44.51254" lon="1.39702">
        <ele>214</ele>
        <time>2021-10-07T18:15:11Z</time>
      </trkpt>
      <trkpt lat="44.51253" lon="1.3969">
        <ele>213.4</ele>
        <time>2021-10-07T18:15:13Z</time>
      </trkpt>
      <trkpt lat="44.51254" lon="1.39678">
        <ele>212.4</ele>
        <time>2021-10-07T18:15:14Z</time>
      </trkpt>
      <trkpt lat="44.51254" lon="1.39666">
        <ele>211.4</ele>
        <time>2021-10-07T18:15:16Z</time>
      </trkpt>
      <trkpt lat="44.51252" lon="1.39656">
        <ele>210.6</ele>
        <time>2021-10-07T18:15:17Z</time>
      </trkpt>
      <trkpt lat="44.51249" lon="1.39643">
        <ele>209.6</ele>
        <time>2021-10-07T18:15:19Z</time>
      </trkpt>
      <trkpt lat="44.51246" lon="1.39634">
        <ele>208.9</ele>
        <time>2021-10-07T18:15:20Z</time>
      </trkpt>
      <trkpt lat="44.51241" lon="1.39617">
        <ele>207.4</ele>
        <time>2021-10-07T18:15:21Z</time>
      </trkpt>
      <trkpt lat="44.5124" lon="1.39608">
        <ele>206.4</ele>
        <time>2021-10-07T18:15:22Z</time>
      </trkpt>
      <trkpt lat="44.51239" lon="1.39599">
        <ele>205.7</ele>
        <time>2021-10-07T18:15:23Z</time>
      </trkpt>
      <trkpt lat="44.51235" lon="1.39585">
        <ele>204.8</ele>
        <time>2021-10-07T18:15:25Z</time>
      </trkpt>
      <trkpt lat="44.51231" lon="1.39571">
        <ele>203.7</ele>
        <time>2021-10-07T18:15:27Z</time>
      </trkpt>
      <trkpt lat="44.51229" lon="1.39562">
        <ele>203</ele>
        <time>2021-10-07T18:15:28Z</time>
      </trkpt>
      <trkpt lat="44.51227" lon="1.39545">
        <ele>201.6</ele>
        <time>2021-10-07T18:15:30Z</time>
      </trkpt>
      <trkpt lat="44.51227" lon="1.39538">
        <ele>201.3</ele>
        <time>2021-10-07T18:15:31Z</time>
      </trkpt>
      <trkpt lat="44.51225" lon="1.39524">
        <ele>200</ele>
        <time>2021-10-07T18:15:33Z</time>
      </trkpt>
      <trkpt lat="44.51225" lon="1.39516">
        <ele>199.3</ele>
        <time>2021-10-07T18:15:34Z</time>
      </trkpt>
      <trkpt lat="44.51225" lon="1.39508">
        <ele>198.4</ele>
        <time>2021-10-07T18:15:35Z</time>
      </trkpt>
      <trkpt lat="44.51224" lon="1.39493">
        <ele>196.9</ele>
        <time>2021-10-07T18:15:37Z</time>
      </trkpt>
      <trkpt lat="44.51223" lon="1.39487">
        <ele>195.8</ele>
        <time>2021-10-07T18:15:38Z</time>
      </trkpt>
      <trkpt lat="44.5122" lon="1.39473">
        <ele>194.3</ele>
        <time>2021-10-07T18:15:40Z</time>
      </trkpt>
      <trkpt lat="44.51218" lon="1.39466">
        <ele>193.7</ele>
        <time>2021-10-07T18:15:41Z</time>
      </trkpt>
      <trkpt lat="44.51211" lon="1.39454">
        <ele>192.6</ele>
        <time>2021-10-07T18:15:43Z</time>
      </trkpt>
      <trkpt lat="44.5121" lon="1.39448">
        <ele>191.9</ele>
        <time>2021-10-07T18:15:44Z</time>
      </trkpt>
      <trkpt lat="44.5121" lon="1.39443">
        <ele>191.6</ele>
        <time>2021-10-07T18:15:45Z</time>
      </trkpt>
      <trkpt lat="44.51213" lon="1.39429">
        <ele>190.5</ele>
        <time>2021-10-07T18:15:47Z</time>
      </trkpt>
      <trkpt lat="44.51213" lon="1.39421">
        <ele>189.8</ele>
        <time>2021-10-07T18:15:48Z</time>
      </trkpt>
      <trkpt lat="44.51213" lon="1.39415">
        <ele>189.5</ele>
        <time>2021-10-07T18:15:50Z</time>
      </trkpt>
      <trkpt lat="44.51209" lon="1.39406">
        <ele>188.6</ele>
        <time>2021-10-07T18:15:51Z</time>
      </trkpt>
      <trkpt lat="44.51207" lon="1.39401">
        <ele>188.3</ele>
        <time>2021-10-07T18:15:53Z</time>
      </trkpt>
      <trkpt lat="44.51206" lon="1.394">
        <ele>188.3</ele>
        <time>2021-10-07T18:15:54Z</time>
      </trkpt>
      <trkpt lat="44.51205" lon="1.39399">
        <ele>188.5</ele>
        <time>2021-10-07T18:15:55Z</time>
      </trkpt>
      <trkpt lat="44.51205" lon="1.39399">
        <ele>188.5</ele>
        <time>2021-10-07T18:15:57Z</time>
      </trkpt>
      <trkpt lat="44.51204" lon="1.39399">
        <ele>188.5</ele>
        <time>2021-10-07T18:15:58Z</time>
      </trkpt>
      <trkpt lat="44.51204" lon="1.39399">
        <ele>188.5</ele>
        <time>2021-10-07T18:16:00Z</time>
      </trkpt>
      <trkpt lat="44.51204" lon="1.39399">
        <ele>188.5</ele>
        <time>2021-10-07T18:16:02Z</time>
      </trkpt>
      <trkpt lat="44.51204" lon="1.39399">
        <ele>188.5</ele>
        <time>2021-10-07T18:16:04Z</time>
      </trkpt>
      <trkpt lat="44.51199" lon="1.39393">
        <ele>188</ele>
        <time>2021-10-07T18:16:21Z</time>
      </trkpt>
      <trkpt lat="44.51195" lon="1.3939">
        <ele>187.9</ele>
        <time>2021-10-07T18:16:23Z</time>
      </trkpt>
      <trkpt lat="44.51193" lon="1.39385">
        <ele>187.7</ele>
        <time>2021-10-07T18:16:24Z</time>
      </trkpt>
      <trkpt lat="44.51192" lon="1.39384">
        <ele>187.5</ele>
        <time>2021-10-07T18:16:25Z</time>
      </trkpt>
      <trkpt lat="44.51189" lon="1.3938">
        <ele>187.4</ele>
        <time>2021-10-07T18:16:26Z</time>
      </trkpt>
      <trkpt lat="44.51188" lon="1.39378">
        <ele>187.4</ele>
        <time>2021-10-07T18:16:27Z</time>
      </trkpt>
      <trkpt lat="44.51184" lon="1.39374">
        <ele>187.3</ele>
        <time>2021-10-07T18:16:29Z</time>
      </trkpt>
      <trkpt lat="44.51181" lon="1.3937">
        <ele>187.2</ele>
        <time>2021-10-07T18:16:30Z</time>
      </trkpt>
      <trkpt lat="44.51178" lon="1.39362">
        <ele>187.3</ele>
        <time>2021-10-07T18:16:31Z</time>
      </trkpt>
      <trkpt lat="44.51175" lon="1.39354">
        <ele>187.2</ele>
        <time>2021-10-07T18:16:33Z</time>
      </trkpt>
      <trkpt lat="44.51173" lon="1.39349">
        <ele>187.1</ele>
        <time>2021-10-07T18:16:34Z</time>
      </trkpt>
      <trkpt lat="44.51172" lon="1.39346">
        <ele>187.1</ele>
        <time>2021-10-07T18:16:35Z</time>
      </trkpt>
      <trkpt lat="44.51171" lon="1.39341">
        <ele>186.9</ele>
        <time>2021-10-07T18:16:37Z</time>
      </trkpt>
      <trkpt lat="44.51171" lon="1.39336">
        <ele>186.8</ele>
        <time>2021-10-07T18:16:38Z</time>
      </trkpt>
      <trkpt lat="44.5117" lon="1.39329">
        <ele>186.6</ele>
        <time>2021-10-07T18:16:39Z</time>
      </trkpt>
      <trkpt lat="44.5117" lon="1.39321">
        <ele>186.2</ele>
        <time>2021-10-07T18:16:41Z</time>
      </trkpt>
      <trkpt lat="44.51171" lon="1.39315">
        <ele>185.8</ele>
        <time>2021-10-07T18:16:42Z</time>
      </trkpt>
      <trkpt lat="44.51171" lon="1.39309">
        <ele>185.5</ele>
        <time>2021-10-07T18:16:43Z</time>
      </trkpt>
      <trkpt lat="44.5117" lon="1.39302">
        <ele>185</ele>
        <time>2021-10-07T18:16:45Z</time>
      </trkpt>
      <trkpt lat="44.51169" lon="1.39296">
        <ele>184.8</ele>
        <time>2021-10-07T18:16:46Z</time>
      </trkpt>
      <trkpt lat="44.51168" lon="1.39291">
        <ele>184.9</ele>
        <time>2021-10-07T18:16:47Z</time>
      </trkpt>
      <trkpt lat="44.51166" lon="1.39286">
        <ele>184.4</ele>
        <time>2021-10-07T18:16:48Z</time>
      </trkpt>
      <trkpt lat="44.51165" lon="1.3928">
        <ele>184.4</ele>
        <time>2021-10-07T18:16:50Z</time>
      </trkpt>
      <trkpt lat="44.51163" lon="1.39275">
        <ele>184.1</ele>
        <time>2021-10-07T18:16:51Z</time>
      </trkpt>
      <trkpt lat="44.51161" lon="1.3927">
        <ele>184</ele>
        <time>2021-10-07T18:16:52Z</time>
      </trkpt>
      <trkpt lat="44.51155" lon="1.3926">
        <ele>183.2</ele>
        <time>2021-10-07T18:16:54Z</time>
      </trkpt>
      <trkpt lat="44.51147" lon="1.39253">
        <ele>182.9</ele>
        <time>2021-10-07T18:16:56Z</time>
      </trkpt>
      <trkpt lat="44.51143" lon="1.39249">
        <ele>182.5</ele>
        <time>2021-10-07T18:16:58Z</time>
      </trkpt>
      <trkpt lat="44.5114" lon="1.39246">
        <ele>182.1</ele>
        <time>2021-10-07T18:16:59Z</time>
      </trkpt>
      <trkpt lat="44.51138" lon="1.39243">
        <ele>181.8</ele>
        <time>2021-10-07T18:17:00Z</time>
      </trkpt>
      <trkpt lat="44.51136" lon="1.39237">
        <ele>181.4</ele>
        <time>2021-10-07T18:17:02Z</time>
      </trkpt>
      <trkpt lat="44.51136" lon="1.39235">
        <ele>181.4</ele>
        <time>2021-10-07T18:17:03Z</time>
      </trkpt>
      <trkpt lat="44.51136" lon="1.39233">
        <ele>181.1</ele>
        <time>2021-10-07T18:17:04Z</time>
      </trkpt>
      <trkpt lat="44.51138" lon="1.39223">
        <ele>180.4</ele>
        <time>2021-10-07T18:17:06Z</time>
      </trkpt>
      <trkpt lat="44.51142" lon="1.39213">
        <ele>179.5</ele>
        <time>2021-10-07T18:17:07Z</time>
      </trkpt>
      <trkpt lat="44.51145" lon="1.39207">
        <ele>178.5</ele>
        <time>2021-10-07T18:17:08Z</time>
      </trkpt>
      <trkpt lat="44.51145" lon="1.39193">
        <ele>177.2</ele>
        <time>2021-10-07T18:17:10Z</time>
      </trkpt>
      <trkpt lat="44.51147" lon="1.39186">
        <ele>176.3</ele>
        <time>2021-10-07T18:17:11Z</time>
      </trkpt>
      <trkpt lat="44.51152" lon="1.39179">
        <ele>175.4</ele>
        <time>2021-10-07T18:17:13Z</time>
      </trkpt>
      <trkpt lat="44.51159" lon="1.39173">
        <ele>173.9</ele>
        <time>2021-10-07T18:17:14Z</time>
      </trkpt>
      <trkpt lat="44.51165" lon="1.39173">
        <ele>173.3</ele>
        <time>2021-10-07T18:17:16Z</time>
      </trkpt>
      <trkpt lat="44.51168" lon="1.39174">
        <ele>173</ele>
        <time>2021-10-07T18:17:17Z</time>
      </trkpt>
      <trkpt lat="44.51174" lon="1.39175">
        <ele>172.9</ele>
        <time>2021-10-07T18:17:18Z</time>
      </trkpt>
      <trkpt lat="44.51181" lon="1.39174">
        <ele>171.2</ele>
        <time>2021-10-07T18:17:19Z</time>
      </trkpt>
      <trkpt lat="44.51191" lon="1.39174">
        <ele>170</ele>
        <time>2021-10-07T18:17:21Z</time>
      </trkpt>
      <trkpt lat="44.51195" lon="1.39172">
        <ele>169.5</ele>
        <time>2021-10-07T18:17:22Z</time>
      </trkpt>
      <trkpt lat="44.512" lon="1.39168">
        <ele>168</ele>
        <time>2021-10-07T18:17:24Z</time>
      </trkpt>
      <trkpt lat="44.51201" lon="1.39165">
        <ele>167.5</ele>
        <time>2021-10-07T18:17:25Z</time>
      </trkpt>
      <trkpt lat="44.51201" lon="1.39163">
        <ele>167.5</ele>
        <time>2021-10-07T18:17:26Z</time>
      </trkpt>
      <trkpt lat="44.51203" lon="1.39164">
        <ele>167.1</ele>
        <time>2021-10-07T18:17:28Z</time>
      </trkpt>
      <trkpt lat="44.51201" lon="1.39163">
        <ele>167.5</ele>
        <time>2021-10-07T18:17:30Z</time>
      </trkpt>
      <trkpt lat="44.51201" lon="1.39163">
        <ele>167.5</ele>
        <time>2021-10-07T18:17:31Z</time>
      </trkpt>
      <trkpt lat="44.51201" lon="1.39164">
        <ele>167.5</ele>
        <time>2021-10-07T18:17:33Z</time>
      </trkpt>
      <trkpt lat="44.51201" lon="1.39165">
        <ele>167.5</ele>
        <time>2021-10-07T18:17:35Z</time>
      </trkpt>
      <trkpt lat="44.51199" lon="1.39159">
        <ele>167.5</ele>
        <time>2021-10-07T18:17:37Z</time>
      </trkpt>
      <trkpt lat="44.51195" lon="1.39152">
        <ele>166.8</ele>
        <time>2021-10-07T18:17:39Z</time>
      </trkpt>
      <trkpt lat="44.5119" lon="1.39148">
        <ele>166.7</ele>
        <time>2021-10-07T18:17:40Z</time>
      </trkpt>
      <trkpt lat="44.51187" lon="1.39145">
        <ele>167.4</ele>
        <time>2021-10-07T18:17:41Z</time>
      </trkpt>
      <trkpt lat="44.51181" lon="1.39142">
        <ele>167.3</ele>
        <time>2021-10-07T18:17:42Z</time>
      </trkpt>
      <trkpt lat="44.51174" lon="1.39138">
        <ele>167.7</ele>
        <time>2021-10-07T18:17:44Z</time>
      </trkpt>
      <trkpt lat="44.51172" lon="1.39137">
        <ele>167.7</ele>
        <time>2021-10-07T18:17:45Z</time>
      </trkpt>
      <trkpt lat="44.5117" lon="1.39137">
        <ele>168.1</ele>
        <time>2021-10-07T18:17:47Z</time>
      </trkpt>
      <trkpt lat="44.51171" lon="1.39138">
        <ele>168.1</ele>
        <time>2021-10-07T18:17:49Z</time>
      </trkpt>
      <trkpt lat="44.51171" lon="1.39138">
        <ele>168.1</ele>
        <time>2021-10-07T18:17:51Z</time>
      </trkpt>
      <trkpt lat="44.51171" lon="1.39137">
        <ele>168.1</ele>
        <time>2021-10-07T18:17:52Z</time>
      </trkpt>
      <trkpt lat="44.51171" lon="1.39137">
        <ele>168.1</ele>
        <time>2021-10-07T18:17:54Z</time>
      </trkpt>
      <trkpt lat="44.51172" lon="1.39137">
        <ele>168.1</ele>
        <time>2021-10-07T18:17:55Z</time>
      </trkpt>
      <trkpt lat="44.51172" lon="1.39137">
        <ele>168.1</ele>
        <time>2021-10-07T18:17:57Z</time>
      </trkpt>
      <trkpt lat="44.51165" lon="1.39133">
        <ele>168.2</ele>
        <time>2021-10-07T18:18:08Z</time>
      </trkpt>
      <trkpt lat="44.51162" lon="1.39132">
        <ele>168.5</ele>
        <time>2021-10-07T18:18:09Z</time>
      </trkpt>
      <trkpt lat="44.51161" lon="1.39132">
        <ele>168.5</ele>
        <time>2021-10-07T18:18:10Z</time>
      </trkpt>
      <trkpt lat="44.5116" lon="1.39131">
        <ele>168</ele>
        <time>2021-10-07T18:18:12Z</time>
      </trkpt>
      <trkpt lat="44.51159" lon="1.39131">
        <ele>168.2</ele>
        <time>2021-10-07T18:18:13Z</time>
      </trkpt>
      <trkpt lat="44.51158" lon="1.3913">
        <ele>168.2</ele>
        <time>2021-10-07T18:18:14Z</time>
      </trkpt>
      <trkpt lat="44.51157" lon="1.3913">
        <ele>168.2</ele>
        <time>2021-10-07T18:18:16Z</time>
      </trkpt>
      <trkpt lat="44.51156" lon="1.39129">
        <ele>168.5</ele>
        <time>2021-10-07T18:18:17Z</time>
      </trkpt>
      <trkpt lat="44.51155" lon="1.39129">
        <ele>168.5</ele>
        <time>2021-10-07T18:18:18Z</time>
      </trkpt>
      <trkpt lat="44.51154" lon="1.39128">
        <ele>168.5</ele>
        <time>2021-10-07T18:18:20Z</time>
      </trkpt>
      <trkpt lat="44.51153" lon="1.39127">
        <ele>168.7</ele>
        <time>2021-10-07T18:18:26Z</time>
      </trkpt>
      <trkpt lat="44.51152" lon="1.39127">
        <ele>168.1</ele>
        <time>2021-10-07T18:18:27Z</time>
      </trkpt>
      <trkpt lat="44.51145" lon="1.39126">
        <ele>168.6</ele>
        <time>2021-10-07T18:18:28Z</time>
      </trkpt>
      <trkpt lat="44.51138" lon="1.39127">
        <ele>169</ele>
        <time>2021-10-07T18:18:29Z</time>
      </trkpt>
      <trkpt lat="44.51132" lon="1.39129">
        <ele>170.2</ele>
        <time>2021-10-07T18:18:31Z</time>
      </trkpt>
      <trkpt lat="44.51127" lon="1.39128">
        <ele>170.4</ele>
        <time>2021-10-07T18:18:32Z</time>
      </trkpt>
      <trkpt lat="44.51124" lon="1.39129">
        <ele>170.5</ele>
        <time>2021-10-07T18:18:33Z</time>
      </trkpt>
      <trkpt lat="44.5112" lon="1.39129">
        <ele>170.6</ele>
        <time>2021-10-07T18:18:34Z</time>
      </trkpt>
      <trkpt lat="44.51116" lon="1.39129">
        <ele>170.9</ele>
        <time>2021-10-07T18:18:36Z</time>
      </trkpt>
      <trkpt lat="44.51111" lon="1.39131">
        <ele>171</ele>
        <time>2021-10-07T18:18:37Z</time>
      </trkpt>
      <trkpt lat="44.51108" lon="1.39134">
        <ele>171.7</ele>
        <time>2021-10-07T18:18:38Z</time>
      </trkpt>
      <trkpt lat="44.51101" lon="1.39138">
        <ele>172.5</ele>
        <time>2021-10-07T18:18:40Z</time>
      </trkpt>
      <trkpt lat="44.51093" lon="1.39145">
        <ele>173.4</ele>
        <time>2021-10-07T18:18:41Z</time>
      </trkpt>
      <trkpt lat="44.51088" lon="1.39149">
        <ele>173.9</ele>
        <time>2021-10-07T18:18:42Z</time>
      </trkpt>
      <trkpt lat="44.51085" lon="1.39153">
        <ele>174</ele>
        <time>2021-10-07T18:18:44Z</time>
      </trkpt>
      <trkpt lat="44.51081" lon="1.39158">
        <ele>174.5</ele>
        <time>2021-10-07T18:18:45Z</time>
      </trkpt>
      <trkpt lat="44.51077" lon="1.39164">
        <ele>174.8</ele>
        <time>2021-10-07T18:18:46Z</time>
      </trkpt>
      <trkpt lat="44.51076" lon="1.39169">
        <ele>174.9</ele>
        <time>2021-10-07T18:18:47Z</time>
      </trkpt>
      <trkpt lat="44.51073" lon="1.39175">
        <ele>175.1</ele>
        <time>2021-10-07T18:18:49Z</time>
      </trkpt>
      <trkpt lat="44.51071" lon="1.39179">
        <ele>175.1</ele>
        <time>2021-10-07T18:18:50Z</time>
      </trkpt>
      <trkpt lat="44.51069" lon="1.39186">
        <ele>175.3</ele>
        <time>2021-10-07T18:18:52Z</time>
      </trkpt>
      <trkpt lat="44.51067" lon="1.39192">
        <ele>175.3</ele>
        <time>2021-10-07T18:18:53Z</time>
      </trkpt>
      <trkpt lat="44.51066" lon="1.392">
        <ele>175.5</ele>
        <time>2021-10-07T18:18:54Z</time>
      </trkpt>
      <trkpt lat="44.51065" lon="1.39206">
        <ele>175.7</ele>
        <time>2021-10-07T18:18:55Z</time>
      </trkpt>
      <trkpt lat="44.51063" lon="1.3921">
        <ele>175.9</ele>
        <time>2021-10-07T18:18:57Z</time>
      </trkpt>
      <trkpt lat="44.51062" lon="1.39215">
        <ele>176.1</ele>
        <time>2021-10-07T18:18:58Z</time>
      </trkpt>
      <trkpt lat="44.51061" lon="1.39224">
        <ele>176.1</ele>
        <time>2021-10-07T18:18:59Z</time>
      </trkpt>
      <trkpt lat="44.51061" lon="1.3923">
        <ele>176.3</ele>
        <time>2021-10-07T18:19:00Z</time>
      </trkpt>
      <trkpt lat="44.51062" lon="1.39238">
        <ele>176.9</ele>
        <time>2021-10-07T18:19:02Z</time>
      </trkpt>
      <trkpt lat="44.51061" lon="1.39242">
        <ele>176.7</ele>
        <time>2021-10-07T18:19:03Z</time>
      </trkpt>
      <trkpt lat="44.5106" lon="1.39243">
        <ele>176.7</ele>
        <time>2021-10-07T18:19:04Z</time>
      </trkpt>
      <trkpt lat="44.51058" lon="1.39241">
        <ele>176.3</ele>
        <time>2021-10-07T18:19:06Z</time>
      </trkpt>
      <trkpt lat="44.51054" lon="1.39236">
        <ele>175.9</ele>
        <time>2021-10-07T18:19:07Z</time>
      </trkpt>
      <trkpt lat="44.5105" lon="1.39231">
        <ele>175.4</ele>
        <time>2021-10-07T18:19:08Z</time>
      </trkpt>
      <trkpt lat="44.51047" lon="1.39226">
        <ele>174.9</ele>
        <time>2021-10-07T18:19:09Z</time>
      </trkpt>
      <trkpt lat="44.51044" lon="1.39222">
        <ele>174.5</ele>
        <time>2021-10-07T18:19:10Z</time>
      </trkpt>
      <trkpt lat="44.5104" lon="1.39215">
        <ele>174</ele>
        <time>2021-10-07T18:19:12Z</time>
      </trkpt>
      <trkpt lat="44.51038" lon="1.3921">
        <ele>173.6</ele>
        <time>2021-10-07T18:19:13Z</time>
      </trkpt>
      <trkpt lat="44.51035" lon="1.39209">
        <ele>173.2</ele>
        <time>2021-10-07T18:19:14Z</time>
      </trkpt>
      <trkpt lat="44.51034" lon="1.39204">
        <ele>172.9</ele>
        <time>2021-10-07T18:19:15Z</time>
      </trkpt>
      <trkpt lat="44.51033" lon="1.392">
        <ele>172.7</ele>
        <time>2021-10-07T18:19:17Z</time>
      </trkpt>
      <trkpt lat="44.51033" lon="1.39196">
        <ele>172.6</ele>
        <time>2021-10-07T18:19:18Z</time>
      </trkpt>
      <trkpt lat="44.51033" lon="1.3919">
        <ele>172.5</ele>
        <time>2021-10-07T18:19:19Z</time>
      </trkpt>
      <trkpt lat="44.51032" lon="1.39185">
        <ele>172.4</ele>
        <time>2021-10-07T18:19:20Z</time>
      </trkpt>
      <trkpt lat="44.51031" lon="1.3918">
        <ele>172.3</ele>
        <time>2021-10-07T18:19:21Z</time>
      </trkpt>
      <trkpt lat="44.51032" lon="1.39173">
        <ele>172.3</ele>
        <time>2021-10-07T18:19:23Z</time>
      </trkpt>
      <trkpt lat="44.51031" lon="1.39165">
        <ele>172.5</ele>
        <time>2021-10-07T18:19:24Z</time>
      </trkpt>
      <trkpt lat="44.51032" lon="1.39157">
        <ele>172.8</ele>
        <time>2021-10-07T18:19:26Z</time>
      </trkpt>
      <trkpt lat="44.51034" lon="1.39151">
        <ele>173.1</ele>
        <time>2021-10-07T18:19:27Z</time>
      </trkpt>
      <trkpt lat="44.51033" lon="1.39143">
        <ele>173.5</ele>
        <time>2021-10-07T18:19:29Z</time>
      </trkpt>
      <trkpt lat="44.51032" lon="1.39137">
        <ele>173.8</ele>
        <time>2021-10-07T18:19:31Z</time>
      </trkpt>
      <trkpt lat="44.51033" lon="1.39133">
        <ele>174</ele>
        <time>2021-10-07T18:19:32Z</time>
      </trkpt>
      <trkpt lat="44.51033" lon="1.39131">
        <ele>174.1</ele>
        <time>2021-10-07T18:19:33Z</time>
      </trkpt>
      <trkpt lat="44.51033" lon="1.3913">
        <ele>174.2</ele>
        <time>2021-10-07T18:19:34Z</time>
      </trkpt>
      <trkpt lat="44.51034" lon="1.3913">
        <ele>174.2</ele>
        <time>2021-10-07T18:19:35Z</time>
      </trkpt>
      <trkpt lat="44.51034" lon="1.39129">
        <ele>173.8</ele>
        <time>2021-10-07T18:19:37Z</time>
      </trkpt>
      <trkpt lat="44.51035" lon="1.39129">
        <ele>173.8</ele>
        <time>2021-10-07T18:19:39Z</time>
      </trkpt>
      <trkpt lat="44.51035" lon="1.39128">
        <ele>173.9</ele>
        <time>2021-10-07T18:19:40Z</time>
      </trkpt>
      <trkpt lat="44.51035" lon="1.39126">
        <ele>174</ele>
        <time>2021-10-07T18:19:42Z</time>
      </trkpt>
      <trkpt lat="44.51036" lon="1.39123">
        <ele>174</ele>
        <time>2021-10-07T18:19:44Z</time>
      </trkpt>
      <trkpt lat="44.51036" lon="1.39121">
        <ele>174.1</ele>
        <time>2021-10-07T18:19:45Z</time>
      </trkpt>
      <trkpt lat="44.51041" lon="1.39113">
        <ele>173.5</ele>
        <time>2021-10-07T18:19:46Z</time>
      </trkpt>
      <trkpt lat="44.51045" lon="1.39109">
        <ele>173.2</ele>
        <time>2021-10-07T18:19:47Z</time>
      </trkpt>
      <trkpt lat="44.51047" lon="1.39105">
        <ele>172.8</ele>
        <time>2021-10-07T18:19:48Z</time>
      </trkpt>
      <trkpt lat="44.51049" lon="1.39099">
        <ele>172.7</ele>
        <time>2021-10-07T18:19:50Z</time>
      </trkpt>
      <trkpt lat="44.51052" lon="1.39096">
        <ele>172.3</ele>
        <time>2021-10-07T18:19:51Z</time>
      </trkpt>
      <trkpt lat="44.51055" lon="1.39094">
        <ele>171.9</ele>
        <time>2021-10-07T18:19:53Z</time>
      </trkpt>
      <trkpt lat="44.51055" lon="1.39093">
        <ele>171.9</ele>
        <time>2021-10-07T18:19:54Z</time>
      </trkpt>
      <trkpt lat="44.51057" lon="1.39092">
        <ele>171.4</ele>
        <time>2021-10-07T18:19:55Z</time>
      </trkpt>
      <trkpt lat="44.51059" lon="1.39088">
        <ele>170.9</ele>
        <time>2021-10-07T18:19:56Z</time>
      </trkpt>
      <trkpt lat="44.51063" lon="1.39081">
        <ele>170.4</ele>
        <time>2021-10-07T18:19:58Z</time>
      </trkpt>
      <trkpt lat="44.51067" lon="1.39077">
        <ele>169.9</ele>
        <time>2021-10-07T18:19:59Z</time>
      </trkpt>
      <trkpt lat="44.51071" lon="1.39074">
        <ele>169</ele>
        <time>2021-10-07T18:20:00Z</time>
      </trkpt>
      <trkpt lat="44.51074" lon="1.39069">
        <ele>168.5</ele>
        <time>2021-10-07T18:20:02Z</time>
      </trkpt>
      <trkpt lat="44.51078" lon="1.39062">
        <ele>167.8</ele>
        <time>2021-10-07T18:20:03Z</time>
      </trkpt>
      <trkpt lat="44.51081" lon="1.39058">
        <ele>167.2</ele>
        <time>2021-10-07T18:20:04Z</time>
      </trkpt>
      <trkpt lat="44.51083" lon="1.39056">
        <ele>167.2</ele>
        <time>2021-10-07T18:20:05Z</time>
      </trkpt>
      <trkpt lat="44.51084" lon="1.39052">
        <ele>166.6</ele>
        <time>2021-10-07T18:20:07Z</time>
      </trkpt>
      <trkpt lat="44.51087" lon="1.3905">
        <ele>166.1</ele>
        <time>2021-10-07T18:20:08Z</time>
      </trkpt>
      <trkpt lat="44.51088" lon="1.39048">
        <ele>166.1</ele>
        <time>2021-10-07T18:20:09Z</time>
      </trkpt>
      <trkpt lat="44.5109" lon="1.39045">
        <ele>165.6</ele>
        <time>2021-10-07T18:20:11Z</time>
      </trkpt>
      <trkpt lat="44.5109" lon="1.39044">
        <ele>165.6</ele>
        <time>2021-10-07T18:20:12Z</time>
      </trkpt>
      <trkpt lat="44.51091" lon="1.39043">
        <ele>165.6</ele>
        <time>2021-10-07T18:20:13Z</time>
      </trkpt>
      <trkpt lat="44.51091" lon="1.39043">
        <ele>165.6</ele>
        <time>2021-10-07T18:20:14Z</time>
      </trkpt>
      <trkpt lat="44.51092" lon="1.39042">
        <ele>165.6</ele>
        <time>2021-10-07T18:20:16Z</time>
      </trkpt>
      <trkpt lat="44.51094" lon="1.39038">
        <ele>165.2</ele>
        <time>2021-10-07T18:20:17Z</time>
      </trkpt>
      <trkpt lat="44.51096" lon="1.39035">
        <ele>164.9</ele>
        <time>2021-10-07T18:20:18Z</time>
      </trkpt>
      <trkpt lat="44.51096" lon="1.39034">
        <ele>164.9</ele>
        <time>2021-10-07T18:20:19Z</time>
      </trkpt>
      <trkpt lat="44.51096" lon="1.39033">
        <ele>164.8</ele>
        <time>2021-10-07T18:20:21Z</time>
      </trkpt>
      <trkpt lat="44.51097" lon="1.39032">
        <ele>164.8</ele>
        <time>2021-10-07T18:20:23Z</time>
      </trkpt>
      <trkpt lat="44.51097" lon="1.39031">
        <ele>164.8</ele>
        <time>2021-10-07T18:20:25Z</time>
      </trkpt>
      <trkpt lat="44.51097" lon="1.3903">
        <ele>164.8</ele>
        <time>2021-10-07T18:20:26Z</time>
      </trkpt>
      <trkpt lat="44.51097" lon="1.3903">
        <ele>164.8</ele>
        <time>2021-10-07T18:20:28Z</time>
      </trkpt>
      <trkpt lat="44.511" lon="1.39026">
        <ele>164.3</ele>
        <time>2021-10-07T18:20:30Z</time>
      </trkpt>
      <trkpt lat="44.51104" lon="1.39021">
        <ele>163.8</ele>
        <time>2021-10-07T18:20:32Z</time>
      </trkpt>
      <trkpt lat="44.51108" lon="1.39018">
        <ele>162.9</ele>
        <time>2021-10-07T18:20:34Z</time>
      </trkpt>
      <trkpt lat="44.51112" lon="1.39017">
        <ele>162.5</ele>
        <time>2021-10-07T18:20:35Z</time>
      </trkpt>
      <trkpt lat="44.51117" lon="1.39015">
        <ele>161.5</ele>
        <time>2021-10-07T18:20:36Z</time>
      </trkpt>
      <trkpt lat="44.51121" lon="1.39014">
        <ele>161.1</ele>
        <time>2021-10-07T18:20:37Z</time>
      </trkpt>
      <trkpt lat="44.51128" lon="1.39011">
        <ele>160.2</ele>
        <time>2021-10-07T18:20:39Z</time>
      </trkpt>
      <trkpt lat="44.51133" lon="1.3901">
        <ele>159</ele>
        <time>2021-10-07T18:20:40Z</time>
      </trkpt>
      <trkpt lat="44.51137" lon="1.39008">
        <ele>158.5</ele>
        <time>2021-10-07T18:20:41Z</time>
      </trkpt>
      <trkpt lat="44.51143" lon="1.39008">
        <ele>157.6</ele>
        <time>2021-10-07T18:20:43Z</time>
      </trkpt>
      <trkpt lat="44.51146" lon="1.39005">
        <ele>156.8</ele>
        <time>2021-10-07T18:20:44Z</time>
      </trkpt>
      <trkpt lat="44.51147" lon="1.39004">
        <ele>156.8</ele>
        <time>2021-10-07T18:20:45Z</time>
      </trkpt>
      <trkpt lat="44.51148" lon="1.39003">
        <ele>156.2</ele>
        <time>2021-10-07T18:20:46Z</time>
      </trkpt>
      <trkpt lat="44.51149" lon="1.39001">
        <ele>156.2</ele>
        <time>2021-10-07T18:20:47Z</time>
      </trkpt>
      <trkpt lat="44.51149" lon="1.39">
        <ele>156.2</ele>
        <time>2021-10-07T18:20:49Z</time>
      </trkpt>
      <trkpt lat="44.51151" lon="1.38997">
        <ele>155.6</ele>
        <time>2021-10-07T18:20:50Z</time>
      </trkpt>
      <trkpt lat="44.51152" lon="1.38995">
        <ele>155.6</ele>
        <time>2021-10-07T18:20:52Z</time>
      </trkpt>
      <trkpt lat="44.51153" lon="1.38993">
        <ele>155.3</ele>
        <time>2021-10-07T18:20:54Z</time>
      </trkpt>
      <trkpt lat="44.51154" lon="1.38991">
        <ele>155.2</ele>
        <time>2021-10-07T18:20:55Z</time>
      </trkpt>
      <trkpt lat="44.51155" lon="1.38989">
        <ele>155</ele>
        <time>2021-10-07T18:20:57Z</time>
      </trkpt>
      <trkpt lat="44.51156" lon="1.38986">
        <ele>155</ele>
        <time>2021-10-07T18:23:39Z</time>
      </trkpt>
      <trkpt lat="44.51157" lon="1.38984">
        <ele>154.7</ele>
        <time>2021-10-07T18:23:40Z</time>
      </trkpt>
      <trkpt lat="44.51158" lon="1.38979">
        <ele>154.6</ele>
        <time>2021-10-07T18:23:41Z</time>
      </trkpt>
      <trkpt lat="44.51158" lon="1.38976">
        <ele>154.4</ele>
        <time>2021-10-07T18:23:42Z</time>
      </trkpt>
      <trkpt lat="44.51158" lon="1.38973">
        <ele>154.4</ele>
        <time>2021-10-07T18:23:44Z</time>
      </trkpt>
      <trkpt lat="44.51158" lon="1.38972">
        <ele>154.2</ele>
        <time>2021-10-07T18:23:45Z</time>
      </trkpt>
      <trkpt lat="44.51158" lon="1.38971">
        <ele>154.2</ele>
        <time>2021-10-07T18:23:46Z</time>
      </trkpt>
      <trkpt lat="44.51158" lon="1.3897">
        <ele>154.2</ele>
        <time>2021-10-07T18:23:47Z</time>
      </trkpt>
      <trkpt lat="44.51158" lon="1.38969">
        <ele>154.2</ele>
        <time>2021-10-07T18:23:48Z</time>
      </trkpt>
      <trkpt lat="44.51158" lon="1.38968">
        <ele>154.1</ele>
        <time>2021-10-07T18:23:50Z</time>
      </trkpt>
      <trkpt lat="44.51158" lon="1.38967">
        <ele>154.1</ele>
        <time>2021-10-07T18:23:51Z</time>
      </trkpt>
      <trkpt lat="44.51158" lon="1.38966">
        <ele>154.1</ele>
        <time>2021-10-07T18:23:52Z</time>
      </trkpt>
      <trkpt lat="44.51158" lon="1.38965">
        <ele>154.1</ele>
        <time>2021-10-07T18:23:54Z</time>
      </trkpt>
      <trkpt lat="44.51158" lon="1.38964">
        <ele>153.9</ele>
        <time>2021-10-07T18:24:04Z</time>
      </trkpt>
      <trkpt lat="44.51158" lon="1.38963">
        <ele>153.9</ele>
        <time>2021-10-07T18:24:05Z</time>
      </trkpt>
      <trkpt lat="44.51158" lon="1.38954">
        <ele>153.6</ele>
        <time>2021-10-07T18:24:07Z</time>
      </trkpt>
      <trkpt lat="44.51158" lon="1.38947">
        <ele>153.4</ele>
        <time>2021-10-07T18:24:08Z</time>
      </trkpt>
      <trkpt lat="44.51157" lon="1.38941">
        <ele>153</ele>
        <time>2021-10-07T18:24:10Z</time>
      </trkpt>
      <trkpt lat="44.51157" lon="1.38936">
        <ele>152.8</ele>
        <time>2021-10-07T18:24:11Z</time>
      </trkpt>
      <trkpt lat="44.51156" lon="1.38929">
        <ele>152.5</ele>
        <time>2021-10-07T18:24:12Z</time>
      </trkpt>
      <trkpt lat="44.51154" lon="1.38923">
        <ele>152.4</ele>
        <time>2021-10-07T18:24:13Z</time>
      </trkpt>
      <trkpt lat="44.51152" lon="1.38914">
        <ele>152.2</ele>
        <time>2021-10-07T18:24:14Z</time>
      </trkpt>
      <trkpt lat="44.5115" lon="1.38905">
        <ele>152</ele>
        <time>2021-10-07T18:24:15Z</time>
      </trkpt>
      <trkpt lat="44.51147" lon="1.38884">
        <ele>151.3</ele>
        <time>2021-10-07T18:24:17Z</time>
      </trkpt>
      <trkpt lat="44.51146" lon="1.38874">
        <ele>150.9</ele>
        <time>2021-10-07T18:24:18Z</time>
      </trkpt>
      <trkpt lat="44.51143" lon="1.38856">
        <ele>150.2</ele>
        <time>2021-10-07T18:24:20Z</time>
      </trkpt>
      <trkpt lat="44.51139" lon="1.38838">
        <ele>150.2</ele>
        <time>2021-10-07T18:24:22Z</time>
      </trkpt>
      <trkpt lat="44.51136" lon="1.38829">
        <ele>150.6</ele>
        <time>2021-10-07T18:24:23Z</time>
      </trkpt>
      <trkpt lat="44.51134" lon="1.3882">
        <ele>151.1</ele>
        <time>2021-10-07T18:24:24Z</time>
      </trkpt>
      <trkpt lat="44.51129" lon="1.38804">
        <ele>151.9</ele>
        <time>2021-10-07T18:24:26Z</time>
      </trkpt>
      <trkpt lat="44.51127" lon="1.38796">
        <ele>152</ele>
        <time>2021-10-07T18:24:27Z</time>
      </trkpt>
      <trkpt lat="44.51122" lon="1.38779">
        <ele>152.1</ele>
        <time>2021-10-07T18:24:29Z</time>
      </trkpt>
      <trkpt lat="44.51119" lon="1.38771">
        <ele>152</ele>
        <time>2021-10-07T18:24:30Z</time>
      </trkpt>
      <trkpt lat="44.51112" lon="1.38756">
        <ele>151.8</ele>
        <time>2021-10-07T18:24:32Z</time>
      </trkpt>
      <trkpt lat="44.51105" lon="1.3874">
        <ele>151.2</ele>
        <time>2021-10-07T18:24:34Z</time>
      </trkpt>
      <trkpt lat="44.51102" lon="1.38732">
        <ele>150.9</ele>
        <time>2021-10-07T18:24:35Z</time>
      </trkpt>
      <trkpt lat="44.51098" lon="1.38724">
        <ele>150.7</ele>
        <time>2021-10-07T18:24:36Z</time>
      </trkpt>
      <trkpt lat="44.5109" lon="1.38709">
        <ele>150.3</ele>
        <time>2021-10-07T18:24:38Z</time>
      </trkpt>
      <trkpt lat="44.51079" lon="1.38696">
        <ele>150.1</ele>
        <time>2021-10-07T18:24:40Z</time>
      </trkpt>
      <trkpt lat="44.51073" lon="1.38691">
        <ele>150.2</ele>
        <time>2021-10-07T18:24:41Z</time>
      </trkpt>
      <trkpt lat="44.51067" lon="1.38686">
        <ele>150.1</ele>
        <time>2021-10-07T18:24:42Z</time>
      </trkpt>
      <trkpt lat="44.51054" lon="1.38679">
        <ele>149.5</ele>
        <time>2021-10-07T18:24:44Z</time>
      </trkpt>
      <trkpt lat="44.5105" lon="1.38677">
        <ele>149.3</ele>
        <time>2021-10-07T18:24:45Z</time>
      </trkpt>
      <trkpt lat="44.51048" lon="1.38674">
        <ele>149.2</ele>
        <time>2021-10-07T18:24:47Z</time>
      </trkpt>
      <trkpt lat="44.51047" lon="1.38673">
        <ele>149.2</ele>
        <time>2021-10-07T18:24:48Z</time>
      </trkpt>
      <trkpt lat="44.51045" lon="1.38669">
        <ele>149</ele>
        <time>2021-10-07T18:24:50Z</time>
      </trkpt>
      <trkpt lat="44.51043" lon="1.38664">
        <ele>148.8</ele>
        <time>2021-10-07T18:24:52Z</time>
      </trkpt>
      <trkpt lat="44.51043" lon="1.38665">
        <ele>148.7</ele>
        <time>2021-10-07T18:24:53Z</time>
      </trkpt>
      <trkpt lat="44.51041" lon="1.38659">
        <ele>148.4</ele>
        <time>2021-10-07T18:24:55Z</time>
      </trkpt>
      <trkpt lat="44.5104" lon="1.38653">
        <ele>148.2</ele>
        <time>2021-10-07T18:24:56Z</time>
      </trkpt>
      <trkpt lat="44.51038" lon="1.38647">
        <ele>148</ele>
        <time>2021-10-07T18:24:57Z</time>
      </trkpt>
      <trkpt lat="44.51034" lon="1.38638">
        <ele>147.6</ele>
        <time>2021-10-07T18:24:59Z</time>
      </trkpt>
      <trkpt lat="44.51031" lon="1.38629">
        <ele>147.3</ele>
        <time>2021-10-07T18:25:01Z</time>
      </trkpt>
      <trkpt lat="44.51028" lon="1.38618">
        <ele>146.9</ele>
        <time>2021-10-07T18:25:02Z</time>
      </trkpt>
      <trkpt lat="44.51025" lon="1.38611">
        <ele>146.7</ele>
        <time>2021-10-07T18:25:03Z</time>
      </trkpt>
      <trkpt lat="44.51022" lon="1.38605">
        <ele>146.7</ele>
        <time>2021-10-07T18:25:04Z</time>
      </trkpt>
      <trkpt lat="44.51017" lon="1.38593">
        <ele>146.2</ele>
        <time>2021-10-07T18:25:06Z</time>
      </trkpt>
      <trkpt lat="44.51014" lon="1.38587">
        <ele>146</ele>
        <time>2021-10-07T18:25:07Z</time>
      </trkpt>
      <trkpt lat="44.51012" lon="1.38581">
        <ele>145.6</ele>
        <time>2021-10-07T18:25:08Z</time>
      </trkpt>
      <trkpt lat="44.51009" lon="1.38575">
        <ele>145.4</ele>
        <time>2021-10-07T18:25:09Z</time>
      </trkpt>
      <trkpt lat="44.51011" lon="1.3857">
        <ele>145.5</ele>
        <time>2021-10-07T18:25:11Z</time>
      </trkpt>
      <trkpt lat="44.51011" lon="1.38565">
        <ele>145.4</ele>
        <time>2021-10-07T18:25:12Z</time>
      </trkpt>
      <trkpt lat="44.51012" lon="1.38564">
        <ele>145.4</ele>
        <time>2021-10-07T18:25:13Z</time>
      </trkpt>
      <trkpt lat="44.51015" lon="1.38562">
        <ele>145.3</ele>
        <time>2021-10-07T18:25:15Z</time>
      </trkpt>
      <trkpt lat="44.51017" lon="1.38559">
        <ele>145.3</ele>
        <time>2021-10-07T18:25:16Z</time>
      </trkpt>
      <trkpt lat="44.51019" lon="1.38557">
        <ele>145.3</ele>
        <time>2021-10-07T18:25:17Z</time>
      </trkpt>
      <trkpt lat="44.51023" lon="1.38556">
        <ele>145.3</ele>
        <time>2021-10-07T18:25:19Z</time>
      </trkpt>
      <trkpt lat="44.51025" lon="1.38552">
        <ele>145.3</ele>
        <time>2021-10-07T18:25:20Z</time>
      </trkpt>
      <trkpt lat="44.51028" lon="1.3855">
        <ele>145.3</ele>
        <time>2021-10-07T18:25:21Z</time>
      </trkpt>
      <trkpt lat="44.5103" lon="1.38548">
        <ele>145.3</ele>
        <time>2021-10-07T18:25:22Z</time>
      </trkpt>
      <trkpt lat="44.51031" lon="1.38547">
        <ele>145.3</ele>
        <time>2021-10-07T18:25:23Z</time>
      </trkpt>
      <trkpt lat="44.51034" lon="1.38543">
        <ele>145.3</ele>
        <time>2021-10-07T18:25:25Z</time>
      </trkpt>
      <trkpt lat="44.51035" lon="1.38541">
        <ele>145.4</ele>
        <time>2021-10-07T18:25:26Z</time>
      </trkpt>
      <trkpt lat="44.51038" lon="1.38538">
        <ele>145.4</ele>
        <time>2021-10-07T18:25:27Z</time>
      </trkpt>
      <trkpt lat="44.5104" lon="1.38536">
        <ele>145.4</ele>
        <time>2021-10-07T18:25:28Z</time>
      </trkpt>
      <trkpt lat="44.51042" lon="1.38532">
        <ele>145.5</ele>
        <time>2021-10-07T18:25:30Z</time>
      </trkpt>
      <trkpt lat="44.51045" lon="1.38529">
        <ele>145.5</ele>
        <time>2021-10-07T18:25:31Z</time>
      </trkpt>
      <trkpt lat="44.51047" lon="1.38528">
        <ele>145.5</ele>
        <time>2021-10-07T18:25:32Z</time>
      </trkpt>
      <trkpt lat="44.51049" lon="1.38526">
        <ele>145.5</ele>
        <time>2021-10-07T18:25:34Z</time>
      </trkpt>
      <trkpt lat="44.51049" lon="1.38524">
        <ele>145.5</ele>
        <time>2021-10-07T18:25:35Z</time>
      </trkpt>
      <trkpt lat="44.51049" lon="1.38521">
        <ele>145.5</ele>
        <time>2021-10-07T18:25:36Z</time>
      </trkpt>
      <trkpt lat="44.5105" lon="1.38519">
        <ele>145.5</ele>
        <time>2021-10-07T18:25:37Z</time>
      </trkpt>
      <trkpt lat="44.51052" lon="1.38517">
        <ele>145.5</ele>
        <time>2021-10-07T18:25:39Z</time>
      </trkpt>
      <trkpt lat="44.51052" lon="1.38513">
        <ele>145.5</ele>
        <time>2021-10-07T18:25:40Z</time>
      </trkpt>
      <trkpt lat="44.51054" lon="1.38508">
        <ele>145.5</ele>
        <time>2021-10-07T18:25:42Z</time>
      </trkpt>
      <trkpt lat="44.51055" lon="1.38502">
        <ele>145.5</ele>
        <time>2021-10-07T18:25:43Z</time>
      </trkpt>
      <trkpt lat="44.51056" lon="1.38495">
        <ele>145.6</ele>
        <time>2021-10-07T18:25:45Z</time>
      </trkpt>
      <trkpt lat="44.51057" lon="1.38488">
        <ele>145.6</ele>
        <time>2021-10-07T18:25:46Z</time>
      </trkpt>
      <trkpt lat="44.51057" lon="1.3848">
        <ele>145.7</ele>
        <time>2021-10-07T18:25:48Z</time>
      </trkpt>
      <trkpt lat="44.51056" lon="1.38475">
        <ele>145.8</ele>
        <time>2021-10-07T18:25:49Z</time>
      </trkpt>
      <trkpt lat="44.51056" lon="1.38467">
        <ele>145.8</ele>
        <time>2021-10-07T18:25:51Z</time>
      </trkpt>
      <trkpt lat="44.51057" lon="1.38461">
        <ele>145.8</ele>
        <time>2021-10-07T18:25:52Z</time>
      </trkpt>
      <trkpt lat="44.51056" lon="1.38456">
        <ele>145.8</ele>
        <time>2021-10-07T18:25:53Z</time>
      </trkpt>
      <trkpt lat="44.51056" lon="1.38452">
        <ele>145.8</ele>
        <time>2021-10-07T18:25:55Z</time>
      </trkpt>
      <trkpt lat="44.51056" lon="1.38448">
        <ele>145.8</ele>
        <time>2021-10-07T18:25:56Z</time>
      </trkpt>
      <trkpt lat="44.51056" lon="1.38441">
        <ele>145.9</ele>
        <time>2021-10-07T18:25:57Z</time>
      </trkpt>
      <trkpt lat="44.51057" lon="1.38436">
        <ele>145.9</ele>
        <time>2021-10-07T18:25:58Z</time>
      </trkpt>
      <trkpt lat="44.51057" lon="1.38432">
        <ele>145.9</ele>
        <time>2021-10-07T18:25:59Z</time>
      </trkpt>
      <trkpt lat="44.51058" lon="1.38426">
        <ele>146</ele>
        <time>2021-10-07T18:26:01Z</time>
      </trkpt>
      <trkpt lat="44.51058" lon="1.38421">
        <ele>146</ele>
        <time>2021-10-07T18:26:02Z</time>
      </trkpt>
      <trkpt lat="44.51058" lon="1.38418">
        <ele>146</ele>
        <time>2021-10-07T18:26:03Z</time>
      </trkpt>
      <trkpt lat="44.51059" lon="1.38413">
        <ele>146.1</ele>
        <time>2021-10-07T18:26:05Z</time>
      </trkpt>
      <trkpt lat="44.51059" lon="1.38408">
        <ele>146.1</ele>
        <time>2021-10-07T18:26:07Z</time>
      </trkpt>
      <trkpt lat="44.51059" lon="1.38403">
        <ele>146.2</ele>
        <time>2021-10-07T18:26:08Z</time>
      </trkpt>
      <trkpt lat="44.51059" lon="1.38399">
        <ele>146.3</ele>
        <time>2021-10-07T18:26:09Z</time>
      </trkpt>
      <trkpt lat="44.5106" lon="1.38393">
        <ele>146.2</ele>
        <time>2021-10-07T18:26:11Z</time>
      </trkpt>
      <trkpt lat="44.5106" lon="1.38392">
        <ele>146.2</ele>
        <time>2021-10-07T18:26:12Z</time>
      </trkpt>
      <trkpt lat="44.5106" lon="1.38391">
        <ele>146.2</ele>
        <time>2021-10-07T18:26:13Z</time>
      </trkpt>
      <trkpt lat="44.5106" lon="1.38386">
        <ele>146</ele>
        <time>2021-10-07T18:26:15Z</time>
      </trkpt>
      <trkpt lat="44.51059" lon="1.38382">
        <ele>145.9</ele>
        <time>2021-10-07T18:26:16Z</time>
      </trkpt>
      <trkpt lat="44.51056" lon="1.38376">
        <ele>145.6</ele>
        <time>2021-10-07T18:26:18Z</time>
      </trkpt>
      <trkpt lat="44.51052" lon="1.38372">
        <ele>145.2</ele>
        <time>2021-10-07T18:26:19Z</time>
      </trkpt>
      <trkpt lat="44.51047" lon="1.38371">
        <ele>144.9</ele>
        <time>2021-10-07T18:26:20Z</time>
      </trkpt>
      <trkpt lat="44.51042" lon="1.38371">
        <ele>144.6</ele>
        <time>2021-10-07T18:26:21Z</time>
      </trkpt>
      <trkpt lat="44.51035" lon="1.38371">
        <ele>144.1</ele>
        <time>2021-10-07T18:26:23Z</time>
      </trkpt>
      <trkpt lat="44.51028" lon="1.38371">
        <ele>143.7</ele>
        <time>2021-10-07T18:26:24Z</time>
      </trkpt>
      <trkpt lat="44.51022" lon="1.38371">
        <ele>143.4</ele>
        <time>2021-10-07T18:26:25Z</time>
      </trkpt>
      <trkpt lat="44.51012" lon="1.38371">
        <ele>142.8</ele>
        <time>2021-10-07T18:26:27Z</time>
      </trkpt>
      <trkpt lat="44.51001" lon="1.38371">
        <ele>142.3</ele>
        <time>2021-10-07T18:26:29Z</time>
      </trkpt>
      <trkpt lat="44.5099" lon="1.3837">
        <ele>141.8</ele>
        <time>2021-10-07T18:26:31Z</time>
      </trkpt>
      <trkpt lat="44.5098" lon="1.38369">
        <ele>141.2</ele>
        <time>2021-10-07T18:26:33Z</time>
      </trkpt>
      <trkpt lat="44.50974" lon="1.38368">
        <ele>141</ele>
        <time>2021-10-07T18:26:34Z</time>
      </trkpt>
      <trkpt lat="44.50963" lon="1.38362">
        <ele>140.4</ele>
        <time>2021-10-07T18:26:36Z</time>
      </trkpt>
      <trkpt lat="44.50959" lon="1.38358">
        <ele>140.1</ele>
        <time>2021-10-07T18:26:37Z</time>
      </trkpt>
      <trkpt lat="44.50957" lon="1.38351">
        <ele>139.8</ele>
        <time>2021-10-07T18:26:38Z</time>
      </trkpt>
      <trkpt lat="44.50956" lon="1.38337">
        <ele>139.2</ele>
        <time>2021-10-07T18:26:40Z</time>
      </trkpt>
      <trkpt lat="44.50958" lon="1.38319">
        <ele>138.5</ele>
        <time>2021-10-07T18:26:42Z</time>
      </trkpt>
      <trkpt lat="44.50959" lon="1.3831">
        <ele>138.1</ele>
        <time>2021-10-07T18:26:43Z</time>
      </trkpt>
      <trkpt lat="44.50962" lon="1.38295">
        <ele>137.4</ele>
        <time>2021-10-07T18:26:45Z</time>
      </trkpt>
      <trkpt lat="44.50966" lon="1.38283">
        <ele>136.9</ele>
        <time>2021-10-07T18:26:47Z</time>
      </trkpt>
      <trkpt lat="44.50967" lon="1.38279">
        <ele>136.8</ele>
        <time>2021-10-07T18:26:48Z</time>
      </trkpt>
      <trkpt lat="44.50972" lon="1.38273">
        <ele>136.5</ele>
        <time>2021-10-07T18:26:50Z</time>
      </trkpt>
      <trkpt lat="44.50978" lon="1.38268">
        <ele>136.4</ele>
        <time>2021-10-07T18:26:52Z</time>
      </trkpt>
      <trkpt lat="44.5098" lon="1.38267">
        <ele>136.3</ele>
        <time>2021-10-07T18:26:53Z</time>
      </trkpt>
      <trkpt lat="44.50985" lon="1.38263">
        <ele>136.1</ele>
        <time>2021-10-07T18:26:55Z</time>
      </trkpt>
      <trkpt lat="44.50988" lon="1.38258">
        <ele>136</ele>
        <time>2021-10-07T18:26:56Z</time>
      </trkpt>
      <trkpt lat="44.50992" lon="1.38252">
        <ele>135.9</ele>
        <time>2021-10-07T18:26:57Z</time>
      </trkpt>
      <trkpt lat="44.50996" lon="1.38247">
        <ele>135.8</ele>
        <time>2021-10-07T18:26:59Z</time>
      </trkpt>
      <trkpt lat="44.50999" lon="1.38243">
        <ele>135.7</ele>
        <time>2021-10-07T18:27:00Z</time>
      </trkpt>
      <trkpt lat="44.51001" lon="1.38239">
        <ele>135.7</ele>
        <time>2021-10-07T18:27:01Z</time>
      </trkpt>
      <trkpt lat="44.51005" lon="1.38233">
        <ele>135.6</ele>
        <time>2021-10-07T18:27:02Z</time>
      </trkpt>
      <trkpt lat="44.51008" lon="1.38229">
        <ele>135.6</ele>
        <time>2021-10-07T18:27:03Z</time>
      </trkpt>
      <trkpt lat="44.5101" lon="1.38226">
        <ele>135.5</ele>
        <time>2021-10-07T18:27:04Z</time>
      </trkpt>
      <trkpt lat="44.51012" lon="1.38222">
        <ele>135.5</ele>
        <time>2021-10-07T18:27:05Z</time>
      </trkpt>
      <trkpt lat="44.51015" lon="1.38218">
        <ele>135.5</ele>
        <time>2021-10-07T18:27:06Z</time>
      </trkpt>
      <trkpt lat="44.51018" lon="1.38212">
        <ele>135.5</ele>
        <time>2021-10-07T18:27:08Z</time>
      </trkpt>
      <trkpt lat="44.51022" lon="1.38206">
        <ele>135.4</ele>
        <time>2021-10-07T18:27:09Z</time>
      </trkpt>
      <trkpt lat="44.51025" lon="1.38202">
        <ele>135.4</ele>
        <time>2021-10-07T18:27:10Z</time>
      </trkpt>
      <trkpt lat="44.51027" lon="1.38197">
        <ele>135.4</ele>
        <time>2021-10-07T18:27:12Z</time>
      </trkpt>
      <trkpt lat="44.51031" lon="1.3819">
        <ele>135.3</ele>
        <time>2021-10-07T18:27:13Z</time>
      </trkpt>
      <trkpt lat="44.51035" lon="1.38183">
        <ele>135.2</ele>
        <time>2021-10-07T18:27:15Z</time>
      </trkpt>
      <trkpt lat="44.51039" lon="1.38177">
        <ele>135.1</ele>
        <time>2021-10-07T18:27:16Z</time>
      </trkpt>
      <trkpt lat="44.51044" lon="1.38174">
        <ele>135</ele>
        <time>2021-10-07T18:27:17Z</time>
      </trkpt>
      <trkpt lat="44.51047" lon="1.38173">
        <ele>134.9</ele>
        <time>2021-10-07T18:27:18Z</time>
      </trkpt>
      <trkpt lat="44.51053" lon="1.38171">
        <ele>134.8</ele>
        <time>2021-10-07T18:27:20Z</time>
      </trkpt>
      <trkpt lat="44.51055" lon="1.38166">
        <ele>134.8</ele>
        <time>2021-10-07T18:27:21Z</time>
      </trkpt>
      <trkpt lat="44.51057" lon="1.3816">
        <ele>134.8</ele>
        <time>2021-10-07T18:27:22Z</time>
      </trkpt>
      <trkpt lat="44.51062" lon="1.38154">
        <ele>134.7</ele>
        <time>2021-10-07T18:27:24Z</time>
      </trkpt>
      <trkpt lat="44.51066" lon="1.38147">
        <ele>134.7</ele>
        <time>2021-10-07T18:27:26Z</time>
      </trkpt>
      <trkpt lat="44.51069" lon="1.38141">
        <ele>134.7</ele>
        <time>2021-10-07T18:27:27Z</time>
      </trkpt>
      <trkpt lat="44.51072" lon="1.38137">
        <ele>134.7</ele>
        <time>2021-10-07T18:27:28Z</time>
      </trkpt>
      <trkpt lat="44.51075" lon="1.38132">
        <ele>134.7</ele>
        <time>2021-10-07T18:27:29Z</time>
      </trkpt>
      <trkpt lat="44.51079" lon="1.38123">
        <ele>134.6</ele>
        <time>2021-10-07T18:27:31Z</time>
      </trkpt>
      <trkpt lat="44.51082" lon="1.38115">
        <ele>134.6</ele>
        <time>2021-10-07T18:27:33Z</time>
      </trkpt>
      <trkpt lat="44.51086" lon="1.38103">
        <ele>134.7</ele>
        <time>2021-10-07T18:27:34Z</time>
      </trkpt>
      <trkpt lat="44.5109" lon="1.38089">
        <ele>134.7</ele>
        <time>2021-10-07T18:27:36Z</time>
      </trkpt>
      <trkpt lat="44.51094" lon="1.38077">
        <ele>134.8</ele>
        <time>2021-10-07T18:27:38Z</time>
      </trkpt>
      <trkpt lat="44.51096" lon="1.38066">
        <ele>134.9</ele>
        <time>2021-10-07T18:27:40Z</time>
      </trkpt>
      <trkpt lat="44.51097" lon="1.38058">
        <ele>135</ele>
        <time>2021-10-07T18:27:41Z</time>
      </trkpt>
      <trkpt lat="44.51097" lon="1.38053">
        <ele>135</ele>
        <time>2021-10-07T18:27:42Z</time>
      </trkpt>
      <trkpt lat="44.51097" lon="1.38045">
        <ele>135.1</ele>
        <time>2021-10-07T18:27:44Z</time>
      </trkpt>
      <trkpt lat="44.51096" lon="1.38039">
        <ele>135.2</ele>
        <time>2021-10-07T18:27:45Z</time>
      </trkpt>
      <trkpt lat="44.51094" lon="1.38031">
        <ele>135.2</ele>
        <time>2021-10-07T18:27:46Z</time>
      </trkpt>
      <trkpt lat="44.51092" lon="1.38022">
        <ele>135.3</ele>
        <time>2021-10-07T18:27:48Z</time>
      </trkpt>
      <trkpt lat="44.51092" lon="1.38012">
        <ele>135.3</ele>
        <time>2021-10-07T18:27:50Z</time>
      </trkpt>
      <trkpt lat="44.51092" lon="1.38004">
        <ele>135.3</ele>
        <time>2021-10-07T18:27:52Z</time>
      </trkpt>
      <trkpt lat="44.51093" lon="1.38">
        <ele>135.5</ele>
        <time>2021-10-07T18:27:53Z</time>
      </trkpt>
      <trkpt lat="44.51095" lon="1.37995">
        <ele>135.7</ele>
        <time>2021-10-07T18:27:54Z</time>
      </trkpt>
      <trkpt lat="44.51097" lon="1.37991">
        <ele>135.9</ele>
        <time>2021-10-07T18:27:55Z</time>
      </trkpt>
      <trkpt lat="44.51098" lon="1.37989">
        <ele>135.9</ele>
        <time>2021-10-07T18:27:56Z</time>
      </trkpt>
      <trkpt lat="44.511" lon="1.37985">
        <ele>136.1</ele>
        <time>2021-10-07T18:27:58Z</time>
      </trkpt>
      <trkpt lat="44.51101" lon="1.37981">
        <ele>136.3</ele>
        <time>2021-10-07T18:27:59Z</time>
      </trkpt>
      <trkpt lat="44.51104" lon="1.37977">
        <ele>136.5</ele>
        <time>2021-10-07T18:28:00Z</time>
      </trkpt>
      <trkpt lat="44.51106" lon="1.37972">
        <ele>136.7</ele>
        <time>2021-10-07T18:28:02Z</time>
      </trkpt>
      <trkpt lat="44.51108" lon="1.37967">
        <ele>136.9</ele>
        <time>2021-10-07T18:28:03Z</time>
      </trkpt>
      <trkpt lat="44.51109" lon="1.37965">
        <ele>137</ele>
        <time>2021-10-07T18:28:04Z</time>
      </trkpt>
      <trkpt lat="44.51112" lon="1.37959">
        <ele>137.2</ele>
        <time>2021-10-07T18:28:06Z</time>
      </trkpt>
      <trkpt lat="44.51114" lon="1.37955">
        <ele>137.3</ele>
        <time>2021-10-07T18:28:08Z</time>
      </trkpt>
      <trkpt lat="44.51115" lon="1.37951">
        <ele>137.5</ele>
        <time>2021-10-07T18:28:09Z</time>
      </trkpt>
      <trkpt lat="44.51116" lon="1.37947">
        <ele>137.6</ele>
        <time>2021-10-07T18:28:10Z</time>
      </trkpt>
      <trkpt lat="44.51117" lon="1.37943">
        <ele>137.8</ele>
        <time>2021-10-07T18:28:11Z</time>
      </trkpt>
      <trkpt lat="44.51119" lon="1.37938">
        <ele>137.9</ele>
        <time>2021-10-07T18:28:13Z</time>
      </trkpt>
      <trkpt lat="44.51121" lon="1.37935">
        <ele>138.1</ele>
        <time>2021-10-07T18:28:14Z</time>
      </trkpt>
      <trkpt lat="44.51122" lon="1.37931">
        <ele>138.2</ele>
        <time>2021-10-07T18:28:15Z</time>
      </trkpt>
      <trkpt lat="44.51125" lon="1.37924">
        <ele>138.4</ele>
        <time>2021-10-07T18:28:17Z</time>
      </trkpt>
      <trkpt lat="44.51127" lon="1.37918">
        <ele>138.6</ele>
        <time>2021-10-07T18:28:19Z</time>
      </trkpt>
      <trkpt lat="44.51128" lon="1.37913">
        <ele>138.7</ele>
        <time>2021-10-07T18:28:20Z</time>
      </trkpt>
      <trkpt lat="44.5113" lon="1.37909">
        <ele>138.8</ele>
        <time>2021-10-07T18:28:22Z</time>
      </trkpt>
      <trkpt lat="44.51131" lon="1.37904">
        <ele>139</ele>
        <time>2021-10-07T18:28:23Z</time>
      </trkpt>
      <trkpt lat="44.51133" lon="1.37898">
        <ele>139.1</ele>
        <time>2021-10-07T18:28:25Z</time>
      </trkpt>
      <trkpt lat="44.51135" lon="1.37892">
        <ele>139.3</ele>
        <time>2021-10-07T18:28:27Z</time>
      </trkpt>
      <trkpt lat="44.51136" lon="1.37887">
        <ele>139.4</ele>
        <time>2021-10-07T18:28:29Z</time>
      </trkpt>
      <trkpt lat="44.51137" lon="1.37883">
        <ele>139.5</ele>
        <time>2021-10-07T18:28:30Z</time>
      </trkpt>
      <trkpt lat="44.51139" lon="1.37877">
        <ele>139.7</ele>
        <time>2021-10-07T18:28:32Z</time>
      </trkpt>
      <trkpt lat="44.5114" lon="1.37873">
        <ele>139.8</ele>
        <time>2021-10-07T18:28:33Z</time>
      </trkpt>
      <trkpt lat="44.51141" lon="1.37869">
        <ele>139.9</ele>
        <time>2021-10-07T18:28:35Z</time>
      </trkpt>
      <trkpt lat="44.51143" lon="1.37865">
        <ele>140</ele>
        <time>2021-10-07T18:28:36Z</time>
      </trkpt>
      <trkpt lat="44.51144" lon="1.37861">
        <ele>140.1</ele>
        <time>2021-10-07T18:28:37Z</time>
      </trkpt>
      <trkpt lat="44.51145" lon="1.37854">
        <ele>140.2</ele>
        <time>2021-10-07T18:28:39Z</time>
      </trkpt>
      <trkpt lat="44.51146" lon="1.3785">
        <ele>140.4</ele>
        <time>2021-10-07T18:28:41Z</time>
      </trkpt>
      <trkpt lat="44.51148" lon="1.37845">
        <ele>140.5</ele>
        <time>2021-10-07T18:28:42Z</time>
      </trkpt>
      <trkpt lat="44.51149" lon="1.3784">
        <ele>140.7</ele>
        <time>2021-10-07T18:28:43Z</time>
      </trkpt>
      <trkpt lat="44.5115" lon="1.37838">
        <ele>140.7</ele>
        <time>2021-10-07T18:28:44Z</time>
      </trkpt>
      <trkpt lat="44.51152" lon="1.37833">
        <ele>140.9</ele>
        <time>2021-10-07T18:28:46Z</time>
      </trkpt>
      <trkpt lat="44.51153" lon="1.3783">
        <ele>141</ele>
        <time>2021-10-07T18:28:47Z</time>
      </trkpt>
      <trkpt lat="44.51155" lon="1.37824">
        <ele>141.2</ele>
        <time>2021-10-07T18:28:49Z</time>
      </trkpt>
      <trkpt lat="44.51156" lon="1.37821">
        <ele>141.4</ele>
        <time>2021-10-07T18:28:50Z</time>
      </trkpt>
      <trkpt lat="44.51158" lon="1.37816">
        <ele>141.5</ele>
        <time>2021-10-07T18:28:52Z</time>
      </trkpt>
      <trkpt lat="44.5116" lon="1.37812">
        <ele>141.7</ele>
        <time>2021-10-07T18:28:54Z</time>
      </trkpt>
      <trkpt lat="44.51161" lon="1.37807">
        <ele>141.9</ele>
        <time>2021-10-07T18:28:55Z</time>
      </trkpt>
      <trkpt lat="44.51161" lon="1.37805">
        <ele>141.9</ele>
        <time>2021-10-07T18:28:56Z</time>
      </trkpt>
      <trkpt lat="44.51162" lon="1.37801">
        <ele>142.1</ele>
        <time>2021-10-07T18:28:57Z</time>
      </trkpt>
      <trkpt lat="44.51162" lon="1.378">
        <ele>142.2</ele>
        <time>2021-10-07T18:28:58Z</time>
      </trkpt>
      <trkpt lat="44.51164" lon="1.37797">
        <ele>142.3</ele>
        <time>2021-10-07T18:29:00Z</time>
      </trkpt>
      <trkpt lat="44.51165" lon="1.37793">
        <ele>142.5</ele>
        <time>2021-10-07T18:29:01Z</time>
      </trkpt>
      <trkpt lat="44.51166" lon="1.37789">
        <ele>142.7</ele>
        <time>2021-10-07T18:29:02Z</time>
      </trkpt>
      <trkpt lat="44.51167" lon="1.37785">
        <ele>142.9</ele>
        <time>2021-10-07T18:29:03Z</time>
      </trkpt>
      <trkpt lat="44.51168" lon="1.37784">
        <ele>143</ele>
        <time>2021-10-07T18:29:04Z</time>
      </trkpt>
      <trkpt lat="44.51171" lon="1.37778">
        <ele>143.3</ele>
        <time>2021-10-07T18:29:06Z</time>
      </trkpt>
      <trkpt lat="44.51172" lon="1.37776">
        <ele>143.4</ele>
        <time>2021-10-07T18:29:07Z</time>
      </trkpt>
      <trkpt lat="44.51174" lon="1.37774">
        <ele>143.5</ele>
        <time>2021-10-07T18:29:08Z</time>
      </trkpt>
      <trkpt lat="44.51175" lon="1.37773">
        <ele>143.7</ele>
        <time>2021-10-07T18:29:09Z</time>
      </trkpt>
      <trkpt lat="44.51178" lon="1.37769">
        <ele>144</ele>
        <time>2021-10-07T18:29:11Z</time>
      </trkpt>
      <trkpt lat="44.51181" lon="1.37766">
        <ele>144.4</ele>
        <time>2021-10-07T18:29:12Z</time>
      </trkpt>
      <trkpt lat="44.51182" lon="1.37765">
        <ele>144.5</ele>
        <time>2021-10-07T18:29:13Z</time>
      </trkpt>
      <trkpt lat="44.51186" lon="1.37762">
        <ele>144.9</ele>
        <time>2021-10-07T18:29:15Z</time>
      </trkpt>
      <trkpt lat="44.51187" lon="1.3776">
        <ele>145.1</ele>
        <time>2021-10-07T18:29:16Z</time>
      </trkpt>
      <trkpt lat="44.51188" lon="1.37759">
        <ele>145.2</ele>
        <time>2021-10-07T18:29:17Z</time>
      </trkpt>
      <trkpt lat="44.51189" lon="1.37756">
        <ele>145.5</ele>
        <time>2021-10-07T18:29:18Z</time>
      </trkpt>
      <trkpt lat="44.51191" lon="1.37754">
        <ele>145.7</ele>
        <time>2021-10-07T18:29:20Z</time>
      </trkpt>
      <trkpt lat="44.51193" lon="1.37751">
        <ele>146</ele>
        <time>2021-10-07T18:29:21Z</time>
      </trkpt>
      <trkpt lat="44.51194" lon="1.3775">
        <ele>146.2</ele>
        <time>2021-10-07T18:29:22Z</time>
      </trkpt>
      <trkpt lat="44.51196" lon="1.37746">
        <ele>146.6</ele>
        <time>2021-10-07T18:29:24Z</time>
      </trkpt>
      <trkpt lat="44.512" lon="1.37743">
        <ele>147.1</ele>
        <time>2021-10-07T18:29:26Z</time>
      </trkpt>
      <trkpt lat="44.51202" lon="1.37741">
        <ele>147.3</ele>
        <time>2021-10-07T18:29:27Z</time>
      </trkpt>
      <trkpt lat="44.51203" lon="1.3774">
        <ele>147.5</ele>
        <time>2021-10-07T18:29:28Z</time>
      </trkpt>
      <trkpt lat="44.51205" lon="1.37737">
        <ele>147.9</ele>
        <time>2021-10-07T18:29:30Z</time>
      </trkpt>
      <trkpt lat="44.51209" lon="1.37733">
        <ele>148.4</ele>
        <time>2021-10-07T18:29:32Z</time>
      </trkpt>
      <trkpt lat="44.5121" lon="1.37732">
        <ele>148.6</ele>
        <time>2021-10-07T18:29:34Z</time>
      </trkpt>
      <trkpt lat="44.51211" lon="1.37731">
        <ele>148.8</ele>
        <time>2021-10-07T18:29:35Z</time>
      </trkpt>
      <trkpt lat="44.51212" lon="1.37729">
        <ele>149</ele>
        <time>2021-10-07T18:29:37Z</time>
      </trkpt>
      <trkpt lat="44.51214" lon="1.37728">
        <ele>149.3</ele>
        <time>2021-10-07T18:29:38Z</time>
      </trkpt>
      <trkpt lat="44.51215" lon="1.37727">
        <ele>149.4</ele>
        <time>2021-10-07T18:29:40Z</time>
      </trkpt>
      <trkpt lat="44.51215" lon="1.37726">
        <ele>149.5</ele>
        <time>2021-10-07T18:29:41Z</time>
      </trkpt>
      <trkpt lat="44.51215" lon="1.37724">
        <ele>149.7</ele>
        <time>2021-10-07T18:29:42Z</time>
      </trkpt>
      <trkpt lat="44.51216" lon="1.37721">
        <ele>150</ele>
        <time>2021-10-07T18:29:43Z</time>
      </trkpt>
      <trkpt lat="44.51216" lon="1.3772">
        <ele>150.2</ele>
        <time>2021-10-07T18:29:45Z</time>
      </trkpt>
      <trkpt lat="44.51217" lon="1.37718">
        <ele>150.5</ele>
        <time>2021-10-07T18:29:46Z</time>
      </trkpt>
      <trkpt lat="44.51217" lon="1.37715">
        <ele>150.7</ele>
        <time>2021-10-07T18:29:47Z</time>
      </trkpt>
      <trkpt lat="44.51218" lon="1.37712">
        <ele>151.2</ele>
        <time>2021-10-07T18:29:49Z</time>
      </trkpt>
      <trkpt lat="44.51218" lon="1.37711">
        <ele>151.3</ele>
        <time>2021-10-07T18:29:50Z</time>
      </trkpt>
      <trkpt lat="44.51218" lon="1.37709">
        <ele>151.5</ele>
        <time>2021-10-07T18:29:52Z</time>
      </trkpt>
      <trkpt lat="44.51218" lon="1.37703">
        <ele>152.1</ele>
        <time>2021-10-07T18:29:54Z</time>
      </trkpt>
      <trkpt lat="44.51217" lon="1.37698">
        <ele>152.6</ele>
        <time>2021-10-07T18:29:56Z</time>
      </trkpt>
      <trkpt lat="44.51217" lon="1.37697">
        <ele>152.8</ele>
        <time>2021-10-07T18:29:57Z</time>
      </trkpt>
      <trkpt lat="44.51216" lon="1.37694">
        <ele>153.1</ele>
        <time>2021-10-07T18:29:59Z</time>
      </trkpt>
      <trkpt lat="44.51214" lon="1.37689">
        <ele>153.7</ele>
        <time>2021-10-07T18:30:01Z</time>
      </trkpt>
      <trkpt lat="44.51214" lon="1.37687">
        <ele>153.8</ele>
        <time>2021-10-07T18:30:02Z</time>
      </trkpt>
      <trkpt lat="44.51213" lon="1.37685">
        <ele>154</ele>
        <time>2021-10-07T18:30:03Z</time>
      </trkpt>
      <trkpt lat="44.51213" lon="1.37682">
        <ele>154.4</ele>
        <time>2021-10-07T18:30:05Z</time>
      </trkpt>
      <trkpt lat="44.51213" lon="1.3768">
        <ele>154.5</ele>
        <time>2021-10-07T18:30:06Z</time>
      </trkpt>
      <trkpt lat="44.51212" lon="1.37676">
        <ele>154.9</ele>
        <time>2021-10-07T18:30:08Z</time>
      </trkpt>
      <trkpt lat="44.51212" lon="1.37673">
        <ele>155.3</ele>
        <time>2021-10-07T18:30:10Z</time>
      </trkpt>
      <trkpt lat="44.51212" lon="1.37671">
        <ele>155.4</ele>
        <time>2021-10-07T18:30:11Z</time>
      </trkpt>
      <trkpt lat="44.51212" lon="1.37668">
        <ele>155.7</ele>
        <time>2021-10-07T18:30:12Z</time>
      </trkpt>
      <trkpt lat="44.51212" lon="1.37666">
        <ele>155.8</ele>
        <time>2021-10-07T18:30:13Z</time>
      </trkpt>
      <trkpt lat="44.51212" lon="1.37663">
        <ele>156</ele>
        <time>2021-10-07T18:30:14Z</time>
      </trkpt>
      <trkpt lat="44.51211" lon="1.37659">
        <ele>156.4</ele>
        <time>2021-10-07T18:30:16Z</time>
      </trkpt>
      <trkpt lat="44.51211" lon="1.37656">
        <ele>156.6</ele>
        <time>2021-10-07T18:30:17Z</time>
      </trkpt>
      <trkpt lat="44.5121" lon="1.37654">
        <ele>156.8</ele>
        <time>2021-10-07T18:30:18Z</time>
      </trkpt>
      <trkpt lat="44.5121" lon="1.37652">
        <ele>156.9</ele>
        <time>2021-10-07T18:30:19Z</time>
      </trkpt>
      <trkpt lat="44.51208" lon="1.37648">
        <ele>157.2</ele>
        <time>2021-10-07T18:30:21Z</time>
      </trkpt>
      <trkpt lat="44.51208" lon="1.37645">
        <ele>157.4</ele>
        <time>2021-10-07T18:30:22Z</time>
      </trkpt>
      <trkpt lat="44.51207" lon="1.3764">
        <ele>157.7</ele>
        <time>2021-10-07T18:30:24Z</time>
      </trkpt>
      <trkpt lat="44.51207" lon="1.37635">
        <ele>158.1</ele>
        <time>2021-10-07T18:30:26Z</time>
      </trkpt>
      <trkpt lat="44.51206" lon="1.37632">
        <ele>158.2</ele>
        <time>2021-10-07T18:30:27Z</time>
      </trkpt>
      <trkpt lat="44.51207" lon="1.37627">
        <ele>158.5</ele>
        <time>2021-10-07T18:30:29Z</time>
      </trkpt>
      <trkpt lat="44.51207" lon="1.37625">
        <ele>158.6</ele>
        <time>2021-10-07T18:30:30Z</time>
      </trkpt>
      <trkpt lat="44.51206" lon="1.3762">
        <ele>158.9</ele>
        <time>2021-10-07T18:30:32Z</time>
      </trkpt>
      <trkpt lat="44.51206" lon="1.37617">
        <ele>159</ele>
        <time>2021-10-07T18:30:33Z</time>
      </trkpt>
      <trkpt lat="44.51206" lon="1.37614">
        <ele>159.2</ele>
        <time>2021-10-07T18:30:35Z</time>
      </trkpt>
      <trkpt lat="44.51206" lon="1.3761">
        <ele>159.2</ele>
        <time>2021-10-07T18:30:36Z</time>
      </trkpt>
      <trkpt lat="44.51206" lon="1.37608">
        <ele>159.2</ele>
        <time>2021-10-07T18:30:38Z</time>
      </trkpt>
      <trkpt lat="44.51207" lon="1.37606">
        <ele>159.1</ele>
        <time>2021-10-07T18:30:39Z</time>
      </trkpt>
      <trkpt lat="44.51208" lon="1.37605">
        <ele>159.1</ele>
        <time>2021-10-07T18:30:40Z</time>
      </trkpt>
      <trkpt lat="44.51209" lon="1.37599">
        <ele>159</ele>
        <time>2021-10-07T18:30:42Z</time>
      </trkpt>
      <trkpt lat="44.5121" lon="1.37597">
        <ele>159</ele>
        <time>2021-10-07T18:30:43Z</time>
      </trkpt>
      <trkpt lat="44.51211" lon="1.37596">
        <ele>159</ele>
        <time>2021-10-07T18:30:44Z</time>
      </trkpt>
      <trkpt lat="44.51211" lon="1.37593">
        <ele>158.9</ele>
        <time>2021-10-07T18:30:45Z</time>
      </trkpt>
      <trkpt lat="44.51211" lon="1.37591">
        <ele>158.9</ele>
        <time>2021-10-07T18:30:46Z</time>
      </trkpt>
      <trkpt lat="44.51213" lon="1.37589">
        <ele>158.8</ele>
        <time>2021-10-07T18:30:47Z</time>
      </trkpt>
      <trkpt lat="44.51214" lon="1.37589">
        <ele>158.8</ele>
        <time>2021-10-07T18:30:49Z</time>
      </trkpt>
      <trkpt lat="44.51215" lon="1.3759">
        <ele>158.8</ele>
        <time>2021-10-07T18:30:50Z</time>
      </trkpt>
      <trkpt lat="44.51215" lon="1.3759">
        <ele>158.7</ele>
        <time>2021-10-07T18:30:52Z</time>
      </trkpt>
      <trkpt lat="44.51216" lon="1.3759">
        <ele>158.7</ele>
        <time>2021-10-07T18:30:53Z</time>
      </trkpt>
      <trkpt lat="44.51217" lon="1.3759">
        <ele>159.2</ele>
        <time>2021-10-07T18:30:54Z</time>
      </trkpt>
      <trkpt lat="44.51219" lon="1.37593">
        <ele>160.8</ele>
        <time>2021-10-07T18:30:55Z</time>
      </trkpt>
      <trkpt lat="44.5122" lon="1.37596">
        <ele>161.2</ele>
        <time>2021-10-07T18:30:57Z</time>
      </trkpt>
      <trkpt lat="44.51223" lon="1.37599">
        <ele>162.4</ele>
        <time>2021-10-07T18:30:59Z</time>
      </trkpt>
      <trkpt lat="44.51223" lon="1.376">
        <ele>162.8</ele>
        <time>2021-10-07T18:31:00Z</time>
      </trkpt>
      <trkpt lat="44.51224" lon="1.37602">
        <ele>163.9</ele>
        <time>2021-10-07T18:31:02Z</time>
      </trkpt>
      <trkpt lat="44.51225" lon="1.37604">
        <ele>164.4</ele>
        <time>2021-10-07T18:31:04Z</time>
      </trkpt>
      <trkpt lat="44.51225" lon="1.37607">
        <ele>164.8</ele>
        <time>2021-10-07T18:31:05Z</time>
      </trkpt>
      <trkpt lat="44.51227" lon="1.3761">
        <ele>165.3</ele>
        <time>2021-10-07T18:31:07Z</time>
      </trkpt>
      <trkpt lat="44.51227" lon="1.37612">
        <ele>166.3</ele>
        <time>2021-10-07T18:31:09Z</time>
      </trkpt>
      <trkpt lat="44.51228" lon="1.37614">
        <ele>166.5</ele>
        <time>2021-10-07T18:31:10Z</time>
      </trkpt>
      <trkpt lat="44.51228" lon="1.37617">
        <ele>166.7</ele>
        <time>2021-10-07T18:31:11Z</time>
      </trkpt>
      <trkpt lat="44.51229" lon="1.37618">
        <ele>166.8</ele>
        <time>2021-10-07T18:31:12Z</time>
      </trkpt>
      <trkpt lat="44.5123" lon="1.37621">
        <ele>166.9</ele>
        <time>2021-10-07T18:31:14Z</time>
      </trkpt>
      <trkpt lat="44.51231" lon="1.3762">
        <ele>167</ele>
        <time>2021-10-07T18:31:15Z</time>
      </trkpt>
      <trkpt lat="44.51231" lon="1.37619">
        <ele>167.1</ele>
        <time>2021-10-07T18:31:16Z</time>
      </trkpt>
      <trkpt lat="44.51231" lon="1.37619">
        <ele>167.1</ele>
        <time>2021-10-07T18:31:17Z</time>
      </trkpt>
      <trkpt lat="44.5123" lon="1.37616">
        <ele>167.2</ele>
        <time>2021-10-07T18:31:19Z</time>
      </trkpt>
      <trkpt lat="44.5123" lon="1.37614">
        <ele>167.4</ele>
        <time>2021-10-07T18:31:20Z</time>
      </trkpt>
      <trkpt lat="44.5123" lon="1.37612">
        <ele>167.5</ele>
        <time>2021-10-07T18:31:21Z</time>
      </trkpt>
      <trkpt lat="44.51231" lon="1.37607">
        <ele>167.7</ele>
        <time>2021-10-07T18:31:23Z</time>
      </trkpt>
      <trkpt lat="44.51231" lon="1.37604">
        <ele>167.9</ele>
        <time>2021-10-07T18:31:25Z</time>
      </trkpt>
      <trkpt lat="44.51232" lon="1.376">
        <ele>168.1</ele>
        <time>2021-10-07T18:31:27Z</time>
      </trkpt>
      <trkpt lat="44.51233" lon="1.37597">
        <ele>168.3</ele>
        <time>2021-10-07T18:31:29Z</time>
      </trkpt>
      <trkpt lat="44.51233" lon="1.37595">
        <ele>168.4</ele>
        <time>2021-10-07T18:31:30Z</time>
      </trkpt>
      <trkpt lat="44.51234" lon="1.37592">
        <ele>168.5</ele>
        <time>2021-10-07T18:31:32Z</time>
      </trkpt>
      <trkpt lat="44.51235" lon="1.37588">
        <ele>168.7</ele>
        <time>2021-10-07T18:31:33Z</time>
      </trkpt>
      <trkpt lat="44.51235" lon="1.37586">
        <ele>168.9</ele>
        <time>2021-10-07T18:31:34Z</time>
      </trkpt>
      <trkpt lat="44.51236" lon="1.37582">
        <ele>169.1</ele>
        <time>2021-10-07T18:31:36Z</time>
      </trkpt>
      <trkpt lat="44.51237" lon="1.37579">
        <ele>169.3</ele>
        <time>2021-10-07T18:31:37Z</time>
      </trkpt>
      <trkpt lat="44.51238" lon="1.37575">
        <ele>169.5</ele>
        <time>2021-10-07T18:31:39Z</time>
      </trkpt>
      <trkpt lat="44.5124" lon="1.37572">
        <ele>169.8</ele>
        <time>2021-10-07T18:31:41Z</time>
      </trkpt>
      <trkpt lat="44.51241" lon="1.37568">
        <ele>170.1</ele>
        <time>2021-10-07T18:31:43Z</time>
      </trkpt>
      <trkpt lat="44.51243" lon="1.37563">
        <ele>170.4</ele>
        <time>2021-10-07T18:31:45Z</time>
      </trkpt>
      <trkpt lat="44.51244" lon="1.37561">
        <ele>170.6</ele>
        <time>2021-10-07T18:31:46Z</time>
      </trkpt>
      <trkpt lat="44.51245" lon="1.37559">
        <ele>170.8</ele>
        <time>2021-10-07T18:31:47Z</time>
      </trkpt>
      <trkpt lat="44.51246" lon="1.37555">
        <ele>171.1</ele>
        <time>2021-10-07T18:31:49Z</time>
      </trkpt>
      <trkpt lat="44.51247" lon="1.37553">
        <ele>171.3</ele>
        <time>2021-10-07T18:31:50Z</time>
      </trkpt>
      <trkpt lat="44.51249" lon="1.3755">
        <ele>171.6</ele>
        <time>2021-10-07T18:31:52Z</time>
      </trkpt>
      <trkpt lat="44.5125" lon="1.37548">
        <ele>171.8</ele>
        <time>2021-10-07T18:31:53Z</time>
      </trkpt>
      <trkpt lat="44.51252" lon="1.37545">
        <ele>172.1</ele>
        <time>2021-10-07T18:31:55Z</time>
      </trkpt>
      <trkpt lat="44.51254" lon="1.37541">
        <ele>172.5</ele>
        <time>2021-10-07T18:31:57Z</time>
      </trkpt>
      <trkpt lat="44.51257" lon="1.37538">
        <ele>172.9</ele>
        <time>2021-10-07T18:31:59Z</time>
      </trkpt>
      <trkpt lat="44.5126" lon="1.37536">
        <ele>173.3</ele>
        <time>2021-10-07T18:32:01Z</time>
      </trkpt>
      <trkpt lat="44.51261" lon="1.37535">
        <ele>173.4</ele>
        <time>2021-10-07T18:32:02Z</time>
      </trkpt>
      <trkpt lat="44.51261" lon="1.37533">
        <ele>173.6</ele>
        <time>2021-10-07T18:32:03Z</time>
      </trkpt>
      <trkpt lat="44.51264" lon="1.37531">
        <ele>173.9</ele>
        <time>2021-10-07T18:32:05Z</time>
      </trkpt>
      <trkpt lat="44.51266" lon="1.37527">
        <ele>174.4</ele>
        <time>2021-10-07T18:32:07Z</time>
      </trkpt>
      <trkpt lat="44.51269" lon="1.37524">
        <ele>174.8</ele>
        <time>2021-10-07T18:32:09Z</time>
      </trkpt>
      <trkpt lat="44.51272" lon="1.37521">
        <ele>175.3</ele>
        <time>2021-10-07T18:32:11Z</time>
      </trkpt>
      <trkpt lat="44.51274" lon="1.37519">
        <ele>175.7</ele>
        <time>2021-10-07T18:32:13Z</time>
      </trkpt>
      <trkpt lat="44.51276" lon="1.37518">
        <ele>175.9</ele>
        <time>2021-10-07T18:32:15Z</time>
      </trkpt>
      <trkpt lat="44.51277" lon="1.37515">
        <ele>176.2</ele>
        <time>2021-10-07T18:32:16Z</time>
      </trkpt>
      <trkpt lat="44.51279" lon="1.37513">
        <ele>176.5</ele>
        <time>2021-10-07T18:32:18Z</time>
      </trkpt>
      <trkpt lat="44.51281" lon="1.37511">
        <ele>176.9</ele>
        <time>2021-10-07T18:32:19Z</time>
      </trkpt>
      <trkpt lat="44.51282" lon="1.3751">
        <ele>177.1</ele>
        <time>2021-10-07T18:32:20Z</time>
      </trkpt>
      <trkpt lat="44.51285" lon="1.37508">
        <ele>177.6</ele>
        <time>2021-10-07T18:32:22Z</time>
      </trkpt>
      <trkpt lat="44.51286" lon="1.37506">
        <ele>177.8</ele>
        <time>2021-10-07T18:32:23Z</time>
      </trkpt>
      <trkpt lat="44.51288" lon="1.37505">
        <ele>178</ele>
        <time>2021-10-07T18:32:24Z</time>
      </trkpt>
      <trkpt lat="44.51289" lon="1.37504">
        <ele>178.3</ele>
        <time>2021-10-07T18:32:25Z</time>
      </trkpt>
      <trkpt lat="44.51291" lon="1.37501">
        <ele>178.6</ele>
        <time>2021-10-07T18:32:27Z</time>
      </trkpt>
      <trkpt lat="44.51292" lon="1.375">
        <ele>178.8</ele>
        <time>2021-10-07T18:32:28Z</time>
      </trkpt>
      <trkpt lat="44.51293" lon="1.37498">
        <ele>179.1</ele>
        <time>2021-10-07T18:32:29Z</time>
      </trkpt>
      <trkpt lat="44.51295" lon="1.37495">
        <ele>179.5</ele>
        <time>2021-10-07T18:32:31Z</time>
      </trkpt>
      <trkpt lat="44.51296" lon="1.37494">
        <ele>179.7</ele>
        <time>2021-10-07T18:32:32Z</time>
      </trkpt>
      <trkpt lat="44.51298" lon="1.37492">
        <ele>180.2</ele>
        <time>2021-10-07T18:32:34Z</time>
      </trkpt>
      <trkpt lat="44.513" lon="1.37491">
        <ele>180.4</ele>
        <time>2021-10-07T18:32:35Z</time>
      </trkpt>
      <trkpt lat="44.51302" lon="1.37489">
        <ele>180.8</ele>
        <time>2021-10-07T18:32:37Z</time>
      </trkpt>
      <trkpt lat="44.51303" lon="1.37488">
        <ele>181</ele>
        <time>2021-10-07T18:32:38Z</time>
      </trkpt>
      <trkpt lat="44.51304" lon="1.37486">
        <ele>181.3</ele>
        <time>2021-10-07T18:32:40Z</time>
      </trkpt>
      <trkpt lat="44.51304" lon="1.37485">
        <ele>181.4</ele>
        <time>2021-10-07T18:32:41Z</time>
      </trkpt>
      <trkpt lat="44.51305" lon="1.37484">
        <ele>181.5</ele>
        <time>2021-10-07T18:32:42Z</time>
      </trkpt>
      <trkpt lat="44.51305" lon="1.37484">
        <ele>181.5</ele>
        <time>2021-10-07T18:32:43Z</time>
      </trkpt>
      <trkpt lat="44.51305" lon="1.37484">
        <ele>181.6</ele>
        <time>2021-10-07T18:32:45Z</time>
      </trkpt>
      <trkpt lat="44.51305" lon="1.37484">
        <ele>181.6</ele>
        <time>2021-10-07T18:32:47Z</time>
      </trkpt>
      <trkpt lat="44.51305" lon="1.37484">
        <ele>181.6</ele>
        <time>2021-10-07T18:32:48Z</time>
      </trkpt>
      <trkpt lat="44.5132" lon="1.37461">
        <ele>185.8</ele>
        <time>2021-10-07T18:33:06Z</time>
      </trkpt>
      <trkpt lat="44.51321" lon="1.37458">
        <ele>186.3</ele>
        <time>2021-10-07T18:33:07Z</time>
      </trkpt>
      <trkpt lat="44.51322" lon="1.37457">
        <ele>186.4</ele>
        <time>2021-10-07T18:33:08Z</time>
      </trkpt>
      <trkpt lat="44.51323" lon="1.37456">
        <ele>186.7</ele>
        <time>2021-10-07T18:33:10Z</time>
      </trkpt>
      <trkpt lat="44.51323" lon="1.37456">
        <ele>186.8</ele>
        <time>2021-10-07T18:33:12Z</time>
      </trkpt>
      <trkpt lat="44.51323" lon="1.37456">
        <ele>186.8</ele>
        <time>2021-10-07T18:33:14Z</time>
      </trkpt>
      <trkpt lat="44.51323" lon="1.37456">
        <ele>186.8</ele>
        <time>2021-10-07T18:33:15Z</time>
      </trkpt>
      <trkpt lat="44.51323" lon="1.37456">
        <ele>186.8</ele>
        <time>2021-10-07T18:33:17Z</time>
      </trkpt>
      <trkpt lat="44.51323" lon="1.37456">
        <ele>186.8</ele>
        <time>2021-10-07T18:33:18Z</time>
      </trkpt>
      <trkpt lat="44.51323" lon="1.37456">
        <ele>186.8</ele>
        <time>2021-10-07T18:33:20Z</time>
      </trkpt>
      <trkpt lat="44.51323" lon="1.37455">
        <ele>186.8</ele>
        <time>2021-10-07T18:33:22Z</time>
      </trkpt>
      <trkpt lat="44.51323" lon="1.37455">
        <ele>186.8</ele>
        <time>2021-10-07T18:33:23Z</time>
      </trkpt>
      <trkpt lat="44.51326" lon="1.37452">
        <ele>187.6</ele>
        <time>2021-10-07T18:33:25Z</time>
      </trkpt>
      <trkpt lat="44.51331" lon="1.37448">
        <ele>188.8</ele>
        <time>2021-10-07T18:33:27Z</time>
      </trkpt>
      <trkpt lat="44.51332" lon="1.37447">
        <ele>189</ele>
        <time>2021-10-07T18:33:28Z</time>
      </trkpt>
      <trkpt lat="44.51332" lon="1.37446">
        <ele>189.2</ele>
        <time>2021-10-07T18:33:29Z</time>
      </trkpt>
      <trkpt lat="44.51333" lon="1.37445">
        <ele>189.4</ele>
        <time>2021-10-07T18:33:30Z</time>
      </trkpt>
      <trkpt lat="44.51333" lon="1.37444">
        <ele>189.6</ele>
        <time>2021-10-07T18:33:32Z</time>
      </trkpt>
      <trkpt lat="44.51334" lon="1.37443">
        <ele>189.8</ele>
        <time>2021-10-07T18:33:33Z</time>
      </trkpt>
      <trkpt lat="44.51334" lon="1.37441">
        <ele>190</ele>
        <time>2021-10-07T18:33:34Z</time>
      </trkpt>
      <trkpt lat="44.51335" lon="1.3744">
        <ele>190.2</ele>
        <time>2021-10-07T18:33:36Z</time>
      </trkpt>
      <trkpt lat="44.51335" lon="1.37439">
        <ele>190.3</ele>
        <time>2021-10-07T18:33:43Z</time>
      </trkpt>
      <trkpt lat="44.51336" lon="1.37438">
        <ele>190.5</ele>
        <time>2021-10-07T18:33:44Z</time>
      </trkpt>
      <trkpt lat="44.51336" lon="1.37437">
        <ele>190.7</ele>
        <time>2021-10-07T18:33:45Z</time>
      </trkpt>
      <trkpt lat="44.51337" lon="1.37436">
        <ele>190.9</ele>
        <time>2021-10-07T18:33:47Z</time>
      </trkpt>
      <trkpt lat="44.51337" lon="1.37435">
        <ele>191.1</ele>
        <time>2021-10-07T18:33:48Z</time>
      </trkpt>
      <trkpt lat="44.51338" lon="1.37434">
        <ele>191.2</ele>
        <time>2021-10-07T18:33:49Z</time>
      </trkpt>
      <trkpt lat="44.51338" lon="1.37433">
        <ele>191.4</ele>
        <time>2021-10-07T18:33:50Z</time>
      </trkpt>
      <trkpt lat="44.51339" lon="1.37431">
        <ele>191.6</ele>
        <time>2021-10-07T18:33:52Z</time>
      </trkpt>
      <trkpt lat="44.51339" lon="1.3743">
        <ele>191.8</ele>
        <time>2021-10-07T18:33:54Z</time>
      </trkpt>
      <trkpt lat="44.5134" lon="1.37429">
        <ele>192</ele>
        <time>2021-10-07T18:33:55Z</time>
      </trkpt>
      <trkpt lat="44.5134" lon="1.37428">
        <ele>192.1</ele>
        <time>2021-10-07T18:33:56Z</time>
      </trkpt>
      <trkpt lat="44.51341" lon="1.37427">
        <ele>192.3</ele>
        <time>2021-10-07T18:33:57Z</time>
      </trkpt>
      <trkpt lat="44.51344" lon="1.37422">
        <ele>193.1</ele>
        <time>2021-10-07T18:33:58Z</time>
      </trkpt>
      <trkpt lat="44.51344" lon="1.37419">
        <ele>193.5</ele>
        <time>2021-10-07T18:34:00Z</time>
      </trkpt>
      <trkpt lat="44.51345" lon="1.37418">
        <ele>193.7</ele>
        <time>2021-10-07T18:34:01Z</time>
      </trkpt>
      <trkpt lat="44.51346" lon="1.37417">
        <ele>193.9</ele>
        <time>2021-10-07T18:34:02Z</time>
      </trkpt>
      <trkpt lat="44.51346" lon="1.37416">
        <ele>193.9</ele>
        <time>2021-10-07T18:34:04Z</time>
      </trkpt>
      <trkpt lat="44.51346" lon="1.37416">
        <ele>194</ele>
        <time>2021-10-07T18:34:05Z</time>
      </trkpt>
      <trkpt lat="44.51346" lon="1.37415">
        <ele>194</ele>
        <time>2021-10-07T18:34:06Z</time>
      </trkpt>
      <trkpt lat="44.51346" lon="1.37415">
        <ele>194.1</ele>
        <time>2021-10-07T18:34:08Z</time>
      </trkpt>
      <trkpt lat="44.51347" lon="1.37414">
        <ele>194.2</ele>
        <time>2021-10-07T18:34:09Z</time>
      </trkpt>
      <trkpt lat="44.51347" lon="1.37414">
        <ele>194.2</ele>
        <time>2021-10-07T18:34:11Z</time>
      </trkpt>
      <trkpt lat="44.51347" lon="1.37413">
        <ele>194.3</ele>
        <time>2021-10-07T18:34:11Z</time>
      </trkpt>
      <trkpt lat="44.51347" lon="1.37411">
        <ele>194.5</ele>
        <time>2021-10-07T18:34:12Z</time>
      </trkpt>
      <trkpt lat="44.51348" lon="1.37409">
        <ele>194.7</ele>
        <time>2021-10-07T18:34:13Z</time>
      </trkpt>
      <trkpt lat="44.51349" lon="1.37403">
        <ele>195.3</ele>
        <time>2021-10-07T18:34:15Z</time>
      </trkpt>
      <trkpt lat="44.5135" lon="1.37401">
        <ele>195.5</ele>
        <time>2021-10-07T18:34:16Z</time>
      </trkpt>
      <trkpt lat="44.5135" lon="1.37399">
        <ele>195.6</ele>
        <time>2021-10-07T18:34:17Z</time>
      </trkpt>
      <trkpt lat="44.51351" lon="1.37398">
        <ele>195.8</ele>
        <time>2021-10-07T18:34:18Z</time>
      </trkpt>
      <trkpt lat="44.51351" lon="1.37397">
        <ele>195.9</ele>
        <time>2021-10-07T18:34:20Z</time>
      </trkpt>
      <trkpt lat="44.51352" lon="1.37396">
        <ele>196</ele>
        <time>2021-10-07T18:34:21Z</time>
      </trkpt>
      <trkpt lat="44.51352" lon="1.37395">
        <ele>196.1</ele>
        <time>2021-10-07T18:34:22Z</time>
      </trkpt>
      <trkpt lat="44.51353" lon="1.37395">
        <ele>196.1</ele>
        <time>2021-10-07T18:34:24Z</time>
      </trkpt>
      <trkpt lat="44.51353" lon="1.37394">
        <ele>196.2</ele>
        <time>2021-10-07T18:34:25Z</time>
      </trkpt>
      <trkpt lat="44.51353" lon="1.37394">
        <ele>196.2</ele>
        <time>2021-10-07T18:34:26Z</time>
      </trkpt>
      <trkpt lat="44.51353" lon="1.37394">
        <ele>196.2</ele>
        <time>2021-10-07T18:34:27Z</time>
      </trkpt>
      <trkpt lat="44.51353" lon="1.3739">
        <ele>196.5</ele>
        <time>2021-10-07T18:34:31Z</time>
      </trkpt>
      <trkpt lat="44.51353" lon="1.37384">
        <ele>196.9</ele>
        <time>2021-10-07T18:34:32Z</time>
      </trkpt>
      <trkpt lat="44.51353" lon="1.3738">
        <ele>197.2</ele>
        <time>2021-10-07T18:34:33Z</time>
      </trkpt>
      <trkpt lat="44.51354" lon="1.37375">
        <ele>197.6</ele>
        <time>2021-10-07T18:34:35Z</time>
      </trkpt>
      <trkpt lat="44.51355" lon="1.37373">
        <ele>197.7</ele>
        <time>2021-10-07T18:34:36Z</time>
      </trkpt>
      <trkpt lat="44.51356" lon="1.3737">
        <ele>197.9</ele>
        <time>2021-10-07T18:34:38Z</time>
      </trkpt>
      <trkpt lat="44.51357" lon="1.37369">
        <ele>198</ele>
        <time>2021-10-07T18:34:39Z</time>
      </trkpt>
      <trkpt lat="44.51357" lon="1.37368">
        <ele>198</ele>
        <time>2021-10-07T18:34:40Z</time>
      </trkpt>
      <trkpt lat="44.51358" lon="1.37364">
        <ele>198.3</ele>
        <time>2021-10-07T18:34:42Z</time>
      </trkpt>
      <trkpt lat="44.51359" lon="1.37362">
        <ele>198.4</ele>
        <time>2021-10-07T18:34:43Z</time>
      </trkpt>
      <trkpt lat="44.5136" lon="1.3736">
        <ele>198.5</ele>
        <time>2021-10-07T18:34:45Z</time>
      </trkpt>
      <trkpt lat="44.51361" lon="1.37359">
        <ele>198.6</ele>
        <time>2021-10-07T18:34:46Z</time>
      </trkpt>
      <trkpt lat="44.51361" lon="1.37358">
        <ele>198.7</ele>
        <time>2021-10-07T18:34:47Z</time>
      </trkpt>
      <trkpt lat="44.51362" lon="1.37358">
        <ele>198.7</ele>
        <time>2021-10-07T18:34:48Z</time>
      </trkpt>
      <trkpt lat="44.51363" lon="1.37356">
        <ele>198.9</ele>
        <time>2021-10-07T18:34:49Z</time>
      </trkpt>
      <trkpt lat="44.51365" lon="1.37353">
        <ele>199.1</ele>
        <time>2021-10-07T18:34:51Z</time>
      </trkpt>
      <trkpt lat="44.51365" lon="1.37351">
        <ele>199.2</ele>
        <time>2021-10-07T18:34:52Z</time>
      </trkpt>
      <trkpt lat="44.51366" lon="1.3735">
        <ele>199.3</ele>
        <time>2021-10-07T18:34:53Z</time>
      </trkpt>
      <trkpt lat="44.51367" lon="1.37348">
        <ele>199.5</ele>
        <time>2021-10-07T18:34:55Z</time>
      </trkpt>
      <trkpt lat="44.51368" lon="1.37346">
        <ele>199.6</ele>
        <time>2021-10-07T18:34:56Z</time>
      </trkpt>
      <trkpt lat="44.51368" lon="1.37345">
        <ele>199.7</ele>
        <time>2021-10-07T18:34:57Z</time>
      </trkpt>
      <trkpt lat="44.51369" lon="1.37343">
        <ele>199.8</ele>
        <time>2021-10-07T18:34:59Z</time>
      </trkpt>
      <trkpt lat="44.5137" lon="1.37342">
        <ele>199.9</ele>
        <time>2021-10-07T18:35:03Z</time>
      </trkpt>
      <trkpt lat="44.51371" lon="1.3734">
        <ele>200.1</ele>
        <time>2021-10-07T18:35:04Z</time>
      </trkpt>
      <trkpt lat="44.51372" lon="1.37338">
        <ele>200.3</ele>
        <time>2021-10-07T18:35:06Z</time>
      </trkpt>
      <trkpt lat="44.51373" lon="1.37337">
        <ele>200.4</ele>
        <time>2021-10-07T18:35:07Z</time>
      </trkpt>
      <trkpt lat="44.51373" lon="1.37336">
        <ele>200.5</ele>
        <time>2021-10-07T18:35:08Z</time>
      </trkpt>
      <trkpt lat="44.51374" lon="1.37336">
        <ele>200.5</ele>
        <time>2021-10-07T18:35:10Z</time>
      </trkpt>
      <trkpt lat="44.51375" lon="1.37335">
        <ele>200.6</ele>
        <time>2021-10-07T18:35:11Z</time>
      </trkpt>
      <trkpt lat="44.51375" lon="1.37334">
        <ele>200.7</ele>
        <time>2021-10-07T18:35:12Z</time>
      </trkpt>
      <trkpt lat="44.51376" lon="1.37333">
        <ele>200.8</ele>
        <time>2021-10-07T18:35:14Z</time>
      </trkpt>
      <trkpt lat="44.51376" lon="1.37333">
        <ele>200.9</ele>
        <time>2021-10-07T18:35:16Z</time>
      </trkpt>
      <trkpt lat="44.51377" lon="1.37332">
        <ele>201</ele>
        <time>2021-10-07T18:35:17Z</time>
      </trkpt>
      <trkpt lat="44.51378" lon="1.37331">
        <ele>201.1</ele>
        <time>2021-10-07T18:35:18Z</time>
      </trkpt>
      <trkpt lat="44.51381" lon="1.37327">
        <ele>201.6</ele>
        <time>2021-10-07T18:35:20Z</time>
      </trkpt>
      <trkpt lat="44.51382" lon="1.37326">
        <ele>201.7</ele>
        <time>2021-10-07T18:35:21Z</time>
      </trkpt>
      <trkpt lat="44.51383" lon="1.37326">
        <ele>201.9</ele>
        <time>2021-10-07T18:35:22Z</time>
      </trkpt>
      <trkpt lat="44.51384" lon="1.37325">
        <ele>202</ele>
        <time>2021-10-07T18:35:23Z</time>
      </trkpt>
      <trkpt lat="44.51385" lon="1.37324">
        <ele>202.2</ele>
        <time>2021-10-07T18:35:25Z</time>
      </trkpt>
      <trkpt lat="44.51386" lon="1.37324">
        <ele>202.3</ele>
        <time>2021-10-07T18:35:26Z</time>
      </trkpt>
      <trkpt lat="44.51387" lon="1.37323">
        <ele>202.5</ele>
        <time>2021-10-07T18:35:28Z</time>
      </trkpt>
      <trkpt lat="44.51388" lon="1.37322">
        <ele>202.6</ele>
        <time>2021-10-07T18:35:34Z</time>
      </trkpt>
      <trkpt lat="44.51389" lon="1.37321">
        <ele>202.8</ele>
        <time>2021-10-07T18:35:35Z</time>
      </trkpt>
      <trkpt lat="44.51391" lon="1.3732">
        <ele>203.1</ele>
        <time>2021-10-07T18:35:37Z</time>
      </trkpt>
      <trkpt lat="44.51392" lon="1.3732">
        <ele>203.1</ele>
        <time>2021-10-07T18:35:38Z</time>
      </trkpt>
      <trkpt lat="44.51392" lon="1.3732">
        <ele>203.2</ele>
        <time>2021-10-07T18:35:40Z</time>
      </trkpt>
      <trkpt lat="44.51392" lon="1.3732">
        <ele>203.2</ele>
        <time>2021-10-07T18:35:41Z</time>
      </trkpt>
      <trkpt lat="44.51392" lon="1.3732">
        <ele>203.2</ele>
        <time>2021-10-07T18:35:42Z</time>
      </trkpt>
      <trkpt lat="44.51392" lon="1.3732">
        <ele>203.2</ele>
        <time>2021-10-07T18:35:44Z</time>
      </trkpt>
      <trkpt lat="44.51393" lon="1.3732">
        <ele>203.2</ele>
        <time>2021-10-07T18:35:46Z</time>
      </trkpt>
      <trkpt lat="44.51393" lon="1.3732">
        <ele>203.3</ele>
        <time>2021-10-07T18:35:47Z</time>
      </trkpt>
      <trkpt lat="44.51393" lon="1.3732">
        <ele>203.3</ele>
        <time>2021-10-07T18:35:48Z</time>
      </trkpt>
      <trkpt lat="44.51395" lon="1.37317">
        <ele>203.6</ele>
        <time>2021-10-07T18:35:50Z</time>
      </trkpt>
      <trkpt lat="44.514" lon="1.3731">
        <ele>204.5</ele>
        <time>2021-10-07T18:35:52Z</time>
      </trkpt>
      <trkpt lat="44.51401" lon="1.37309">
        <ele>204.8</ele>
        <time>2021-10-07T18:35:53Z</time>
      </trkpt>
      <trkpt lat="44.51402" lon="1.37308">
        <ele>204.9</ele>
        <time>2021-10-07T18:35:54Z</time>
      </trkpt>
      <trkpt lat="44.51403" lon="1.37308">
        <ele>205</ele>
        <time>2021-10-07T18:35:55Z</time>
      </trkpt>
      <trkpt lat="44.51404" lon="1.37307">
        <ele>205.2</ele>
        <time>2021-10-07T18:35:56Z</time>
      </trkpt>
      <trkpt lat="44.51405" lon="1.37306">
        <ele>205.3</ele>
        <time>2021-10-07T18:35:57Z</time>
      </trkpt>
      <trkpt lat="44.51406" lon="1.37306">
        <ele>205.4</ele>
        <time>2021-10-07T18:35:59Z</time>
      </trkpt>
      <trkpt lat="44.51407" lon="1.37305">
        <ele>205.5</ele>
        <time>2021-10-07T18:36:00Z</time>
      </trkpt>
      <trkpt lat="44.51408" lon="1.37305">
        <ele>205.6</ele>
        <time>2021-10-07T18:36:05Z</time>
      </trkpt>
      <trkpt lat="44.51409" lon="1.37304">
        <ele>205.8</ele>
        <time>2021-10-07T18:36:06Z</time>
      </trkpt>
      <trkpt lat="44.51411" lon="1.37303">
        <ele>206</ele>
        <time>2021-10-07T18:36:07Z</time>
      </trkpt>
      <trkpt lat="44.51411" lon="1.37302">
        <ele>206.1</ele>
        <time>2021-10-07T18:36:09Z</time>
      </trkpt>
      <trkpt lat="44.51412" lon="1.37302">
        <ele>206.1</ele>
        <time>2021-10-07T18:36:11Z</time>
      </trkpt>
      <trkpt lat="44.51412" lon="1.37302">
        <ele>206.2</ele>
        <time>2021-10-07T18:36:13Z</time>
      </trkpt>
      <trkpt lat="44.51412" lon="1.37302">
        <ele>206.2</ele>
        <time>2021-10-07T18:36:14Z</time>
      </trkpt>
      <trkpt lat="44.51412" lon="1.37302">
        <ele>206.2</ele>
        <time>2021-10-07T18:36:15Z</time>
      </trkpt>
      <trkpt lat="44.51412" lon="1.37302">
        <ele>206.2</ele>
        <time>2021-10-07T18:36:17Z</time>
      </trkpt>
      <trkpt lat="44.51413" lon="1.37302">
        <ele>206.2</ele>
        <time>2021-10-07T18:36:19Z</time>
      </trkpt>
      <trkpt lat="44.51413" lon="1.37302">
        <ele>206.2</ele>
        <time>2021-10-07T18:36:21Z</time>
      </trkpt>
      <trkpt lat="44.51413" lon="1.37302">
        <ele>206.2</ele>
        <time>2021-10-07T18:36:22Z</time>
      </trkpt>
      <trkpt lat="44.51413" lon="1.37302">
        <ele>206.2</ele>
        <time>2021-10-07T18:36:23Z</time>
      </trkpt>
      <trkpt lat="44.51413" lon="1.37302">
        <ele>206.2</ele>
        <time>2021-10-07T18:36:25Z</time>
      </trkpt>
      <trkpt lat="44.51413" lon="1.37302">
        <ele>206.2</ele>
        <time>2021-10-07T18:36:26Z</time>
      </trkpt>
      <trkpt lat="44.51413" lon="1.37302">
        <ele>206.2</ele>
        <time>2021-10-07T18:36:28Z</time>
      </trkpt>
      <trkpt lat="44.51412" lon="1.37302">
        <ele>206.3</ele>
        <time>2021-10-07T18:36:30Z</time>
      </trkpt>
      <trkpt lat="44.51413" lon="1.37302">
        <ele>206.3</ele>
        <time>2021-10-07T18:36:31Z</time>
      </trkpt>
      <trkpt lat="44.51413" lon="1.37302">
        <ele>206.3</ele>
        <time>2021-10-07T18:36:32Z</time>
      </trkpt>
      <trkpt lat="44.51413" lon="1.37303">
        <ele>206.4</ele>
        <time>2021-10-07T18:36:34Z</time>
      </trkpt>
      <trkpt lat="44.51415" lon="1.37302">
        <ele>206.5</ele>
        <time>2021-10-07T18:36:35Z</time>
      </trkpt>
      <trkpt lat="44.51418" lon="1.37301">
        <ele>206.9</ele>
        <time>2021-10-07T18:36:37Z</time>
      </trkpt>
      <trkpt lat="44.5142" lon="1.373">
        <ele>207.1</ele>
        <time>2021-10-07T18:36:39Z</time>
      </trkpt>
      <trkpt lat="44.51421" lon="1.373">
        <ele>207.2</ele>
        <time>2021-10-07T18:36:40Z</time>
      </trkpt>
      <trkpt lat="44.51422" lon="1.37299">
        <ele>207.4</ele>
        <time>2021-10-07T18:36:42Z</time>
      </trkpt>
      <trkpt lat="44.51422" lon="1.37299">
        <ele>207.4</ele>
        <time>2021-10-07T18:36:43Z</time>
      </trkpt>
      <trkpt lat="44.51423" lon="1.37299">
        <ele>207.5</ele>
        <time>2021-10-07T18:36:45Z</time>
      </trkpt>
      <trkpt lat="44.51431" lon="1.37292">
        <ele>208.6</ele>
        <time>2021-10-07T18:36:49Z</time>
      </trkpt>
      <trkpt lat="44.51432" lon="1.37291">
        <ele>208.8</ele>
        <time>2021-10-07T18:36:51Z</time>
      </trkpt>
      <trkpt lat="44.51433" lon="1.37291">
        <ele>208.9</ele>
        <time>2021-10-07T18:36:53Z</time>
      </trkpt>
      <trkpt lat="44.51433" lon="1.37291">
        <ele>208.9</ele>
        <time>2021-10-07T18:36:54Z</time>
      </trkpt>
      <trkpt lat="44.51434" lon="1.3729">
        <ele>209</ele>
        <time>2021-10-07T18:36:55Z</time>
      </trkpt>
      <trkpt lat="44.51434" lon="1.3729">
        <ele>209</ele>
        <time>2021-10-07T18:36:56Z</time>
      </trkpt>
      <trkpt lat="44.51434" lon="1.3729">
        <ele>209</ele>
        <time>2021-10-07T18:36:57Z</time>
      </trkpt>
      <trkpt lat="44.51435" lon="1.3729">
        <ele>209.1</ele>
        <time>2021-10-07T18:36:58Z</time>
      </trkpt>
      <trkpt lat="44.51436" lon="1.37288">
        <ele>209.4</ele>
        <time>2021-10-07T18:37:00Z</time>
      </trkpt>
      <trkpt lat="44.51437" lon="1.37288">
        <ele>209.5</ele>
        <time>2021-10-07T18:37:01Z</time>
      </trkpt>
      <trkpt lat="44.51438" lon="1.37287">
        <ele>209.6</ele>
        <time>2021-10-07T18:37:02Z</time>
      </trkpt>
      <trkpt lat="44.51439" lon="1.37286">
        <ele>209.8</ele>
        <time>2021-10-07T18:37:03Z</time>
      </trkpt>
      <trkpt lat="44.5144" lon="1.37286">
        <ele>210</ele>
        <time>2021-10-07T18:37:05Z</time>
      </trkpt>
      <trkpt lat="44.51441" lon="1.37285">
        <ele>210.1</ele>
        <time>2021-10-07T18:37:07Z</time>
      </trkpt>
      <trkpt lat="44.51441" lon="1.37285">
        <ele>210.1</ele>
        <time>2021-10-07T18:37:08Z</time>
      </trkpt>
      <trkpt lat="44.51441" lon="1.37285">
        <ele>210.2</ele>
        <time>2021-10-07T18:37:09Z</time>
      </trkpt>
      <trkpt lat="44.51443" lon="1.37284">
        <ele>210.4</ele>
        <time>2021-10-07T18:37:10Z</time>
      </trkpt>
      <trkpt lat="44.51444" lon="1.37283">
        <ele>210.6</ele>
        <time>2021-10-07T18:37:12Z</time>
      </trkpt>
      <trkpt lat="44.51445" lon="1.37282">
        <ele>210.7</ele>
        <time>2021-10-07T18:37:13Z</time>
      </trkpt>
      <trkpt lat="44.51446" lon="1.37281">
        <ele>210.9</ele>
        <time>2021-10-07T18:37:14Z</time>
      </trkpt>
      <trkpt lat="44.5145" lon="1.37278">
        <ele>211.5</ele>
        <time>2021-10-07T18:37:16Z</time>
      </trkpt>
      <trkpt lat="44.51451" lon="1.37278">
        <ele>211.6</ele>
        <time>2021-10-07T18:37:18Z</time>
      </trkpt>
      <trkpt lat="44.51451" lon="1.37278">
        <ele>211.7</ele>
        <time>2021-10-07T18:37:19Z</time>
      </trkpt>
      <trkpt lat="44.51451" lon="1.37278">
        <ele>211.7</ele>
        <time>2021-10-07T18:37:20Z</time>
      </trkpt>
      <trkpt lat="44.51451" lon="1.37278">
        <ele>211.7</ele>
        <time>2021-10-07T18:37:21Z</time>
      </trkpt>
      <trkpt lat="44.51451" lon="1.37277">
        <ele>211.7</ele>
        <time>2021-10-07T18:37:23Z</time>
      </trkpt>
      <trkpt lat="44.51451" lon="1.37277">
        <ele>211.8</ele>
        <time>2021-10-07T18:37:25Z</time>
      </trkpt>
      <trkpt lat="44.51457" lon="1.37274">
        <ele>212.4</ele>
        <time>2021-10-07T18:37:27Z</time>
      </trkpt>
      <trkpt lat="44.51459" lon="1.37273">
        <ele>212.8</ele>
        <time>2021-10-07T18:37:28Z</time>
      </trkpt>
      <trkpt lat="44.51461" lon="1.37272">
        <ele>213</ele>
        <time>2021-10-07T18:37:30Z</time>
      </trkpt>
      <trkpt lat="44.51461" lon="1.37272">
        <ele>213.1</ele>
        <time>2021-10-07T18:37:31Z</time>
      </trkpt>
      <trkpt lat="44.51462" lon="1.37271">
        <ele>213.1</ele>
        <time>2021-10-07T18:37:32Z</time>
      </trkpt>
      <trkpt lat="44.51462" lon="1.37271">
        <ele>213.1</ele>
        <time>2021-10-07T18:37:33Z</time>
      </trkpt>
      <trkpt lat="44.51462" lon="1.37271">
        <ele>213.2</ele>
        <time>2021-10-07T18:37:35Z</time>
      </trkpt>
      <trkpt lat="44.51462" lon="1.37271">
        <ele>213.2</ele>
        <time>2021-10-07T18:37:37Z</time>
      </trkpt>
      <trkpt lat="44.51462" lon="1.37271">
        <ele>213.2</ele>
        <time>2021-10-07T18:37:38Z</time>
      </trkpt>
      <trkpt lat="44.51462" lon="1.37271">
        <ele>213.2</ele>
        <time>2021-10-07T18:37:39Z</time>
      </trkpt>
      <trkpt lat="44.51462" lon="1.37271">
        <ele>213.2</ele>
        <time>2021-10-07T18:37:40Z</time>
      </trkpt>
      <trkpt lat="44.51463" lon="1.37271">
        <ele>213.2</ele>
        <time>2021-10-07T18:37:41Z</time>
      </trkpt>
      <trkpt lat="44.51472" lon="1.37267">
        <ele>214.4</ele>
        <time>2021-10-07T18:37:43Z</time>
      </trkpt>
      <trkpt lat="44.51473" lon="1.37266">
        <ele>214.5</ele>
        <time>2021-10-07T18:37:44Z</time>
      </trkpt>
      <trkpt lat="44.51473" lon="1.37266">
        <ele>214.5</ele>
        <time>2021-10-07T18:37:45Z</time>
      </trkpt>
      <trkpt lat="44.51473" lon="1.37266">
        <ele>214.6</ele>
        <time>2021-10-07T18:37:46Z</time>
      </trkpt>
      <trkpt lat="44.51474" lon="1.37266">
        <ele>214.6</ele>
        <time>2021-10-07T18:37:48Z</time>
      </trkpt>
      <trkpt lat="44.51474" lon="1.37266">
        <ele>214.6</ele>
        <time>2021-10-07T18:37:49Z</time>
      </trkpt>
      <trkpt lat="44.51474" lon="1.37266">
        <ele>214.6</ele>
        <time>2021-10-07T18:37:51Z</time>
      </trkpt>
      <trkpt lat="44.51475" lon="1.37266">
        <ele>214.7</ele>
        <time>2021-10-07T18:37:53Z</time>
      </trkpt>
      <trkpt lat="44.51479" lon="1.37264">
        <ele>215.3</ele>
        <time>2021-10-07T18:37:54Z</time>
      </trkpt>
      <trkpt lat="44.51483" lon="1.37264">
        <ele>215.8</ele>
        <time>2021-10-07T18:37:55Z</time>
      </trkpt>
      <trkpt lat="44.51484" lon="1.37264">
        <ele>215.9</ele>
        <time>2021-10-07T18:37:56Z</time>
      </trkpt>
      <trkpt lat="44.51485" lon="1.37263">
        <ele>216</ele>
        <time>2021-10-07T18:37:57Z</time>
      </trkpt>
      <trkpt lat="44.51485" lon="1.37263">
        <ele>216</ele>
        <time>2021-10-07T18:37:59Z</time>
      </trkpt>
      <trkpt lat="44.51485" lon="1.37263">
        <ele>216</ele>
        <time>2021-10-07T18:38:00Z</time>
      </trkpt>
      <trkpt lat="44.51485" lon="1.37263">
        <ele>216</ele>
        <time>2021-10-07T18:38:01Z</time>
      </trkpt>
      <trkpt lat="44.51485" lon="1.37263">
        <ele>216</ele>
        <time>2021-10-07T18:38:02Z</time>
      </trkpt>
      <trkpt lat="44.51485" lon="1.37263">
        <ele>216</ele>
        <time>2021-10-07T18:38:03Z</time>
      </trkpt>
      <trkpt lat="44.51485" lon="1.37263">
        <ele>216</ele>
        <time>2021-10-07T18:38:05Z</time>
      </trkpt>
      <trkpt lat="44.51485" lon="1.37263">
        <ele>216</ele>
        <time>2021-10-07T18:38:06Z</time>
      </trkpt>
      <trkpt lat="44.51494" lon="1.37262">
        <ele>217.1</ele>
        <time>2021-10-07T18:38:08Z</time>
      </trkpt>
      <trkpt lat="44.51495" lon="1.37262">
        <ele>217.2</ele>
        <time>2021-10-07T18:38:09Z</time>
      </trkpt>
      <trkpt lat="44.51496" lon="1.37262">
        <ele>217.3</ele>
        <time>2021-10-07T18:38:10Z</time>
      </trkpt>
      <trkpt lat="44.51496" lon="1.37262">
        <ele>217.3</ele>
        <time>2021-10-07T18:38:12Z</time>
      </trkpt>
      <trkpt lat="44.51496" lon="1.37262">
        <ele>217.4</ele>
        <time>2021-10-07T18:38:13Z</time>
      </trkpt>
      <trkpt lat="44.51497" lon="1.37262">
        <ele>217.4</ele>
        <time>2021-10-07T18:38:15Z</time>
      </trkpt>
      <trkpt lat="44.51497" lon="1.37262">
        <ele>217.4</ele>
        <time>2021-10-07T18:38:16Z</time>
      </trkpt>
      <trkpt lat="44.51497" lon="1.37262">
        <ele>217.4</ele>
        <time>2021-10-07T18:38:17Z</time>
      </trkpt>
      <trkpt lat="44.51497" lon="1.37261">
        <ele>217.4</ele>
        <time>2021-10-07T18:38:18Z</time>
      </trkpt>
      <trkpt lat="44.51497" lon="1.37261">
        <ele>217.4</ele>
        <time>2021-10-07T18:38:20Z</time>
      </trkpt>
      <trkpt lat="44.51497" lon="1.37261">
        <ele>217.5</ele>
        <time>2021-10-07T18:38:21Z</time>
      </trkpt>
      <trkpt lat="44.51497" lon="1.37261">
        <ele>217.5</ele>
        <time>2021-10-07T18:38:23Z</time>
      </trkpt>
      <trkpt lat="44.51505" lon="1.3726">
        <ele>218.4</ele>
        <time>2021-10-07T18:38:25Z</time>
      </trkpt>
      <trkpt lat="44.51506" lon="1.3726">
        <ele>218.7</ele>
        <time>2021-10-07T18:38:26Z</time>
      </trkpt>
      <trkpt lat="44.51507" lon="1.3726">
        <ele>218.7</ele>
        <time>2021-10-07T18:38:27Z</time>
      </trkpt>
      <trkpt lat="44.51508" lon="1.3726">
        <ele>218.8</ele>
        <time>2021-10-07T18:38:28Z</time>
      </trkpt>
      <trkpt lat="44.51509" lon="1.37261">
        <ele>219</ele>
        <time>2021-10-07T18:38:30Z</time>
      </trkpt>
      <trkpt lat="44.5151" lon="1.37261">
        <ele>219.1</ele>
        <time>2021-10-07T18:38:31Z</time>
      </trkpt>
      <trkpt lat="44.51511" lon="1.37261">
        <ele>219.3</ele>
        <time>2021-10-07T18:38:32Z</time>
      </trkpt>
      <trkpt lat="44.51512" lon="1.37261">
        <ele>219.4</ele>
        <time>2021-10-07T18:38:33Z</time>
      </trkpt>
      <trkpt lat="44.51513" lon="1.37261">
        <ele>219.6</ele>
        <time>2021-10-07T18:38:35Z</time>
      </trkpt>
      <trkpt lat="44.51514" lon="1.37261">
        <ele>219.8</ele>
        <time>2021-10-07T18:38:36Z</time>
      </trkpt>
      <trkpt lat="44.51516" lon="1.37262">
        <ele>220</ele>
        <time>2021-10-07T18:38:38Z</time>
      </trkpt>
      <trkpt lat="44.51516" lon="1.37262">
        <ele>220</ele>
        <time>2021-10-07T18:38:39Z</time>
      </trkpt>
      <trkpt lat="44.51516" lon="1.37262">
        <ele>220.1</ele>
        <time>2021-10-07T18:38:40Z</time>
      </trkpt>
      <trkpt lat="44.51517" lon="1.37262">
        <ele>220.1</ele>
        <time>2021-10-07T18:38:42Z</time>
      </trkpt>
      <trkpt lat="44.51521" lon="1.37263">
        <ele>220.7</ele>
        <time>2021-10-07T18:38:44Z</time>
      </trkpt>
      <trkpt lat="44.51528" lon="1.37265">
        <ele>221.5</ele>
        <time>2021-10-07T18:38:46Z</time>
      </trkpt>
      <trkpt lat="44.5153" lon="1.37266">
        <ele>221.6</ele>
        <time>2021-10-07T18:38:47Z</time>
      </trkpt>
      <trkpt lat="44.51531" lon="1.37266">
        <ele>221.8</ele>
        <time>2021-10-07T18:38:49Z</time>
      </trkpt>
      <trkpt lat="44.51533" lon="1.37266">
        <ele>222</ele>
        <time>2021-10-07T18:38:50Z</time>
      </trkpt>
      <trkpt lat="44.51534" lon="1.37266">
        <ele>222.1</ele>
        <time>2021-10-07T18:38:51Z</time>
      </trkpt>
      <trkpt lat="44.51534" lon="1.37266">
        <ele>222.1</ele>
        <time>2021-10-07T18:38:52Z</time>
      </trkpt>
      <trkpt lat="44.51535" lon="1.37266">
        <ele>222.2</ele>
        <time>2021-10-07T18:38:53Z</time>
      </trkpt>
      <trkpt lat="44.51536" lon="1.37266">
        <ele>222.2</ele>
        <time>2021-10-07T18:38:55Z</time>
      </trkpt>
      <trkpt lat="44.51536" lon="1.37266">
        <ele>222.2</ele>
        <time>2021-10-07T18:38:56Z</time>
      </trkpt>
      <trkpt lat="44.51536" lon="1.37266">
        <ele>222.3</ele>
        <time>2021-10-07T18:38:57Z</time>
      </trkpt>
      <trkpt lat="44.51538" lon="1.37266">
        <ele>222.4</ele>
        <time>2021-10-07T18:38:59Z</time>
      </trkpt>
      <trkpt lat="44.51541" lon="1.37268">
        <ele>222.7</ele>
        <time>2021-10-07T18:39:00Z</time>
      </trkpt>
      <trkpt lat="44.51544" lon="1.37269">
        <ele>223</ele>
        <time>2021-10-07T18:39:01Z</time>
      </trkpt>
      <trkpt lat="44.51545" lon="1.3727">
        <ele>223.1</ele>
        <time>2021-10-07T18:39:02Z</time>
      </trkpt>
      <trkpt lat="44.51546" lon="1.3727">
        <ele>223.3</ele>
        <time>2021-10-07T18:39:03Z</time>
      </trkpt>
      <trkpt lat="44.51547" lon="1.3727">
        <ele>223.3</ele>
        <time>2021-10-07T18:39:05Z</time>
      </trkpt>
      <trkpt lat="44.51547" lon="1.3727">
        <ele>223.3</ele>
        <time>2021-10-07T18:39:06Z</time>
      </trkpt>
      <trkpt lat="44.51548" lon="1.3727">
        <ele>223.4</ele>
        <time>2021-10-07T18:39:07Z</time>
      </trkpt>
      <trkpt lat="44.51548" lon="1.3727">
        <ele>223.5</ele>
        <time>2021-10-07T18:39:09Z</time>
      </trkpt>
      <trkpt lat="44.5155" lon="1.3727">
        <ele>223.6</ele>
        <time>2021-10-07T18:39:10Z</time>
      </trkpt>
      <trkpt lat="44.5155" lon="1.3727">
        <ele>223.6</ele>
        <time>2021-10-07T18:39:11Z</time>
      </trkpt>
      <trkpt lat="44.51551" lon="1.3727">
        <ele>223.7</ele>
        <time>2021-10-07T18:39:12Z</time>
      </trkpt>
      <trkpt lat="44.51553" lon="1.37271">
        <ele>223.8</ele>
        <time>2021-10-07T18:39:14Z</time>
      </trkpt>
      <trkpt lat="44.51553" lon="1.37271">
        <ele>223.8</ele>
        <time>2021-10-07T18:39:15Z</time>
      </trkpt>
      <trkpt lat="44.51553" lon="1.37271">
        <ele>223.9</ele>
        <time>2021-10-07T18:39:16Z</time>
      </trkpt>
      <trkpt lat="44.51553" lon="1.37271">
        <ele>223.9</ele>
        <time>2021-10-07T18:39:17Z</time>
      </trkpt>
      <trkpt lat="44.51554" lon="1.37271">
        <ele>223.9</ele>
        <time>2021-10-07T18:39:18Z</time>
      </trkpt>
      <trkpt lat="44.51554" lon="1.37271">
        <ele>223.9</ele>
        <time>2021-10-07T18:39:20Z</time>
      </trkpt>
      <trkpt lat="44.51556" lon="1.37271">
        <ele>224.1</ele>
        <time>2021-10-07T18:39:25Z</time>
      </trkpt>
      <trkpt lat="44.51563" lon="1.37274">
        <ele>224.6</ele>
        <time>2021-10-07T18:39:27Z</time>
      </trkpt>
      <trkpt lat="44.51567" lon="1.37276">
        <ele>224.9</ele>
        <time>2021-10-07T18:39:28Z</time>
      </trkpt>
      <trkpt lat="44.51568" lon="1.37276">
        <ele>225</ele>
        <time>2021-10-07T18:39:29Z</time>
      </trkpt>
      <trkpt lat="44.51568" lon="1.37277">
        <ele>225</ele>
        <time>2021-10-07T18:39:30Z</time>
      </trkpt>
      <trkpt lat="44.51571" lon="1.37279">
        <ele>225.2</ele>
        <time>2021-10-07T18:39:32Z</time>
      </trkpt>
      <trkpt lat="44.51574" lon="1.37281">
        <ele>225.4</ele>
        <time>2021-10-07T18:39:34Z</time>
      </trkpt>
      <trkpt lat="44.51576" lon="1.37282">
        <ele>225.5</ele>
        <time>2021-10-07T18:39:35Z</time>
      </trkpt>
      <trkpt lat="44.51578" lon="1.37283">
        <ele>225.6</ele>
        <time>2021-10-07T18:39:37Z</time>
      </trkpt>
      <trkpt lat="44.51579" lon="1.37284">
        <ele>225.6</ele>
        <time>2021-10-07T18:39:38Z</time>
      </trkpt>
      <trkpt lat="44.51582" lon="1.37285">
        <ele>225.7</ele>
        <time>2021-10-07T18:39:40Z</time>
      </trkpt>
      <trkpt lat="44.51583" lon="1.37285">
        <ele>225.7</ele>
        <time>2021-10-07T18:39:41Z</time>
      </trkpt>
      <trkpt lat="44.51585" lon="1.37287">
        <ele>225.8</ele>
        <time>2021-10-07T18:39:42Z</time>
      </trkpt>
      <trkpt lat="44.51587" lon="1.37289">
        <ele>225.9</ele>
        <time>2021-10-07T18:39:43Z</time>
      </trkpt>
      <trkpt lat="44.5159" lon="1.3729">
        <ele>226</ele>
        <time>2021-10-07T18:39:45Z</time>
      </trkpt>
      <trkpt lat="44.51591" lon="1.3729">
        <ele>226</ele>
        <time>2021-10-07T18:39:46Z</time>
      </trkpt>
      <trkpt lat="44.51593" lon="1.37291">
        <ele>226.1</ele>
        <time>2021-10-07T18:39:48Z</time>
      </trkpt>
      <trkpt lat="44.51597" lon="1.37292">
        <ele>226.2</ele>
        <time>2021-10-07T18:39:49Z</time>
      </trkpt>
      <trkpt lat="44.51598" lon="1.37292">
        <ele>226.2</ele>
        <time>2021-10-07T18:39:50Z</time>
      </trkpt>
      <trkpt lat="44.51601" lon="1.37294">
        <ele>226.3</ele>
        <time>2021-10-07T18:39:52Z</time>
      </trkpt>
      <trkpt lat="44.51602" lon="1.37294">
        <ele>226.3</ele>
        <time>2021-10-07T18:39:53Z</time>
      </trkpt>
      <trkpt lat="44.51604" lon="1.37295">
        <ele>226.4</ele>
        <time>2021-10-07T18:39:54Z</time>
      </trkpt>
      <trkpt lat="44.51605" lon="1.37296">
        <ele>226.4</ele>
        <time>2021-10-07T18:39:55Z</time>
      </trkpt>
      <trkpt lat="44.51607" lon="1.37297">
        <ele>226.5</ele>
        <time>2021-10-07T18:39:56Z</time>
      </trkpt>
      <trkpt lat="44.51608" lon="1.37298">
        <ele>226.5</ele>
        <time>2021-10-07T18:39:57Z</time>
      </trkpt>
      <trkpt lat="44.51612" lon="1.37299">
        <ele>226.6</ele>
        <time>2021-10-07T18:39:59Z</time>
      </trkpt>
      <trkpt lat="44.51613" lon="1.373">
        <ele>226.6</ele>
        <time>2021-10-07T18:40:00Z</time>
      </trkpt>
      <trkpt lat="44.51615" lon="1.373">
        <ele>226.7</ele>
        <time>2021-10-07T18:40:01Z</time>
      </trkpt>
      <trkpt lat="44.51617" lon="1.37301">
        <ele>226.7</ele>
        <time>2021-10-07T18:40:02Z</time>
      </trkpt>
      <trkpt lat="44.51619" lon="1.37301">
        <ele>226.8</ele>
        <time>2021-10-07T18:40:03Z</time>
      </trkpt>
      <trkpt lat="44.5162" lon="1.37302">
        <ele>226.9</ele>
        <time>2021-10-07T18:40:05Z</time>
      </trkpt>
      <trkpt lat="44.51623" lon="1.37303">
        <ele>226.9</ele>
        <time>2021-10-07T18:40:06Z</time>
      </trkpt>
      <trkpt lat="44.51624" lon="1.37304">
        <ele>227</ele>
        <time>2021-10-07T18:40:07Z</time>
      </trkpt>
      <trkpt lat="44.51626" lon="1.37304">
        <ele>227</ele>
        <time>2021-10-07T18:40:08Z</time>
      </trkpt>
      <trkpt lat="44.51629" lon="1.37304">
        <ele>227.1</ele>
        <time>2021-10-07T18:40:10Z</time>
      </trkpt>
      <trkpt lat="44.51633" lon="1.37307">
        <ele>227.2</ele>
        <time>2021-10-07T18:40:12Z</time>
      </trkpt>
      <trkpt lat="44.51634" lon="1.37307">
        <ele>227.2</ele>
        <time>2021-10-07T18:40:13Z</time>
      </trkpt>
      <trkpt lat="44.51636" lon="1.37308">
        <ele>227.2</ele>
        <time>2021-10-07T18:40:15Z</time>
      </trkpt>
      <trkpt lat="44.51637" lon="1.37308">
        <ele>227.2</ele>
        <time>2021-10-07T18:40:16Z</time>
      </trkpt>
      <trkpt lat="44.51638" lon="1.37309">
        <ele>227.3</ele>
        <time>2021-10-07T18:40:18Z</time>
      </trkpt>
      <trkpt lat="44.5164" lon="1.37309">
        <ele>227.3</ele>
        <time>2021-10-07T18:40:19Z</time>
      </trkpt>
      <trkpt lat="44.51644" lon="1.3731">
        <ele>227.3</ele>
        <time>2021-10-07T18:40:20Z</time>
      </trkpt>
      <trkpt lat="44.51647" lon="1.37312">
        <ele>227.4</ele>
        <time>2021-10-07T18:40:21Z</time>
      </trkpt>
      <trkpt lat="44.5165" lon="1.37313">
        <ele>227.4</ele>
        <time>2021-10-07T18:40:22Z</time>
      </trkpt>
      <trkpt lat="44.51651" lon="1.37314">
        <ele>227.4</ele>
        <time>2021-10-07T18:40:23Z</time>
      </trkpt>
      <trkpt lat="44.51653" lon="1.37315">
        <ele>227.4</ele>
        <time>2021-10-07T18:40:25Z</time>
      </trkpt>
      <trkpt lat="44.51656" lon="1.37316">
        <ele>227.4</ele>
        <time>2021-10-07T18:40:26Z</time>
      </trkpt>
      <trkpt lat="44.51657" lon="1.37316">
        <ele>227.4</ele>
        <time>2021-10-07T18:40:27Z</time>
      </trkpt>
      <trkpt lat="44.5166" lon="1.37317">
        <ele>227.4</ele>
        <time>2021-10-07T18:40:28Z</time>
      </trkpt>
      <trkpt lat="44.51662" lon="1.37318">
        <ele>227.4</ele>
        <time>2021-10-07T18:40:29Z</time>
      </trkpt>
      <trkpt lat="44.51664" lon="1.37319">
        <ele>227.3</ele>
        <time>2021-10-07T18:40:30Z</time>
      </trkpt>
      <trkpt lat="44.51666" lon="1.3732">
        <ele>227.3</ele>
        <time>2021-10-07T18:40:32Z</time>
      </trkpt>
      <trkpt lat="44.5167" lon="1.37322">
        <ele>227.3</ele>
        <time>2021-10-07T18:40:33Z</time>
      </trkpt>
      <trkpt lat="44.51671" lon="1.37323">
        <ele>227.3</ele>
        <time>2021-10-07T18:40:34Z</time>
      </trkpt>
      <trkpt lat="44.51673" lon="1.37324">
        <ele>227.2</ele>
        <time>2021-10-07T18:40:35Z</time>
      </trkpt>
      <trkpt lat="44.51676" lon="1.37325">
        <ele>227.2</ele>
        <time>2021-10-07T18:40:37Z</time>
      </trkpt>
      <trkpt lat="44.51677" lon="1.37326">
        <ele>227.2</ele>
        <time>2021-10-07T18:40:38Z</time>
      </trkpt>
      <trkpt lat="44.5168" lon="1.37327">
        <ele>227.3</ele>
        <time>2021-10-07T18:40:40Z</time>
      </trkpt>
      <trkpt lat="44.51683" lon="1.37331">
        <ele>227.3</ele>
        <time>2021-10-07T18:40:41Z</time>
      </trkpt>
      <trkpt lat="44.51683" lon="1.37332">
        <ele>227.3</ele>
        <time>2021-10-07T18:40:42Z</time>
      </trkpt>
      <trkpt lat="44.51685" lon="1.37334">
        <ele>227.3</ele>
        <time>2021-10-07T18:40:43Z</time>
      </trkpt>
      <trkpt lat="44.51687" lon="1.37336">
        <ele>227.4</ele>
        <time>2021-10-07T18:40:45Z</time>
      </trkpt>
      <trkpt lat="44.51689" lon="1.37338">
        <ele>227.5</ele>
        <time>2021-10-07T18:40:46Z</time>
      </trkpt>
      <trkpt lat="44.5169" lon="1.37339">
        <ele>227.5</ele>
        <time>2021-10-07T18:40:47Z</time>
      </trkpt>
      <trkpt lat="44.51692" lon="1.37341">
        <ele>227.5</ele>
        <time>2021-10-07T18:40:48Z</time>
      </trkpt>
      <trkpt lat="44.51694" lon="1.37345">
        <ele>227.6</ele>
        <time>2021-10-07T18:40:50Z</time>
      </trkpt>
      <trkpt lat="44.51697" lon="1.37348">
        <ele>227.7</ele>
        <time>2021-10-07T18:40:51Z</time>
      </trkpt>
      <trkpt lat="44.51698" lon="1.37349">
        <ele>227.7</ele>
        <time>2021-10-07T18:40:52Z</time>
      </trkpt>
      <trkpt lat="44.517" lon="1.3735">
        <ele>227.8</ele>
        <time>2021-10-07T18:40:53Z</time>
      </trkpt>
      <trkpt lat="44.51703" lon="1.37352">
        <ele>227.9</ele>
        <time>2021-10-07T18:40:55Z</time>
      </trkpt>
      <trkpt lat="44.51706" lon="1.37354">
        <ele>228</ele>
        <time>2021-10-07T18:40:57Z</time>
      </trkpt>
      <trkpt lat="44.51707" lon="1.37355">
        <ele>228</ele>
        <time>2021-10-07T18:40:58Z</time>
      </trkpt>
      <trkpt lat="44.5171" lon="1.37356">
        <ele>228.1</ele>
        <time>2021-10-07T18:40:59Z</time>
      </trkpt>
      <trkpt lat="44.51714" lon="1.37358">
        <ele>228.2</ele>
        <time>2021-10-07T18:41:01Z</time>
      </trkpt>
      <trkpt lat="44.51716" lon="1.37359">
        <ele>228.2</ele>
        <time>2021-10-07T18:41:02Z</time>
      </trkpt>
      <trkpt lat="44.51717" lon="1.3736">
        <ele>228.2</ele>
        <time>2021-10-07T18:41:03Z</time>
      </trkpt>
      <trkpt lat="44.51718" lon="1.37361">
        <ele>228.3</ele>
        <time>2021-10-07T18:41:04Z</time>
      </trkpt>
      <trkpt lat="44.51721" lon="1.37363">
        <ele>228.3</ele>
        <time>2021-10-07T18:41:06Z</time>
      </trkpt>
      <trkpt lat="44.51723" lon="1.37365">
        <ele>228.4</ele>
        <time>2021-10-07T18:41:07Z</time>
      </trkpt>
      <trkpt lat="44.51725" lon="1.37366">
        <ele>228.4</ele>
        <time>2021-10-07T18:41:08Z</time>
      </trkpt>
      <trkpt lat="44.51727" lon="1.37368">
        <ele>228.5</ele>
        <time>2021-10-07T18:41:10Z</time>
      </trkpt>
      <trkpt lat="44.51729" lon="1.37371">
        <ele>228.6</ele>
        <time>2021-10-07T18:41:11Z</time>
      </trkpt>
      <trkpt lat="44.5173" lon="1.37372">
        <ele>228.6</ele>
        <time>2021-10-07T18:41:12Z</time>
      </trkpt>
      <trkpt lat="44.51733" lon="1.37376">
        <ele>228.7</ele>
        <time>2021-10-07T18:41:14Z</time>
      </trkpt>
      <trkpt lat="44.51735" lon="1.37377">
        <ele>228.8</ele>
        <time>2021-10-07T18:41:15Z</time>
      </trkpt>
      <trkpt lat="44.51736" lon="1.37378">
        <ele>228.8</ele>
        <time>2021-10-07T18:41:16Z</time>
      </trkpt>
      <trkpt lat="44.51738" lon="1.3738">
        <ele>228.9</ele>
        <time>2021-10-07T18:41:18Z</time>
      </trkpt>
      <trkpt lat="44.51741" lon="1.37382">
        <ele>228.9</ele>
        <time>2021-10-07T18:41:19Z</time>
      </trkpt>
      <trkpt lat="44.51744" lon="1.37383">
        <ele>229</ele>
        <time>2021-10-07T18:41:20Z</time>
      </trkpt>
      <trkpt lat="44.51745" lon="1.37384">
        <ele>229</ele>
        <time>2021-10-07T18:41:21Z</time>
      </trkpt>
      <trkpt lat="44.51748" lon="1.37386">
        <ele>229</ele>
        <time>2021-10-07T18:41:23Z</time>
      </trkpt>
      <trkpt lat="44.51749" lon="1.37387">
        <ele>229</ele>
        <time>2021-10-07T18:41:24Z</time>
      </trkpt>
      <trkpt lat="44.51751" lon="1.37389">
        <ele>229.1</ele>
        <time>2021-10-07T18:41:25Z</time>
      </trkpt>
      <trkpt lat="44.51752" lon="1.3739">
        <ele>229.1</ele>
        <time>2021-10-07T18:41:26Z</time>
      </trkpt>
      <trkpt lat="44.51755" lon="1.37392">
        <ele>229.1</ele>
        <time>2021-10-07T18:41:27Z</time>
      </trkpt>
      <trkpt lat="44.51756" lon="1.37392">
        <ele>229.1</ele>
        <time>2021-10-07T18:41:28Z</time>
      </trkpt>
      <trkpt lat="44.51757" lon="1.37394">
        <ele>229.1</ele>
        <time>2021-10-07T18:41:29Z</time>
      </trkpt>
      <trkpt lat="44.51759" lon="1.37395">
        <ele>229.2</ele>
        <time>2021-10-07T18:41:31Z</time>
      </trkpt>
      <trkpt lat="44.51762" lon="1.37396">
        <ele>229.2</ele>
        <time>2021-10-07T18:41:32Z</time>
      </trkpt>
      <trkpt lat="44.51765" lon="1.37397">
        <ele>229.2</ele>
        <time>2021-10-07T18:41:33Z</time>
      </trkpt>
      <trkpt lat="44.51766" lon="1.37397">
        <ele>229.2</ele>
        <time>2021-10-07T18:41:34Z</time>
      </trkpt>
      <trkpt lat="44.51768" lon="1.37398">
        <ele>229.2</ele>
        <time>2021-10-07T18:41:35Z</time>
      </trkpt>
      <trkpt lat="44.51771" lon="1.37399">
        <ele>229.2</ele>
        <time>2021-10-07T18:41:37Z</time>
      </trkpt>
      <trkpt lat="44.51774" lon="1.37399">
        <ele>229.2</ele>
        <time>2021-10-07T18:41:38Z</time>
      </trkpt>
      <trkpt lat="44.51778" lon="1.374">
        <ele>229.2</ele>
        <time>2021-10-07T18:41:40Z</time>
      </trkpt>
      <trkpt lat="44.51782" lon="1.374">
        <ele>229.2</ele>
        <time>2021-10-07T18:41:42Z</time>
      </trkpt>
      <trkpt lat="44.51784" lon="1.374">
        <ele>229.2</ele>
        <time>2021-10-07T18:41:43Z</time>
      </trkpt>
      <trkpt lat="44.51785" lon="1.374">
        <ele>229.1</ele>
        <time>2021-10-07T18:41:44Z</time>
      </trkpt>
      <trkpt lat="44.51788" lon="1.374">
        <ele>229.1</ele>
        <time>2021-10-07T18:41:45Z</time>
      </trkpt>
      <trkpt lat="44.51792" lon="1.37399">
        <ele>229.1</ele>
        <time>2021-10-07T18:41:47Z</time>
      </trkpt>
      <trkpt lat="44.51796" lon="1.37398">
        <ele>229</ele>
        <time>2021-10-07T18:41:49Z</time>
      </trkpt>
      <trkpt lat="44.518" lon="1.37396">
        <ele>229</ele>
        <time>2021-10-07T18:41:51Z</time>
      </trkpt>
      <trkpt lat="44.51802" lon="1.37395">
        <ele>229</ele>
        <time>2021-10-07T18:41:52Z</time>
      </trkpt>
      <trkpt lat="44.51806" lon="1.37393">
        <ele>229</ele>
        <time>2021-10-07T18:41:54Z</time>
      </trkpt>
      <trkpt lat="44.51808" lon="1.37391">
        <ele>229</ele>
        <time>2021-10-07T18:41:55Z</time>
      </trkpt>
      <trkpt lat="44.51812" lon="1.37389">
        <ele>229</ele>
        <time>2021-10-07T18:41:56Z</time>
      </trkpt>
      <trkpt lat="44.51813" lon="1.37388">
        <ele>229</ele>
        <time>2021-10-07T18:41:57Z</time>
      </trkpt>
      <trkpt lat="44.51814" lon="1.37387">
        <ele>229</ele>
        <time>2021-10-07T18:41:58Z</time>
      </trkpt>
      <trkpt lat="44.51817" lon="1.37384">
        <ele>229.1</ele>
        <time>2021-10-07T18:42:00Z</time>
      </trkpt>
      <trkpt lat="44.5182" lon="1.37382">
        <ele>229.1</ele>
        <time>2021-10-07T18:42:01Z</time>
      </trkpt>
      <trkpt lat="44.51823" lon="1.37379">
        <ele>229.2</ele>
        <time>2021-10-07T18:42:02Z</time>
      </trkpt>
      <trkpt lat="44.51824" lon="1.37378">
        <ele>229.2</ele>
        <time>2021-10-07T18:42:03Z</time>
      </trkpt>
      <trkpt lat="44.51829" lon="1.37375">
        <ele>229.4</ele>
        <time>2021-10-07T18:42:05Z</time>
      </trkpt>
      <trkpt lat="44.51831" lon="1.37373">
        <ele>229.5</ele>
        <time>2021-10-07T18:42:06Z</time>
      </trkpt>
      <trkpt lat="44.51836" lon="1.3737">
        <ele>229.7</ele>
        <time>2021-10-07T18:42:08Z</time>
      </trkpt>
      <trkpt lat="44.51838" lon="1.37369">
        <ele>229.7</ele>
        <time>2021-10-07T18:42:09Z</time>
      </trkpt>
      <trkpt lat="44.51839" lon="1.37368">
        <ele>229.8</ele>
        <time>2021-10-07T18:42:10Z</time>
      </trkpt>
      <trkpt lat="44.51843" lon="1.37365">
        <ele>230</ele>
        <time>2021-10-07T18:42:12Z</time>
      </trkpt>
      <trkpt lat="44.51845" lon="1.37364">
        <ele>230.1</ele>
        <time>2021-10-07T18:42:13Z</time>
      </trkpt>
      <trkpt lat="44.51848" lon="1.37362">
        <ele>230.3</ele>
        <time>2021-10-07T18:42:15Z</time>
      </trkpt>
      <trkpt lat="44.51851" lon="1.3736">
        <ele>230.5</ele>
        <time>2021-10-07T18:42:16Z</time>
      </trkpt>
      <trkpt lat="44.51853" lon="1.37358">
        <ele>230.6</ele>
        <time>2021-10-07T18:42:17Z</time>
      </trkpt>
      <trkpt lat="44.51856" lon="1.37356">
        <ele>230.8</ele>
        <time>2021-10-07T18:42:18Z</time>
      </trkpt>
      <trkpt lat="44.51858" lon="1.37354">
        <ele>231</ele>
        <time>2021-10-07T18:42:19Z</time>
      </trkpt>
      <trkpt lat="44.51861" lon="1.37352">
        <ele>231.2</ele>
        <time>2021-10-07T18:42:21Z</time>
      </trkpt>
      <trkpt lat="44.51864" lon="1.3735">
        <ele>231.4</ele>
        <time>2021-10-07T18:42:22Z</time>
      </trkpt>
      <trkpt lat="44.51867" lon="1.37348">
        <ele>231.6</ele>
        <time>2021-10-07T18:42:23Z</time>
      </trkpt>
      <trkpt lat="44.51868" lon="1.37348">
        <ele>231.7</ele>
        <time>2021-10-07T18:42:24Z</time>
      </trkpt>
      <trkpt lat="44.51871" lon="1.37346">
        <ele>231.9</ele>
        <time>2021-10-07T18:42:26Z</time>
      </trkpt>
      <trkpt lat="44.51874" lon="1.37344">
        <ele>232.1</ele>
        <time>2021-10-07T18:42:27Z</time>
      </trkpt>
      <trkpt lat="44.51876" lon="1.37343">
        <ele>232.2</ele>
        <time>2021-10-07T18:42:28Z</time>
      </trkpt>
      <trkpt lat="44.5188" lon="1.37341">
        <ele>232.5</ele>
        <time>2021-10-07T18:42:30Z</time>
      </trkpt>
      <trkpt lat="44.51883" lon="1.37339">
        <ele>232.7</ele>
        <time>2021-10-07T18:42:31Z</time>
      </trkpt>
      <trkpt lat="44.51884" lon="1.37338">
        <ele>232.7</ele>
        <time>2021-10-07T18:42:32Z</time>
      </trkpt>
      <trkpt lat="44.51886" lon="1.37337">
        <ele>232.8</ele>
        <time>2021-10-07T18:42:33Z</time>
      </trkpt>
      <trkpt lat="44.51888" lon="1.37336">
        <ele>233</ele>
        <time>2021-10-07T18:42:35Z</time>
      </trkpt>
      <trkpt lat="44.51892" lon="1.37334">
        <ele>233.2</ele>
        <time>2021-10-07T18:42:36Z</time>
      </trkpt>
      <trkpt lat="44.51893" lon="1.37334">
        <ele>233.2</ele>
        <time>2021-10-07T18:42:37Z</time>
      </trkpt>
      <trkpt lat="44.51895" lon="1.37333">
        <ele>233.3</ele>
        <time>2021-10-07T18:42:38Z</time>
      </trkpt>
      <trkpt lat="44.51897" lon="1.37332">
        <ele>233.5</ele>
        <time>2021-10-07T18:42:40Z</time>
      </trkpt>
      <trkpt lat="44.51901" lon="1.3733">
        <ele>233.6</ele>
        <time>2021-10-07T18:42:41Z</time>
      </trkpt>
      <trkpt lat="44.51902" lon="1.3733">
        <ele>233.7</ele>
        <time>2021-10-07T18:42:42Z</time>
      </trkpt>
      <trkpt lat="44.51905" lon="1.37329">
        <ele>233.8</ele>
        <time>2021-10-07T18:42:44Z</time>
      </trkpt>
      <trkpt lat="44.51907" lon="1.37328">
        <ele>233.9</ele>
        <time>2021-10-07T18:42:45Z</time>
      </trkpt>
      <trkpt lat="44.51911" lon="1.37326">
        <ele>234.1</ele>
        <time>2021-10-07T18:42:47Z</time>
      </trkpt>
      <trkpt lat="44.51913" lon="1.37325">
        <ele>234.1</ele>
        <time>2021-10-07T18:42:48Z</time>
      </trkpt>
      <trkpt lat="44.51914" lon="1.37324">
        <ele>234.2</ele>
        <time>2021-10-07T18:42:49Z</time>
      </trkpt>
      <trkpt lat="44.51918" lon="1.37322">
        <ele>234.3</ele>
        <time>2021-10-07T18:42:50Z</time>
      </trkpt>
      <trkpt lat="44.51919" lon="1.37321">
        <ele>234.4</ele>
        <time>2021-10-07T18:42:51Z</time>
      </trkpt>
      <trkpt lat="44.51922" lon="1.37321">
        <ele>234.5</ele>
        <time>2021-10-07T18:42:52Z</time>
      </trkpt>
      <trkpt lat="44.51925" lon="1.37319">
        <ele>234.6</ele>
        <time>2021-10-07T18:42:54Z</time>
      </trkpt>
      <trkpt lat="44.51927" lon="1.37318">
        <ele>234.7</ele>
        <time>2021-10-07T18:42:55Z</time>
      </trkpt>
      <trkpt lat="44.51931" lon="1.37317">
        <ele>234.8</ele>
        <time>2021-10-07T18:42:57Z</time>
      </trkpt>
      <trkpt lat="44.51934" lon="1.37317">
        <ele>234.9</ele>
        <time>2021-10-07T18:42:58Z</time>
      </trkpt>
      <trkpt lat="44.51935" lon="1.37316">
        <ele>235</ele>
        <time>2021-10-07T18:42:59Z</time>
      </trkpt>
      <trkpt lat="44.51939" lon="1.37315">
        <ele>235.1</ele>
        <time>2021-10-07T18:43:01Z</time>
      </trkpt>
      <trkpt lat="44.51941" lon="1.37315">
        <ele>235.1</ele>
        <time>2021-10-07T18:43:02Z</time>
      </trkpt>
      <trkpt lat="44.51943" lon="1.37314">
        <ele>235.2</ele>
        <time>2021-10-07T18:43:03Z</time>
      </trkpt>
      <trkpt lat="44.51945" lon="1.37313">
        <ele>235.3</ele>
        <time>2021-10-07T18:43:04Z</time>
      </trkpt>
      <trkpt lat="44.51948" lon="1.37312">
        <ele>235.3</ele>
        <time>2021-10-07T18:43:06Z</time>
      </trkpt>
      <trkpt lat="44.51952" lon="1.37311">
        <ele>235.4</ele>
        <time>2021-10-07T18:43:07Z</time>
      </trkpt>
      <trkpt lat="44.51953" lon="1.3731">
        <ele>235.4</ele>
        <time>2021-10-07T18:43:08Z</time>
      </trkpt>
      <trkpt lat="44.51956" lon="1.37309">
        <ele>235.5</ele>
        <time>2021-10-07T18:43:09Z</time>
      </trkpt>
      <trkpt lat="44.51957" lon="1.37308">
        <ele>235.5</ele>
        <time>2021-10-07T18:43:10Z</time>
      </trkpt>
      <trkpt lat="44.51961" lon="1.37307">
        <ele>235.6</ele>
        <time>2021-10-07T18:43:12Z</time>
      </trkpt>
      <trkpt lat="44.51962" lon="1.37306">
        <ele>235.6</ele>
        <time>2021-10-07T18:43:13Z</time>
      </trkpt>
      <trkpt lat="44.51965" lon="1.37303">
        <ele>235.6</ele>
        <time>2021-10-07T18:43:14Z</time>
      </trkpt>
      <trkpt lat="44.51966" lon="1.37303">
        <ele>235.6</ele>
        <time>2021-10-07T18:43:15Z</time>
      </trkpt>
      <trkpt lat="44.5197" lon="1.37301">
        <ele>235.6</ele>
        <time>2021-10-07T18:43:16Z</time>
      </trkpt>
      <trkpt lat="44.5197" lon="1.37301">
        <ele>235.6</ele>
        <time>2021-10-07T18:43:17Z</time>
      </trkpt>
      <trkpt lat="44.51974" lon="1.37299">
        <ele>235.6</ele>
        <time>2021-10-07T18:43:19Z</time>
      </trkpt>
      <trkpt lat="44.51975" lon="1.37299">
        <ele>235.6</ele>
        <time>2021-10-07T18:43:20Z</time>
      </trkpt>
      <trkpt lat="44.51979" lon="1.37298">
        <ele>235.6</ele>
        <time>2021-10-07T18:43:21Z</time>
      </trkpt>
      <trkpt lat="44.51981" lon="1.37298">
        <ele>235.6</ele>
        <time>2021-10-07T18:43:22Z</time>
      </trkpt>
      <trkpt lat="44.51984" lon="1.37297">
        <ele>235.6</ele>
        <time>2021-10-07T18:43:23Z</time>
      </trkpt>
      <trkpt lat="44.51985" lon="1.37296">
        <ele>235.6</ele>
        <time>2021-10-07T18:43:24Z</time>
      </trkpt>
      <trkpt lat="44.51989" lon="1.37295">
        <ele>235.6</ele>
        <time>2021-10-07T18:43:26Z</time>
      </trkpt>
      <trkpt lat="44.5199" lon="1.37295">
        <ele>235.6</ele>
        <time>2021-10-07T18:43:27Z</time>
      </trkpt>
      <trkpt lat="44.51992" lon="1.37295">
        <ele>235.5</ele>
        <time>2021-10-07T18:43:28Z</time>
      </trkpt>
      <trkpt lat="44.51995" lon="1.37295">
        <ele>235.5</ele>
        <time>2021-10-07T18:43:30Z</time>
      </trkpt>
      <trkpt lat="44.51999" lon="1.37295">
        <ele>235.5</ele>
        <time>2021-10-07T18:43:32Z</time>
      </trkpt>
      <trkpt lat="44.52001" lon="1.37295">
        <ele>235.4</ele>
        <time>2021-10-07T18:43:33Z</time>
      </trkpt>
      <trkpt lat="44.52004" lon="1.37295">
        <ele>235.4</ele>
        <time>2021-10-07T18:43:34Z</time>
      </trkpt>
      <trkpt lat="44.52005" lon="1.37295">
        <ele>235.3</ele>
        <time>2021-10-07T18:43:35Z</time>
      </trkpt>
      <trkpt lat="44.52008" lon="1.37295">
        <ele>235.3</ele>
        <time>2021-10-07T18:43:36Z</time>
      </trkpt>
      <trkpt lat="44.5201" lon="1.37295">
        <ele>235.2</ele>
        <time>2021-10-07T18:43:37Z</time>
      </trkpt>
      <trkpt lat="44.52013" lon="1.37295">
        <ele>235.1</ele>
        <time>2021-10-07T18:43:39Z</time>
      </trkpt>
      <trkpt lat="44.52017" lon="1.37294">
        <ele>235</ele>
        <time>2021-10-07T18:43:40Z</time>
      </trkpt>
      <trkpt lat="44.5202" lon="1.37294">
        <ele>235</ele>
        <time>2021-10-07T18:43:41Z</time>
      </trkpt>
      <trkpt lat="44.52023" lon="1.37293">
        <ele>234.9</ele>
        <time>2021-10-07T18:43:42Z</time>
      </trkpt>
      <trkpt lat="44.52026" lon="1.37293">
        <ele>234.8</ele>
        <time>2021-10-07T18:43:43Z</time>
      </trkpt>
      <trkpt lat="44.52032" lon="1.37293">
        <ele>234.7</ele>
        <time>2021-10-07T18:43:45Z</time>
      </trkpt>
      <trkpt lat="44.52036" lon="1.37292">
        <ele>234.6</ele>
        <time>2021-10-07T18:43:46Z</time>
      </trkpt>
      <trkpt lat="44.52039" lon="1.37292">
        <ele>234.6</ele>
        <time>2021-10-07T18:43:47Z</time>
      </trkpt>
      <trkpt lat="44.52043" lon="1.37291">
        <ele>234.5</ele>
        <time>2021-10-07T18:43:48Z</time>
      </trkpt>
      <trkpt lat="44.52047" lon="1.3729">
        <ele>234.3</ele>
        <time>2021-10-07T18:43:50Z</time>
      </trkpt>
      <trkpt lat="44.52051" lon="1.3729">
        <ele>234.2</ele>
        <time>2021-10-07T18:43:51Z</time>
      </trkpt>
      <trkpt lat="44.52055" lon="1.37288">
        <ele>234</ele>
        <time>2021-10-07T18:43:53Z</time>
      </trkpt>
      <trkpt lat="44.52058" lon="1.37285">
        <ele>233.8</ele>
        <time>2021-10-07T18:43:54Z</time>
      </trkpt>
      <trkpt lat="44.52062" lon="1.37285">
        <ele>233.6</ele>
        <time>2021-10-07T18:43:55Z</time>
      </trkpt>
      <trkpt lat="44.52066" lon="1.37283">
        <ele>233.4</ele>
        <time>2021-10-07T18:43:57Z</time>
      </trkpt>
      <trkpt lat="44.52072" lon="1.3728">
        <ele>233.1</ele>
        <time>2021-10-07T18:43:58Z</time>
      </trkpt>
      <trkpt lat="44.52075" lon="1.37278">
        <ele>233</ele>
        <time>2021-10-07T18:43:59Z</time>
      </trkpt>
      <trkpt lat="44.52078" lon="1.37277">
        <ele>232.8</ele>
        <time>2021-10-07T18:44:00Z</time>
      </trkpt>
      <trkpt lat="44.52084" lon="1.37274">
        <ele>232.6</ele>
        <time>2021-10-07T18:44:02Z</time>
      </trkpt>
      <trkpt lat="44.52089" lon="1.37271">
        <ele>232.5</ele>
        <time>2021-10-07T18:44:03Z</time>
      </trkpt>
      <trkpt lat="44.52094" lon="1.37269">
        <ele>232.4</ele>
        <time>2021-10-07T18:44:05Z</time>
      </trkpt>
      <trkpt lat="44.52099" lon="1.37267">
        <ele>232.2</ele>
        <time>2021-10-07T18:44:06Z</time>
      </trkpt>
      <trkpt lat="44.52102" lon="1.37265">
        <ele>232.2</ele>
        <time>2021-10-07T18:44:07Z</time>
      </trkpt>
      <trkpt lat="44.52107" lon="1.37261">
        <ele>232</ele>
        <time>2021-10-07T18:44:09Z</time>
      </trkpt>
      <trkpt lat="44.52109" lon="1.3726">
        <ele>231.9</ele>
        <time>2021-10-07T18:44:10Z</time>
      </trkpt>
      <trkpt lat="44.52112" lon="1.37258">
        <ele>231.8</ele>
        <time>2021-10-07T18:44:11Z</time>
      </trkpt>
      <trkpt lat="44.52117" lon="1.37256">
        <ele>231.7</ele>
        <time>2021-10-07T18:44:13Z</time>
      </trkpt>
      <trkpt lat="44.52121" lon="1.37254">
        <ele>231.5</ele>
        <time>2021-10-07T18:44:14Z</time>
      </trkpt>
      <trkpt lat="44.52125" lon="1.37252">
        <ele>231.4</ele>
        <time>2021-10-07T18:44:15Z</time>
      </trkpt>
      <trkpt lat="44.5213" lon="1.3725">
        <ele>231.2</ele>
        <time>2021-10-07T18:44:17Z</time>
      </trkpt>
      <trkpt lat="44.52135" lon="1.37247">
        <ele>231.1</ele>
        <time>2021-10-07T18:44:18Z</time>
      </trkpt>
      <trkpt lat="44.52139" lon="1.37246">
        <ele>230.9</ele>
        <time>2021-10-07T18:44:19Z</time>
      </trkpt>
      <trkpt lat="44.52142" lon="1.37244">
        <ele>230.8</ele>
        <time>2021-10-07T18:44:20Z</time>
      </trkpt>
      <trkpt lat="44.52149" lon="1.37241">
        <ele>230.6</ele>
        <time>2021-10-07T18:44:22Z</time>
      </trkpt>
      <trkpt lat="44.52154" lon="1.37239">
        <ele>230.4</ele>
        <time>2021-10-07T18:44:24Z</time>
      </trkpt>
      <trkpt lat="44.52159" lon="1.37235">
        <ele>230.2</ele>
        <time>2021-10-07T18:44:25Z</time>
      </trkpt>
      <trkpt lat="44.52163" lon="1.37233">
        <ele>230</ele>
        <time>2021-10-07T18:44:26Z</time>
      </trkpt>
      <trkpt lat="44.52167" lon="1.37231">
        <ele>229.8</ele>
        <time>2021-10-07T18:44:27Z</time>
      </trkpt>
      <trkpt lat="44.52178" lon="1.37228">
        <ele>229.2</ele>
        <time>2021-10-07T18:44:29Z</time>
      </trkpt>
      <trkpt lat="44.52183" lon="1.37227">
        <ele>228.9</ele>
        <time>2021-10-07T18:44:30Z</time>
      </trkpt>
      <trkpt lat="44.52186" lon="1.37226">
        <ele>228.8</ele>
        <time>2021-10-07T18:44:31Z</time>
      </trkpt>
      <trkpt lat="44.52188" lon="1.37225">
        <ele>228.6</ele>
        <time>2021-10-07T18:44:33Z</time>
      </trkpt>
      <trkpt lat="44.52192" lon="1.37225">
        <ele>228.5</ele>
        <time>2021-10-07T18:44:34Z</time>
      </trkpt>
      <trkpt lat="44.52194" lon="1.37224">
        <ele>228.4</ele>
        <time>2021-10-07T18:44:35Z</time>
      </trkpt>
      <trkpt lat="44.52197" lon="1.37223">
        <ele>228.2</ele>
        <time>2021-10-07T18:44:37Z</time>
      </trkpt>
      <trkpt lat="44.52201" lon="1.37221">
        <ele>228.1</ele>
        <time>2021-10-07T18:44:38Z</time>
      </trkpt>
      <trkpt lat="44.52205" lon="1.37219">
        <ele>228</ele>
        <time>2021-10-07T18:44:40Z</time>
      </trkpt>
      <trkpt lat="44.52207" lon="1.37218">
        <ele>227.9</ele>
        <time>2021-10-07T18:44:41Z</time>
      </trkpt>
      <trkpt lat="44.5221" lon="1.37217">
        <ele>227.9</ele>
        <time>2021-10-07T18:44:42Z</time>
      </trkpt>
      <trkpt lat="44.52213" lon="1.37214">
        <ele>227.8</ele>
        <time>2021-10-07T18:44:43Z</time>
      </trkpt>
      <trkpt lat="44.52216" lon="1.37212">
        <ele>227.8</ele>
        <time>2021-10-07T18:44:44Z</time>
      </trkpt>
      <trkpt lat="44.52219" lon="1.37209">
        <ele>227.8</ele>
        <time>2021-10-07T18:44:45Z</time>
      </trkpt>
      <trkpt lat="44.52225" lon="1.37206">
        <ele>227.9</ele>
        <time>2021-10-07T18:44:47Z</time>
      </trkpt>
      <trkpt lat="44.52229" lon="1.37204">
        <ele>227.9</ele>
        <time>2021-10-07T18:44:48Z</time>
      </trkpt>
      <trkpt lat="44.52232" lon="1.37203">
        <ele>228</ele>
        <time>2021-10-07T18:44:49Z</time>
      </trkpt>
      <trkpt lat="44.52235" lon="1.37203">
        <ele>228.1</ele>
        <time>2021-10-07T18:44:51Z</time>
      </trkpt>
      <trkpt lat="44.52239" lon="1.37201">
        <ele>228.2</ele>
        <time>2021-10-07T18:44:52Z</time>
      </trkpt>
      <trkpt lat="44.52242" lon="1.37199">
        <ele>228.3</ele>
        <time>2021-10-07T18:44:53Z</time>
      </trkpt>
      <trkpt lat="44.52246" lon="1.37195">
        <ele>228.5</ele>
        <time>2021-10-07T18:44:55Z</time>
      </trkpt>
      <trkpt lat="44.52249" lon="1.37193">
        <ele>228.6</ele>
        <time>2021-10-07T18:44:56Z</time>
      </trkpt>
      <trkpt lat="44.52252" lon="1.3719">
        <ele>228.8</ele>
        <time>2021-10-07T18:44:57Z</time>
      </trkpt>
      <trkpt lat="44.52253" lon="1.3719">
        <ele>228.9</ele>
        <time>2021-10-07T18:44:58Z</time>
      </trkpt>
      <trkpt lat="44.52257" lon="1.37187">
        <ele>229.1</ele>
        <time>2021-10-07T18:45:00Z</time>
      </trkpt>
      <trkpt lat="44.5226" lon="1.37185">
        <ele>229.2</ele>
        <time>2021-10-07T18:45:01Z</time>
      </trkpt>
      <trkpt lat="44.52262" lon="1.37184">
        <ele>229.3</ele>
        <time>2021-10-07T18:45:02Z</time>
      </trkpt>
      <trkpt lat="44.52265" lon="1.37183">
        <ele>229.5</ele>
        <time>2021-10-07T18:45:04Z</time>
      </trkpt>
      <trkpt lat="44.52268" lon="1.3718">
        <ele>229.8</ele>
        <time>2021-10-07T18:45:05Z</time>
      </trkpt>
      <trkpt lat="44.5227" lon="1.37179">
        <ele>229.9</ele>
        <time>2021-10-07T18:45:06Z</time>
      </trkpt>
      <trkpt lat="44.52273" lon="1.37177">
        <ele>230.1</ele>
        <time>2021-10-07T18:45:08Z</time>
      </trkpt>
      <trkpt lat="44.52276" lon="1.37174">
        <ele>230.4</ele>
        <time>2021-10-07T18:45:09Z</time>
      </trkpt>
      <trkpt lat="44.52278" lon="1.37173">
        <ele>230.6</ele>
        <time>2021-10-07T18:45:10Z</time>
      </trkpt>
      <trkpt lat="44.52281" lon="1.37172">
        <ele>230.8</ele>
        <time>2021-10-07T18:45:12Z</time>
      </trkpt>
      <trkpt lat="44.52284" lon="1.37168">
        <ele>231.1</ele>
        <time>2021-10-07T18:45:13Z</time>
      </trkpt>
      <trkpt lat="44.52285" lon="1.37167">
        <ele>231.2</ele>
        <time>2021-10-07T18:45:14Z</time>
      </trkpt>
      <trkpt lat="44.52288" lon="1.37165">
        <ele>231.4</ele>
        <time>2021-10-07T18:45:16Z</time>
      </trkpt>
      <trkpt lat="44.5229" lon="1.37164">
        <ele>231.5</ele>
        <time>2021-10-07T18:45:17Z</time>
      </trkpt>
      <trkpt lat="44.52292" lon="1.37162">
        <ele>231.7</ele>
        <time>2021-10-07T18:45:19Z</time>
      </trkpt>
      <trkpt lat="44.52295" lon="1.3716">
        <ele>231.9</ele>
        <time>2021-10-07T18:45:20Z</time>
      </trkpt>
      <trkpt lat="44.52295" lon="1.37159">
        <ele>232</ele>
        <time>2021-10-07T18:45:21Z</time>
      </trkpt>
      <trkpt lat="44.52297" lon="1.37158">
        <ele>232.1</ele>
        <time>2021-10-07T18:45:22Z</time>
      </trkpt>
      <trkpt lat="44.52298" lon="1.37157">
        <ele>232.3</ele>
        <time>2021-10-07T18:45:23Z</time>
      </trkpt>
      <trkpt lat="44.52302" lon="1.37155">
        <ele>232.6</ele>
        <time>2021-10-07T18:45:25Z</time>
      </trkpt>
      <trkpt lat="44.52304" lon="1.37154">
        <ele>232.7</ele>
        <time>2021-10-07T18:45:26Z</time>
      </trkpt>
      <trkpt lat="44.52305" lon="1.37153">
        <ele>232.9</ele>
        <time>2021-10-07T18:45:27Z</time>
      </trkpt>
      <trkpt lat="44.52307" lon="1.37152">
        <ele>233</ele>
        <time>2021-10-07T18:45:28Z</time>
      </trkpt>
      <trkpt lat="44.52308" lon="1.37151">
        <ele>233.2</ele>
        <time>2021-10-07T18:45:29Z</time>
      </trkpt>
      <trkpt lat="44.5231" lon="1.37149">
        <ele>233.4</ele>
        <time>2021-10-07T18:45:31Z</time>
      </trkpt>
      <trkpt lat="44.52313" lon="1.37148">
        <ele>233.7</ele>
        <time>2021-10-07T18:45:32Z</time>
      </trkpt>
      <trkpt lat="44.52314" lon="1.37147">
        <ele>233.8</ele>
        <time>2021-10-07T18:45:33Z</time>
      </trkpt>
      <trkpt lat="44.52316" lon="1.37145">
        <ele>234.2</ele>
        <time>2021-10-07T18:45:35Z</time>
      </trkpt>
      <trkpt lat="44.52318" lon="1.37144">
        <ele>234.4</ele>
        <time>2021-10-07T18:45:36Z</time>
      </trkpt>
      <trkpt lat="44.5232" lon="1.37143">
        <ele>234.6</ele>
        <time>2021-10-07T18:45:37Z</time>
      </trkpt>
      <trkpt lat="44.52323" lon="1.3714">
        <ele>235</ele>
        <time>2021-10-07T18:45:39Z</time>
      </trkpt>
      <trkpt lat="44.52324" lon="1.37139">
        <ele>235.1</ele>
        <time>2021-10-07T18:45:40Z</time>
      </trkpt>
      <trkpt lat="44.52327" lon="1.37138">
        <ele>235.5</ele>
        <time>2021-10-07T18:45:42Z</time>
      </trkpt>
      <trkpt lat="44.52328" lon="1.37137">
        <ele>235.6</ele>
        <time>2021-10-07T18:45:43Z</time>
      </trkpt>
      <trkpt lat="44.52332" lon="1.37136">
        <ele>236.1</ele>
        <time>2021-10-07T18:45:45Z</time>
      </trkpt>
      <trkpt lat="44.52334" lon="1.37135">
        <ele>236.3</ele>
        <time>2021-10-07T18:45:46Z</time>
      </trkpt>
      <trkpt lat="44.52335" lon="1.37135">
        <ele>236.4</ele>
        <time>2021-10-07T18:45:47Z</time>
      </trkpt>
      <trkpt lat="44.5234" lon="1.37133">
        <ele>236.9</ele>
        <time>2021-10-07T18:45:49Z</time>
      </trkpt>
      <trkpt lat="44.52342" lon="1.37133">
        <ele>237.1</ele>
        <time>2021-10-07T18:45:51Z</time>
      </trkpt>
      <trkpt lat="44.52343" lon="1.37133">
        <ele>237.3</ele>
        <time>2021-10-07T18:45:52Z</time>
      </trkpt>
      <trkpt lat="44.52346" lon="1.37133">
        <ele>237.6</ele>
        <time>2021-10-07T18:45:54Z</time>
      </trkpt>
      <trkpt lat="44.52348" lon="1.37132">
        <ele>237.8</ele>
        <time>2021-10-07T18:45:55Z</time>
      </trkpt>
      <trkpt lat="44.52351" lon="1.37131">
        <ele>238</ele>
        <time>2021-10-07T18:45:57Z</time>
      </trkpt>
      <trkpt lat="44.52354" lon="1.3713">
        <ele>238.4</ele>
        <time>2021-10-07T18:45:58Z</time>
      </trkpt>
      <trkpt lat="44.52355" lon="1.3713">
        <ele>238.5</ele>
        <time>2021-10-07T18:45:59Z</time>
      </trkpt>
      <trkpt lat="44.52357" lon="1.37129">
        <ele>238.7</ele>
        <time>2021-10-07T18:46:00Z</time>
      </trkpt>
      <trkpt lat="44.52359" lon="1.37128">
        <ele>239</ele>
        <time>2021-10-07T18:46:02Z</time>
      </trkpt>
      <trkpt lat="44.52362" lon="1.37127">
        <ele>239.2</ele>
        <time>2021-10-07T18:46:04Z</time>
      </trkpt>
      <trkpt lat="44.52363" lon="1.37126">
        <ele>239.4</ele>
        <time>2021-10-07T18:46:05Z</time>
      </trkpt>
      <trkpt lat="44.52364" lon="1.37126">
        <ele>239.5</ele>
        <time>2021-10-07T18:46:06Z</time>
      </trkpt>
      <trkpt lat="44.52366" lon="1.37125">
        <ele>239.6</ele>
        <time>2021-10-07T18:46:07Z</time>
      </trkpt>
      <trkpt lat="44.52366" lon="1.37124">
        <ele>239.7</ele>
        <time>2021-10-07T18:46:08Z</time>
      </trkpt>
      <trkpt lat="44.52367" lon="1.37124">
        <ele>239.7</ele>
        <time>2021-10-07T18:46:10Z</time>
      </trkpt>
      <trkpt lat="44.52367" lon="1.37124">
        <ele>239.8</ele>
        <time>2021-10-07T18:46:12Z</time>
      </trkpt>
      <trkpt lat="44.52368" lon="1.37124">
        <ele>239.8</ele>
        <time>2021-10-07T18:46:13Z</time>
      </trkpt>
      <trkpt lat="44.52368" lon="1.37124">
        <ele>239.8</ele>
        <time>2021-10-07T18:46:15Z</time>
      </trkpt>
      <trkpt lat="44.52367" lon="1.37124">
        <ele>239.8</ele>
        <time>2021-10-07T18:46:17Z</time>
      </trkpt>
      <trkpt lat="44.52368" lon="1.37124">
        <ele>239.9</ele>
        <time>2021-10-07T18:46:18Z</time>
      </trkpt>
      <trkpt lat="44.52368" lon="1.37124">
        <ele>239.9</ele>
        <time>2021-10-07T18:46:19Z</time>
      </trkpt>
      <trkpt lat="44.52368" lon="1.37124">
        <ele>239.9</ele>
        <time>2021-10-07T18:46:21Z</time>
      </trkpt>
      <trkpt lat="44.52367" lon="1.37124">
        <ele>239.9</ele>
        <time>2021-10-07T18:46:23Z</time>
      </trkpt>
      <trkpt lat="44.52367" lon="1.37124">
        <ele>239.9</ele>
        <time>2021-10-07T18:46:25Z</time>
      </trkpt>
      <trkpt lat="44.52367" lon="1.37124">
        <ele>239.9</ele>
        <time>2021-10-07T18:46:26Z</time>
      </trkpt>
      <trkpt lat="44.52367" lon="1.37124">
        <ele>239.9</ele>
        <time>2021-10-07T18:46:28Z</time>
      </trkpt>
      <trkpt lat="44.52367" lon="1.37124">
        <ele>239.9</ele>
        <time>2021-10-07T18:46:29Z</time>
      </trkpt>
      <trkpt lat="44.52367" lon="1.37124">
        <ele>239.9</ele>
        <time>2021-10-07T18:46:31Z</time>
      </trkpt>
      <trkpt lat="44.52369" lon="1.37122">
        <ele>240.1</ele>
        <time>2021-10-07T18:47:13Z</time>
      </trkpt>
      <trkpt lat="44.52371" lon="1.37119">
        <ele>240.4</ele>
        <time>2021-10-07T18:47:15Z</time>
      </trkpt>
      <trkpt lat="44.52373" lon="1.37117">
        <ele>240.5</ele>
        <time>2021-10-07T18:47:17Z</time>
      </trkpt>
      <trkpt lat="44.52373" lon="1.37116">
        <ele>240.6</ele>
        <time>2021-10-07T18:47:18Z</time>
      </trkpt>
      <trkpt lat="44.52374" lon="1.37114">
        <ele>240.7</ele>
        <time>2021-10-07T18:47:19Z</time>
      </trkpt>
      <trkpt lat="44.52375" lon="1.37112">
        <ele>240.9</ele>
        <time>2021-10-07T18:47:21Z</time>
      </trkpt>
      <trkpt lat="44.52378" lon="1.3711">
        <ele>241.1</ele>
        <time>2021-10-07T18:47:22Z</time>
      </trkpt>
      <trkpt lat="44.52379" lon="1.37108">
        <ele>241.3</ele>
        <time>2021-10-07T18:47:23Z</time>
      </trkpt>
      <trkpt lat="44.52381" lon="1.37106">
        <ele>241.6</ele>
        <time>2021-10-07T18:47:25Z</time>
      </trkpt>
      <trkpt lat="44.52382" lon="1.37104">
        <ele>241.8</ele>
        <time>2021-10-07T18:47:26Z</time>
      </trkpt>
      <trkpt lat="44.52384" lon="1.37101">
        <ele>242.1</ele>
        <time>2021-10-07T18:47:28Z</time>
      </trkpt>
      <trkpt lat="44.52385" lon="1.371">
        <ele>242.2</ele>
        <time>2021-10-07T18:47:29Z</time>
      </trkpt>
      <trkpt lat="44.52387" lon="1.37099">
        <ele>242.4</ele>
        <time>2021-10-07T18:47:30Z</time>
      </trkpt>
      <trkpt lat="44.52389" lon="1.37096">
        <ele>242.7</ele>
        <time>2021-10-07T18:47:32Z</time>
      </trkpt>
      <trkpt lat="44.5239" lon="1.37095">
        <ele>242.9</ele>
        <time>2021-10-07T18:47:34Z</time>
      </trkpt>
      <trkpt lat="44.52391" lon="1.37092">
        <ele>243.1</ele>
        <time>2021-10-07T18:47:35Z</time>
      </trkpt>
      <trkpt lat="44.52393" lon="1.3709">
        <ele>243.3</ele>
        <time>2021-10-07T18:47:36Z</time>
      </trkpt>
      <trkpt lat="44.52395" lon="1.37088">
        <ele>243.6</ele>
        <time>2021-10-07T18:47:37Z</time>
      </trkpt>
      <trkpt lat="44.52395" lon="1.37086">
        <ele>243.7</ele>
        <time>2021-10-07T18:47:38Z</time>
      </trkpt>
      <trkpt lat="44.52397" lon="1.37085">
        <ele>243.9</ele>
        <time>2021-10-07T18:47:40Z</time>
      </trkpt>
      <trkpt lat="44.52398" lon="1.37084">
        <ele>244.1</ele>
        <time>2021-10-07T18:47:41Z</time>
      </trkpt>
      <trkpt lat="44.524" lon="1.37081">
        <ele>244.4</ele>
        <time>2021-10-07T18:47:42Z</time>
      </trkpt>
      <trkpt lat="44.52401" lon="1.3708">
        <ele>244.5</ele>
        <time>2021-10-07T18:47:43Z</time>
      </trkpt>
      <trkpt lat="44.52402" lon="1.37078">
        <ele>244.6</ele>
        <time>2021-10-07T18:47:44Z</time>
      </trkpt>
      <trkpt lat="44.52403" lon="1.37077">
        <ele>244.8</ele>
        <time>2021-10-07T18:47:46Z</time>
      </trkpt>
      <trkpt lat="44.52405" lon="1.37074">
        <ele>245.1</ele>
        <time>2021-10-07T18:47:47Z</time>
      </trkpt>
      <trkpt lat="44.52407" lon="1.37071">
        <ele>245.4</ele>
        <time>2021-10-07T18:47:48Z</time>
      </trkpt>
      <trkpt lat="44.52408" lon="1.37068">
        <ele>245.6</ele>
        <time>2021-10-07T18:47:50Z</time>
      </trkpt>
      <trkpt lat="44.5241" lon="1.37064">
        <ele>245.9</ele>
        <time>2021-10-07T18:47:51Z</time>
      </trkpt>
      <trkpt lat="44.5241" lon="1.37063">
        <ele>246</ele>
        <time>2021-10-07T18:47:52Z</time>
      </trkpt>
      <trkpt lat="44.52411" lon="1.37061">
        <ele>246.1</ele>
        <time>2021-10-07T18:47:53Z</time>
      </trkpt>
      <trkpt lat="44.52412" lon="1.37058">
        <ele>246.3</ele>
        <time>2021-10-07T18:47:55Z</time>
      </trkpt>
      <trkpt lat="44.52413" lon="1.37057">
        <ele>246.3</ele>
        <time>2021-10-07T18:47:56Z</time>
      </trkpt>
      <trkpt lat="44.52413" lon="1.37056">
        <ele>246.4</ele>
        <time>2021-10-07T18:47:58Z</time>
      </trkpt>
      <trkpt lat="44.52414" lon="1.37054">
        <ele>246.5</ele>
        <time>2021-10-07T18:47:59Z</time>
      </trkpt>
      <trkpt lat="44.52416" lon="1.3705">
        <ele>246.8</ele>
        <time>2021-10-07T18:48:01Z</time>
      </trkpt>
      <trkpt lat="44.52416" lon="1.37049">
        <ele>246.8</ele>
        <time>2021-10-07T18:48:02Z</time>
      </trkpt>
      <trkpt lat="44.52418" lon="1.37046">
        <ele>247</ele>
        <time>2021-10-07T18:48:03Z</time>
      </trkpt>
      <trkpt lat="44.52418" lon="1.37043">
        <ele>247.2</ele>
        <time>2021-10-07T18:48:05Z</time>
      </trkpt>
      <trkpt lat="44.52419" lon="1.37041">
        <ele>247.3</ele>
        <time>2021-10-07T18:48:06Z</time>
      </trkpt>
      <trkpt lat="44.5242" lon="1.37039">
        <ele>247.4</ele>
        <time>2021-10-07T18:48:07Z</time>
      </trkpt>
      <trkpt lat="44.52421" lon="1.37037">
        <ele>247.5</ele>
        <time>2021-10-07T18:48:08Z</time>
      </trkpt>
      <trkpt lat="44.52422" lon="1.37034">
        <ele>247.7</ele>
        <time>2021-10-07T18:48:10Z</time>
      </trkpt>
      <trkpt lat="44.52423" lon="1.37031">
        <ele>247.9</ele>
        <time>2021-10-07T18:48:11Z</time>
      </trkpt>
      <trkpt lat="44.52424" lon="1.37028">
        <ele>248.1</ele>
        <time>2021-10-07T18:48:13Z</time>
      </trkpt>
      <trkpt lat="44.52426" lon="1.37024">
        <ele>248.3</ele>
        <time>2021-10-07T18:48:14Z</time>
      </trkpt>
      <trkpt lat="44.52426" lon="1.37023">
        <ele>248.4</ele>
        <time>2021-10-07T18:48:15Z</time>
      </trkpt>
      <trkpt lat="44.52428" lon="1.3702">
        <ele>248.6</ele>
        <time>2021-10-07T18:48:16Z</time>
      </trkpt>
      <trkpt lat="44.52429" lon="1.37017">
        <ele>248.8</ele>
        <time>2021-10-07T18:48:18Z</time>
      </trkpt>
      <trkpt lat="44.52431" lon="1.37014">
        <ele>249</ele>
        <time>2021-10-07T18:48:19Z</time>
      </trkpt>
      <trkpt lat="44.52431" lon="1.37013">
        <ele>249</ele>
        <time>2021-10-07T18:48:20Z</time>
      </trkpt>
      <trkpt lat="44.52433" lon="1.37009">
        <ele>249.3</ele>
        <time>2021-10-07T18:48:21Z</time>
      </trkpt>
      <trkpt lat="44.52434" lon="1.37007">
        <ele>249.4</ele>
        <time>2021-10-07T18:48:22Z</time>
      </trkpt>
      <trkpt lat="44.52434" lon="1.37004">
        <ele>249.5</ele>
        <time>2021-10-07T18:48:23Z</time>
      </trkpt>
      <trkpt lat="44.52435" lon="1.37002">
        <ele>249.7</ele>
        <time>2021-10-07T18:48:24Z</time>
      </trkpt>
      <trkpt lat="44.52437" lon="1.36999">
        <ele>249.9</ele>
        <time>2021-10-07T18:48:26Z</time>
      </trkpt>
      <trkpt lat="44.52437" lon="1.36998">
        <ele>250</ele>
        <time>2021-10-07T18:48:27Z</time>
      </trkpt>
      <trkpt lat="44.52439" lon="1.36994">
        <ele>250.2</ele>
        <time>2021-10-07T18:48:28Z</time>
      </trkpt>
      <trkpt lat="44.52439" lon="1.36993">
        <ele>250.3</ele>
        <time>2021-10-07T18:48:29Z</time>
      </trkpt>
      <trkpt lat="44.52439" lon="1.3699">
        <ele>250.5</ele>
        <time>2021-10-07T18:48:30Z</time>
      </trkpt>
      <trkpt lat="44.5244" lon="1.36988">
        <ele>250.6</ele>
        <time>2021-10-07T18:48:32Z</time>
      </trkpt>
      <trkpt lat="44.52441" lon="1.36983">
        <ele>251</ele>
        <time>2021-10-07T18:48:33Z</time>
      </trkpt>
      <trkpt lat="44.52442" lon="1.36981">
        <ele>251.1</ele>
        <time>2021-10-07T18:48:34Z</time>
      </trkpt>
      <trkpt lat="44.52443" lon="1.36979">
        <ele>251.3</ele>
        <time>2021-10-07T18:48:35Z</time>
      </trkpt>
      <trkpt lat="44.52445" lon="1.36974">
        <ele>251.7</ele>
        <time>2021-10-07T18:48:37Z</time>
      </trkpt>
      <trkpt lat="44.52447" lon="1.36972">
        <ele>251.9</ele>
        <time>2021-10-07T18:48:38Z</time>
      </trkpt>
      <trkpt lat="44.52449" lon="1.3697">
        <ele>252.2</ele>
        <time>2021-10-07T18:48:40Z</time>
      </trkpt>
      <trkpt lat="44.52451" lon="1.36967">
        <ele>252.6</ele>
        <time>2021-10-07T18:48:41Z</time>
      </trkpt>
      <trkpt lat="44.52452" lon="1.36966">
        <ele>252.8</ele>
        <time>2021-10-07T18:48:42Z</time>
      </trkpt>
      <trkpt lat="44.52454" lon="1.36964">
        <ele>253.1</ele>
        <time>2021-10-07T18:48:43Z</time>
      </trkpt>
      <trkpt lat="44.52455" lon="1.36963">
        <ele>253.2</ele>
        <time>2021-10-07T18:48:44Z</time>
      </trkpt>
      <trkpt lat="44.52456" lon="1.36962">
        <ele>253.4</ele>
        <time>2021-10-07T18:48:46Z</time>
      </trkpt>
      <trkpt lat="44.52457" lon="1.36961">
        <ele>253.5</ele>
        <time>2021-10-07T18:48:47Z</time>
      </trkpt>
      <trkpt lat="44.52458" lon="1.3696">
        <ele>253.7</ele>
        <time>2021-10-07T18:48:48Z</time>
      </trkpt>
      <trkpt lat="44.52461" lon="1.36958">
        <ele>254.2</ele>
        <time>2021-10-07T18:48:50Z</time>
      </trkpt>
      <trkpt lat="44.52462" lon="1.36957">
        <ele>254.3</ele>
        <time>2021-10-07T18:48:51Z</time>
      </trkpt>
      <trkpt lat="44.52465" lon="1.36955">
        <ele>254.7</ele>
        <time>2021-10-07T18:48:53Z</time>
      </trkpt>
      <trkpt lat="44.52468" lon="1.36954">
        <ele>255.2</ele>
        <time>2021-10-07T18:48:54Z</time>
      </trkpt>
      <trkpt lat="44.5247" lon="1.36954">
        <ele>255.6</ele>
        <time>2021-10-07T18:48:55Z</time>
      </trkpt>
      <trkpt lat="44.52472" lon="1.36953">
        <ele>255.9</ele>
        <time>2021-10-07T18:48:57Z</time>
      </trkpt>
      <trkpt lat="44.52475" lon="1.36953">
        <ele>256.3</ele>
        <time>2021-10-07T18:48:58Z</time>
      </trkpt>
      <trkpt lat="44.52476" lon="1.36953">
        <ele>256.4</ele>
        <time>2021-10-07T18:48:59Z</time>
      </trkpt>
      <trkpt lat="44.52478" lon="1.36954">
        <ele>256.8</ele>
        <time>2021-10-07T18:49:00Z</time>
      </trkpt>
      <trkpt lat="44.52481" lon="1.36954">
        <ele>257.1</ele>
        <time>2021-10-07T18:49:02Z</time>
      </trkpt>
      <trkpt lat="44.52482" lon="1.36954">
        <ele>257.7</ele>
        <time>2021-10-07T18:49:03Z</time>
      </trkpt>
      <trkpt lat="44.52483" lon="1.36951">
        <ele>257.8</ele>
        <time>2021-10-07T18:49:05Z</time>
      </trkpt>
      <trkpt lat="44.52483" lon="1.36948">
        <ele>257.9</ele>
        <time>2021-10-07T18:49:06Z</time>
      </trkpt>
      <trkpt lat="44.52482" lon="1.36944">
        <ele>257.9</ele>
        <time>2021-10-07T18:49:08Z</time>
      </trkpt>
      <trkpt lat="44.52481" lon="1.36941">
        <ele>258</ele>
        <time>2021-10-07T18:49:09Z</time>
      </trkpt>
      <trkpt lat="44.5248" lon="1.36938">
        <ele>258</ele>
        <time>2021-10-07T18:49:11Z</time>
      </trkpt>
      <trkpt lat="44.52479" lon="1.36934">
        <ele>258.1</ele>
        <time>2021-10-07T18:49:12Z</time>
      </trkpt>
      <trkpt lat="44.52479" lon="1.36933">
        <ele>258.1</ele>
        <time>2021-10-07T18:49:13Z</time>
      </trkpt>
      <trkpt lat="44.52479" lon="1.36932">
        <ele>258.1</ele>
        <time>2021-10-07T18:49:14Z</time>
      </trkpt>
      <trkpt lat="44.52479" lon="1.3693">
        <ele>258.1</ele>
        <time>2021-10-07T18:49:15Z</time>
      </trkpt>
      <trkpt lat="44.52478" lon="1.36928">
        <ele>258.1</ele>
        <time>2021-10-07T18:49:17Z</time>
      </trkpt>
      <trkpt lat="44.52477" lon="1.36924">
        <ele>258.1</ele>
        <time>2021-10-07T18:49:18Z</time>
      </trkpt>
      <trkpt lat="44.52475" lon="1.36921">
        <ele>258.2</ele>
        <time>2021-10-07T18:49:19Z</time>
      </trkpt>
      <trkpt lat="44.52474" lon="1.36918">
        <ele>258.2</ele>
        <time>2021-10-07T18:49:20Z</time>
      </trkpt>
      <trkpt lat="44.52472" lon="1.36913">
        <ele>258.3</ele>
        <time>2021-10-07T18:49:22Z</time>
      </trkpt>
      <trkpt lat="44.52471" lon="1.36909">
        <ele>258.3</ele>
        <time>2021-10-07T18:49:23Z</time>
      </trkpt>
      <trkpt lat="44.52469" lon="1.36903">
        <ele>258.4</ele>
        <time>2021-10-07T18:49:24Z</time>
      </trkpt>
      <trkpt lat="44.52468" lon="1.36902">
        <ele>258.5</ele>
        <time>2021-10-07T18:49:25Z</time>
      </trkpt>
      <trkpt lat="44.52467" lon="1.36897">
        <ele>258.6</ele>
        <time>2021-10-07T18:49:27Z</time>
      </trkpt>
      <trkpt lat="44.52466" lon="1.36894">
        <ele>258.7</ele>
        <time>2021-10-07T18:49:28Z</time>
      </trkpt>
      <trkpt lat="44.52464" lon="1.3689">
        <ele>258.8</ele>
        <time>2021-10-07T18:49:30Z</time>
      </trkpt>
      <trkpt lat="44.52463" lon="1.36886">
        <ele>259</ele>
        <time>2021-10-07T18:49:31Z</time>
      </trkpt>
      <trkpt lat="44.52462" lon="1.36884">
        <ele>259.1</ele>
        <time>2021-10-07T18:49:32Z</time>
      </trkpt>
      <trkpt lat="44.52459" lon="1.36878">
        <ele>259.4</ele>
        <time>2021-10-07T18:49:34Z</time>
      </trkpt>
      <trkpt lat="44.52459" lon="1.36877">
        <ele>259.5</ele>
        <time>2021-10-07T18:49:35Z</time>
      </trkpt>
      <trkpt lat="44.52458" lon="1.36875">
        <ele>259.6</ele>
        <time>2021-10-07T18:49:36Z</time>
      </trkpt>
      <trkpt lat="44.52457" lon="1.36873">
        <ele>259.7</ele>
        <time>2021-10-07T18:49:37Z</time>
      </trkpt>
      <trkpt lat="44.52455" lon="1.36869">
        <ele>260</ele>
        <time>2021-10-07T18:49:39Z</time>
      </trkpt>
      <trkpt lat="44.52454" lon="1.36867">
        <ele>260.2</ele>
        <time>2021-10-07T18:49:40Z</time>
      </trkpt>
      <trkpt lat="44.52453" lon="1.36864">
        <ele>260.3</ele>
        <time>2021-10-07T18:49:42Z</time>
      </trkpt>
      <trkpt lat="44.52452" lon="1.3686">
        <ele>260.6</ele>
        <time>2021-10-07T18:49:43Z</time>
      </trkpt>
      <trkpt lat="44.52452" lon="1.36859">
        <ele>260.7</ele>
        <time>2021-10-07T18:49:44Z</time>
      </trkpt>
      <trkpt lat="44.52451" lon="1.36857">
        <ele>260.9</ele>
        <time>2021-10-07T18:49:45Z</time>
      </trkpt>
      <trkpt lat="44.52449" lon="1.36854">
        <ele>261.2</ele>
        <time>2021-10-07T18:49:47Z</time>
      </trkpt>
      <trkpt lat="44.52448" lon="1.3685">
        <ele>261.5</ele>
        <time>2021-10-07T18:49:48Z</time>
      </trkpt>
      <trkpt lat="44.52447" lon="1.36849">
        <ele>261.6</ele>
        <time>2021-10-07T18:49:49Z</time>
      </trkpt>
      <trkpt lat="44.52445" lon="1.36845">
        <ele>261.9</ele>
        <time>2021-10-07T18:49:51Z</time>
      </trkpt>
      <trkpt lat="44.52445" lon="1.36844">
        <ele>262</ele>
        <time>2021-10-07T18:49:52Z</time>
      </trkpt>
      <trkpt lat="44.52444" lon="1.36842">
        <ele>262.2</ele>
        <time>2021-10-07T18:49:53Z</time>
      </trkpt>
      <trkpt lat="44.52443" lon="1.3684">
        <ele>262.4</ele>
        <time>2021-10-07T18:49:54Z</time>
      </trkpt>
      <trkpt lat="44.52441" lon="1.36835">
        <ele>262.8</ele>
        <time>2021-10-07T18:49:56Z</time>
      </trkpt>
      <trkpt lat="44.52441" lon="1.36835">
        <ele>262.8</ele>
        <time>2021-10-07T18:49:57Z</time>
      </trkpt>
      <trkpt lat="44.5244" lon="1.36833">
        <ele>263</ele>
        <time>2021-10-07T18:49:58Z</time>
      </trkpt>
      <trkpt lat="44.52439" lon="1.36831">
        <ele>263.1</ele>
        <time>2021-10-07T18:49:59Z</time>
      </trkpt>
      <trkpt lat="44.52439" lon="1.36831">
        <ele>263.2</ele>
        <time>2021-10-07T18:50:01Z</time>
      </trkpt>
      <trkpt lat="44.52439" lon="1.3683">
        <ele>263.2</ele>
        <time>2021-10-07T18:50:02Z</time>
      </trkpt>
      <trkpt lat="44.52438" lon="1.3683">
        <ele>263.3</ele>
        <time>2021-10-07T18:50:03Z</time>
      </trkpt>
      <trkpt lat="44.52438" lon="1.3683">
        <ele>263.3</ele>
        <time>2021-10-07T18:50:04Z</time>
      </trkpt>
      <trkpt lat="44.52438" lon="1.36829">
        <ele>263.3</ele>
        <time>2021-10-07T18:50:05Z</time>
      </trkpt>
      <trkpt lat="44.52438" lon="1.36829">
        <ele>263.3</ele>
        <time>2021-10-07T18:50:06Z</time>
      </trkpt>
      <trkpt lat="44.52438" lon="1.36829">
        <ele>263.3</ele>
        <time>2021-10-07T18:50:08Z</time>
      </trkpt>
      <trkpt lat="44.52437" lon="1.36828">
        <ele>263.4</ele>
        <time>2021-10-07T18:50:09Z</time>
      </trkpt>
      <trkpt lat="44.52436" lon="1.36825">
        <ele>263.7</ele>
        <time>2021-10-07T18:50:10Z</time>
      </trkpt>
      <trkpt lat="44.52435" lon="1.36824">
        <ele>263.8</ele>
        <time>2021-10-07T18:50:11Z</time>
      </trkpt>
      <trkpt lat="44.52434" lon="1.36823">
        <ele>263.9</ele>
        <time>2021-10-07T18:50:12Z</time>
      </trkpt>
      <trkpt lat="44.52432" lon="1.36819">
        <ele>264.3</ele>
        <time>2021-10-07T18:50:13Z</time>
      </trkpt>
      <trkpt lat="44.5243" lon="1.36813">
        <ele>264.7</ele>
        <time>2021-10-07T18:50:15Z</time>
      </trkpt>
      <trkpt lat="44.5243" lon="1.36812">
        <ele>264.9</ele>
        <time>2021-10-07T18:50:16Z</time>
      </trkpt>
      <trkpt lat="44.52429" lon="1.3681">
        <ele>265</ele>
        <time>2021-10-07T18:50:17Z</time>
      </trkpt>
      <trkpt lat="44.52428" lon="1.36809">
        <ele>265.2</ele>
        <time>2021-10-07T18:50:19Z</time>
      </trkpt>
      <trkpt lat="44.52427" lon="1.36808">
        <ele>265.3</ele>
        <time>2021-10-07T18:50:20Z</time>
      </trkpt>
      <trkpt lat="44.52427" lon="1.36807">
        <ele>265.4</ele>
        <time>2021-10-07T18:50:21Z</time>
      </trkpt>
      <trkpt lat="44.52426" lon="1.36807">
        <ele>265.4</ele>
        <time>2021-10-07T18:50:22Z</time>
      </trkpt>
      <trkpt lat="44.52426" lon="1.36806">
        <ele>265.5</ele>
        <time>2021-10-07T18:50:24Z</time>
      </trkpt>
      <trkpt lat="44.52426" lon="1.36806">
        <ele>265.6</ele>
        <time>2021-10-07T18:50:25Z</time>
      </trkpt>
      <trkpt lat="44.52425" lon="1.36804">
        <ele>265.7</ele>
        <time>2021-10-07T18:50:27Z</time>
      </trkpt>
      <trkpt lat="44.5241" lon="1.36767">
        <ele>269.9</ele>
        <time>2021-10-07T18:50:51Z</time>
      </trkpt>
      <trkpt lat="44.52408" lon="1.3676">
        <ele>270.6</ele>
        <time>2021-10-07T18:50:53Z</time>
      </trkpt>
      <trkpt lat="44.52408" lon="1.36759">
        <ele>270.7</ele>
        <time>2021-10-07T18:50:54Z</time>
      </trkpt>
      <trkpt lat="44.52407" lon="1.36758">
        <ele>270.9</ele>
        <time>2021-10-07T18:50:55Z</time>
      </trkpt>
      <trkpt lat="44.52407" lon="1.36758">
        <ele>270.9</ele>
        <time>2021-10-07T18:50:57Z</time>
      </trkpt>
      <trkpt lat="44.52407" lon="1.36757">
        <ele>271</ele>
        <time>2021-10-07T18:50:58Z</time>
      </trkpt>
      <trkpt lat="44.52407" lon="1.36757">
        <ele>271</ele>
        <time>2021-10-07T18:50:59Z</time>
      </trkpt>
      <trkpt lat="44.52407" lon="1.36757">
        <ele>271</ele>
        <time>2021-10-07T18:51:01Z</time>
      </trkpt>
      <trkpt lat="44.52402" lon="1.36747">
        <ele>272.3</ele>
        <time>2021-10-07T18:51:03Z</time>
      </trkpt>
      <trkpt lat="44.52401" lon="1.36745">
        <ele>272.5</ele>
        <time>2021-10-07T18:51:04Z</time>
      </trkpt>
      <trkpt lat="44.52401" lon="1.36743">
        <ele>272.7</ele>
        <time>2021-10-07T18:51:05Z</time>
      </trkpt>
      <trkpt lat="44.52399" lon="1.3674">
        <ele>273</ele>
        <time>2021-10-07T18:51:07Z</time>
      </trkpt>
      <trkpt lat="44.52398" lon="1.36739">
        <ele>273.2</ele>
        <time>2021-10-07T18:51:08Z</time>
      </trkpt>
      <trkpt lat="44.52397" lon="1.36737">
        <ele>273.4</ele>
        <time>2021-10-07T18:51:10Z</time>
      </trkpt>
      <trkpt lat="44.52396" lon="1.36735">
        <ele>273.6</ele>
        <time>2021-10-07T18:51:11Z</time>
      </trkpt>
      <trkpt lat="44.52395" lon="1.36733">
        <ele>273.8</ele>
        <time>2021-10-07T18:51:12Z</time>
      </trkpt>
      <trkpt lat="44.52394" lon="1.36731">
        <ele>273.9</ele>
        <time>2021-10-07T18:51:13Z</time>
      </trkpt>
      <trkpt lat="44.52393" lon="1.36729">
        <ele>274.1</ele>
        <time>2021-10-07T18:51:15Z</time>
      </trkpt>
      <trkpt lat="44.52393" lon="1.36729">
        <ele>274.2</ele>
        <time>2021-10-07T18:51:16Z</time>
      </trkpt>
      <trkpt lat="44.52393" lon="1.36728">
        <ele>274.2</ele>
        <time>2021-10-07T18:51:17Z</time>
      </trkpt>
      <trkpt lat="44.52392" lon="1.36728">
        <ele>274.3</ele>
        <time>2021-10-07T18:51:19Z</time>
      </trkpt>
      <trkpt lat="44.52392" lon="1.36727">
        <ele>274.3</ele>
        <time>2021-10-07T18:51:20Z</time>
      </trkpt>
      <trkpt lat="44.52392" lon="1.36727">
        <ele>274.3</ele>
        <time>2021-10-07T18:51:21Z</time>
      </trkpt>
      <trkpt lat="44.52392" lon="1.36726">
        <ele>274.4</ele>
        <time>2021-10-07T18:51:23Z</time>
      </trkpt>
      <trkpt lat="44.52391" lon="1.36725">
        <ele>274.5</ele>
        <time>2021-10-07T18:51:24Z</time>
      </trkpt>
      <trkpt lat="44.5239" lon="1.36723">
        <ele>274.6</ele>
        <time>2021-10-07T18:51:25Z</time>
      </trkpt>
      <trkpt lat="44.52388" lon="1.36718">
        <ele>275</ele>
        <time>2021-10-07T18:51:27Z</time>
      </trkpt>
      <trkpt lat="44.52386" lon="1.36714">
        <ele>275.2</ele>
        <time>2021-10-07T18:51:28Z</time>
      </trkpt>
      <trkpt lat="44.52384" lon="1.36711">
        <ele>275.3</ele>
        <time>2021-10-07T18:51:29Z</time>
      </trkpt>
      <trkpt lat="44.52382" lon="1.36708">
        <ele>275.5</ele>
        <time>2021-10-07T18:51:31Z</time>
      </trkpt>
      <trkpt lat="44.5238" lon="1.36705">
        <ele>275.6</ele>
        <time>2021-10-07T18:51:32Z</time>
      </trkpt>
      <trkpt lat="44.52378" lon="1.36701">
        <ele>275.7</ele>
        <time>2021-10-07T18:51:34Z</time>
      </trkpt>
      <trkpt lat="44.52377" lon="1.36698">
        <ele>275.7</ele>
        <time>2021-10-07T18:51:35Z</time>
      </trkpt>
      <trkpt lat="44.52376" lon="1.36696">
        <ele>275.8</ele>
        <time>2021-10-07T18:51:36Z</time>
      </trkpt>
      <trkpt lat="44.52374" lon="1.36692">
        <ele>275.8</ele>
        <time>2021-10-07T18:51:38Z</time>
      </trkpt>
      <trkpt lat="44.52373" lon="1.36689">
        <ele>275.9</ele>
        <time>2021-10-07T18:51:39Z</time>
      </trkpt>
      <trkpt lat="44.52372" lon="1.36686">
        <ele>275.9</ele>
        <time>2021-10-07T18:51:41Z</time>
      </trkpt>
      <trkpt lat="44.5237" lon="1.36682">
        <ele>276</ele>
        <time>2021-10-07T18:51:42Z</time>
      </trkpt>
      <trkpt lat="44.5237" lon="1.3668">
        <ele>276</ele>
        <time>2021-10-07T18:51:43Z</time>
      </trkpt>
      <trkpt lat="44.52368" lon="1.36675">
        <ele>276.1</ele>
        <time>2021-10-07T18:51:45Z</time>
      </trkpt>
      <trkpt lat="44.52366" lon="1.36671">
        <ele>276.1</ele>
        <time>2021-10-07T18:51:47Z</time>
      </trkpt>
      <trkpt lat="44.52365" lon="1.36667">
        <ele>276.2</ele>
        <time>2021-10-07T18:51:48Z</time>
      </trkpt>
      <trkpt lat="44.52363" lon="1.36663">
        <ele>276.3</ele>
        <time>2021-10-07T18:51:50Z</time>
      </trkpt>
      <trkpt lat="44.52362" lon="1.36659">
        <ele>276.3</ele>
        <time>2021-10-07T18:51:51Z</time>
      </trkpt>
      <trkpt lat="44.52362" lon="1.36657">
        <ele>276.4</ele>
        <time>2021-10-07T18:51:52Z</time>
      </trkpt>
      <trkpt lat="44.52361" lon="1.36652">
        <ele>276.4</ele>
        <time>2021-10-07T18:51:54Z</time>
      </trkpt>
      <trkpt lat="44.5236" lon="1.36648">
        <ele>276.5</ele>
        <time>2021-10-07T18:51:55Z</time>
      </trkpt>
      <trkpt lat="44.52359" lon="1.36643">
        <ele>276.6</ele>
        <time>2021-10-07T18:51:56Z</time>
      </trkpt>
      <trkpt lat="44.52359" lon="1.36642">
        <ele>276.6</ele>
        <time>2021-10-07T18:51:57Z</time>
      </trkpt>
      <trkpt lat="44.52358" lon="1.36637">
        <ele>276.7</ele>
        <time>2021-10-07T18:51:59Z</time>
      </trkpt>
      <trkpt lat="44.52358" lon="1.36635">
        <ele>276.7</ele>
        <time>2021-10-07T18:52:00Z</time>
      </trkpt>
      <trkpt lat="44.52358" lon="1.36631">
        <ele>276.8</ele>
        <time>2021-10-07T18:52:01Z</time>
      </trkpt>
      <trkpt lat="44.52358" lon="1.36627">
        <ele>276.8</ele>
        <time>2021-10-07T18:52:02Z</time>
      </trkpt>
      <trkpt lat="44.52358" lon="1.36621">
        <ele>276.9</ele>
        <time>2021-10-07T18:52:04Z</time>
      </trkpt>
      <trkpt lat="44.52357" lon="1.36618">
        <ele>276.9</ele>
        <time>2021-10-07T18:52:05Z</time>
      </trkpt>
      <trkpt lat="44.52356" lon="1.36612">
        <ele>277</ele>
        <time>2021-10-07T18:52:07Z</time>
      </trkpt>
      <trkpt lat="44.52355" lon="1.36607">
        <ele>277</ele>
        <time>2021-10-07T18:52:08Z</time>
      </trkpt>
      <trkpt lat="44.52353" lon="1.36602">
        <ele>277</ele>
        <time>2021-10-07T18:52:09Z</time>
      </trkpt>
      <trkpt lat="44.52353" lon="1.36601">
        <ele>277.1</ele>
        <time>2021-10-07T18:52:10Z</time>
      </trkpt>
      <trkpt lat="44.52351" lon="1.36596">
        <ele>277.1</ele>
        <time>2021-10-07T18:52:12Z</time>
      </trkpt>
      <trkpt lat="44.52349" lon="1.36592">
        <ele>277.1</ele>
        <time>2021-10-07T18:52:13Z</time>
      </trkpt>
      <trkpt lat="44.52348" lon="1.36591">
        <ele>277</ele>
        <time>2021-10-07T18:52:14Z</time>
      </trkpt>
      <trkpt lat="44.52345" lon="1.36587">
        <ele>277</ele>
        <time>2021-10-07T18:52:16Z</time>
      </trkpt>
      <trkpt lat="44.52343" lon="1.36585">
        <ele>277</ele>
        <time>2021-10-07T18:52:17Z</time>
      </trkpt>
      <trkpt lat="44.5234" lon="1.36582">
        <ele>276.9</ele>
        <time>2021-10-07T18:52:19Z</time>
      </trkpt>
      <trkpt lat="44.52337" lon="1.36579">
        <ele>276.8</ele>
        <time>2021-10-07T18:52:20Z</time>
      </trkpt>
      <trkpt lat="44.52335" lon="1.36576">
        <ele>276.7</ele>
        <time>2021-10-07T18:52:21Z</time>
      </trkpt>
      <trkpt lat="44.52331" lon="1.36572">
        <ele>276.5</ele>
        <time>2021-10-07T18:52:23Z</time>
      </trkpt>
      <trkpt lat="44.52329" lon="1.36569">
        <ele>276.4</ele>
        <time>2021-10-07T18:52:24Z</time>
      </trkpt>
      <trkpt lat="44.52326" lon="1.36566">
        <ele>276.3</ele>
        <time>2021-10-07T18:52:25Z</time>
      </trkpt>
      <trkpt lat="44.52325" lon="1.36565">
        <ele>276.3</ele>
        <time>2021-10-07T18:52:26Z</time>
      </trkpt>
      <trkpt lat="44.52322" lon="1.36562">
        <ele>276.2</ele>
        <time>2021-10-07T18:52:27Z</time>
      </trkpt>
      <trkpt lat="44.5232" lon="1.36559">
        <ele>276.2</ele>
        <time>2021-10-07T18:52:28Z</time>
      </trkpt>
      <trkpt lat="44.52317" lon="1.36556">
        <ele>276.1</ele>
        <time>2021-10-07T18:52:29Z</time>
      </trkpt>
      <trkpt lat="44.52315" lon="1.36554">
        <ele>276</ele>
        <time>2021-10-07T18:52:30Z</time>
      </trkpt>
      <trkpt lat="44.52312" lon="1.3655">
        <ele>276</ele>
        <time>2021-10-07T18:52:32Z</time>
      </trkpt>
      <trkpt lat="44.52309" lon="1.36547">
        <ele>276</ele>
        <time>2021-10-07T18:52:33Z</time>
      </trkpt>
      <trkpt lat="44.52305" lon="1.36543">
        <ele>275.9</ele>
        <time>2021-10-07T18:52:35Z</time>
      </trkpt>
      <trkpt lat="44.52302" lon="1.3654">
        <ele>275.9</ele>
        <time>2021-10-07T18:52:36Z</time>
      </trkpt>
      <trkpt lat="44.52298" lon="1.36535">
        <ele>275.9</ele>
        <time>2021-10-07T18:52:38Z</time>
      </trkpt>
      <trkpt lat="44.52297" lon="1.36533">
        <ele>275.8</ele>
        <time>2021-10-07T18:52:39Z</time>
      </trkpt>
      <trkpt lat="44.52296" lon="1.36531">
        <ele>275.8</ele>
        <time>2021-10-07T18:52:40Z</time>
      </trkpt>
      <trkpt lat="44.52296" lon="1.36527">
        <ele>275.8</ele>
        <time>2021-10-07T18:52:41Z</time>
      </trkpt>
      <trkpt lat="44.52296" lon="1.36526">
        <ele>275.8</ele>
        <time>2021-10-07T18:52:42Z</time>
      </trkpt>
      <trkpt lat="44.52295" lon="1.36523">
        <ele>275.7</ele>
        <time>2021-10-07T18:52:43Z</time>
      </trkpt>
      <trkpt lat="44.52296" lon="1.36519">
        <ele>275.7</ele>
        <time>2021-10-07T18:52:45Z</time>
      </trkpt>
      <trkpt lat="44.52296" lon="1.36515">
        <ele>275.7</ele>
        <time>2021-10-07T18:52:46Z</time>
      </trkpt>
      <trkpt lat="44.52296" lon="1.3651">
        <ele>275.6</ele>
        <time>2021-10-07T18:52:47Z</time>
      </trkpt>
      <trkpt lat="44.52297" lon="1.36505">
        <ele>275.6</ele>
        <time>2021-10-07T18:52:48Z</time>
      </trkpt>
      <trkpt lat="44.52297" lon="1.36504">
        <ele>275.6</ele>
        <time>2021-10-07T18:52:49Z</time>
      </trkpt>
      <trkpt lat="44.52298" lon="1.365">
        <ele>275.6</ele>
        <time>2021-10-07T18:52:51Z</time>
      </trkpt>
      <trkpt lat="44.52299" lon="1.36496">
        <ele>275.6</ele>
        <time>2021-10-07T18:52:52Z</time>
      </trkpt>
      <trkpt lat="44.52299" lon="1.36491">
        <ele>275.6</ele>
        <time>2021-10-07T18:52:53Z</time>
      </trkpt>
      <trkpt lat="44.523" lon="1.3649">
        <ele>275.6</ele>
        <time>2021-10-07T18:52:54Z</time>
      </trkpt>
      <trkpt lat="44.52301" lon="1.36485">
        <ele>275.6</ele>
        <time>2021-10-07T18:52:56Z</time>
      </trkpt>
      <trkpt lat="44.52301" lon="1.36482">
        <ele>275.6</ele>
        <time>2021-10-07T18:52:57Z</time>
      </trkpt>
      <trkpt lat="44.52303" lon="1.36478">
        <ele>275.6</ele>
        <time>2021-10-07T18:52:59Z</time>
      </trkpt>
      <trkpt lat="44.52304" lon="1.36474">
        <ele>275.6</ele>
        <time>2021-10-07T18:53:00Z</time>
      </trkpt>
      <trkpt lat="44.52304" lon="1.36473">
        <ele>275.6</ele>
        <time>2021-10-07T18:53:01Z</time>
      </trkpt>
      <trkpt lat="44.52305" lon="1.36469">
        <ele>275.6</ele>
        <time>2021-10-07T18:53:02Z</time>
      </trkpt>
      <trkpt lat="44.52306" lon="1.36463">
        <ele>275.5</ele>
        <time>2021-10-07T18:53:04Z</time>
      </trkpt>
      <trkpt lat="44.52307" lon="1.36461">
        <ele>275.5</ele>
        <time>2021-10-07T18:53:05Z</time>
      </trkpt>
      <trkpt lat="44.52307" lon="1.36458">
        <ele>275.5</ele>
        <time>2021-10-07T18:53:06Z</time>
      </trkpt>
      <trkpt lat="44.52309" lon="1.36454">
        <ele>275.5</ele>
        <time>2021-10-07T18:53:07Z</time>
      </trkpt>
      <trkpt lat="44.5231" lon="1.36453">
        <ele>275.5</ele>
        <time>2021-10-07T18:53:08Z</time>
      </trkpt>
      <trkpt lat="44.52311" lon="1.36448">
        <ele>275.5</ele>
        <time>2021-10-07T18:53:10Z</time>
      </trkpt>
      <trkpt lat="44.52311" lon="1.36447">
        <ele>275.5</ele>
        <time>2021-10-07T18:53:11Z</time>
      </trkpt>
      <trkpt lat="44.52312" lon="1.36442">
        <ele>275.4</ele>
        <time>2021-10-07T18:53:12Z</time>
      </trkpt>
      <trkpt lat="44.52313" lon="1.36441">
        <ele>275.4</ele>
        <time>2021-10-07T18:53:13Z</time>
      </trkpt>
      <trkpt lat="44.52314" lon="1.36437">
        <ele>275.4</ele>
        <time>2021-10-07T18:53:14Z</time>
      </trkpt>
      <trkpt lat="44.52315" lon="1.36432">
        <ele>275.3</ele>
        <time>2021-10-07T18:53:16Z</time>
      </trkpt>
      <trkpt lat="44.52316" lon="1.3643">
        <ele>275.3</ele>
        <time>2021-10-07T18:53:17Z</time>
      </trkpt>
      <trkpt lat="44.52317" lon="1.36425">
        <ele>275.2</ele>
        <time>2021-10-07T18:53:18Z</time>
      </trkpt>
      <trkpt lat="44.52318" lon="1.36424">
        <ele>275.1</ele>
        <time>2021-10-07T18:53:19Z</time>
      </trkpt>
      <trkpt lat="44.52319" lon="1.3642">
        <ele>275</ele>
        <time>2021-10-07T18:53:20Z</time>
      </trkpt>
      <trkpt lat="44.52321" lon="1.36414">
        <ele>274.8</ele>
        <time>2021-10-07T18:53:22Z</time>
      </trkpt>
      <trkpt lat="44.52322" lon="1.3641">
        <ele>274.7</ele>
        <time>2021-10-07T18:53:23Z</time>
      </trkpt>
      <trkpt lat="44.52324" lon="1.36407">
        <ele>274.6</ele>
        <time>2021-10-07T18:53:24Z</time>
      </trkpt>
      <trkpt lat="44.52325" lon="1.36403">
        <ele>274.5</ele>
        <time>2021-10-07T18:53:26Z</time>
      </trkpt>
      <trkpt lat="44.52327" lon="1.36398">
        <ele>274.3</ele>
        <time>2021-10-07T18:53:27Z</time>
      </trkpt>
      <trkpt lat="44.52328" lon="1.36397">
        <ele>274.3</ele>
        <time>2021-10-07T18:53:28Z</time>
      </trkpt>
      <trkpt lat="44.52329" lon="1.36391">
        <ele>274.1</ele>
        <time>2021-10-07T18:53:30Z</time>
      </trkpt>
      <trkpt lat="44.52332" lon="1.36385">
        <ele>273.9</ele>
        <time>2021-10-07T18:53:31Z</time>
      </trkpt>
      <trkpt lat="44.52333" lon="1.36381">
        <ele>273.7</ele>
        <time>2021-10-07T18:53:32Z</time>
      </trkpt>
      <trkpt lat="44.52334" lon="1.36377">
        <ele>273.6</ele>
        <time>2021-10-07T18:53:33Z</time>
      </trkpt>
      <trkpt lat="44.52336" lon="1.36373">
        <ele>273.4</ele>
        <time>2021-10-07T18:53:35Z</time>
      </trkpt>
      <trkpt lat="44.52338" lon="1.36369">
        <ele>273.2</ele>
        <time>2021-10-07T18:53:36Z</time>
      </trkpt>
      <trkpt lat="44.52339" lon="1.36365">
        <ele>273.1</ele>
        <time>2021-10-07T18:53:37Z</time>
      </trkpt>
      <trkpt lat="44.52342" lon="1.36357">
        <ele>272.7</ele>
        <time>2021-10-07T18:53:39Z</time>
      </trkpt>
      <trkpt lat="44.52343" lon="1.36353">
        <ele>272.5</ele>
        <time>2021-10-07T18:53:40Z</time>
      </trkpt>
      <trkpt lat="44.52345" lon="1.36349">
        <ele>272.3</ele>
        <time>2021-10-07T18:53:41Z</time>
      </trkpt>
      <trkpt lat="44.52346" lon="1.36345">
        <ele>272.1</ele>
        <time>2021-10-07T18:53:42Z</time>
      </trkpt>
      <trkpt lat="44.52347" lon="1.36341">
        <ele>271.9</ele>
        <time>2021-10-07T18:53:43Z</time>
      </trkpt>
      <trkpt lat="44.5235" lon="1.3633">
        <ele>271.4</ele>
        <time>2021-10-07T18:53:45Z</time>
      </trkpt>
      <trkpt lat="44.52351" lon="1.36322">
        <ele>271</ele>
        <time>2021-10-07T18:53:47Z</time>
      </trkpt>
      <trkpt lat="44.52352" lon="1.36317">
        <ele>270.8</ele>
        <time>2021-10-07T18:53:48Z</time>
      </trkpt>
      <trkpt lat="44.52354" lon="1.36311">
        <ele>270.5</ele>
        <time>2021-10-07T18:53:49Z</time>
      </trkpt>
      <trkpt lat="44.52356" lon="1.36305">
        <ele>270.3</ele>
        <time>2021-10-07T18:53:51Z</time>
      </trkpt>
      <trkpt lat="44.52358" lon="1.36299">
        <ele>270.1</ele>
        <time>2021-10-07T18:53:52Z</time>
      </trkpt>
      <trkpt lat="44.5236" lon="1.36292">
        <ele>269.8</ele>
        <time>2021-10-07T18:53:53Z</time>
      </trkpt>
      <trkpt lat="44.52362" lon="1.36283">
        <ele>269.5</ele>
        <time>2021-10-07T18:53:55Z</time>
      </trkpt>
      <trkpt lat="44.52364" lon="1.36278">
        <ele>269.3</ele>
        <time>2021-10-07T18:53:56Z</time>
      </trkpt>
      <trkpt lat="44.52367" lon="1.36271">
        <ele>269.1</ele>
        <time>2021-10-07T18:53:57Z</time>
      </trkpt>
      <trkpt lat="44.5237" lon="1.36263">
        <ele>268.8</ele>
        <time>2021-10-07T18:53:58Z</time>
      </trkpt>
      <trkpt lat="44.52375" lon="1.36253">
        <ele>268.5</ele>
        <time>2021-10-07T18:54:00Z</time>
      </trkpt>
      <trkpt lat="44.52378" lon="1.36247">
        <ele>268.3</ele>
        <time>2021-10-07T18:54:02Z</time>
      </trkpt>
      <trkpt lat="44.52382" lon="1.36242">
        <ele>268.2</ele>
        <time>2021-10-07T18:54:03Z</time>
      </trkpt>
      <trkpt lat="44.52385" lon="1.36236">
        <ele>268.1</ele>
        <time>2021-10-07T18:54:04Z</time>
      </trkpt>
      <trkpt lat="44.52388" lon="1.36234">
        <ele>268</ele>
        <time>2021-10-07T18:54:05Z</time>
      </trkpt>
      <trkpt lat="44.5239" lon="1.36228">
        <ele>267.9</ele>
        <time>2021-10-07T18:54:07Z</time>
      </trkpt>
      <trkpt lat="44.52391" lon="1.36222">
        <ele>267.8</ele>
        <time>2021-10-07T18:54:08Z</time>
      </trkpt>
      <trkpt lat="44.52391" lon="1.36217">
        <ele>267.7</ele>
        <time>2021-10-07T18:54:09Z</time>
      </trkpt>
      <trkpt lat="44.52391" lon="1.36211">
        <ele>267.7</ele>
        <time>2021-10-07T18:54:10Z</time>
      </trkpt>
      <trkpt lat="44.52392" lon="1.36203">
        <ele>268</ele>
        <time>2021-10-07T18:54:12Z</time>
      </trkpt>
      <trkpt lat="44.52394" lon="1.36197">
        <ele>268.4</ele>
        <time>2021-10-07T18:54:13Z</time>
      </trkpt>
      <trkpt lat="44.52395" lon="1.36191">
        <ele>268.8</ele>
        <time>2021-10-07T18:54:14Z</time>
      </trkpt>
      <trkpt lat="44.52397" lon="1.36187">
        <ele>269.3</ele>
        <time>2021-10-07T18:54:15Z</time>
      </trkpt>
      <trkpt lat="44.52398" lon="1.3618">
        <ele>269.6</ele>
        <time>2021-10-07T18:54:17Z</time>
      </trkpt>
      <trkpt lat="44.52399" lon="1.36175">
        <ele>270.1</ele>
        <time>2021-10-07T18:54:18Z</time>
      </trkpt>
      <trkpt lat="44.524" lon="1.36168">
        <ele>270.6</ele>
        <time>2021-10-07T18:54:19Z</time>
      </trkpt>
      <trkpt lat="44.52399" lon="1.36163">
        <ele>270.9</ele>
        <time>2021-10-07T18:54:21Z</time>
      </trkpt>
      <trkpt lat="44.524" lon="1.36158">
        <ele>271.2</ele>
        <time>2021-10-07T18:54:22Z</time>
      </trkpt>
      <trkpt lat="44.524" lon="1.36152">
        <ele>271.6</ele>
        <time>2021-10-07T18:54:23Z</time>
      </trkpt>
      <trkpt lat="44.524" lon="1.36147">
        <ele>271.7</ele>
        <time>2021-10-07T18:54:24Z</time>
      </trkpt>
      <trkpt lat="44.52399" lon="1.36142">
        <ele>271.9</ele>
        <time>2021-10-07T18:54:25Z</time>
      </trkpt>
      <trkpt lat="44.524" lon="1.36134">
        <ele>272</ele>
        <time>2021-10-07T18:54:27Z</time>
      </trkpt>
      <trkpt lat="44.524" lon="1.36129">
        <ele>272.1</ele>
        <time>2021-10-07T18:54:28Z</time>
      </trkpt>
      <trkpt lat="44.52401" lon="1.36123">
        <ele>272.2</ele>
        <time>2021-10-07T18:54:29Z</time>
      </trkpt>
      <trkpt lat="44.52402" lon="1.36116">
        <ele>272.5</ele>
        <time>2021-10-07T18:54:31Z</time>
      </trkpt>
      <trkpt lat="44.52404" lon="1.36111">
        <ele>272.6</ele>
        <time>2021-10-07T18:54:32Z</time>
      </trkpt>
      <trkpt lat="44.52406" lon="1.36105">
        <ele>272.8</ele>
        <time>2021-10-07T18:54:33Z</time>
      </trkpt>
      <trkpt lat="44.5241" lon="1.36098">
        <ele>272.9</ele>
        <time>2021-10-07T18:54:35Z</time>
      </trkpt>
      <trkpt lat="44.52412" lon="1.36093">
        <ele>273.1</ele>
        <time>2021-10-07T18:54:36Z</time>
      </trkpt>
      <trkpt lat="44.52415" lon="1.3609">
        <ele>273.2</ele>
        <time>2021-10-07T18:54:37Z</time>
      </trkpt>
      <trkpt lat="44.52418" lon="1.36085">
        <ele>273.4</ele>
        <time>2021-10-07T18:54:39Z</time>
      </trkpt>
      <trkpt lat="44.5242" lon="1.36081">
        <ele>273.6</ele>
        <time>2021-10-07T18:54:40Z</time>
      </trkpt>
      <trkpt lat="44.52422" lon="1.36077">
        <ele>273.6</ele>
        <time>2021-10-07T18:54:41Z</time>
      </trkpt>
      <trkpt lat="44.52423" lon="1.36075">
        <ele>273.7</ele>
        <time>2021-10-07T18:54:42Z</time>
      </trkpt>
      <trkpt lat="44.52425" lon="1.36071">
        <ele>273.9</ele>
        <time>2021-10-07T18:54:44Z</time>
      </trkpt>
      <trkpt lat="44.52428" lon="1.36066">
        <ele>274.2</ele>
        <time>2021-10-07T18:54:45Z</time>
      </trkpt>
      <trkpt lat="44.5243" lon="1.36063">
        <ele>274.4</ele>
        <time>2021-10-07T18:54:46Z</time>
      </trkpt>
      <trkpt lat="44.52431" lon="1.36059">
        <ele>274.5</ele>
        <time>2021-10-07T18:54:48Z</time>
      </trkpt>
      <trkpt lat="44.52434" lon="1.36055">
        <ele>274.8</ele>
        <time>2021-10-07T18:54:49Z</time>
      </trkpt>
      <trkpt lat="44.52436" lon="1.3605">
        <ele>275.1</ele>
        <time>2021-10-07T18:54:51Z</time>
      </trkpt>
      <trkpt lat="44.52438" lon="1.36045">
        <ele>275.2</ele>
        <time>2021-10-07T18:54:52Z</time>
      </trkpt>
      <trkpt lat="44.52441" lon="1.3604">
        <ele>275.5</ele>
        <time>2021-10-07T18:54:54Z</time>
      </trkpt>
      <trkpt lat="44.52442" lon="1.36037">
        <ele>275.7</ele>
        <time>2021-10-07T18:54:55Z</time>
      </trkpt>
      <trkpt lat="44.52444" lon="1.36032">
        <ele>275.9</ele>
        <time>2021-10-07T18:54:57Z</time>
      </trkpt>
      <trkpt lat="44.52445" lon="1.36027">
        <ele>276.2</ele>
        <time>2021-10-07T18:54:58Z</time>
      </trkpt>
      <trkpt lat="44.52445" lon="1.36024">
        <ele>276.4</ele>
        <time>2021-10-07T18:54:59Z</time>
      </trkpt>
      <trkpt lat="44.52446" lon="1.36018">
        <ele>276.5</ele>
        <time>2021-10-07T18:55:01Z</time>
      </trkpt>
      <trkpt lat="44.52446" lon="1.36013">
        <ele>276.7</ele>
        <time>2021-10-07T18:55:02Z</time>
      </trkpt>
      <trkpt lat="44.52446" lon="1.36008">
        <ele>276.9</ele>
        <time>2021-10-07T18:55:04Z</time>
      </trkpt>
      <trkpt lat="44.52447" lon="1.36003">
        <ele>277.2</ele>
        <time>2021-10-07T18:55:05Z</time>
      </trkpt>
      <trkpt lat="44.52446" lon="1.35998">
        <ele>277.5</ele>
        <time>2021-10-07T18:55:06Z</time>
      </trkpt>
      <trkpt lat="44.52446" lon="1.35994">
        <ele>277.7</ele>
        <time>2021-10-07T18:55:07Z</time>
      </trkpt>
      <trkpt lat="44.52446" lon="1.3599">
        <ele>277.9</ele>
        <time>2021-10-07T18:55:08Z</time>
      </trkpt>
      <trkpt lat="44.52447" lon="1.35984">
        <ele>278.2</ele>
        <time>2021-10-07T18:55:10Z</time>
      </trkpt>
      <trkpt lat="44.52447" lon="1.3598">
        <ele>278.4</ele>
        <time>2021-10-07T18:55:11Z</time>
      </trkpt>
      <trkpt lat="44.52447" lon="1.35976">
        <ele>278.6</ele>
        <time>2021-10-07T18:55:12Z</time>
      </trkpt>
      <trkpt lat="44.52447" lon="1.35968">
        <ele>278.9</ele>
        <time>2021-10-07T18:55:14Z</time>
      </trkpt>
      <trkpt lat="44.52447" lon="1.35961">
        <ele>279.1</ele>
        <time>2021-10-07T18:55:16Z</time>
      </trkpt>
      <trkpt lat="44.52448" lon="1.35956">
        <ele>279.3</ele>
        <time>2021-10-07T18:55:17Z</time>
      </trkpt>
      <trkpt lat="44.52448" lon="1.35952">
        <ele>279.6</ele>
        <time>2021-10-07T18:55:18Z</time>
      </trkpt>
      <trkpt lat="44.52448" lon="1.35948">
        <ele>279.8</ele>
        <time>2021-10-07T18:55:19Z</time>
      </trkpt>
      <trkpt lat="44.52448" lon="1.35942">
        <ele>280</ele>
        <time>2021-10-07T18:55:21Z</time>
      </trkpt>
      <trkpt lat="44.52448" lon="1.35938">
        <ele>280.1</ele>
        <time>2021-10-07T18:55:22Z</time>
      </trkpt>
      <trkpt lat="44.52449" lon="1.35933">
        <ele>280.2</ele>
        <time>2021-10-07T18:55:24Z</time>
      </trkpt>
      <trkpt lat="44.52449" lon="1.35928">
        <ele>280.3</ele>
        <time>2021-10-07T18:55:25Z</time>
      </trkpt>
      <trkpt lat="44.52449" lon="1.35926">
        <ele>280.4</ele>
        <time>2021-10-07T18:55:26Z</time>
      </trkpt>
      <trkpt lat="44.52449" lon="1.35921">
        <ele>280.5</ele>
        <time>2021-10-07T18:55:27Z</time>
      </trkpt>
      <trkpt lat="44.52449" lon="1.3592">
        <ele>280.6</ele>
        <time>2021-10-07T18:55:28Z</time>
      </trkpt>
      <trkpt lat="44.52448" lon="1.35917">
        <ele>280.6</ele>
        <time>2021-10-07T18:55:29Z</time>
      </trkpt>
      <trkpt lat="44.52447" lon="1.3591">
        <ele>280.7</ele>
        <time>2021-10-07T18:55:31Z</time>
      </trkpt>
      <trkpt lat="44.52446" lon="1.35906">
        <ele>280.8</ele>
        <time>2021-10-07T18:55:32Z</time>
      </trkpt>
      <trkpt lat="44.52446" lon="1.35901">
        <ele>280.8</ele>
        <time>2021-10-07T18:55:33Z</time>
      </trkpt>
      <trkpt lat="44.52446" lon="1.35895">
        <ele>280.7</ele>
        <time>2021-10-07T18:55:34Z</time>
      </trkpt>
      <trkpt lat="44.52446" lon="1.35893">
        <ele>280.8</ele>
        <time>2021-10-07T18:55:35Z</time>
      </trkpt>
      <trkpt lat="44.52447" lon="1.35888">
        <ele>280.8</ele>
        <time>2021-10-07T18:55:36Z</time>
      </trkpt>
      <trkpt lat="44.52447" lon="1.35881">
        <ele>280.7</ele>
        <time>2021-10-07T18:55:38Z</time>
      </trkpt>
      <trkpt lat="44.52448" lon="1.35874">
        <ele>280.4</ele>
        <time>2021-10-07T18:55:39Z</time>
      </trkpt>
      <trkpt lat="44.52448" lon="1.3587">
        <ele>280.4</ele>
        <time>2021-10-07T18:55:40Z</time>
      </trkpt>
      <trkpt lat="44.52449" lon="1.35864">
        <ele>280.4</ele>
        <time>2021-10-07T18:55:42Z</time>
      </trkpt>
      <trkpt lat="44.52449" lon="1.35859">
        <ele>280.4</ele>
        <time>2021-10-07T18:55:43Z</time>
      </trkpt>
      <trkpt lat="44.52449" lon="1.35853">
        <ele>280.4</ele>
        <time>2021-10-07T18:55:44Z</time>
      </trkpt>
      <trkpt lat="44.52449" lon="1.35847">
        <ele>280.3</ele>
        <time>2021-10-07T18:55:45Z</time>
      </trkpt>
      <trkpt lat="44.52448" lon="1.35839">
        <ele>280.3</ele>
        <time>2021-10-07T18:55:47Z</time>
      </trkpt>
      <trkpt lat="44.52448" lon="1.35832">
        <ele>280.3</ele>
        <time>2021-10-07T18:55:49Z</time>
      </trkpt>
      <trkpt lat="44.52447" lon="1.35827">
        <ele>280.5</ele>
        <time>2021-10-07T18:55:50Z</time>
      </trkpt>
      <trkpt lat="44.52444" lon="1.3582">
        <ele>280.7</ele>
        <time>2021-10-07T18:55:52Z</time>
      </trkpt>
      <trkpt lat="44.52442" lon="1.35815">
        <ele>280.8</ele>
        <time>2021-10-07T18:55:54Z</time>
      </trkpt>
      <trkpt lat="44.52439" lon="1.35813">
        <ele>280.9</ele>
        <time>2021-10-07T18:55:55Z</time>
      </trkpt>
      <trkpt lat="44.52437" lon="1.3581">
        <ele>281</ele>
        <time>2021-10-07T18:55:56Z</time>
      </trkpt>
      <trkpt lat="44.52433" lon="1.35806">
        <ele>281.1</ele>
        <time>2021-10-07T18:55:57Z</time>
      </trkpt>
      <trkpt lat="44.52428" lon="1.35802">
        <ele>281.2</ele>
        <time>2021-10-07T18:55:59Z</time>
      </trkpt>
      <trkpt lat="44.52425" lon="1.35801">
        <ele>281.3</ele>
        <time>2021-10-07T18:56:00Z</time>
      </trkpt>
      <trkpt lat="44.52422" lon="1.358">
        <ele>281.4</ele>
        <time>2021-10-07T18:56:02Z</time>
      </trkpt>
      <trkpt lat="44.5242" lon="1.35798">
        <ele>281.5</ele>
        <time>2021-10-07T18:56:03Z</time>
      </trkpt>
      <trkpt lat="44.52417" lon="1.35797">
        <ele>281.7</ele>
        <time>2021-10-07T18:56:04Z</time>
      </trkpt>
      <trkpt lat="44.52414" lon="1.35795">
        <ele>281.8</ele>
        <time>2021-10-07T18:56:05Z</time>
      </trkpt>
      <trkpt lat="44.52411" lon="1.35793">
        <ele>281.9</ele>
        <time>2021-10-07T18:56:06Z</time>
      </trkpt>
      <trkpt lat="44.52407" lon="1.3579">
        <ele>282</ele>
        <time>2021-10-07T18:56:08Z</time>
      </trkpt>
      <trkpt lat="44.52404" lon="1.35788">
        <ele>282.1</ele>
        <time>2021-10-07T18:56:09Z</time>
      </trkpt>
      <trkpt lat="44.52401" lon="1.35785">
        <ele>282.1</ele>
        <time>2021-10-07T18:56:10Z</time>
      </trkpt>
      <trkpt lat="44.52398" lon="1.35783">
        <ele>282.2</ele>
        <time>2021-10-07T18:56:11Z</time>
      </trkpt>
      <trkpt lat="44.52396" lon="1.3578">
        <ele>282.2</ele>
        <time>2021-10-07T18:56:13Z</time>
      </trkpt>
      <trkpt lat="44.52394" lon="1.35777">
        <ele>282.2</ele>
        <time>2021-10-07T18:56:14Z</time>
      </trkpt>
      <trkpt lat="44.52391" lon="1.35773">
        <ele>282.1</ele>
        <time>2021-10-07T18:56:15Z</time>
      </trkpt>
      <trkpt lat="44.52389" lon="1.35769">
        <ele>282.1</ele>
        <time>2021-10-07T18:56:16Z</time>
      </trkpt>
      <trkpt lat="44.52388" lon="1.35762">
        <ele>282</ele>
        <time>2021-10-07T18:56:18Z</time>
      </trkpt>
      <trkpt lat="44.52386" lon="1.35758">
        <ele>282</ele>
        <time>2021-10-07T18:56:19Z</time>
      </trkpt>
      <trkpt lat="44.52385" lon="1.35754">
        <ele>282</ele>
        <time>2021-10-07T18:56:20Z</time>
      </trkpt>
      <trkpt lat="44.52384" lon="1.3575">
        <ele>281.9</ele>
        <time>2021-10-07T18:56:21Z</time>
      </trkpt>
      <trkpt lat="44.52383" lon="1.35745">
        <ele>281.8</ele>
        <time>2021-10-07T18:56:22Z</time>
      </trkpt>
      <trkpt lat="44.52382" lon="1.35739">
        <ele>281.6</ele>
        <time>2021-10-07T18:56:23Z</time>
      </trkpt>
      <trkpt lat="44.5238" lon="1.35729">
        <ele>281.2</ele>
        <time>2021-10-07T18:56:25Z</time>
      </trkpt>
      <trkpt lat="44.52379" lon="1.35723">
        <ele>280.9</ele>
        <time>2021-10-07T18:56:26Z</time>
      </trkpt>
      <trkpt lat="44.52378" lon="1.35717">
        <ele>280.6</ele>
        <time>2021-10-07T18:56:28Z</time>
      </trkpt>
      <trkpt lat="44.52376" lon="1.35709">
        <ele>280.3</ele>
        <time>2021-10-07T18:56:29Z</time>
      </trkpt>
      <trkpt lat="44.52374" lon="1.35703">
        <ele>279.9</ele>
        <time>2021-10-07T18:56:30Z</time>
      </trkpt>
      <trkpt lat="44.52372" lon="1.35695">
        <ele>279.6</ele>
        <time>2021-10-07T18:56:31Z</time>
      </trkpt>
      <trkpt lat="44.52368" lon="1.35682">
        <ele>279</ele>
        <time>2021-10-07T18:56:33Z</time>
      </trkpt>
      <trkpt lat="44.52367" lon="1.35675">
        <ele>278.7</ele>
        <time>2021-10-07T18:56:34Z</time>
      </trkpt>
      <trkpt lat="44.52364" lon="1.35661">
        <ele>278.3</ele>
        <time>2021-10-07T18:56:36Z</time>
      </trkpt>
      <trkpt lat="44.52362" lon="1.35654">
        <ele>278.2</ele>
        <time>2021-10-07T18:56:37Z</time>
      </trkpt>
      <trkpt lat="44.52358" lon="1.35641">
        <ele>278</ele>
        <time>2021-10-07T18:56:39Z</time>
      </trkpt>
      <trkpt lat="44.52354" lon="1.35627">
        <ele>277.5</ele>
        <time>2021-10-07T18:56:41Z</time>
      </trkpt>
      <trkpt lat="44.52349" lon="1.35613">
        <ele>277.1</ele>
        <time>2021-10-07T18:56:43Z</time>
      </trkpt>
      <trkpt lat="44.52343" lon="1.356">
        <ele>276.7</ele>
        <time>2021-10-07T18:56:45Z</time>
      </trkpt>
      <trkpt lat="44.5234" lon="1.35593">
        <ele>276.5</ele>
        <time>2021-10-07T18:56:46Z</time>
      </trkpt>
      <trkpt lat="44.52334" lon="1.3558">
        <ele>276.1</ele>
        <time>2021-10-07T18:56:48Z</time>
      </trkpt>
      <trkpt lat="44.52328" lon="1.35568">
        <ele>275.8</ele>
        <time>2021-10-07T18:56:50Z</time>
      </trkpt>
      <trkpt lat="44.52321" lon="1.35556">
        <ele>275.4</ele>
        <time>2021-10-07T18:56:52Z</time>
      </trkpt>
      <trkpt lat="44.52318" lon="1.3555">
        <ele>275.2</ele>
        <time>2021-10-07T18:56:53Z</time>
      </trkpt>
      <trkpt lat="44.52312" lon="1.35538">
        <ele>274.8</ele>
        <time>2021-10-07T18:56:55Z</time>
      </trkpt>
      <trkpt lat="44.52306" lon="1.35526">
        <ele>274.5</ele>
        <time>2021-10-07T18:56:57Z</time>
      </trkpt>
      <trkpt lat="44.52303" lon="1.3552">
        <ele>274.3</ele>
        <time>2021-10-07T18:56:58Z</time>
      </trkpt>
      <trkpt lat="44.523" lon="1.35514">
        <ele>274.2</ele>
        <time>2021-10-07T18:56:59Z</time>
      </trkpt>
      <trkpt lat="44.52293" lon="1.35502">
        <ele>273.9</ele>
        <time>2021-10-07T18:57:01Z</time>
      </trkpt>
      <trkpt lat="44.52289" lon="1.35496">
        <ele>273.8</ele>
        <time>2021-10-07T18:57:02Z</time>
      </trkpt>
      <trkpt lat="44.52282" lon="1.35484">
        <ele>273.6</ele>
        <time>2021-10-07T18:57:04Z</time>
      </trkpt>
      <trkpt lat="44.52278" lon="1.35479">
        <ele>273.5</ele>
        <time>2021-10-07T18:57:05Z</time>
      </trkpt>
      <trkpt lat="44.52274" lon="1.35473">
        <ele>273.4</ele>
        <time>2021-10-07T18:57:06Z</time>
      </trkpt>
      <trkpt lat="44.52271" lon="1.35467">
        <ele>273.3</ele>
        <time>2021-10-07T18:57:07Z</time>
      </trkpt>
      <trkpt lat="44.52267" lon="1.35461">
        <ele>273.2</ele>
        <time>2021-10-07T18:57:08Z</time>
      </trkpt>
      <trkpt lat="44.5226" lon="1.3545">
        <ele>272.9</ele>
        <time>2021-10-07T18:57:10Z</time>
      </trkpt>
      <trkpt lat="44.52258" lon="1.35443">
        <ele>272.7</ele>
        <time>2021-10-07T18:57:11Z</time>
      </trkpt>
      <trkpt lat="44.52258" lon="1.35428">
        <ele>272.3</ele>
        <time>2021-10-07T18:57:13Z</time>
      </trkpt>
      <trkpt lat="44.5226" lon="1.35413">
        <ele>271.9</ele>
        <time>2021-10-07T18:57:15Z</time>
      </trkpt>
      <trkpt lat="44.52261" lon="1.35406">
        <ele>271.6</ele>
        <time>2021-10-07T18:57:16Z</time>
      </trkpt>
      <trkpt lat="44.52262" lon="1.354">
        <ele>271.4</ele>
        <time>2021-10-07T18:57:17Z</time>
      </trkpt>
      <trkpt lat="44.52263" lon="1.35386">
        <ele>270.8</ele>
        <time>2021-10-07T18:57:19Z</time>
      </trkpt>
      <trkpt lat="44.52259" lon="1.35373">
        <ele>270.2</ele>
        <time>2021-10-07T18:57:21Z</time>
      </trkpt>
      <trkpt lat="44.52256" lon="1.35367">
        <ele>269.8</ele>
        <time>2021-10-07T18:57:22Z</time>
      </trkpt>
      <trkpt lat="44.52248" lon="1.35357">
        <ele>269.2</ele>
        <time>2021-10-07T18:57:24Z</time>
      </trkpt>
      <trkpt lat="44.52238" lon="1.3535">
        <ele>268.5</ele>
        <time>2021-10-07T18:57:26Z</time>
      </trkpt>
      <trkpt lat="44.52227" lon="1.35343">
        <ele>267.8</ele>
        <time>2021-10-07T18:57:28Z</time>
      </trkpt>
      <trkpt lat="44.52222" lon="1.35339">
        <ele>267.4</ele>
        <time>2021-10-07T18:57:29Z</time>
      </trkpt>
      <trkpt lat="44.52211" lon="1.35332">
        <ele>266.6</ele>
        <time>2021-10-07T18:57:31Z</time>
      </trkpt>
      <trkpt lat="44.52205" lon="1.35328">
        <ele>266.3</ele>
        <time>2021-10-07T18:57:32Z</time>
      </trkpt>
      <trkpt lat="44.52194" lon="1.3532">
        <ele>265.6</ele>
        <time>2021-10-07T18:57:34Z</time>
      </trkpt>
      <trkpt lat="44.52188" lon="1.35317">
        <ele>265.3</ele>
        <time>2021-10-07T18:57:35Z</time>
      </trkpt>
      <trkpt lat="44.52176" lon="1.3531">
        <ele>264.8</ele>
        <time>2021-10-07T18:57:37Z</time>
      </trkpt>
      <trkpt lat="44.52164" lon="1.35303">
        <ele>264.2</ele>
        <time>2021-10-07T18:57:39Z</time>
      </trkpt>
      <trkpt lat="44.52158" lon="1.35299">
        <ele>263.9</ele>
        <time>2021-10-07T18:57:40Z</time>
      </trkpt>
      <trkpt lat="44.5215" lon="1.35294">
        <ele>263.6</ele>
        <time>2021-10-07T18:57:42Z</time>
      </trkpt>
      <trkpt lat="44.52145" lon="1.35292">
        <ele>263.4</ele>
        <time>2021-10-07T18:57:43Z</time>
      </trkpt>
      <trkpt lat="44.52137" lon="1.35287">
        <ele>263.1</ele>
        <time>2021-10-07T18:57:45Z</time>
      </trkpt>
      <trkpt lat="44.52133" lon="1.35285">
        <ele>263</ele>
        <time>2021-10-07T18:57:46Z</time>
      </trkpt>
      <trkpt lat="44.52126" lon="1.3528">
        <ele>262.8</ele>
        <time>2021-10-07T18:57:48Z</time>
      </trkpt>
      <trkpt lat="44.52122" lon="1.35277">
        <ele>262.7</ele>
        <time>2021-10-07T18:57:49Z</time>
      </trkpt>
      <trkpt lat="44.52119" lon="1.35274">
        <ele>262.6</ele>
        <time>2021-10-07T18:57:51Z</time>
      </trkpt>
      <trkpt lat="44.52116" lon="1.35272">
        <ele>262.6</ele>
        <time>2021-10-07T18:57:52Z</time>
      </trkpt>
      <trkpt lat="44.52114" lon="1.35268">
        <ele>262.6</ele>
        <time>2021-10-07T18:57:53Z</time>
      </trkpt>
      <trkpt lat="44.52114" lon="1.35267">
        <ele>262.6</ele>
        <time>2021-10-07T18:57:54Z</time>
      </trkpt>
      <trkpt lat="44.52115" lon="1.35262">
        <ele>262.6</ele>
        <time>2021-10-07T18:57:56Z</time>
      </trkpt>
      <trkpt lat="44.52115" lon="1.3526">
        <ele>262.6</ele>
        <time>2021-10-07T18:57:57Z</time>
      </trkpt>
      <trkpt lat="44.52116" lon="1.35259">
        <ele>262.5</ele>
        <time>2021-10-07T18:57:59Z</time>
      </trkpt>
      <trkpt lat="44.52116" lon="1.35259">
        <ele>262.5</ele>
        <time>2021-10-07T18:58:00Z</time>
      </trkpt>
      <trkpt lat="44.52116" lon="1.35259">
        <ele>262.5</ele>
        <time>2021-10-07T18:58:02Z</time>
      </trkpt>
      <trkpt lat="44.52116" lon="1.35259">
        <ele>262.5</ele>
        <time>2021-10-07T18:58:04Z</time>
      </trkpt>
      <trkpt lat="44.52116" lon="1.35259">
        <ele>262.5</ele>
        <time>2021-10-07T18:58:05Z</time>
      </trkpt>
      <trkpt lat="44.52116" lon="1.35259">
        <ele>262.5</ele>
        <time>2021-10-07T18:58:06Z</time>
      </trkpt>
      <trkpt lat="44.52116" lon="1.35259">
        <ele>262.5</ele>
        <time>2021-10-07T18:58:07Z</time>
      </trkpt>
      <trkpt lat="44.52116" lon="1.35259">
        <ele>262.5</ele>
        <time>2021-10-07T18:58:08Z</time>
      </trkpt>
      <trkpt lat="44.52116" lon="1.35259">
        <ele>262.5</ele>
        <time>2021-10-07T18:58:10Z</time>
      </trkpt>
      <trkpt lat="44.52117" lon="1.35253">
        <ele>262.6</ele>
        <time>2021-10-07T18:58:56Z</time>
      </trkpt>
      <trkpt lat="44.52116" lon="1.3525">
        <ele>262.6</ele>
        <time>2021-10-07T18:58:57Z</time>
      </trkpt>
      <trkpt lat="44.52115" lon="1.35244">
        <ele>262.7</ele>
        <time>2021-10-07T18:58:59Z</time>
      </trkpt>
      <trkpt lat="44.52113" lon="1.35242">
        <ele>262.7</ele>
        <time>2021-10-07T18:59:00Z</time>
      </trkpt>
      <trkpt lat="44.52109" lon="1.35239">
        <ele>262.8</ele>
        <time>2021-10-07T18:59:02Z</time>
      </trkpt>
      <trkpt lat="44.52107" lon="1.35238">
        <ele>262.9</ele>
        <time>2021-10-07T18:59:03Z</time>
      </trkpt>
      <trkpt lat="44.52101" lon="1.35234">
        <ele>262.9</ele>
        <time>2021-10-07T18:59:05Z</time>
      </trkpt>
      <trkpt lat="44.52095" lon="1.3523">
        <ele>263</ele>
        <time>2021-10-07T18:59:07Z</time>
      </trkpt>
      <trkpt lat="44.52092" lon="1.35226">
        <ele>263</ele>
        <time>2021-10-07T18:59:08Z</time>
      </trkpt>
      <trkpt lat="44.52091" lon="1.35224">
        <ele>263.1</ele>
        <time>2021-10-07T18:59:09Z</time>
      </trkpt>
      <trkpt lat="44.52086" lon="1.35218">
        <ele>263.1</ele>
        <time>2021-10-07T18:59:11Z</time>
      </trkpt>
      <trkpt lat="44.52084" lon="1.35215">
        <ele>263.2</ele>
        <time>2021-10-07T18:59:12Z</time>
      </trkpt>
      <trkpt lat="44.52082" lon="1.35211">
        <ele>263.2</ele>
        <time>2021-10-07T18:59:13Z</time>
      </trkpt>
      <trkpt lat="44.52081" lon="1.35208">
        <ele>263.3</ele>
        <time>2021-10-07T18:59:14Z</time>
      </trkpt>
      <trkpt lat="44.52078" lon="1.35202">
        <ele>263.3</ele>
        <time>2021-10-07T18:59:16Z</time>
      </trkpt>
      <trkpt lat="44.52077" lon="1.35199">
        <ele>263.3</ele>
        <time>2021-10-07T18:59:17Z</time>
      </trkpt>
      <trkpt lat="44.52074" lon="1.35192">
        <ele>263.3</ele>
        <time>2021-10-07T18:59:19Z</time>
      </trkpt>
      <trkpt lat="44.52072" lon="1.35188">
        <ele>263.3</ele>
        <time>2021-10-07T18:59:20Z</time>
      </trkpt>
      <trkpt lat="44.52069" lon="1.35183">
        <ele>263.3</ele>
        <time>2021-10-07T18:59:22Z</time>
      </trkpt>
      <trkpt lat="44.52066" lon="1.3518">
        <ele>263.3</ele>
        <time>2021-10-07T18:59:23Z</time>
      </trkpt>
      <trkpt lat="44.52063" lon="1.35176">
        <ele>263.2</ele>
        <time>2021-10-07T18:59:24Z</time>
      </trkpt>
      <trkpt lat="44.52061" lon="1.35175">
        <ele>263.2</ele>
        <time>2021-10-07T18:59:25Z</time>
      </trkpt>
      <trkpt lat="44.52059" lon="1.35173">
        <ele>263.2</ele>
        <time>2021-10-07T18:59:26Z</time>
      </trkpt>
      <trkpt lat="44.52055" lon="1.35169">
        <ele>263.1</ele>
        <time>2021-10-07T18:59:28Z</time>
      </trkpt>
      <trkpt lat="44.52054" lon="1.35169">
        <ele>263</ele>
        <time>2021-10-07T18:59:29Z</time>
      </trkpt>
      <trkpt lat="44.52053" lon="1.35168">
        <ele>263</ele>
        <time>2021-10-07T18:59:30Z</time>
      </trkpt>
      <trkpt lat="44.52051" lon="1.35167">
        <ele>262.9</ele>
        <time>2021-10-07T18:59:32Z</time>
      </trkpt>
      <trkpt lat="44.52048" lon="1.35166">
        <ele>262.9</ele>
        <time>2021-10-07T18:59:34Z</time>
      </trkpt>
      <trkpt lat="44.52047" lon="1.35167">
        <ele>262.9</ele>
        <time>2021-10-07T18:59:35Z</time>
      </trkpt>
      <trkpt lat="44.52042" lon="1.35173">
        <ele>262.8</ele>
        <time>2021-10-07T18:59:37Z</time>
      </trkpt>
      <trkpt lat="44.52041" lon="1.35177">
        <ele>263.1</ele>
        <time>2021-10-07T18:59:38Z</time>
      </trkpt>
      <trkpt lat="44.5204" lon="1.35185">
        <ele>263.3</ele>
        <time>2021-10-07T18:59:40Z</time>
      </trkpt>
      <trkpt lat="44.52039" lon="1.35188">
        <ele>263.5</ele>
        <time>2021-10-07T18:59:41Z</time>
      </trkpt>
      <trkpt lat="44.52036" lon="1.35195">
        <ele>263.9</ele>
        <time>2021-10-07T18:59:43Z</time>
      </trkpt>
      <trkpt lat="44.52034" lon="1.35198">
        <ele>264.1</ele>
        <time>2021-10-07T18:59:44Z</time>
      </trkpt>
      <trkpt lat="44.52032" lon="1.35201">
        <ele>264.2</ele>
        <time>2021-10-07T18:59:45Z</time>
      </trkpt>
      <trkpt lat="44.52027" lon="1.35206">
        <ele>264.4</ele>
        <time>2021-10-07T18:59:47Z</time>
      </trkpt>
      <trkpt lat="44.52023" lon="1.35208">
        <ele>264.7</ele>
        <time>2021-10-07T18:59:49Z</time>
      </trkpt>
      <trkpt lat="44.52022" lon="1.35208">
        <ele>264.7</ele>
        <time>2021-10-07T18:59:50Z</time>
      </trkpt>
      <trkpt lat="44.52018" lon="1.3521">
        <ele>264.9</ele>
        <time>2021-10-07T18:59:52Z</time>
      </trkpt>
      <trkpt lat="44.52014" lon="1.35211">
        <ele>265.1</ele>
        <time>2021-10-07T18:59:54Z</time>
      </trkpt>
      <trkpt lat="44.5201" lon="1.35212">
        <ele>265.2</ele>
        <time>2021-10-07T18:59:56Z</time>
      </trkpt>
      <trkpt lat="44.52007" lon="1.35213">
        <ele>265.4</ele>
        <time>2021-10-07T18:59:57Z</time>
      </trkpt>
      <trkpt lat="44.52003" lon="1.35214">
        <ele>265.5</ele>
        <time>2021-10-07T18:59:59Z</time>
      </trkpt>
      <trkpt lat="44.51998" lon="1.35215">
        <ele>265.8</ele>
        <time>2021-10-07T19:00:01Z</time>
      </trkpt>
      <trkpt lat="44.51995" lon="1.35215">
        <ele>265.9</ele>
        <time>2021-10-07T19:00:02Z</time>
      </trkpt>
      <trkpt lat="44.51994" lon="1.35215">
        <ele>266</ele>
        <time>2021-10-07T19:00:03Z</time>
      </trkpt>
      <trkpt lat="44.51989" lon="1.35215">
        <ele>266.1</ele>
        <time>2021-10-07T19:00:05Z</time>
      </trkpt>
      <trkpt lat="44.51987" lon="1.35215">
        <ele>266.3</ele>
        <time>2021-10-07T19:00:06Z</time>
      </trkpt>
      <trkpt lat="44.51984" lon="1.35214">
        <ele>266.4</ele>
        <time>2021-10-07T19:00:07Z</time>
      </trkpt>
      <trkpt lat="44.5198" lon="1.35212">
        <ele>266.5</ele>
        <time>2021-10-07T19:00:09Z</time>
      </trkpt>
      <trkpt lat="44.51978" lon="1.35211">
        <ele>266.6</ele>
        <time>2021-10-07T19:00:10Z</time>
      </trkpt>
      <trkpt lat="44.51973" lon="1.35209">
        <ele>266.8</ele>
        <time>2021-10-07T19:00:12Z</time>
      </trkpt>
      <trkpt lat="44.51971" lon="1.35209">
        <ele>266.9</ele>
        <time>2021-10-07T19:00:13Z</time>
      </trkpt>
      <trkpt lat="44.5197" lon="1.35208">
        <ele>267</ele>
        <time>2021-10-07T19:00:14Z</time>
      </trkpt>
      <trkpt lat="44.51965" lon="1.35206">
        <ele>267.2</ele>
        <time>2021-10-07T19:00:16Z</time>
      </trkpt>
      <trkpt lat="44.51964" lon="1.35206">
        <ele>267.2</ele>
        <time>2021-10-07T19:00:17Z</time>
      </trkpt>
      <trkpt lat="44.51963" lon="1.35205">
        <ele>267.3</ele>
        <time>2021-10-07T19:00:18Z</time>
      </trkpt>
      <trkpt lat="44.5196" lon="1.35204">
        <ele>267.4</ele>
        <time>2021-10-07T19:00:19Z</time>
      </trkpt>
      <trkpt lat="44.51959" lon="1.35203">
        <ele>267.5</ele>
        <time>2021-10-07T19:00:20Z</time>
      </trkpt>
      <trkpt lat="44.51956" lon="1.35202">
        <ele>267.6</ele>
        <time>2021-10-07T19:00:22Z</time>
      </trkpt>
      <trkpt lat="44.51954" lon="1.35201">
        <ele>267.7</ele>
        <time>2021-10-07T19:00:23Z</time>
      </trkpt>
      <trkpt lat="44.5195" lon="1.352">
        <ele>267.9</ele>
        <time>2021-10-07T19:00:25Z</time>
      </trkpt>
      <trkpt lat="44.51948" lon="1.35199">
        <ele>267.9</ele>
        <time>2021-10-07T19:00:26Z</time>
      </trkpt>
      <trkpt lat="44.51944" lon="1.35198">
        <ele>268.1</ele>
        <time>2021-10-07T19:00:28Z</time>
      </trkpt>
      <trkpt lat="44.51942" lon="1.35198">
        <ele>268.1</ele>
        <time>2021-10-07T19:00:29Z</time>
      </trkpt>
      <trkpt lat="44.51938" lon="1.35196">
        <ele>268.2</ele>
        <time>2021-10-07T19:00:31Z</time>
      </trkpt>
      <trkpt lat="44.51934" lon="1.35194">
        <ele>268.4</ele>
        <time>2021-10-07T19:00:33Z</time>
      </trkpt>
      <trkpt lat="44.5193" lon="1.35193">
        <ele>268.5</ele>
        <time>2021-10-07T19:00:35Z</time>
      </trkpt>
      <trkpt lat="44.51928" lon="1.35192">
        <ele>268.6</ele>
        <time>2021-10-07T19:00:36Z</time>
      </trkpt>
      <trkpt lat="44.51924" lon="1.3519">
        <ele>268.7</ele>
        <time>2021-10-07T19:00:38Z</time>
      </trkpt>
      <trkpt lat="44.5192" lon="1.35189">
        <ele>268.8</ele>
        <time>2021-10-07T19:00:40Z</time>
      </trkpt>
      <trkpt lat="44.51916" lon="1.35188">
        <ele>268.9</ele>
        <time>2021-10-07T19:00:42Z</time>
      </trkpt>
      <trkpt lat="44.51913" lon="1.35187">
        <ele>268.9</ele>
        <time>2021-10-07T19:00:43Z</time>
      </trkpt>
      <trkpt lat="44.51909" lon="1.35185">
        <ele>269.1</ele>
        <time>2021-10-07T19:00:45Z</time>
      </trkpt>
      <trkpt lat="44.51904" lon="1.35183">
        <ele>269.2</ele>
        <time>2021-10-07T19:00:47Z</time>
      </trkpt>
      <trkpt lat="44.51902" lon="1.35182">
        <ele>269.2</ele>
        <time>2021-10-07T19:00:48Z</time>
      </trkpt>
      <trkpt lat="44.51898" lon="1.35182">
        <ele>269.4</ele>
        <time>2021-10-07T19:00:50Z</time>
      </trkpt>
      <trkpt lat="44.51895" lon="1.35181">
        <ele>269.4</ele>
        <time>2021-10-07T19:00:52Z</time>
      </trkpt>
      <trkpt lat="44.51892" lon="1.35179">
        <ele>269.5</ele>
        <time>2021-10-07T19:00:53Z</time>
      </trkpt>
      <trkpt lat="44.51888" lon="1.35177">
        <ele>269.6</ele>
        <time>2021-10-07T19:00:55Z</time>
      </trkpt>
      <trkpt lat="44.51885" lon="1.35176">
        <ele>269.7</ele>
        <time>2021-10-07T19:00:56Z</time>
      </trkpt>
      <trkpt lat="44.51883" lon="1.35174">
        <ele>269.7</ele>
        <time>2021-10-07T19:00:57Z</time>
      </trkpt>
      <trkpt lat="44.51879" lon="1.35173">
        <ele>269.8</ele>
        <time>2021-10-07T19:00:59Z</time>
      </trkpt>
      <trkpt lat="44.51877" lon="1.35172">
        <ele>269.9</ele>
        <time>2021-10-07T19:01:00Z</time>
      </trkpt>
      <trkpt lat="44.51872" lon="1.3517">
        <ele>270</ele>
        <time>2021-10-07T19:01:02Z</time>
      </trkpt>
      <trkpt lat="44.51868" lon="1.35168">
        <ele>270.1</ele>
        <time>2021-10-07T19:01:04Z</time>
      </trkpt>
      <trkpt lat="44.51864" lon="1.35166">
        <ele>270.3</ele>
        <time>2021-10-07T19:01:06Z</time>
      </trkpt>
      <trkpt lat="44.5186" lon="1.35163">
        <ele>270.4</ele>
        <time>2021-10-07T19:01:08Z</time>
      </trkpt>
      <trkpt lat="44.51856" lon="1.3516">
        <ele>270.6</ele>
        <time>2021-10-07T19:01:10Z</time>
      </trkpt>
      <trkpt lat="44.51852" lon="1.35158">
        <ele>270.8</ele>
        <time>2021-10-07T19:01:12Z</time>
      </trkpt>
      <trkpt lat="44.51851" lon="1.35157">
        <ele>270.9</ele>
        <time>2021-10-07T19:01:13Z</time>
      </trkpt>
      <trkpt lat="44.51847" lon="1.35153">
        <ele>271.1</ele>
        <time>2021-10-07T19:01:15Z</time>
      </trkpt>
      <trkpt lat="44.51844" lon="1.3515">
        <ele>271.3</ele>
        <time>2021-10-07T19:01:17Z</time>
      </trkpt>
      <trkpt lat="44.51841" lon="1.35148">
        <ele>271.6</ele>
        <time>2021-10-07T19:01:19Z</time>
      </trkpt>
      <trkpt lat="44.51837" lon="1.35146">
        <ele>271.9</ele>
        <time>2021-10-07T19:01:21Z</time>
      </trkpt>
      <trkpt lat="44.51836" lon="1.35145">
        <ele>272</ele>
        <time>2021-10-07T19:01:22Z</time>
      </trkpt>
      <trkpt lat="44.51832" lon="1.35143">
        <ele>272.2</ele>
        <time>2021-10-07T19:01:24Z</time>
      </trkpt>
      <trkpt lat="44.51829" lon="1.35142">
        <ele>272.4</ele>
        <time>2021-10-07T19:01:26Z</time>
      </trkpt>
      <trkpt lat="44.51826" lon="1.35141">
        <ele>272.6</ele>
        <time>2021-10-07T19:01:27Z</time>
      </trkpt>
      <trkpt lat="44.51825" lon="1.35141">
        <ele>272.6</ele>
        <time>2021-10-07T19:01:28Z</time>
      </trkpt>
      <trkpt lat="44.51821" lon="1.3514">
        <ele>272.9</ele>
        <time>2021-10-07T19:01:30Z</time>
      </trkpt>
      <trkpt lat="44.51819" lon="1.35139">
        <ele>273</ele>
        <time>2021-10-07T19:01:31Z</time>
      </trkpt>
      <trkpt lat="44.51814" lon="1.35137">
        <ele>273.3</ele>
        <time>2021-10-07T19:01:33Z</time>
      </trkpt>
      <trkpt lat="44.5181" lon="1.35134">
        <ele>273.5</ele>
        <time>2021-10-07T19:01:35Z</time>
      </trkpt>
      <trkpt lat="44.51807" lon="1.35132">
        <ele>273.8</ele>
        <time>2021-10-07T19:01:36Z</time>
      </trkpt>
      <trkpt lat="44.51807" lon="1.35131">
        <ele>273.9</ele>
        <time>2021-10-07T19:01:37Z</time>
      </trkpt>
      <trkpt lat="44.51804" lon="1.35129">
        <ele>274</ele>
        <time>2021-10-07T19:01:38Z</time>
      </trkpt>
      <trkpt lat="44.51801" lon="1.35127">
        <ele>274.3</ele>
        <time>2021-10-07T19:01:40Z</time>
      </trkpt>
      <trkpt lat="44.51798" lon="1.35126">
        <ele>274.5</ele>
        <time>2021-10-07T19:01:41Z</time>
      </trkpt>
      <trkpt lat="44.51797" lon="1.35125">
        <ele>274.6</ele>
        <time>2021-10-07T19:01:42Z</time>
      </trkpt>
      <trkpt lat="44.51793" lon="1.35124">
        <ele>274.9</ele>
        <time>2021-10-07T19:01:44Z</time>
      </trkpt>
      <trkpt lat="44.5179" lon="1.35123">
        <ele>275.1</ele>
        <time>2021-10-07T19:01:45Z</time>
      </trkpt>
      <trkpt lat="44.51787" lon="1.3512">
        <ele>275.4</ele>
        <time>2021-10-07T19:01:47Z</time>
      </trkpt>
      <trkpt lat="44.51784" lon="1.35118">
        <ele>275.7</ele>
        <time>2021-10-07T19:01:48Z</time>
      </trkpt>
      <trkpt lat="44.51783" lon="1.35118">
        <ele>275.8</ele>
        <time>2021-10-07T19:01:49Z</time>
      </trkpt>
      <trkpt lat="44.51781" lon="1.35116">
        <ele>276</ele>
        <time>2021-10-07T19:01:50Z</time>
      </trkpt>
      <trkpt lat="44.51777" lon="1.35114">
        <ele>276.3</ele>
        <time>2021-10-07T19:01:52Z</time>
      </trkpt>
      <trkpt lat="44.51774" lon="1.3511">
        <ele>276.6</ele>
        <time>2021-10-07T19:01:54Z</time>
      </trkpt>
      <trkpt lat="44.51771" lon="1.35107">
        <ele>276.8</ele>
        <time>2021-10-07T19:01:55Z</time>
      </trkpt>
      <trkpt lat="44.5177" lon="1.35107">
        <ele>276.9</ele>
        <time>2021-10-07T19:01:56Z</time>
      </trkpt>
      <trkpt lat="44.51766" lon="1.35104">
        <ele>277.2</ele>
        <time>2021-10-07T19:01:58Z</time>
      </trkpt>
      <trkpt lat="44.51764" lon="1.35101">
        <ele>277.4</ele>
        <time>2021-10-07T19:01:59Z</time>
      </trkpt>
      <trkpt lat="44.51762" lon="1.35099">
        <ele>277.6</ele>
        <time>2021-10-07T19:02:00Z</time>
      </trkpt>
      <trkpt lat="44.51757" lon="1.35097">
        <ele>277.9</ele>
        <time>2021-10-07T19:02:02Z</time>
      </trkpt>
      <trkpt lat="44.51754" lon="1.35095">
        <ele>278.1</ele>
        <time>2021-10-07T19:02:04Z</time>
      </trkpt>
      <trkpt lat="44.5175" lon="1.35092">
        <ele>278.4</ele>
        <time>2021-10-07T19:02:06Z</time>
      </trkpt>
      <trkpt lat="44.51745" lon="1.35089">
        <ele>278.8</ele>
        <time>2021-10-07T19:02:08Z</time>
      </trkpt>
      <trkpt lat="44.51741" lon="1.35086">
        <ele>279.1</ele>
        <time>2021-10-07T19:02:10Z</time>
      </trkpt>
      <trkpt lat="44.51737" lon="1.35084">
        <ele>279.3</ele>
        <time>2021-10-07T19:02:12Z</time>
      </trkpt>
      <trkpt lat="44.51735" lon="1.35082">
        <ele>279.4</ele>
        <time>2021-10-07T19:02:13Z</time>
      </trkpt>
      <trkpt lat="44.51732" lon="1.35081">
        <ele>279.7</ele>
        <time>2021-10-07T19:02:15Z</time>
      </trkpt>
      <trkpt lat="44.5173" lon="1.3508">
        <ele>279.8</ele>
        <time>2021-10-07T19:02:16Z</time>
      </trkpt>
      <trkpt lat="44.51726" lon="1.35078">
        <ele>280</ele>
        <time>2021-10-07T19:02:18Z</time>
      </trkpt>
      <trkpt lat="44.51722" lon="1.35076">
        <ele>280.3</ele>
        <time>2021-10-07T19:02:20Z</time>
      </trkpt>
      <trkpt lat="44.51719" lon="1.35074">
        <ele>280.4</ele>
        <time>2021-10-07T19:02:21Z</time>
      </trkpt>
      <trkpt lat="44.51718" lon="1.35074">
        <ele>280.5</ele>
        <time>2021-10-07T19:02:22Z</time>
      </trkpt>
      <trkpt lat="44.51715" lon="1.35071">
        <ele>280.7</ele>
        <time>2021-10-07T19:02:24Z</time>
      </trkpt>
      <trkpt lat="44.51712" lon="1.35068">
        <ele>280.9</ele>
        <time>2021-10-07T19:02:26Z</time>
      </trkpt>
      <trkpt lat="44.51709" lon="1.35065">
        <ele>281</ele>
        <time>2021-10-07T19:02:27Z</time>
      </trkpt>
      <trkpt lat="44.51706" lon="1.35061">
        <ele>281.2</ele>
        <time>2021-10-07T19:02:29Z</time>
      </trkpt>
      <trkpt lat="44.51704" lon="1.35059">
        <ele>281.4</ele>
        <time>2021-10-07T19:02:30Z</time>
      </trkpt>
      <trkpt lat="44.51703" lon="1.35058">
        <ele>281.4</ele>
        <time>2021-10-07T19:02:31Z</time>
      </trkpt>
      <trkpt lat="44.517" lon="1.35055">
        <ele>281.6</ele>
        <time>2021-10-07T19:02:32Z</time>
      </trkpt>
      <trkpt lat="44.51699" lon="1.35054">
        <ele>281.6</ele>
        <time>2021-10-07T19:02:33Z</time>
      </trkpt>
      <trkpt lat="44.51697" lon="1.35053">
        <ele>281.7</ele>
        <time>2021-10-07T19:02:34Z</time>
      </trkpt>
      <trkpt lat="44.51695" lon="1.3505">
        <ele>281.9</ele>
        <time>2021-10-07T19:02:36Z</time>
      </trkpt>
      <trkpt lat="44.51693" lon="1.35046">
        <ele>282</ele>
        <time>2021-10-07T19:02:37Z</time>
      </trkpt>
      <trkpt lat="44.51692" lon="1.35045">
        <ele>282.1</ele>
        <time>2021-10-07T19:02:38Z</time>
      </trkpt>
      <trkpt lat="44.5169" lon="1.3504">
        <ele>282.3</ele>
        <time>2021-10-07T19:02:39Z</time>
      </trkpt>
      <trkpt lat="44.51689" lon="1.35038">
        <ele>282.4</ele>
        <time>2021-10-07T19:02:40Z</time>
      </trkpt>
      <trkpt lat="44.51686" lon="1.35033">
        <ele>282.6</ele>
        <time>2021-10-07T19:02:42Z</time>
      </trkpt>
      <trkpt lat="44.51684" lon="1.35027">
        <ele>282.9</ele>
        <time>2021-10-07T19:02:44Z</time>
      </trkpt>
      <trkpt lat="44.51683" lon="1.35025">
        <ele>283</ele>
        <time>2021-10-07T19:02:45Z</time>
      </trkpt>
      <trkpt lat="44.51682" lon="1.35023">
        <ele>283.1</ele>
        <time>2021-10-07T19:02:46Z</time>
      </trkpt>
      <trkpt lat="44.51681" lon="1.35017">
        <ele>283.4</ele>
        <time>2021-10-07T19:02:48Z</time>
      </trkpt>
      <trkpt lat="44.51681" lon="1.35015">
        <ele>283.5</ele>
        <time>2021-10-07T19:02:49Z</time>
      </trkpt>
      <trkpt lat="44.51681" lon="1.35013">
        <ele>283.6</ele>
        <time>2021-10-07T19:02:50Z</time>
      </trkpt>
      <trkpt lat="44.5168" lon="1.35009">
        <ele>283.8</ele>
        <time>2021-10-07T19:02:51Z</time>
      </trkpt>
      <trkpt lat="44.51679" lon="1.35007">
        <ele>283.9</ele>
        <time>2021-10-07T19:02:52Z</time>
      </trkpt>
      <trkpt lat="44.51678" lon="1.35005">
        <ele>284</ele>
        <time>2021-10-07T19:02:53Z</time>
      </trkpt>
      <trkpt lat="44.51678" lon="1.35002">
        <ele>284.2</ele>
        <time>2021-10-07T19:02:55Z</time>
      </trkpt>
      <trkpt lat="44.51678" lon="1.35">
        <ele>284.3</ele>
        <time>2021-10-07T19:02:57Z</time>
      </trkpt>
      <trkpt lat="44.51678" lon="1.34999">
        <ele>284.3</ele>
        <time>2021-10-07T19:02:58Z</time>
      </trkpt>
      <trkpt lat="44.51678" lon="1.34999">
        <ele>284.3</ele>
        <time>2021-10-07T19:02:59Z</time>
      </trkpt>
      <trkpt lat="44.51678" lon="1.34998">
        <ele>284.3</ele>
        <time>2021-10-07T19:03:01Z</time>
      </trkpt>
      <trkpt lat="44.51678" lon="1.34998">
        <ele>284.4</ele>
        <time>2021-10-07T19:03:02Z</time>
      </trkpt>
      <trkpt lat="44.51678" lon="1.34998">
        <ele>284.4</ele>
        <time>2021-10-07T19:03:04Z</time>
      </trkpt>
      <trkpt lat="44.51678" lon="1.34998">
        <ele>284.4</ele>
        <time>2021-10-07T19:03:05Z</time>
      </trkpt>
      <trkpt lat="44.51676" lon="1.34993">
        <ele>284.6</ele>
        <time>2021-10-07T19:04:00Z</time>
      </trkpt>
      <trkpt lat="44.51674" lon="1.34988">
        <ele>284.9</ele>
        <time>2021-10-07T19:04:02Z</time>
      </trkpt>
      <trkpt lat="44.51673" lon="1.34987">
        <ele>285</ele>
        <time>2021-10-07T19:04:03Z</time>
      </trkpt>
      <trkpt lat="44.51672" lon="1.34985">
        <ele>285.1</ele>
        <time>2021-10-07T19:04:04Z</time>
      </trkpt>
      <trkpt lat="44.51671" lon="1.34981">
        <ele>285.3</ele>
        <time>2021-10-07T19:04:06Z</time>
      </trkpt>
      <trkpt lat="44.51669" lon="1.34978">
        <ele>285.4</ele>
        <time>2021-10-07T19:04:08Z</time>
      </trkpt>
      <trkpt lat="44.51668" lon="1.34974">
        <ele>285.6</ele>
        <time>2021-10-07T19:04:10Z</time>
      </trkpt>
      <trkpt lat="44.51665" lon="1.3497">
        <ele>285.8</ele>
        <time>2021-10-07T19:04:12Z</time>
      </trkpt>
      <trkpt lat="44.51664" lon="1.34969">
        <ele>285.8</ele>
        <time>2021-10-07T19:04:13Z</time>
      </trkpt>
      <trkpt lat="44.51661" lon="1.34966">
        <ele>286</ele>
        <time>2021-10-07T19:04:15Z</time>
      </trkpt>
      <trkpt lat="44.51658" lon="1.34962">
        <ele>286.2</ele>
        <time>2021-10-07T19:04:17Z</time>
      </trkpt>
      <trkpt lat="44.51657" lon="1.3496">
        <ele>286.2</ele>
        <time>2021-10-07T19:04:18Z</time>
      </trkpt>
      <trkpt lat="44.51656" lon="1.34959">
        <ele>286.3</ele>
        <time>2021-10-07T19:04:19Z</time>
      </trkpt>
      <trkpt lat="44.51652" lon="1.34955">
        <ele>286.5</ele>
        <time>2021-10-07T19:04:21Z</time>
      </trkpt>
      <trkpt lat="44.5165" lon="1.34953">
        <ele>286.6</ele>
        <time>2021-10-07T19:04:22Z</time>
      </trkpt>
      <trkpt lat="44.51649" lon="1.34952">
        <ele>286.6</ele>
        <time>2021-10-07T19:04:23Z</time>
      </trkpt>
      <trkpt lat="44.51647" lon="1.3495">
        <ele>286.7</ele>
        <time>2021-10-07T19:04:24Z</time>
      </trkpt>
      <trkpt lat="44.51644" lon="1.34946">
        <ele>286.9</ele>
        <time>2021-10-07T19:04:26Z</time>
      </trkpt>
      <trkpt lat="44.51642" lon="1.34944">
        <ele>286.9</ele>
        <time>2021-10-07T19:04:27Z</time>
      </trkpt>
      <trkpt lat="44.5164" lon="1.3494">
        <ele>287</ele>
        <time>2021-10-07T19:04:29Z</time>
      </trkpt>
      <trkpt lat="44.51637" lon="1.34937">
        <ele>287.1</ele>
        <time>2021-10-07T19:04:30Z</time>
      </trkpt>
      <trkpt lat="44.51635" lon="1.34934">
        <ele>287.2</ele>
        <time>2021-10-07T19:04:31Z</time>
      </trkpt>
      <trkpt lat="44.51634" lon="1.34933">
        <ele>287.2</ele>
        <time>2021-10-07T19:04:32Z</time>
      </trkpt>
      <trkpt lat="44.51633" lon="1.34929">
        <ele>287.3</ele>
        <time>2021-10-07T19:04:33Z</time>
      </trkpt>
      <trkpt lat="44.51632" lon="1.34928">
        <ele>287.3</ele>
        <time>2021-10-07T19:04:34Z</time>
      </trkpt>
      <trkpt lat="44.51629" lon="1.34923">
        <ele>287.5</ele>
        <time>2021-10-07T19:04:36Z</time>
      </trkpt>
      <trkpt lat="44.51627" lon="1.3492">
        <ele>287.5</ele>
        <time>2021-10-07T19:04:38Z</time>
      </trkpt>
      <trkpt lat="44.51625" lon="1.34917">
        <ele>287.6</ele>
        <time>2021-10-07T19:04:39Z</time>
      </trkpt>
      <trkpt lat="44.51623" lon="1.34914">
        <ele>287.6</ele>
        <time>2021-10-07T19:04:40Z</time>
      </trkpt>
      <trkpt lat="44.5162" lon="1.34911">
        <ele>287.6</ele>
        <time>2021-10-07T19:04:41Z</time>
      </trkpt>
      <trkpt lat="44.51617" lon="1.34907">
        <ele>287.7</ele>
        <time>2021-10-07T19:04:42Z</time>
      </trkpt>
      <trkpt lat="44.51614" lon="1.34902">
        <ele>287.7</ele>
        <time>2021-10-07T19:04:44Z</time>
      </trkpt>
      <trkpt lat="44.51611" lon="1.34898">
        <ele>287.8</ele>
        <time>2021-10-07T19:04:46Z</time>
      </trkpt>
      <trkpt lat="44.51609" lon="1.34895">
        <ele>287.8</ele>
        <time>2021-10-07T19:04:47Z</time>
      </trkpt>
      <trkpt lat="44.51606" lon="1.34891">
        <ele>287.8</ele>
        <time>2021-10-07T19:04:48Z</time>
      </trkpt>
      <trkpt lat="44.51603" lon="1.34886">
        <ele>287.9</ele>
        <time>2021-10-07T19:04:50Z</time>
      </trkpt>
      <trkpt lat="44.516" lon="1.34882">
        <ele>288</ele>
        <time>2021-10-07T19:04:51Z</time>
      </trkpt>
      <trkpt lat="44.51599" lon="1.34881">
        <ele>288</ele>
        <time>2021-10-07T19:04:52Z</time>
      </trkpt>
      <trkpt lat="44.51597" lon="1.34878">
        <ele>288.1</ele>
        <time>2021-10-07T19:04:53Z</time>
      </trkpt>
      <trkpt lat="44.51595" lon="1.34874">
        <ele>288.2</ele>
        <time>2021-10-07T19:04:55Z</time>
      </trkpt>
      <trkpt lat="44.51592" lon="1.3487">
        <ele>288.3</ele>
        <time>2021-10-07T19:04:56Z</time>
      </trkpt>
      <trkpt lat="44.5159" lon="1.34867">
        <ele>288.4</ele>
        <time>2021-10-07T19:04:57Z</time>
      </trkpt>
      <trkpt lat="44.51587" lon="1.34863">
        <ele>288.5</ele>
        <time>2021-10-07T19:04:59Z</time>
      </trkpt>
      <trkpt lat="44.51584" lon="1.34859">
        <ele>288.6</ele>
        <time>2021-10-07T19:05:00Z</time>
      </trkpt>
      <trkpt lat="44.51581" lon="1.34854">
        <ele>288.8</ele>
        <time>2021-10-07T19:05:02Z</time>
      </trkpt>
      <trkpt lat="44.51579" lon="1.3485">
        <ele>288.9</ele>
        <time>2021-10-07T19:05:03Z</time>
      </trkpt>
      <trkpt lat="44.51577" lon="1.34846">
        <ele>289.1</ele>
        <time>2021-10-07T19:05:05Z</time>
      </trkpt>
      <trkpt lat="44.51575" lon="1.34843">
        <ele>289.2</ele>
        <time>2021-10-07T19:05:06Z</time>
      </trkpt>
      <trkpt lat="44.51573" lon="1.34839">
        <ele>289.4</ele>
        <time>2021-10-07T19:05:07Z</time>
      </trkpt>
      <trkpt lat="44.5157" lon="1.34836">
        <ele>289.7</ele>
        <time>2021-10-07T19:05:08Z</time>
      </trkpt>
      <trkpt lat="44.51568" lon="1.34833">
        <ele>289.9</ele>
        <time>2021-10-07T19:05:10Z</time>
      </trkpt>
      <trkpt lat="44.51565" lon="1.34829">
        <ele>290.2</ele>
        <time>2021-10-07T19:05:11Z</time>
      </trkpt>
      <trkpt lat="44.51563" lon="1.34826">
        <ele>290.5</ele>
        <time>2021-10-07T19:05:12Z</time>
      </trkpt>
      <trkpt lat="44.51562" lon="1.34825">
        <ele>290.7</ele>
        <time>2021-10-07T19:05:13Z</time>
      </trkpt>
      <trkpt lat="44.51558" lon="1.34821">
        <ele>291</ele>
        <time>2021-10-07T19:05:15Z</time>
      </trkpt>
      <trkpt lat="44.51556" lon="1.34818">
        <ele>291.3</ele>
        <time>2021-10-07T19:05:16Z</time>
      </trkpt>
      <trkpt lat="44.51554" lon="1.34816">
        <ele>291.6</ele>
        <time>2021-10-07T19:05:17Z</time>
      </trkpt>
      <trkpt lat="44.5155" lon="1.34812">
        <ele>292</ele>
        <time>2021-10-07T19:05:19Z</time>
      </trkpt>
      <trkpt lat="44.51548" lon="1.3481">
        <ele>292.2</ele>
        <time>2021-10-07T19:05:20Z</time>
      </trkpt>
      <trkpt lat="44.51544" lon="1.34807">
        <ele>292.6</ele>
        <time>2021-10-07T19:05:22Z</time>
      </trkpt>
      <trkpt lat="44.51542" lon="1.34806">
        <ele>292.8</ele>
        <time>2021-10-07T19:05:23Z</time>
      </trkpt>
      <trkpt lat="44.51539" lon="1.34805">
        <ele>293.1</ele>
        <time>2021-10-07T19:05:25Z</time>
      </trkpt>
      <trkpt lat="44.51536" lon="1.34803">
        <ele>293.4</ele>
        <time>2021-10-07T19:05:26Z</time>
      </trkpt>
      <trkpt lat="44.51534" lon="1.34802">
        <ele>293.6</ele>
        <time>2021-10-07T19:05:27Z</time>
      </trkpt>
      <trkpt lat="44.51532" lon="1.348">
        <ele>293.9</ele>
        <time>2021-10-07T19:05:29Z</time>
      </trkpt>
      <trkpt lat="44.5153" lon="1.34799">
        <ele>294.1</ele>
        <time>2021-10-07T19:05:30Z</time>
      </trkpt>
      <trkpt lat="44.51529" lon="1.34798">
        <ele>294.3</ele>
        <time>2021-10-07T19:05:31Z</time>
      </trkpt>
      <trkpt lat="44.51527" lon="1.34796">
        <ele>294.6</ele>
        <time>2021-10-07T19:05:32Z</time>
      </trkpt>
      <trkpt lat="44.51526" lon="1.34795">
        <ele>294.7</ele>
        <time>2021-10-07T19:05:33Z</time>
      </trkpt>
      <trkpt lat="44.51524" lon="1.34794">
        <ele>294.9</ele>
        <time>2021-10-07T19:05:34Z</time>
      </trkpt>
      <trkpt lat="44.51523" lon="1.34792">
        <ele>295.1</ele>
        <time>2021-10-07T19:05:36Z</time>
      </trkpt>
      <trkpt lat="44.5152" lon="1.34789">
        <ele>295.5</ele>
        <time>2021-10-07T19:05:37Z</time>
      </trkpt>
      <trkpt lat="44.51519" lon="1.34788">
        <ele>295.6</ele>
        <time>2021-10-07T19:05:38Z</time>
      </trkpt>
      <trkpt lat="44.51517" lon="1.34784">
        <ele>296</ele>
        <time>2021-10-07T19:05:39Z</time>
      </trkpt>
      <trkpt lat="44.51516" lon="1.34783">
        <ele>296.1</ele>
        <time>2021-10-07T19:05:40Z</time>
      </trkpt>
      <trkpt lat="44.51515" lon="1.34781">
        <ele>296.3</ele>
        <time>2021-10-07T19:05:41Z</time>
      </trkpt>
      <trkpt lat="44.51514" lon="1.34779">
        <ele>296.5</ele>
        <time>2021-10-07T19:05:43Z</time>
      </trkpt>
      <trkpt lat="44.51512" lon="1.34776">
        <ele>296.8</ele>
        <time>2021-10-07T19:05:44Z</time>
      </trkpt>
      <trkpt lat="44.51511" lon="1.34775">
        <ele>296.9</ele>
        <time>2021-10-07T19:05:45Z</time>
      </trkpt>
      <trkpt lat="44.5151" lon="1.34771">
        <ele>297.2</ele>
        <time>2021-10-07T19:05:46Z</time>
      </trkpt>
      <trkpt lat="44.51509" lon="1.3477">
        <ele>297.2</ele>
        <time>2021-10-07T19:05:47Z</time>
      </trkpt>
      <trkpt lat="44.51507" lon="1.34767">
        <ele>297.5</ele>
        <time>2021-10-07T19:05:49Z</time>
      </trkpt>
      <trkpt lat="44.51507" lon="1.34765">
        <ele>297.6</ele>
        <time>2021-10-07T19:05:50Z</time>
      </trkpt>
      <trkpt lat="44.51505" lon="1.34762">
        <ele>297.8</ele>
        <time>2021-10-07T19:05:51Z</time>
      </trkpt>
      <trkpt lat="44.51504" lon="1.34761">
        <ele>297.9</ele>
        <time>2021-10-07T19:05:52Z</time>
      </trkpt>
      <trkpt lat="44.51502" lon="1.34758">
        <ele>298</ele>
        <time>2021-10-07T19:05:53Z</time>
      </trkpt>
      <trkpt lat="44.51502" lon="1.34757">
        <ele>298.1</ele>
        <time>2021-10-07T19:05:54Z</time>
      </trkpt>
      <trkpt lat="44.51499" lon="1.34753">
        <ele>298.3</ele>
        <time>2021-10-07T19:05:56Z</time>
      </trkpt>
      <trkpt lat="44.51498" lon="1.34752">
        <ele>298.3</ele>
        <time>2021-10-07T19:05:57Z</time>
      </trkpt>
      <trkpt lat="44.51496" lon="1.34748">
        <ele>298.5</ele>
        <time>2021-10-07T19:05:58Z</time>
      </trkpt>
      <trkpt lat="44.51495" lon="1.34747">
        <ele>298.5</ele>
        <time>2021-10-07T19:05:59Z</time>
      </trkpt>
      <trkpt lat="44.51493" lon="1.34743">
        <ele>298.6</ele>
        <time>2021-10-07T19:06:01Z</time>
      </trkpt>
      <trkpt lat="44.51491" lon="1.34742">
        <ele>298.6</ele>
        <time>2021-10-07T19:06:02Z</time>
      </trkpt>
      <trkpt lat="44.51489" lon="1.3474">
        <ele>298.7</ele>
        <time>2021-10-07T19:06:04Z</time>
      </trkpt>
      <trkpt lat="44.51485" lon="1.34737">
        <ele>298.7</ele>
        <time>2021-10-07T19:06:05Z</time>
      </trkpt>
      <trkpt lat="44.51484" lon="1.34737">
        <ele>298.8</ele>
        <time>2021-10-07T19:06:06Z</time>
      </trkpt>
      <trkpt lat="44.5148" lon="1.34735">
        <ele>298.8</ele>
        <time>2021-10-07T19:06:08Z</time>
      </trkpt>
      <trkpt lat="44.51478" lon="1.34733">
        <ele>298.8</ele>
        <time>2021-10-07T19:06:09Z</time>
      </trkpt>
      <trkpt lat="44.51476" lon="1.34732">
        <ele>298.8</ele>
        <time>2021-10-07T19:06:10Z</time>
      </trkpt>
      <trkpt lat="44.51471" lon="1.34729">
        <ele>298.8</ele>
        <time>2021-10-07T19:06:12Z</time>
      </trkpt>
      <trkpt lat="44.51467" lon="1.34727">
        <ele>298.7</ele>
        <time>2021-10-07T19:06:14Z</time>
      </trkpt>
      <trkpt lat="44.51463" lon="1.34725">
        <ele>298.6</ele>
        <time>2021-10-07T19:06:15Z</time>
      </trkpt>
      <trkpt lat="44.51458" lon="1.34723">
        <ele>298.5</ele>
        <time>2021-10-07T19:06:17Z</time>
      </trkpt>
      <trkpt lat="44.51454" lon="1.34721">
        <ele>298.3</ele>
        <time>2021-10-07T19:06:18Z</time>
      </trkpt>
      <trkpt lat="44.5145" lon="1.3472">
        <ele>298.2</ele>
        <time>2021-10-07T19:06:19Z</time>
      </trkpt>
      <trkpt lat="44.51446" lon="1.34717">
        <ele>298.1</ele>
        <time>2021-10-07T19:06:20Z</time>
      </trkpt>
      <trkpt lat="44.51443" lon="1.34715">
        <ele>297.9</ele>
        <time>2021-10-07T19:06:22Z</time>
      </trkpt>
      <trkpt lat="44.51437" lon="1.34711">
        <ele>297.6</ele>
        <time>2021-10-07T19:06:23Z</time>
      </trkpt>
      <trkpt lat="44.51433" lon="1.34707">
        <ele>297.4</ele>
        <time>2021-10-07T19:06:24Z</time>
      </trkpt>
      <trkpt lat="44.51428" lon="1.34703">
        <ele>297</ele>
        <time>2021-10-07T19:06:25Z</time>
      </trkpt>
      <trkpt lat="44.51418" lon="1.34696">
        <ele>296.4</ele>
        <time>2021-10-07T19:06:27Z</time>
      </trkpt>
      <trkpt lat="44.51413" lon="1.34693">
        <ele>296</ele>
        <time>2021-10-07T19:06:28Z</time>
      </trkpt>
      <trkpt lat="44.51403" lon="1.34687">
        <ele>295.2</ele>
        <time>2021-10-07T19:06:30Z</time>
      </trkpt>
      <trkpt lat="44.51393" lon="1.34678">
        <ele>294.4</ele>
        <time>2021-10-07T19:06:32Z</time>
      </trkpt>
      <trkpt lat="44.51388" lon="1.34674">
        <ele>293.9</ele>
        <time>2021-10-07T19:06:33Z</time>
      </trkpt>
      <trkpt lat="44.5138" lon="1.34662">
        <ele>293.1</ele>
        <time>2021-10-07T19:06:35Z</time>
      </trkpt>
      <trkpt lat="44.51371" lon="1.34649">
        <ele>292.4</ele>
        <time>2021-10-07T19:06:37Z</time>
      </trkpt>
      <trkpt lat="44.51362" lon="1.34637">
        <ele>292</ele>
        <time>2021-10-07T19:06:39Z</time>
      </trkpt>
      <trkpt lat="44.51356" lon="1.34631">
        <ele>291.8</ele>
        <time>2021-10-07T19:06:40Z</time>
      </trkpt>
      <trkpt lat="44.51347" lon="1.34618">
        <ele>291.5</ele>
        <time>2021-10-07T19:06:42Z</time>
      </trkpt>
      <trkpt lat="44.51337" lon="1.34608">
        <ele>291.4</ele>
        <time>2021-10-07T19:06:44Z</time>
      </trkpt>
      <trkpt lat="44.51333" lon="1.34607">
        <ele>291.4</ele>
        <time>2021-10-07T19:06:45Z</time>
      </trkpt>
      <trkpt lat="44.5133" lon="1.3461">
        <ele>291.4</ele>
        <time>2021-10-07T19:06:47Z</time>
      </trkpt>
      <trkpt lat="44.5133" lon="1.34612">
        <ele>291.4</ele>
        <time>2021-10-07T19:06:48Z</time>
      </trkpt>
      <trkpt lat="44.51329" lon="1.34613">
        <ele>291.4</ele>
        <time>2021-10-07T19:06:49Z</time>
      </trkpt>
      <trkpt lat="44.51329" lon="1.34614">
        <ele>291.4</ele>
        <time>2021-10-07T19:06:51Z</time>
      </trkpt>
      <trkpt lat="44.51329" lon="1.34615">
        <ele>291.4</ele>
        <time>2021-10-07T19:06:52Z</time>
      </trkpt>
      <trkpt lat="44.51329" lon="1.34616">
        <ele>291.4</ele>
        <time>2021-10-07T19:06:53Z</time>
      </trkpt>
      <trkpt lat="44.51328" lon="1.34617">
        <ele>291.4</ele>
        <time>2021-10-07T19:06:55Z</time>
      </trkpt>
      <trkpt lat="44.51328" lon="1.34618">
        <ele>291.4</ele>
        <time>2021-10-07T19:07:48Z</time>
      </trkpt>
      <trkpt lat="44.51328" lon="1.34619">
        <ele>291.4</ele>
        <time>2021-10-07T19:07:49Z</time>
      </trkpt>
      <trkpt lat="44.51328" lon="1.3462">
        <ele>291.4</ele>
        <time>2021-10-07T19:07:50Z</time>
      </trkpt>
      <trkpt lat="44.51328" lon="1.34621">
        <ele>291.3</ele>
        <time>2021-10-07T19:07:52Z</time>
      </trkpt>
      <trkpt lat="44.51327" lon="1.34622">
        <ele>291.3</ele>
        <time>2021-10-07T19:07:54Z</time>
      </trkpt>
      <trkpt lat="44.51327" lon="1.34623">
        <ele>291.3</ele>
        <time>2021-10-07T19:07:55Z</time>
      </trkpt>
      <trkpt lat="44.51327" lon="1.34624">
        <ele>291.3</ele>
        <time>2021-10-07T19:07:57Z</time>
      </trkpt>
      <trkpt lat="44.51327" lon="1.34626">
        <ele>291.3</ele>
        <time>2021-10-07T19:07:58Z</time>
      </trkpt>
      <trkpt lat="44.51327" lon="1.34631">
        <ele>291.1</ele>
        <time>2021-10-07T19:07:59Z</time>
      </trkpt>
      <trkpt lat="44.51328" lon="1.34639">
        <ele>291</ele>
        <time>2021-10-07T19:08:01Z</time>
      </trkpt>
      <trkpt lat="44.51329" lon="1.34645">
        <ele>290.8</ele>
        <time>2021-10-07T19:08:02Z</time>
      </trkpt>
      <trkpt lat="44.5133" lon="1.34653">
        <ele>290.7</ele>
        <time>2021-10-07T19:08:03Z</time>
      </trkpt>
      <trkpt lat="44.51332" lon="1.3466">
        <ele>290.6</ele>
        <time>2021-10-07T19:08:04Z</time>
      </trkpt>
      <trkpt lat="44.51334" lon="1.34667">
        <ele>290.5</ele>
        <time>2021-10-07T19:08:06Z</time>
      </trkpt>
      <trkpt lat="44.51335" lon="1.34674">
        <ele>290.4</ele>
        <time>2021-10-07T19:08:07Z</time>
      </trkpt>
      <trkpt lat="44.51336" lon="1.34679">
        <ele>290.4</ele>
        <time>2021-10-07T19:08:08Z</time>
      </trkpt>
      <trkpt lat="44.51337" lon="1.34684">
        <ele>290.4</ele>
        <time>2021-10-07T19:08:09Z</time>
      </trkpt>
      <trkpt lat="44.51336" lon="1.34689">
        <ele>290.3</ele>
        <time>2021-10-07T19:08:10Z</time>
      </trkpt>
      <trkpt lat="44.51336" lon="1.34693">
        <ele>290.3</ele>
        <time>2021-10-07T19:08:11Z</time>
      </trkpt>
      <trkpt lat="44.51336" lon="1.34697">
        <ele>290.3</ele>
        <time>2021-10-07T19:08:12Z</time>
      </trkpt>
      <trkpt lat="44.51336" lon="1.34701">
        <ele>290.2</ele>
        <time>2021-10-07T19:08:13Z</time>
      </trkpt>
      <trkpt lat="44.51335" lon="1.34708">
        <ele>290.1</ele>
        <time>2021-10-07T19:08:15Z</time>
      </trkpt>
      <trkpt lat="44.51334" lon="1.34713">
        <ele>290</ele>
        <time>2021-10-07T19:08:16Z</time>
      </trkpt>
      <trkpt lat="44.51333" lon="1.34718">
        <ele>290</ele>
        <time>2021-10-07T19:08:18Z</time>
      </trkpt>
      <trkpt lat="44.51332" lon="1.34723">
        <ele>289.9</ele>
        <time>2021-10-07T19:08:19Z</time>
      </trkpt>
      <trkpt lat="44.51331" lon="1.34728">
        <ele>289.7</ele>
        <time>2021-10-07T19:08:20Z</time>
      </trkpt>
      <trkpt lat="44.51329" lon="1.34734">
        <ele>289.6</ele>
        <time>2021-10-07T19:08:21Z</time>
      </trkpt>
      <trkpt lat="44.51329" lon="1.34739">
        <ele>289.5</ele>
        <time>2021-10-07T19:08:22Z</time>
      </trkpt>
      <trkpt lat="44.51327" lon="1.34747">
        <ele>289.4</ele>
        <time>2021-10-07T19:08:24Z</time>
      </trkpt>
      <trkpt lat="44.51326" lon="1.34753">
        <ele>289.3</ele>
        <time>2021-10-07T19:08:25Z</time>
      </trkpt>
      <trkpt lat="44.51325" lon="1.34757">
        <ele>289.2</ele>
        <time>2021-10-07T19:08:26Z</time>
      </trkpt>
      <trkpt lat="44.51325" lon="1.34762">
        <ele>289.1</ele>
        <time>2021-10-07T19:08:27Z</time>
      </trkpt>
      <trkpt lat="44.51323" lon="1.34768">
        <ele>289</ele>
        <time>2021-10-07T19:08:29Z</time>
      </trkpt>
      <trkpt lat="44.51323" lon="1.34772">
        <ele>288.9</ele>
        <time>2021-10-07T19:08:31Z</time>
      </trkpt>
      <trkpt lat="44.51322" lon="1.34774">
        <ele>288.9</ele>
        <time>2021-10-07T19:08:32Z</time>
      </trkpt>
      <trkpt lat="44.51322" lon="1.34776">
        <ele>288.8</ele>
        <time>2021-10-07T19:08:33Z</time>
      </trkpt>
      <trkpt lat="44.51322" lon="1.34776">
        <ele>288.8</ele>
        <time>2021-10-07T19:08:34Z</time>
      </trkpt>
      <trkpt lat="44.51322" lon="1.34777">
        <ele>288.8</ele>
        <time>2021-10-07T19:08:36Z</time>
      </trkpt>
      <trkpt lat="44.51322" lon="1.34777">
        <ele>288.8</ele>
        <time>2021-10-07T19:08:37Z</time>
      </trkpt>
      <trkpt lat="44.51322" lon="1.34777">
        <ele>288.8</ele>
        <time>2021-10-07T19:08:39Z</time>
      </trkpt>
      <trkpt lat="44.51322" lon="1.34779">
        <ele>288.7</ele>
        <time>2021-10-07T19:08:40Z</time>
      </trkpt>
      <trkpt lat="44.51323" lon="1.3478">
        <ele>288.7</ele>
        <time>2021-10-07T19:08:41Z</time>
      </trkpt>
      <trkpt lat="44.51323" lon="1.34781">
        <ele>288.7</ele>
        <time>2021-10-07T19:08:43Z</time>
      </trkpt>
      <trkpt lat="44.51325" lon="1.34778">
        <ele>288.6</ele>
        <time>2021-10-07T19:08:45Z</time>
      </trkpt>
      <trkpt lat="44.51326" lon="1.34778">
        <ele>288.6</ele>
        <time>2021-10-07T19:08:46Z</time>
      </trkpt>
      <trkpt lat="44.51325" lon="1.34777">
        <ele>288.5</ele>
        <time>2021-10-07T19:08:47Z</time>
      </trkpt>
      <trkpt lat="44.51325" lon="1.34776">
        <ele>288.5</ele>
        <time>2021-10-07T19:08:48Z</time>
      </trkpt>
      <trkpt lat="44.51327" lon="1.34773">
        <ele>288.4</ele>
        <time>2021-10-07T19:08:50Z</time>
      </trkpt>
      <trkpt lat="44.51328" lon="1.34771">
        <ele>288.3</ele>
        <time>2021-10-07T19:08:51Z</time>
      </trkpt>
      <trkpt lat="44.51329" lon="1.34769">
        <ele>288.2</ele>
        <time>2021-10-07T19:08:52Z</time>
      </trkpt>
      <trkpt lat="44.51329" lon="1.34765">
        <ele>288.1</ele>
        <time>2021-10-07T19:08:54Z</time>
      </trkpt>
      <trkpt lat="44.51329" lon="1.34763">
        <ele>288.1</ele>
        <time>2021-10-07T19:08:55Z</time>
      </trkpt>
      <trkpt lat="44.51327" lon="1.34759">
        <ele>287.9</ele>
        <time>2021-10-07T19:08:57Z</time>
      </trkpt>
      <trkpt lat="44.51325" lon="1.34759">
        <ele>287.8</ele>
        <time>2021-10-07T19:08:58Z</time>
      </trkpt>
      <trkpt lat="44.51323" lon="1.34759">
        <ele>287.7</ele>
        <time>2021-10-07T19:08:59Z</time>
      </trkpt>
      <trkpt lat="44.51319" lon="1.34757">
        <ele>287.5</ele>
        <time>2021-10-07T19:09:01Z</time>
      </trkpt>
      <trkpt lat="44.51315" lon="1.34757">
        <ele>287.2</ele>
        <time>2021-10-07T19:09:03Z</time>
      </trkpt>
      <trkpt lat="44.51312" lon="1.34757">
        <ele>287</ele>
        <time>2021-10-07T19:09:04Z</time>
      </trkpt>
      <trkpt lat="44.51309" lon="1.34758">
        <ele>286.8</ele>
        <time>2021-10-07T19:09:05Z</time>
      </trkpt>
      <trkpt lat="44.51305" lon="1.34758">
        <ele>286.6</ele>
        <time>2021-10-07T19:09:06Z</time>
      </trkpt>
      <trkpt lat="44.51302" lon="1.34758">
        <ele>286.3</ele>
        <time>2021-10-07T19:09:07Z</time>
      </trkpt>
      <trkpt lat="44.51299" lon="1.34758">
        <ele>286.1</ele>
        <time>2021-10-07T19:09:08Z</time>
      </trkpt>
      <trkpt lat="44.51295" lon="1.34758">
        <ele>285.8</ele>
        <time>2021-10-07T19:09:09Z</time>
      </trkpt>
      <trkpt lat="44.51291" lon="1.3476">
        <ele>285.4</ele>
        <time>2021-10-07T19:09:11Z</time>
      </trkpt>
      <trkpt lat="44.51289" lon="1.34764">
        <ele>285.1</ele>
        <time>2021-10-07T19:09:12Z</time>
      </trkpt>
      <trkpt lat="44.51288" lon="1.34769">
        <ele>284.9</ele>
        <time>2021-10-07T19:09:13Z</time>
      </trkpt>
      <trkpt lat="44.51288" lon="1.34774">
        <ele>284.6</ele>
        <time>2021-10-07T19:09:14Z</time>
      </trkpt>
      <trkpt lat="44.51288" lon="1.34778">
        <ele>284.4</ele>
        <time>2021-10-07T19:09:15Z</time>
      </trkpt>
      <trkpt lat="44.51291" lon="1.34784">
        <ele>284.1</ele>
        <time>2021-10-07T19:09:17Z</time>
      </trkpt>
      <trkpt lat="44.51293" lon="1.34788">
        <ele>283.8</ele>
        <time>2021-10-07T19:09:18Z</time>
      </trkpt>
      <trkpt lat="44.51294" lon="1.34791">
        <ele>283.6</ele>
        <time>2021-10-07T19:09:19Z</time>
      </trkpt>
      <trkpt lat="44.51294" lon="1.34794">
        <ele>283.5</ele>
        <time>2021-10-07T19:09:21Z</time>
      </trkpt>
      <trkpt lat="44.51294" lon="1.34796">
        <ele>283.4</ele>
        <time>2021-10-07T19:09:22Z</time>
      </trkpt>
      <trkpt lat="44.51294" lon="1.34798">
        <ele>283.3</ele>
        <time>2021-10-07T19:09:23Z</time>
      </trkpt>
      <trkpt lat="44.51295" lon="1.34804">
        <ele>283</ele>
        <time>2021-10-07T19:09:25Z</time>
      </trkpt>
      <trkpt lat="44.51295" lon="1.34806">
        <ele>282.9</ele>
        <time>2021-10-07T19:09:26Z</time>
      </trkpt>
      <trkpt lat="44.51295" lon="1.34808">
        <ele>282.8</ele>
        <time>2021-10-07T19:09:27Z</time>
      </trkpt>
      <trkpt lat="44.51295" lon="1.3481">
        <ele>282.7</ele>
        <time>2021-10-07T19:09:29Z</time>
      </trkpt>
      <trkpt lat="44.51295" lon="1.34811">
        <ele>282.6</ele>
        <time>2021-10-07T19:09:31Z</time>
      </trkpt>
      <trkpt lat="44.51295" lon="1.34813">
        <ele>282.5</ele>
        <time>2021-10-07T19:09:33Z</time>
      </trkpt>
      <trkpt lat="44.51295" lon="1.34815">
        <ele>282.4</ele>
        <time>2021-10-07T19:09:34Z</time>
      </trkpt>
      <trkpt lat="44.51295" lon="1.34817">
        <ele>282.3</ele>
        <time>2021-10-07T19:09:36Z</time>
      </trkpt>
      <trkpt lat="44.51296" lon="1.34819">
        <ele>282.2</ele>
        <time>2021-10-07T19:09:50Z</time>
      </trkpt>
      <trkpt lat="44.51296" lon="1.34821">
        <ele>282.1</ele>
        <time>2021-10-07T19:09:51Z</time>
      </trkpt>
      <trkpt lat="44.51294" lon="1.34825">
        <ele>281.8</ele>
        <time>2021-10-07T19:09:52Z</time>
      </trkpt>
      <trkpt lat="44.51293" lon="1.3483">
        <ele>281.6</ele>
        <time>2021-10-07T19:09:53Z</time>
      </trkpt>
      <trkpt lat="44.51291" lon="1.34834">
        <ele>281.3</ele>
        <time>2021-10-07T19:09:55Z</time>
      </trkpt>
      <trkpt lat="44.51289" lon="1.3484">
        <ele>280.9</ele>
        <time>2021-10-07T19:09:56Z</time>
      </trkpt>
      <trkpt lat="44.51287" lon="1.34846">
        <ele>280.5</ele>
        <time>2021-10-07T19:09:57Z</time>
      </trkpt>
      <trkpt lat="44.51286" lon="1.3485">
        <ele>280.3</ele>
        <time>2021-10-07T19:09:58Z</time>
      </trkpt>
      <trkpt lat="44.51285" lon="1.34851">
        <ele>280.2</ele>
        <time>2021-10-07T19:09:59Z</time>
      </trkpt>
      <trkpt lat="44.51285" lon="1.34852">
        <ele>280.1</ele>
        <time>2021-10-07T19:10:01Z</time>
      </trkpt>
      <trkpt lat="44.51285" lon="1.34854">
        <ele>280.1</ele>
        <time>2021-10-07T19:10:02Z</time>
      </trkpt>
      <trkpt lat="44.51285" lon="1.34855">
        <ele>280</ele>
        <time>2021-10-07T19:10:03Z</time>
      </trkpt>
      <trkpt lat="44.51285" lon="1.34856">
        <ele>279.9</ele>
        <time>2021-10-07T19:10:04Z</time>
      </trkpt>
      <trkpt lat="44.51285" lon="1.34858">
        <ele>279.8</ele>
        <time>2021-10-07T19:10:06Z</time>
      </trkpt>
      <trkpt lat="44.51285" lon="1.34859">
        <ele>279.8</ele>
        <time>2021-10-07T19:10:07Z</time>
      </trkpt>
      <trkpt lat="44.51285" lon="1.3486">
        <ele>279.7</ele>
        <time>2021-10-07T19:10:08Z</time>
      </trkpt>
      <trkpt lat="44.51285" lon="1.34865">
        <ele>279.4</ele>
        <time>2021-10-07T19:10:09Z</time>
      </trkpt>
      <trkpt lat="44.51284" lon="1.3487">
        <ele>279.1</ele>
        <time>2021-10-07T19:10:10Z</time>
      </trkpt>
      <trkpt lat="44.51287" lon="1.34875">
        <ele>278.8</ele>
        <time>2021-10-07T19:10:12Z</time>
      </trkpt>
      <trkpt lat="44.51288" lon="1.34876">
        <ele>278.7</ele>
        <time>2021-10-07T19:10:13Z</time>
      </trkpt>
      <trkpt lat="44.51289" lon="1.34878">
        <ele>278.5</ele>
        <time>2021-10-07T19:10:15Z</time>
      </trkpt>
      <trkpt lat="44.5129" lon="1.3488">
        <ele>278.3</ele>
        <time>2021-10-07T19:10:16Z</time>
      </trkpt>
      <trkpt lat="44.5129" lon="1.3488">
        <ele>278.3</ele>
        <time>2021-10-07T19:10:17Z</time>
      </trkpt>
      <trkpt lat="44.5129" lon="1.34884">
        <ele>278.1</ele>
        <time>2021-10-07T19:10:19Z</time>
      </trkpt>
      <trkpt lat="44.51289" lon="1.34888">
        <ele>277.8</ele>
        <time>2021-10-07T19:10:20Z</time>
      </trkpt>
      <trkpt lat="44.51288" lon="1.3489">
        <ele>277.7</ele>
        <time>2021-10-07T19:10:21Z</time>
      </trkpt>
      <trkpt lat="44.51286" lon="1.34895">
        <ele>277.4</ele>
        <time>2021-10-07T19:10:23Z</time>
      </trkpt>
      <trkpt lat="44.51285" lon="1.34901">
        <ele>277</ele>
        <time>2021-10-07T19:10:24Z</time>
      </trkpt>
      <trkpt lat="44.51284" lon="1.34908">
        <ele>276.6</ele>
        <time>2021-10-07T19:10:26Z</time>
      </trkpt>
      <trkpt lat="44.51286" lon="1.34913">
        <ele>276.4</ele>
        <time>2021-10-07T19:10:27Z</time>
      </trkpt>
      <trkpt lat="44.51286" lon="1.34914">
        <ele>276.3</ele>
        <time>2021-10-07T19:10:28Z</time>
      </trkpt>
      <trkpt lat="44.51286" lon="1.34919">
        <ele>276</ele>
        <time>2021-10-07T19:10:30Z</time>
      </trkpt>
      <trkpt lat="44.51287" lon="1.34923">
        <ele>275.7</ele>
        <time>2021-10-07T19:10:31Z</time>
      </trkpt>
      <trkpt lat="44.51288" lon="1.34927">
        <ele>275.5</ele>
        <time>2021-10-07T19:10:33Z</time>
      </trkpt>
      <trkpt lat="44.51289" lon="1.34928">
        <ele>275.4</ele>
        <time>2021-10-07T19:10:34Z</time>
      </trkpt>
      <trkpt lat="44.51289" lon="1.34932">
        <ele>275.2</ele>
        <time>2021-10-07T19:10:36Z</time>
      </trkpt>
      <trkpt lat="44.51288" lon="1.34936">
        <ele>274.9</ele>
        <time>2021-10-07T19:10:37Z</time>
      </trkpt>
      <trkpt lat="44.51286" lon="1.34944">
        <ele>274.4</ele>
        <time>2021-10-07T19:10:39Z</time>
      </trkpt>
      <trkpt lat="44.51286" lon="1.34952">
        <ele>273.9</ele>
        <time>2021-10-07T19:10:40Z</time>
      </trkpt>
      <trkpt lat="44.51286" lon="1.3496">
        <ele>273.5</ele>
        <time>2021-10-07T19:10:41Z</time>
      </trkpt>
      <trkpt lat="44.51287" lon="1.34967">
        <ele>273</ele>
        <time>2021-10-07T19:10:42Z</time>
      </trkpt>
      <trkpt lat="44.51288" lon="1.34976">
        <ele>272.5</ele>
        <time>2021-10-07T19:10:44Z</time>
      </trkpt>
      <trkpt lat="44.51289" lon="1.34986">
        <ele>271.9</ele>
        <time>2021-10-07T19:10:45Z</time>
      </trkpt>
      <trkpt lat="44.5129" lon="1.34992">
        <ele>271.6</ele>
        <time>2021-10-07T19:10:47Z</time>
      </trkpt>
      <trkpt lat="44.51293" lon="1.35">
        <ele>271.1</ele>
        <time>2021-10-07T19:10:48Z</time>
      </trkpt>
      <trkpt lat="44.51293" lon="1.35008">
        <ele>270.7</ele>
        <time>2021-10-07T19:10:50Z</time>
      </trkpt>
      <trkpt lat="44.51294" lon="1.3502">
        <ele>269.9</ele>
        <time>2021-10-07T19:10:51Z</time>
      </trkpt>
      <trkpt lat="44.51297" lon="1.35035">
        <ele>269</ele>
        <time>2021-10-07T19:10:53Z</time>
      </trkpt>
      <trkpt lat="44.51297" lon="1.35043">
        <ele>268.6</ele>
        <time>2021-10-07T19:10:54Z</time>
      </trkpt>
      <trkpt lat="44.51298" lon="1.3505">
        <ele>268.1</ele>
        <time>2021-10-07T19:10:56Z</time>
      </trkpt>
      <trkpt lat="44.51303" lon="1.35056">
        <ele>267.6</ele>
        <time>2021-10-07T19:10:58Z</time>
      </trkpt>
      <trkpt lat="44.51303" lon="1.35064">
        <ele>267.2</ele>
        <time>2021-10-07T19:10:59Z</time>
      </trkpt>
      <trkpt lat="44.51303" lon="1.3507">
        <ele>266.9</ele>
        <time>2021-10-07T19:11:00Z</time>
      </trkpt>
      <trkpt lat="44.51309" lon="1.3508">
        <ele>266.2</ele>
        <time>2021-10-07T19:11:02Z</time>
      </trkpt>
      <trkpt lat="44.51312" lon="1.35085">
        <ele>265.9</ele>
        <time>2021-10-07T19:11:04Z</time>
      </trkpt>
      <trkpt lat="44.51312" lon="1.35089">
        <ele>265.7</ele>
        <time>2021-10-07T19:11:05Z</time>
      </trkpt>
      <trkpt lat="44.51313" lon="1.35095">
        <ele>265.5</ele>
        <time>2021-10-07T19:11:06Z</time>
      </trkpt>
      <trkpt lat="44.51315" lon="1.35102">
        <ele>265.1</ele>
        <time>2021-10-07T19:11:07Z</time>
      </trkpt>
      <trkpt lat="44.51315" lon="1.35109">
        <ele>264.8</ele>
        <time>2021-10-07T19:11:08Z</time>
      </trkpt>
      <trkpt lat="44.51315" lon="1.35124">
        <ele>264.2</ele>
        <time>2021-10-07T19:11:10Z</time>
      </trkpt>
      <trkpt lat="44.51313" lon="1.35139">
        <ele>263.5</ele>
        <time>2021-10-07T19:11:12Z</time>
      </trkpt>
      <trkpt lat="44.51312" lon="1.35145">
        <ele>263.3</ele>
        <time>2021-10-07T19:11:14Z</time>
      </trkpt>
      <trkpt lat="44.51312" lon="1.35147">
        <ele>263.2</ele>
        <time>2021-10-07T19:11:15Z</time>
      </trkpt>
      <trkpt lat="44.51312" lon="1.35149">
        <ele>263.1</ele>
        <time>2021-10-07T19:11:16Z</time>
      </trkpt>
      <trkpt lat="44.51313" lon="1.35156">
        <ele>262.8</ele>
        <time>2021-10-07T19:11:18Z</time>
      </trkpt>
      <trkpt lat="44.51314" lon="1.35165">
        <ele>262.5</ele>
        <time>2021-10-07T19:11:20Z</time>
      </trkpt>
      <trkpt lat="44.51315" lon="1.35174">
        <ele>262.1</ele>
        <time>2021-10-07T19:11:21Z</time>
      </trkpt>
      <trkpt lat="44.51316" lon="1.3518">
        <ele>261.9</ele>
        <time>2021-10-07T19:11:22Z</time>
      </trkpt>
      <trkpt lat="44.51316" lon="1.35191">
        <ele>261.5</ele>
        <time>2021-10-07T19:11:24Z</time>
      </trkpt>
      <trkpt lat="44.51316" lon="1.35201">
        <ele>261.2</ele>
        <time>2021-10-07T19:11:25Z</time>
      </trkpt>
      <trkpt lat="44.51316" lon="1.35216">
        <ele>260.8</ele>
        <time>2021-10-07T19:11:27Z</time>
      </trkpt>
      <trkpt lat="44.51316" lon="1.35224">
        <ele>260.6</ele>
        <time>2021-10-07T19:11:28Z</time>
      </trkpt>
      <trkpt lat="44.51316" lon="1.35241">
        <ele>260.2</ele>
        <time>2021-10-07T19:11:30Z</time>
      </trkpt>
      <trkpt lat="44.51315" lon="1.3526">
        <ele>259.8</ele>
        <time>2021-10-07T19:11:32Z</time>
      </trkpt>
      <trkpt lat="44.51316" lon="1.35277">
        <ele>259.5</ele>
        <time>2021-10-07T19:11:34Z</time>
      </trkpt>
      <trkpt lat="44.51316" lon="1.35284">
        <ele>259.3</ele>
        <time>2021-10-07T19:11:35Z</time>
      </trkpt>
      <trkpt lat="44.51314" lon="1.35295">
        <ele>259.2</ele>
        <time>2021-10-07T19:11:37Z</time>
      </trkpt>
      <trkpt lat="44.51309" lon="1.3531">
        <ele>259.1</ele>
        <time>2021-10-07T19:11:39Z</time>
      </trkpt>
      <trkpt lat="44.51307" lon="1.35325">
        <ele>258.9</ele>
        <time>2021-10-07T19:11:41Z</time>
      </trkpt>
      <trkpt lat="44.51307" lon="1.35332">
        <ele>258.8</ele>
        <time>2021-10-07T19:11:42Z</time>
      </trkpt>
      <trkpt lat="44.51309" lon="1.35338">
        <ele>258.7</ele>
        <time>2021-10-07T19:11:44Z</time>
      </trkpt>
      <trkpt lat="44.51311" lon="1.35345">
        <ele>258.6</ele>
        <time>2021-10-07T19:11:45Z</time>
      </trkpt>
      <trkpt lat="44.51314" lon="1.3535">
        <ele>258.5</ele>
        <time>2021-10-07T19:11:46Z</time>
      </trkpt>
      <trkpt lat="44.51317" lon="1.35355">
        <ele>258.3</ele>
        <time>2021-10-07T19:11:47Z</time>
      </trkpt>
      <trkpt lat="44.5132" lon="1.3536">
        <ele>258.1</ele>
        <time>2021-10-07T19:11:48Z</time>
      </trkpt>
      <trkpt lat="44.51323" lon="1.35364">
        <ele>258</ele>
        <time>2021-10-07T19:11:49Z</time>
      </trkpt>
      <trkpt lat="44.51326" lon="1.35367">
        <ele>257.8</ele>
        <time>2021-10-07T19:11:51Z</time>
      </trkpt>
      <trkpt lat="44.51328" lon="1.35369">
        <ele>257.6</ele>
        <time>2021-10-07T19:11:52Z</time>
      </trkpt>
      <trkpt lat="44.51332" lon="1.35371">
        <ele>258.2</ele>
        <time>2021-10-07T19:11:54Z</time>
      </trkpt>
      <trkpt lat="44.51337" lon="1.35371">
        <ele>258.8</ele>
        <time>2021-10-07T19:11:55Z</time>
      </trkpt>
      <trkpt lat="44.51335" lon="1.3537">
        <ele>258.8</ele>
        <time>2021-10-07T19:11:56Z</time>
      </trkpt>
      <trkpt lat="44.51332" lon="1.3537">
        <ele>258.2</ele>
        <time>2021-10-07T19:11:58Z</time>
      </trkpt>
      <trkpt lat="44.51332" lon="1.3537">
        <ele>258.2</ele>
        <time>2021-10-07T19:12:00Z</time>
      </trkpt>
      <trkpt lat="44.51332" lon="1.3537">
        <ele>258.2</ele>
        <time>2021-10-07T19:12:01Z</time>
      </trkpt>
      <trkpt lat="44.51332" lon="1.35369">
        <ele>258.2</ele>
        <time>2021-10-07T19:12:03Z</time>
      </trkpt>
      <trkpt lat="44.51332" lon="1.3537">
        <ele>258.1</ele>
        <time>2021-10-07T19:12:05Z</time>
      </trkpt>
      <trkpt lat="44.51337" lon="1.35374">
        <ele>259.1</ele>
        <time>2021-10-07T19:13:23Z</time>
      </trkpt>
      <trkpt lat="44.51344" lon="1.35384">
        <ele>259.6</ele>
        <time>2021-10-07T19:13:25Z</time>
      </trkpt>
      <trkpt lat="44.51346" lon="1.35389">
        <ele>259.3</ele>
        <time>2021-10-07T19:13:26Z</time>
      </trkpt>
      <trkpt lat="44.51352" lon="1.35405">
        <ele>258.9</ele>
        <time>2021-10-07T19:13:28Z</time>
      </trkpt>
      <trkpt lat="44.51359" lon="1.35416">
        <ele>259</ele>
        <time>2021-10-07T19:13:30Z</time>
      </trkpt>
      <trkpt lat="44.51367" lon="1.35426">
        <ele>259</ele>
        <time>2021-10-07T19:13:32Z</time>
      </trkpt>
      <trkpt lat="44.51369" lon="1.35432">
        <ele>258.8</ele>
        <time>2021-10-07T19:13:34Z</time>
      </trkpt>
      <trkpt lat="44.51368" lon="1.35443">
        <ele>258.5</ele>
        <time>2021-10-07T19:13:35Z</time>
      </trkpt>
      <trkpt lat="44.51369" lon="1.35446">
        <ele>258.4</ele>
        <time>2021-10-07T19:13:36Z</time>
      </trkpt>
      <trkpt lat="44.51368" lon="1.35457">
        <ele>258.2</ele>
        <time>2021-10-07T19:13:38Z</time>
      </trkpt>
      <trkpt lat="44.51365" lon="1.3547">
        <ele>258</ele>
        <time>2021-10-07T19:13:39Z</time>
      </trkpt>
      <trkpt lat="44.51365" lon="1.35475">
        <ele>258</ele>
        <time>2021-10-07T19:13:41Z</time>
      </trkpt>
      <trkpt lat="44.51364" lon="1.35483">
        <ele>257.8</ele>
        <time>2021-10-07T19:13:42Z</time>
      </trkpt>
      <trkpt lat="44.51362" lon="1.35488">
        <ele>257.8</ele>
        <time>2021-10-07T19:13:43Z</time>
      </trkpt>
      <trkpt lat="44.51361" lon="1.35492">
        <ele>257.6</ele>
        <time>2021-10-07T19:13:44Z</time>
      </trkpt>
      <trkpt lat="44.5136" lon="1.35498">
        <ele>257.7</ele>
        <time>2021-10-07T19:13:45Z</time>
      </trkpt>
      <trkpt lat="44.51357" lon="1.35504">
        <ele>257.6</ele>
        <time>2021-10-07T19:13:47Z</time>
      </trkpt>
      <trkpt lat="44.51355" lon="1.3551">
        <ele>257.7</ele>
        <time>2021-10-07T19:13:49Z</time>
      </trkpt>
      <trkpt lat="44.51353" lon="1.35515">
        <ele>257.7</ele>
        <time>2021-10-07T19:13:50Z</time>
      </trkpt>
      <trkpt lat="44.51351" lon="1.35524">
        <ele>257.8</ele>
        <time>2021-10-07T19:13:52Z</time>
      </trkpt>
      <trkpt lat="44.51347" lon="1.3553">
        <ele>257.8</ele>
        <time>2021-10-07T19:13:54Z</time>
      </trkpt>
      <trkpt lat="44.51342" lon="1.35533">
        <ele>257.7</ele>
        <time>2021-10-07T19:13:55Z</time>
      </trkpt>
      <trkpt lat="44.51338" lon="1.35535">
        <ele>257.6</ele>
        <time>2021-10-07T19:13:56Z</time>
      </trkpt>
      <trkpt lat="44.51334" lon="1.35538">
        <ele>257.5</ele>
        <time>2021-10-07T19:13:57Z</time>
      </trkpt>
      <trkpt lat="44.51327" lon="1.35543">
        <ele>257.4</ele>
        <time>2021-10-07T19:13:59Z</time>
      </trkpt>
      <trkpt lat="44.51323" lon="1.35548">
        <ele>257.4</ele>
        <time>2021-10-07T19:14:00Z</time>
      </trkpt>
      <trkpt lat="44.51319" lon="1.35555">
        <ele>257.6</ele>
        <time>2021-10-07T19:14:02Z</time>
      </trkpt>
      <trkpt lat="44.51316" lon="1.35563">
        <ele>257.7</ele>
        <time>2021-10-07T19:14:03Z</time>
      </trkpt>
      <trkpt lat="44.51316" lon="1.35571">
        <ele>257.8</ele>
        <time>2021-10-07T19:14:04Z</time>
      </trkpt>
      <trkpt lat="44.51316" lon="1.35577">
        <ele>257.9</ele>
        <time>2021-10-07T19:14:05Z</time>
      </trkpt>
      <trkpt lat="44.51318" lon="1.35582">
        <ele>257.9</ele>
        <time>2021-10-07T19:14:06Z</time>
      </trkpt>
      <trkpt lat="44.51319" lon="1.35588">
        <ele>257.9</ele>
        <time>2021-10-07T19:14:08Z</time>
      </trkpt>
      <trkpt lat="44.5132" lon="1.35593">
        <ele>257.9</ele>
        <time>2021-10-07T19:14:09Z</time>
      </trkpt>
      <trkpt lat="44.51321" lon="1.35596">
        <ele>257.9</ele>
        <time>2021-10-07T19:14:10Z</time>
      </trkpt>
      <trkpt lat="44.51324" lon="1.35598">
        <ele>258</ele>
        <time>2021-10-07T19:14:12Z</time>
      </trkpt>
      <trkpt lat="44.51325" lon="1.356">
        <ele>258.1</ele>
        <time>2021-10-07T19:14:13Z</time>
      </trkpt>
      <trkpt lat="44.51327" lon="1.35601">
        <ele>258.1</ele>
        <time>2021-10-07T19:14:15Z</time>
      </trkpt>
      <trkpt lat="44.51329" lon="1.35602">
        <ele>258.2</ele>
        <time>2021-10-07T19:14:16Z</time>
      </trkpt>
      <trkpt lat="44.5133" lon="1.35603">
        <ele>258.2</ele>
        <time>2021-10-07T19:14:17Z</time>
      </trkpt>
      <trkpt lat="44.5133" lon="1.35604">
        <ele>258.2</ele>
        <time>2021-10-07T19:14:18Z</time>
      </trkpt>
      <trkpt lat="44.51331" lon="1.35605">
        <ele>258.1</ele>
        <time>2021-10-07T19:14:19Z</time>
      </trkpt>
      <trkpt lat="44.5133" lon="1.35607">
        <ele>258.1</ele>
        <time>2021-10-07T19:14:21Z</time>
      </trkpt>
      <trkpt lat="44.5133" lon="1.35612">
        <ele>258.1</ele>
        <time>2021-10-07T19:14:22Z</time>
      </trkpt>
      <trkpt lat="44.5133" lon="1.35617">
        <ele>258.1</ele>
        <time>2021-10-07T19:14:24Z</time>
      </trkpt>
      <trkpt lat="44.5133" lon="1.35621">
        <ele>258.1</ele>
        <time>2021-10-07T19:14:25Z</time>
      </trkpt>
      <trkpt lat="44.5133" lon="1.35624">
        <ele>258.1</ele>
        <time>2021-10-07T19:14:27Z</time>
      </trkpt>
      <trkpt lat="44.5133" lon="1.35629">
        <ele>258.1</ele>
        <time>2021-10-07T19:14:28Z</time>
      </trkpt>
      <trkpt lat="44.51329" lon="1.35636">
        <ele>258.1</ele>
        <time>2021-10-07T19:14:30Z</time>
      </trkpt>
      <trkpt lat="44.51328" lon="1.35639">
        <ele>258.2</ele>
        <time>2021-10-07T19:14:31Z</time>
      </trkpt>
      <trkpt lat="44.51328" lon="1.35641">
        <ele>258</ele>
        <time>2021-10-07T19:14:32Z</time>
      </trkpt>
      <trkpt lat="44.51326" lon="1.35645">
        <ele>258.1</ele>
        <time>2021-10-07T19:14:33Z</time>
      </trkpt>
      <trkpt lat="44.51324" lon="1.35648">
        <ele>257.9</ele>
        <time>2021-10-07T19:14:34Z</time>
      </trkpt>
      <trkpt lat="44.51321" lon="1.35655">
        <ele>257.7</ele>
        <time>2021-10-07T19:14:36Z</time>
      </trkpt>
      <trkpt lat="44.51319" lon="1.35661">
        <ele>257.3</ele>
        <time>2021-10-07T19:14:37Z</time>
      </trkpt>
      <trkpt lat="44.51317" lon="1.35668">
        <ele>257.1</ele>
        <time>2021-10-07T19:14:39Z</time>
      </trkpt>
      <trkpt lat="44.51315" lon="1.35675">
        <ele>256.5</ele>
        <time>2021-10-07T19:14:40Z</time>
      </trkpt>
      <trkpt lat="44.51312" lon="1.35689">
        <ele>255.6</ele>
        <time>2021-10-07T19:14:42Z</time>
      </trkpt>
      <trkpt lat="44.51312" lon="1.35696">
        <ele>255.2</ele>
        <time>2021-10-07T19:14:43Z</time>
      </trkpt>
      <trkpt lat="44.51311" lon="1.3571">
        <ele>254.6</ele>
        <time>2021-10-07T19:14:45Z</time>
      </trkpt>
      <trkpt lat="44.51311" lon="1.35725">
        <ele>253.9</ele>
        <time>2021-10-07T19:14:47Z</time>
      </trkpt>
      <trkpt lat="44.51309" lon="1.35739">
        <ele>252.9</ele>
        <time>2021-10-07T19:14:49Z</time>
      </trkpt>
      <trkpt lat="44.51308" lon="1.35754">
        <ele>252.4</ele>
        <time>2021-10-07T19:14:51Z</time>
      </trkpt>
      <trkpt lat="44.51305" lon="1.35768">
        <ele>251</ele>
        <time>2021-10-07T19:14:53Z</time>
      </trkpt>
      <trkpt lat="44.51302" lon="1.35784">
        <ele>249.6</ele>
        <time>2021-10-07T19:14:55Z</time>
      </trkpt>
      <trkpt lat="44.51301" lon="1.35793">
        <ele>249.3</ele>
        <time>2021-10-07T19:14:56Z</time>
      </trkpt>
      <trkpt lat="44.51303" lon="1.35809">
        <ele>248.4</ele>
        <time>2021-10-07T19:14:58Z</time>
      </trkpt>
      <trkpt lat="44.51303" lon="1.35826">
        <ele>247.7</ele>
        <time>2021-10-07T19:15:00Z</time>
      </trkpt>
      <trkpt lat="44.51303" lon="1.35843">
        <ele>247</ele>
        <time>2021-10-07T19:15:02Z</time>
      </trkpt>
      <trkpt lat="44.51302" lon="1.3586">
        <ele>246.2</ele>
        <time>2021-10-07T19:15:04Z</time>
      </trkpt>
      <trkpt lat="44.513" lon="1.35876">
        <ele>244.9</ele>
        <time>2021-10-07T19:15:06Z</time>
      </trkpt>
      <trkpt lat="44.51298" lon="1.35893">
        <ele>244</ele>
        <time>2021-10-07T19:15:08Z</time>
      </trkpt>
      <trkpt lat="44.51299" lon="1.35901">
        <ele>243.5</ele>
        <time>2021-10-07T19:15:09Z</time>
      </trkpt>
      <trkpt lat="44.51299" lon="1.35908">
        <ele>243.2</ele>
        <time>2021-10-07T19:15:10Z</time>
      </trkpt>
      <trkpt lat="44.51298" lon="1.35924">
        <ele>242.1</ele>
        <time>2021-10-07T19:15:12Z</time>
      </trkpt>
      <trkpt lat="44.51298" lon="1.35932">
        <ele>241.4</ele>
        <time>2021-10-07T19:15:13Z</time>
      </trkpt>
      <trkpt lat="44.51302" lon="1.35946">
        <ele>240.7</ele>
        <time>2021-10-07T19:15:15Z</time>
      </trkpt>
      <trkpt lat="44.51305" lon="1.35953">
        <ele>240.4</ele>
        <time>2021-10-07T19:15:16Z</time>
      </trkpt>
      <trkpt lat="44.51314" lon="1.3596">
        <ele>240.7</ele>
        <time>2021-10-07T19:15:18Z</time>
      </trkpt>
      <trkpt lat="44.51321" lon="1.3597">
        <ele>240.2</ele>
        <time>2021-10-07T19:15:20Z</time>
      </trkpt>
      <trkpt lat="44.51324" lon="1.35981">
        <ele>239.7</ele>
        <time>2021-10-07T19:15:22Z</time>
      </trkpt>
      <trkpt lat="44.51325" lon="1.35985">
        <ele>239.7</ele>
        <time>2021-10-07T19:15:23Z</time>
      </trkpt>
      <trkpt lat="44.51331" lon="1.35989">
        <ele>239.9</ele>
        <time>2021-10-07T19:15:25Z</time>
      </trkpt>
      <trkpt lat="44.51336" lon="1.35995">
        <ele>239.6</ele>
        <time>2021-10-07T19:15:27Z</time>
      </trkpt>
      <trkpt lat="44.5134" lon="1.35999">
        <ele>239.6</ele>
        <time>2021-10-07T19:15:28Z</time>
      </trkpt>
      <trkpt lat="44.51343" lon="1.36011">
        <ele>239.7</ele>
        <time>2021-10-07T19:15:30Z</time>
      </trkpt>
      <trkpt lat="44.51345" lon="1.36018">
        <ele>239.2</ele>
        <time>2021-10-07T19:15:31Z</time>
      </trkpt>
      <trkpt lat="44.51347" lon="1.36025">
        <ele>239</ele>
        <time>2021-10-07T19:15:32Z</time>
      </trkpt>
      <trkpt lat="44.51349" lon="1.36033">
        <ele>238.8</ele>
        <time>2021-10-07T19:15:33Z</time>
      </trkpt>
      <trkpt lat="44.51355" lon="1.36047">
        <ele>238.3</ele>
        <time>2021-10-07T19:15:35Z</time>
      </trkpt>
      <trkpt lat="44.51358" lon="1.36053">
        <ele>238.1</ele>
        <time>2021-10-07T19:15:36Z</time>
      </trkpt>
      <trkpt lat="44.51364" lon="1.36062">
        <ele>237.6</ele>
        <time>2021-10-07T19:15:38Z</time>
      </trkpt>
      <trkpt lat="44.51366" lon="1.36069">
        <ele>237.1</ele>
        <time>2021-10-07T19:15:40Z</time>
      </trkpt>
      <trkpt lat="44.51365" lon="1.36078">
        <ele>236.6</ele>
        <time>2021-10-07T19:15:41Z</time>
      </trkpt>
      <trkpt lat="44.51364" lon="1.36084">
        <ele>236.4</ele>
        <time>2021-10-07T19:15:42Z</time>
      </trkpt>
      <trkpt lat="44.51363" lon="1.36089">
        <ele>236.1</ele>
        <time>2021-10-07T19:15:43Z</time>
      </trkpt>
      <trkpt lat="44.5136" lon="1.36095">
        <ele>236</ele>
        <time>2021-10-07T19:15:45Z</time>
      </trkpt>
      <trkpt lat="44.51358" lon="1.36101">
        <ele>236</ele>
        <time>2021-10-07T19:15:47Z</time>
      </trkpt>
      <trkpt lat="44.51357" lon="1.36104">
        <ele>235.9</ele>
        <time>2021-10-07T19:15:48Z</time>
      </trkpt>
      <trkpt lat="44.51355" lon="1.36106">
        <ele>235.9</ele>
        <time>2021-10-07T19:15:49Z</time>
      </trkpt>
      <trkpt lat="44.51351" lon="1.36113">
        <ele>235.8</ele>
        <time>2021-10-07T19:15:51Z</time>
      </trkpt>
      <trkpt lat="44.5135" lon="1.36118">
        <ele>235.7</ele>
        <time>2021-10-07T19:15:52Z</time>
      </trkpt>
      <trkpt lat="44.5135" lon="1.36125">
        <ele>235.7</ele>
        <time>2021-10-07T19:15:54Z</time>
      </trkpt>
      <trkpt lat="44.51352" lon="1.36131">
        <ele>235.7</ele>
        <time>2021-10-07T19:15:55Z</time>
      </trkpt>
      <trkpt lat="44.51354" lon="1.36138">
        <ele>235.8</ele>
        <time>2021-10-07T19:15:56Z</time>
      </trkpt>
      <trkpt lat="44.51354" lon="1.36143">
        <ele>235.9</ele>
        <time>2021-10-07T19:15:57Z</time>
      </trkpt>
      <trkpt lat="44.51353" lon="1.36147">
        <ele>236</ele>
        <time>2021-10-07T19:15:58Z</time>
      </trkpt>
      <trkpt lat="44.51352" lon="1.36153">
        <ele>236.1</ele>
        <time>2021-10-07T19:15:59Z</time>
      </trkpt>
      <trkpt lat="44.5135" lon="1.36158">
        <ele>236.4</ele>
        <time>2021-10-07T19:16:01Z</time>
      </trkpt>
      <trkpt lat="44.51349" lon="1.36163">
        <ele>236.6</ele>
        <time>2021-10-07T19:16:02Z</time>
      </trkpt>
      <trkpt lat="44.51347" lon="1.36168">
        <ele>236.8</ele>
        <time>2021-10-07T19:16:03Z</time>
      </trkpt>
      <trkpt lat="44.51342" lon="1.36172">
        <ele>236.8</ele>
        <time>2021-10-07T19:16:04Z</time>
      </trkpt>
      <trkpt lat="44.51338" lon="1.36175">
        <ele>236.7</ele>
        <time>2021-10-07T19:16:05Z</time>
      </trkpt>
      <trkpt lat="44.5133" lon="1.36182">
        <ele>236.5</ele>
        <time>2021-10-07T19:16:07Z</time>
      </trkpt>
      <trkpt lat="44.51326" lon="1.36185">
        <ele>236.4</ele>
        <time>2021-10-07T19:16:08Z</time>
      </trkpt>
      <trkpt lat="44.51321" lon="1.36188">
        <ele>236</ele>
        <time>2021-10-07T19:16:09Z</time>
      </trkpt>
      <trkpt lat="44.51311" lon="1.36194">
        <ele>235.3</ele>
        <time>2021-10-07T19:16:11Z</time>
      </trkpt>
      <trkpt lat="44.51308" lon="1.36199">
        <ele>235.1</ele>
        <time>2021-10-07T19:16:12Z</time>
      </trkpt>
      <trkpt lat="44.51306" lon="1.36205">
        <ele>235.1</ele>
        <time>2021-10-07T19:16:14Z</time>
      </trkpt>
      <trkpt lat="44.51306" lon="1.36208">
        <ele>235.1</ele>
        <time>2021-10-07T19:16:15Z</time>
      </trkpt>
      <trkpt lat="44.51306" lon="1.36211">
        <ele>235.3</ele>
        <time>2021-10-07T19:16:16Z</time>
      </trkpt>
      <trkpt lat="44.51306" lon="1.36214">
        <ele>235.5</ele>
        <time>2021-10-07T19:16:18Z</time>
      </trkpt>
      <trkpt lat="44.51305" lon="1.36217">
        <ele>235.5</ele>
        <time>2021-10-07T19:16:19Z</time>
      </trkpt>
      <trkpt lat="44.51304" lon="1.36219">
        <ele>235.7</ele>
        <time>2021-10-07T19:16:20Z</time>
      </trkpt>
      <trkpt lat="44.51303" lon="1.36224">
        <ele>235.5</ele>
        <time>2021-10-07T19:16:22Z</time>
      </trkpt>
      <trkpt lat="44.51302" lon="1.36225">
        <ele>235.5</ele>
        <time>2021-10-07T19:16:23Z</time>
      </trkpt>
      <trkpt lat="44.51301" lon="1.36227">
        <ele>235.6</ele>
        <time>2021-10-07T19:16:24Z</time>
      </trkpt>
      <trkpt lat="44.513" lon="1.36229">
        <ele>235.2</ele>
        <time>2021-10-07T19:16:25Z</time>
      </trkpt>
      <trkpt lat="44.51298" lon="1.36233">
        <ele>235.5</ele>
        <time>2021-10-07T19:16:27Z</time>
      </trkpt>
      <trkpt lat="44.51298" lon="1.36235">
        <ele>235.6</ele>
        <time>2021-10-07T19:16:28Z</time>
      </trkpt>
      <trkpt lat="44.51297" lon="1.36243">
        <ele>235.7</ele>
        <time>2021-10-07T19:16:30Z</time>
      </trkpt>
      <trkpt lat="44.51296" lon="1.36248">
        <ele>235.6</ele>
        <time>2021-10-07T19:16:31Z</time>
      </trkpt>
      <trkpt lat="44.51294" lon="1.36251">
        <ele>235.3</ele>
        <time>2021-10-07T19:16:32Z</time>
      </trkpt>
      <trkpt lat="44.51295" lon="1.36256">
        <ele>235.9</ele>
        <time>2021-10-07T19:16:34Z</time>
      </trkpt>
      <trkpt lat="44.51295" lon="1.36261">
        <ele>236</ele>
        <time>2021-10-07T19:16:35Z</time>
      </trkpt>
      <trkpt lat="44.51294" lon="1.36265">
        <ele>235.9</ele>
        <time>2021-10-07T19:16:36Z</time>
      </trkpt>
      <trkpt lat="44.51294" lon="1.36269">
        <ele>236.2</ele>
        <time>2021-10-07T19:16:37Z</time>
      </trkpt>
      <trkpt lat="44.51294" lon="1.36271">
        <ele>236.4</ele>
        <time>2021-10-07T19:16:38Z</time>
      </trkpt>
      <trkpt lat="44.51294" lon="1.36275">
        <ele>236.4</ele>
        <time>2021-10-07T19:16:40Z</time>
      </trkpt>
      <trkpt lat="44.51294" lon="1.36277">
        <ele>236.4</ele>
        <time>2021-10-07T19:16:41Z</time>
      </trkpt>
      <trkpt lat="44.51293" lon="1.36282">
        <ele>236.6</ele>
        <time>2021-10-07T19:16:42Z</time>
      </trkpt>
      <trkpt lat="44.51292" lon="1.36283">
        <ele>236.9</ele>
        <time>2021-10-07T19:16:43Z</time>
      </trkpt>
      <trkpt lat="44.51291" lon="1.36286">
        <ele>237.2</ele>
        <time>2021-10-07T19:16:44Z</time>
      </trkpt>
      <trkpt lat="44.5129" lon="1.36291">
        <ele>237.1</ele>
        <time>2021-10-07T19:16:46Z</time>
      </trkpt>
      <trkpt lat="44.51289" lon="1.36296">
        <ele>237.3</ele>
        <time>2021-10-07T19:16:47Z</time>
      </trkpt>
      <trkpt lat="44.51289" lon="1.36297">
        <ele>237.3</ele>
        <time>2021-10-07T19:16:48Z</time>
      </trkpt>
      <trkpt lat="44.51288" lon="1.36302">
        <ele>237.4</ele>
        <time>2021-10-07T19:16:49Z</time>
      </trkpt>
      <trkpt lat="44.51288" lon="1.36303">
        <ele>237.1</ele>
        <time>2021-10-07T19:16:50Z</time>
      </trkpt>
      <trkpt lat="44.51286" lon="1.36306">
        <ele>237.3</ele>
        <time>2021-10-07T19:16:51Z</time>
      </trkpt>
      <trkpt lat="44.51285" lon="1.36308">
        <ele>237.3</ele>
        <time>2021-10-07T19:16:52Z</time>
      </trkpt>
      <trkpt lat="44.51284" lon="1.3631">
        <ele>237.1</ele>
        <time>2021-10-07T19:16:53Z</time>
      </trkpt>
      <trkpt lat="44.5128" lon="1.36313">
        <ele>236.9</ele>
        <time>2021-10-07T19:16:55Z</time>
      </trkpt>
      <trkpt lat="44.51278" lon="1.36315">
        <ele>236.6</ele>
        <time>2021-10-07T19:16:56Z</time>
      </trkpt>
      <trkpt lat="44.51273" lon="1.36318">
        <ele>236.4</ele>
        <time>2021-10-07T19:16:58Z</time>
      </trkpt>
      <trkpt lat="44.5127" lon="1.36321">
        <ele>236.3</ele>
        <time>2021-10-07T19:16:59Z</time>
      </trkpt>
      <trkpt lat="44.51267" lon="1.36324">
        <ele>235.9</ele>
        <time>2021-10-07T19:17:00Z</time>
      </trkpt>
      <trkpt lat="44.51264" lon="1.36327">
        <ele>235.9</ele>
        <time>2021-10-07T19:17:01Z</time>
      </trkpt>
      <trkpt lat="44.51262" lon="1.36331">
        <ele>235.9</ele>
        <time>2021-10-07T19:17:02Z</time>
      </trkpt>
      <trkpt lat="44.51259" lon="1.36337">
        <ele>235.8</ele>
        <time>2021-10-07T19:17:04Z</time>
      </trkpt>
      <trkpt lat="44.51255" lon="1.36342">
        <ele>235.7</ele>
        <time>2021-10-07T19:17:06Z</time>
      </trkpt>
      <trkpt lat="44.51251" lon="1.36348">
        <ele>235.5</ele>
        <time>2021-10-07T19:17:07Z</time>
      </trkpt>
      <trkpt lat="44.51249" lon="1.36353">
        <ele>235.8</ele>
        <time>2021-10-07T19:17:08Z</time>
      </trkpt>
      <trkpt lat="44.51248" lon="1.36361">
        <ele>236.2</ele>
        <time>2021-10-07T19:17:10Z</time>
      </trkpt>
      <trkpt lat="44.51249" lon="1.36366">
        <ele>236.4</ele>
        <time>2021-10-07T19:17:11Z</time>
      </trkpt>
      <trkpt lat="44.5125" lon="1.36371">
        <ele>236.6</ele>
        <time>2021-10-07T19:17:12Z</time>
      </trkpt>
      <trkpt lat="44.51251" lon="1.36377">
        <ele>236.9</ele>
        <time>2021-10-07T19:17:14Z</time>
      </trkpt>
      <trkpt lat="44.51251" lon="1.36379">
        <ele>236.8</ele>
        <time>2021-10-07T19:17:15Z</time>
      </trkpt>
      <trkpt lat="44.5125" lon="1.36381">
        <ele>236.9</ele>
        <time>2021-10-07T19:17:16Z</time>
      </trkpt>
      <trkpt lat="44.5125" lon="1.36385">
        <ele>237</ele>
        <time>2021-10-07T19:17:17Z</time>
      </trkpt>
      <trkpt lat="44.51248" lon="1.3639">
        <ele>237</ele>
        <time>2021-10-07T19:17:19Z</time>
      </trkpt>
      <trkpt lat="44.51247" lon="1.36394">
        <ele>237</ele>
        <time>2021-10-07T19:17:20Z</time>
      </trkpt>
      <trkpt lat="44.51247" lon="1.36395">
        <ele>237</ele>
        <time>2021-10-07T19:17:22Z</time>
      </trkpt>
      <trkpt lat="44.51247" lon="1.36394">
        <ele>237</ele>
        <time>2021-10-07T19:17:23Z</time>
      </trkpt>
      <trkpt lat="44.51243" lon="1.36396">
        <ele>236.9</ele>
        <time>2021-10-07T19:17:25Z</time>
      </trkpt>
      <trkpt lat="44.51239" lon="1.36398">
        <ele>236.5</ele>
        <time>2021-10-07T19:17:26Z</time>
      </trkpt>
      <trkpt lat="44.51236" lon="1.364">
        <ele>236.6</ele>
        <time>2021-10-07T19:17:27Z</time>
      </trkpt>
      <trkpt lat="44.51234" lon="1.36403">
        <ele>236.4</ele>
        <time>2021-10-07T19:17:28Z</time>
      </trkpt>
      <trkpt lat="44.51232" lon="1.36409">
        <ele>236.2</ele>
        <time>2021-10-07T19:17:30Z</time>
      </trkpt>
      <trkpt lat="44.51229" lon="1.36411">
        <ele>236</ele>
        <time>2021-10-07T19:17:31Z</time>
      </trkpt>
      <trkpt lat="44.51225" lon="1.36412">
        <ele>235.7</ele>
        <time>2021-10-07T19:17:32Z</time>
      </trkpt>
      <trkpt lat="44.5122" lon="1.36413">
        <ele>235</ele>
        <time>2021-10-07T19:17:34Z</time>
      </trkpt>
      <trkpt lat="44.51216" lon="1.36418">
        <ele>234.6</ele>
        <time>2021-10-07T19:17:35Z</time>
      </trkpt>
      <trkpt lat="44.51214" lon="1.36425">
        <ele>234.5</ele>
        <time>2021-10-07T19:17:36Z</time>
      </trkpt>
      <trkpt lat="44.51214" lon="1.3643">
        <ele>234.6</ele>
        <time>2021-10-07T19:17:37Z</time>
      </trkpt>
      <trkpt lat="44.51214" lon="1.36432">
        <ele>234.6</ele>
        <time>2021-10-07T19:17:38Z</time>
      </trkpt>
      <trkpt lat="44.51213" lon="1.36436">
        <ele>234.6</ele>
        <time>2021-10-07T19:17:40Z</time>
      </trkpt>
      <trkpt lat="44.51211" lon="1.36437">
        <ele>234.4</ele>
        <time>2021-10-07T19:17:41Z</time>
      </trkpt>
      <trkpt lat="44.51209" lon="1.36438">
        <ele>234.4</ele>
        <time>2021-10-07T19:17:42Z</time>
      </trkpt>
      <trkpt lat="44.51207" lon="1.36438">
        <ele>234.2</ele>
        <time>2021-10-07T19:17:44Z</time>
      </trkpt>
      <trkpt lat="44.51206" lon="1.36438">
        <ele>234.2</ele>
        <time>2021-10-07T19:17:46Z</time>
      </trkpt>
      <trkpt lat="44.51206" lon="1.36438">
        <ele>234.2</ele>
        <time>2021-10-07T19:17:47Z</time>
      </trkpt>
      <trkpt lat="44.51205" lon="1.36438">
        <ele>234</ele>
        <time>2021-10-07T19:17:49Z</time>
      </trkpt>
      <trkpt lat="44.51204" lon="1.36438">
        <ele>234</ele>
        <time>2021-10-07T19:17:51Z</time>
      </trkpt>
      <trkpt lat="44.51203" lon="1.36438">
        <ele>234</ele>
        <time>2021-10-07T19:17:52Z</time>
      </trkpt>
      <trkpt lat="44.51203" lon="1.36438">
        <ele>234</ele>
        <time>2021-10-07T19:18:01Z</time>
      </trkpt>
      <trkpt lat="44.51202" lon="1.36438">
        <ele>233.8</ele>
        <time>2021-10-07T19:18:02Z</time>
      </trkpt>
      <trkpt lat="44.51201" lon="1.36438">
        <ele>233.8</ele>
        <time>2021-10-07T19:18:03Z</time>
      </trkpt>
      <trkpt lat="44.51198" lon="1.36437">
        <ele>233.5</ele>
        <time>2021-10-07T19:18:04Z</time>
      </trkpt>
      <trkpt lat="44.51192" lon="1.36431">
        <ele>232.8</ele>
        <time>2021-10-07T19:18:06Z</time>
      </trkpt>
      <trkpt lat="44.51189" lon="1.36429">
        <ele>232.5</ele>
        <time>2021-10-07T19:18:07Z</time>
      </trkpt>
      <trkpt lat="44.51185" lon="1.36426">
        <ele>232</ele>
        <time>2021-10-07T19:18:08Z</time>
      </trkpt>
      <trkpt lat="44.51182" lon="1.36422">
        <ele>231.3</ele>
        <time>2021-10-07T19:18:09Z</time>
      </trkpt>
      <trkpt lat="44.51178" lon="1.3642">
        <ele>230.9</ele>
        <time>2021-10-07T19:18:11Z</time>
      </trkpt>
      <trkpt lat="44.5117" lon="1.36415">
        <ele>228.5</ele>
        <time>2021-10-07T19:18:12Z</time>
      </trkpt>
      <trkpt lat="44.51164" lon="1.36409">
        <ele>226.8</ele>
        <time>2021-10-07T19:18:14Z</time>
      </trkpt>
      <trkpt lat="44.51161" lon="1.36407">
        <ele>226.2</ele>
        <time>2021-10-07T19:18:15Z</time>
      </trkpt>
      <trkpt lat="44.51155" lon="1.36409">
        <ele>225.1</ele>
        <time>2021-10-07T19:18:17Z</time>
      </trkpt>
      <trkpt lat="44.5115" lon="1.3641">
        <ele>224</ele>
        <time>2021-10-07T19:18:18Z</time>
      </trkpt>
      <trkpt lat="44.51147" lon="1.36408">
        <ele>223.5</ele>
        <time>2021-10-07T19:18:19Z</time>
      </trkpt>
      <trkpt lat="44.51146" lon="1.36404">
        <ele>223</ele>
        <time>2021-10-07T19:18:21Z</time>
      </trkpt>
      <trkpt lat="44.51146" lon="1.364">
        <ele>222.5</ele>
        <time>2021-10-07T19:18:22Z</time>
      </trkpt>
      <trkpt lat="44.51147" lon="1.36397">
        <ele>222</ele>
        <time>2021-10-07T19:18:23Z</time>
      </trkpt>
      <trkpt lat="44.51143" lon="1.36396">
        <ele>221.4</ele>
        <time>2021-10-07T19:18:25Z</time>
      </trkpt>
      <trkpt lat="44.51141" lon="1.36397">
        <ele>220.9</ele>
        <time>2021-10-07T19:18:26Z</time>
      </trkpt>
      <trkpt lat="44.51138" lon="1.36399">
        <ele>221.4</ele>
        <time>2021-10-07T19:18:28Z</time>
      </trkpt>
      <trkpt lat="44.51137" lon="1.36399">
        <ele>220.9</ele>
        <time>2021-10-07T19:18:29Z</time>
      </trkpt>
      <trkpt lat="44.51136" lon="1.36399">
        <ele>220.8</ele>
        <time>2021-10-07T19:18:30Z</time>
      </trkpt>
      <trkpt lat="44.51136" lon="1.36399">
        <ele>220.8</ele>
        <time>2021-10-07T19:18:32Z</time>
      </trkpt>
      <trkpt lat="44.51135" lon="1.36399">
        <ele>220.8</ele>
        <time>2021-10-07T19:18:33Z</time>
      </trkpt>
      <trkpt lat="44.51133" lon="1.364">
        <ele>220.3</ele>
        <time>2021-10-07T19:18:35Z</time>
      </trkpt>
      <trkpt lat="44.51132" lon="1.36401">
        <ele>220.3</ele>
        <time>2021-10-07T19:18:36Z</time>
      </trkpt>
      <trkpt lat="44.51129" lon="1.36403">
        <ele>220.4</ele>
        <time>2021-10-07T19:18:38Z</time>
      </trkpt>
      <trkpt lat="44.51125" lon="1.36403">
        <ele>219.5</ele>
        <time>2021-10-07T19:18:40Z</time>
      </trkpt>
      <trkpt lat="44.51123" lon="1.36403">
        <ele>219.5</ele>
        <time>2021-10-07T19:18:41Z</time>
      </trkpt>
      <trkpt lat="44.5112" lon="1.36403">
        <ele>218.6</ele>
        <time>2021-10-07T19:18:43Z</time>
      </trkpt>
      <trkpt lat="44.51116" lon="1.36404">
        <ele>218.1</ele>
        <time>2021-10-07T19:18:44Z</time>
      </trkpt>
      <trkpt lat="44.51114" lon="1.36404">
        <ele>218.1</ele>
        <time>2021-10-07T19:18:45Z</time>
      </trkpt>
      <trkpt lat="44.5111" lon="1.36403">
        <ele>217.2</ele>
        <time>2021-10-07T19:18:47Z</time>
      </trkpt>
      <trkpt lat="44.51107" lon="1.36404">
        <ele>216.7</ele>
        <time>2021-10-07T19:18:48Z</time>
      </trkpt>
      <trkpt lat="44.51102" lon="1.36405">
        <ele>216.2</ele>
        <time>2021-10-07T19:18:49Z</time>
      </trkpt>
      <trkpt lat="44.51093" lon="1.36405">
        <ele>214.9</ele>
        <time>2021-10-07T19:18:51Z</time>
      </trkpt>
      <trkpt lat="44.51085" lon="1.36404">
        <ele>213.4</ele>
        <time>2021-10-07T19:18:52Z</time>
      </trkpt>
      <trkpt lat="44.51077" lon="1.36404">
        <ele>212.4</ele>
        <time>2021-10-07T19:18:54Z</time>
      </trkpt>
      <trkpt lat="44.5107" lon="1.36403">
        <ele>211.2</ele>
        <time>2021-10-07T19:18:55Z</time>
      </trkpt>
      <trkpt lat="44.51065" lon="1.36404">
        <ele>210.9</ele>
        <time>2021-10-07T19:18:56Z</time>
      </trkpt>
      <trkpt lat="44.5106" lon="1.36405">
        <ele>210.2</ele>
        <time>2021-10-07T19:18:57Z</time>
      </trkpt>
      <trkpt lat="44.51049" lon="1.36404">
        <ele>209.2</ele>
        <time>2021-10-07T19:18:59Z</time>
      </trkpt>
      <trkpt lat="44.51045" lon="1.36402">
        <ele>208.7</ele>
        <time>2021-10-07T19:19:00Z</time>
      </trkpt>
      <trkpt lat="44.51042" lon="1.36401">
        <ele>208</ele>
        <time>2021-10-07T19:19:01Z</time>
      </trkpt>
      <trkpt lat="44.51039" lon="1.364">
        <ele>207.8</ele>
        <time>2021-10-07T19:19:02Z</time>
      </trkpt>
      <trkpt lat="44.51035" lon="1.36397">
        <ele>207.1</ele>
        <time>2021-10-07T19:19:04Z</time>
      </trkpt>
      <trkpt lat="44.51031" lon="1.36395">
        <ele>206.9</ele>
        <time>2021-10-07T19:19:05Z</time>
      </trkpt>
      <trkpt lat="44.51025" lon="1.36394">
        <ele>206.1</ele>
        <time>2021-10-07T19:19:06Z</time>
      </trkpt>
      <trkpt lat="44.51019" lon="1.36394">
        <ele>205.8</ele>
        <time>2021-10-07T19:19:07Z</time>
      </trkpt>
      <trkpt lat="44.5101" lon="1.36393">
        <ele>204.6</ele>
        <time>2021-10-07T19:19:09Z</time>
      </trkpt>
      <trkpt lat="44.51005" lon="1.36393">
        <ele>204.1</ele>
        <time>2021-10-07T19:19:11Z</time>
      </trkpt>
      <trkpt lat="44.51003" lon="1.36392">
        <ele>203.8</ele>
        <time>2021-10-07T19:19:12Z</time>
      </trkpt>
      <trkpt lat="44.51001" lon="1.36392">
        <ele>203.8</ele>
        <time>2021-10-07T19:19:14Z</time>
      </trkpt>
      <trkpt lat="44.50999" lon="1.36392">
        <ele>203.5</ele>
        <time>2021-10-07T19:19:15Z</time>
      </trkpt>
      <trkpt lat="44.50998" lon="1.36392">
        <ele>203.5</ele>
        <time>2021-10-07T19:19:17Z</time>
      </trkpt>
      <trkpt lat="44.50996" lon="1.36392">
        <ele>203.2</ele>
        <time>2021-10-07T19:19:18Z</time>
      </trkpt>
      <trkpt lat="44.50995" lon="1.36392">
        <ele>203.2</ele>
        <time>2021-10-07T19:19:19Z</time>
      </trkpt>
      <trkpt lat="44.50991" lon="1.36392">
        <ele>202.6</ele>
        <time>2021-10-07T19:19:20Z</time>
      </trkpt>
      <trkpt lat="44.50987" lon="1.36394">
        <ele>202.7</ele>
        <time>2021-10-07T19:19:21Z</time>
      </trkpt>
      <trkpt lat="44.50983" lon="1.36396">
        <ele>202.5</ele>
        <time>2021-10-07T19:19:23Z</time>
      </trkpt>
      <trkpt lat="44.50979" lon="1.36399">
        <ele>202.3</ele>
        <time>2021-10-07T19:19:24Z</time>
      </trkpt>
      <trkpt lat="44.50975" lon="1.36401">
        <ele>202</ele>
        <time>2021-10-07T19:19:25Z</time>
      </trkpt>
      <trkpt lat="44.50969" lon="1.36404">
        <ele>201.8</ele>
        <time>2021-10-07T19:19:27Z</time>
      </trkpt>
      <trkpt lat="44.50965" lon="1.36406">
        <ele>201.5</ele>
        <time>2021-10-07T19:19:28Z</time>
      </trkpt>
      <trkpt lat="44.50959" lon="1.36409">
        <ele>201.3</ele>
        <time>2021-10-07T19:19:29Z</time>
      </trkpt>
      <trkpt lat="44.50953" lon="1.36412">
        <ele>200.9</ele>
        <time>2021-10-07T19:19:31Z</time>
      </trkpt>
      <trkpt lat="44.50947" lon="1.36412">
        <ele>200.2</ele>
        <time>2021-10-07T19:19:32Z</time>
      </trkpt>
      <trkpt lat="44.50943" lon="1.36408">
        <ele>199.8</ele>
        <time>2021-10-07T19:19:33Z</time>
      </trkpt>
      <trkpt lat="44.50936" lon="1.36408">
        <ele>199</ele>
        <time>2021-10-07T19:19:35Z</time>
      </trkpt>
      <trkpt lat="44.50931" lon="1.36409">
        <ele>198.3</ele>
        <time>2021-10-07T19:19:36Z</time>
      </trkpt>
      <trkpt lat="44.50925" lon="1.36413">
        <ele>197.5</ele>
        <time>2021-10-07T19:19:37Z</time>
      </trkpt>
      <trkpt lat="44.50919" lon="1.36416">
        <ele>196.6</ele>
        <time>2021-10-07T19:19:38Z</time>
      </trkpt>
      <trkpt lat="44.50909" lon="1.36422">
        <ele>195.2</ele>
        <time>2021-10-07T19:19:40Z</time>
      </trkpt>
      <trkpt lat="44.50907" lon="1.36426">
        <ele>194.8</ele>
        <time>2021-10-07T19:19:41Z</time>
      </trkpt>
      <trkpt lat="44.50903" lon="1.3643">
        <ele>194.4</ele>
        <time>2021-10-07T19:19:43Z</time>
      </trkpt>
      <trkpt lat="44.50897" lon="1.36432">
        <ele>193.7</ele>
        <time>2021-10-07T19:19:44Z</time>
      </trkpt>
      <trkpt lat="44.50889" lon="1.3643">
        <ele>192.5</ele>
        <time>2021-10-07T19:19:46Z</time>
      </trkpt>
      <trkpt lat="44.50885" lon="1.36426">
        <ele>192.1</ele>
        <time>2021-10-07T19:19:48Z</time>
      </trkpt>
      <trkpt lat="44.50882" lon="1.36424">
        <ele>191.6</ele>
        <time>2021-10-07T19:19:49Z</time>
      </trkpt>
      <trkpt lat="44.50878" lon="1.3642">
        <ele>190.9</ele>
        <time>2021-10-07T19:19:50Z</time>
      </trkpt>
      <trkpt lat="44.50874" lon="1.36414">
        <ele>190.5</ele>
        <time>2021-10-07T19:19:51Z</time>
      </trkpt>
      <trkpt lat="44.5087" lon="1.3641">
        <ele>190</ele>
        <time>2021-10-07T19:19:52Z</time>
      </trkpt>
      <trkpt lat="44.50865" lon="1.36407">
        <ele>188.9</ele>
        <time>2021-10-07T19:19:54Z</time>
      </trkpt>
      <trkpt lat="44.50861" lon="1.36403">
        <ele>188.2</ele>
        <time>2021-10-07T19:19:55Z</time>
      </trkpt>
      <trkpt lat="44.50857" lon="1.36401">
        <ele>187.6</ele>
        <time>2021-10-07T19:19:56Z</time>
      </trkpt>
      <trkpt lat="44.50852" lon="1.36393">
        <ele>186.4</ele>
        <time>2021-10-07T19:19:58Z</time>
      </trkpt>
      <trkpt lat="44.5085" lon="1.36387">
        <ele>185.9</ele>
        <time>2021-10-07T19:20:00Z</time>
      </trkpt>
      <trkpt lat="44.50846" lon="1.36387">
        <ele>185.5</ele>
        <time>2021-10-07T19:20:01Z</time>
      </trkpt>
      <trkpt lat="44.50843" lon="1.36386">
        <ele>185.1</ele>
        <time>2021-10-07T19:20:02Z</time>
      </trkpt>
      <trkpt lat="44.50836" lon="1.36383">
        <ele>184.2</ele>
        <time>2021-10-07T19:20:04Z</time>
      </trkpt>
      <trkpt lat="44.50829" lon="1.36383">
        <ele>183.2</ele>
        <time>2021-10-07T19:20:05Z</time>
      </trkpt>
      <trkpt lat="44.50818" lon="1.3638">
        <ele>182.2</ele>
        <time>2021-10-07T19:20:07Z</time>
      </trkpt>
      <trkpt lat="44.5081" lon="1.36383">
        <ele>181.4</ele>
        <time>2021-10-07T19:20:09Z</time>
      </trkpt>
      <trkpt lat="44.50807" lon="1.36383">
        <ele>181</ele>
        <time>2021-10-07T19:20:10Z</time>
      </trkpt>
      <trkpt lat="44.50801" lon="1.36381">
        <ele>180.3</ele>
        <time>2021-10-07T19:20:12Z</time>
      </trkpt>
      <trkpt lat="44.50797" lon="1.36384">
        <ele>179.9</ele>
        <time>2021-10-07T19:20:13Z</time>
      </trkpt>
      <trkpt lat="44.50791" lon="1.36385">
        <ele>179.3</ele>
        <time>2021-10-07T19:20:14Z</time>
      </trkpt>
      <trkpt lat="44.50781" lon="1.3638">
        <ele>178.3</ele>
        <time>2021-10-07T19:20:16Z</time>
      </trkpt>
      <trkpt lat="44.50778" lon="1.36377">
        <ele>178</ele>
        <time>2021-10-07T19:20:18Z</time>
      </trkpt>
      <trkpt lat="44.50774" lon="1.36374">
        <ele>177.3</ele>
        <time>2021-10-07T19:20:19Z</time>
      </trkpt>
      <trkpt lat="44.50768" lon="1.36373">
        <ele>177</ele>
        <time>2021-10-07T19:20:20Z</time>
      </trkpt>
      <trkpt lat="44.50763" lon="1.36372">
        <ele>176.5</ele>
        <time>2021-10-07T19:20:21Z</time>
      </trkpt>
      <trkpt lat="44.50757" lon="1.36369">
        <ele>175.9</ele>
        <time>2021-10-07T19:20:23Z</time>
      </trkpt>
      <trkpt lat="44.50748" lon="1.36369">
        <ele>174.9</ele>
        <time>2021-10-07T19:20:24Z</time>
      </trkpt>
      <trkpt lat="44.50745" lon="1.36368">
        <ele>174.6</ele>
        <time>2021-10-07T19:20:25Z</time>
      </trkpt>
      <trkpt lat="44.5074" lon="1.36367">
        <ele>174.4</ele>
        <time>2021-10-07T19:20:26Z</time>
      </trkpt>
      <trkpt lat="44.50734" lon="1.36368">
        <ele>173.9</ele>
        <time>2021-10-07T19:20:27Z</time>
      </trkpt>
      <trkpt lat="44.50724" lon="1.3637">
        <ele>172.9</ele>
        <time>2021-10-07T19:20:29Z</time>
      </trkpt>
      <trkpt lat="44.50713" lon="1.3637">
        <ele>172.2</ele>
        <time>2021-10-07T19:20:31Z</time>
      </trkpt>
      <trkpt lat="44.50707" lon="1.36366">
        <ele>171.6</ele>
        <time>2021-10-07T19:20:33Z</time>
      </trkpt>
      <trkpt lat="44.50703" lon="1.36365">
        <ele>171.1</ele>
        <time>2021-10-07T19:20:34Z</time>
      </trkpt>
      <trkpt lat="44.50696" lon="1.36361">
        <ele>170.4</ele>
        <time>2021-10-07T19:20:36Z</time>
      </trkpt>
      <trkpt lat="44.50691" lon="1.36359">
        <ele>169.6</ele>
        <time>2021-10-07T19:20:37Z</time>
      </trkpt>
      <trkpt lat="44.5069" lon="1.3636">
        <ele>169.6</ele>
        <time>2021-10-07T19:20:38Z</time>
      </trkpt>
      <trkpt lat="44.50689" lon="1.3636">
        <ele>169.6</ele>
        <time>2021-10-07T19:20:40Z</time>
      </trkpt>
      <trkpt lat="44.50687" lon="1.3636">
        <ele>169.2</ele>
        <time>2021-10-07T19:20:41Z</time>
      </trkpt>
      <trkpt lat="44.50687" lon="1.36359">
        <ele>169.1</ele>
        <time>2021-10-07T19:20:43Z</time>
      </trkpt>
      <trkpt lat="44.50687" lon="1.36359">
        <ele>169.1</ele>
        <time>2021-10-07T19:20:44Z</time>
      </trkpt>
      <trkpt lat="44.50687" lon="1.36359">
        <ele>169.1</ele>
        <time>2021-10-07T19:20:46Z</time>
      </trkpt>
      <trkpt lat="44.50687" lon="1.36359">
        <ele>169.1</ele>
        <time>2021-10-07T19:20:47Z</time>
      </trkpt>
      <trkpt lat="44.50688" lon="1.36359">
        <ele>169.1</ele>
        <time>2021-10-07T19:20:48Z</time>
      </trkpt>
      <trkpt lat="44.50682" lon="1.36356">
        <ele>168.4</ele>
        <time>2021-10-07T19:20:50Z</time>
      </trkpt>
      <trkpt lat="44.50677" lon="1.36354">
        <ele>168</ele>
        <time>2021-10-07T19:20:52Z</time>
      </trkpt>
      <trkpt lat="44.50673" lon="1.36349">
        <ele>167.5</ele>
        <time>2021-10-07T19:20:53Z</time>
      </trkpt>
      <trkpt lat="44.50671" lon="1.36346">
        <ele>167</ele>
        <time>2021-10-07T19:20:54Z</time>
      </trkpt>
      <trkpt lat="44.50665" lon="1.36346">
        <ele>166.1</ele>
        <time>2021-10-07T19:20:56Z</time>
      </trkpt>
      <trkpt lat="44.50662" lon="1.36349">
        <ele>165.6</ele>
        <time>2021-10-07T19:20:57Z</time>
      </trkpt>
      <trkpt lat="44.50659" lon="1.36352">
        <ele>165.2</ele>
        <time>2021-10-07T19:20:58Z</time>
      </trkpt>
      <trkpt lat="44.50658" lon="1.36357">
        <ele>165.2</ele>
        <time>2021-10-07T19:20:59Z</time>
      </trkpt>
      <trkpt lat="44.50655" lon="1.3636">
        <ele>164.8</ele>
        <time>2021-10-07T19:21:00Z</time>
      </trkpt>
      <trkpt lat="44.5065" lon="1.36364">
        <ele>163.9</ele>
        <time>2021-10-07T19:21:02Z</time>
      </trkpt>
      <trkpt lat="44.50647" lon="1.36366">
        <ele>163.4</ele>
        <time>2021-10-07T19:21:04Z</time>
      </trkpt>
      <trkpt lat="44.50645" lon="1.36368">
        <ele>163.4</ele>
        <time>2021-10-07T19:21:05Z</time>
      </trkpt>
      <trkpt lat="44.50646" lon="1.36372">
        <ele>163.5</ele>
        <time>2021-10-07T19:21:07Z</time>
      </trkpt>
      <trkpt lat="44.50645" lon="1.36376">
        <ele>163</ele>
        <time>2021-10-07T19:21:08Z</time>
      </trkpt>
      <trkpt lat="44.50644" lon="1.36378">
        <ele>163.2</ele>
        <time>2021-10-07T19:21:09Z</time>
      </trkpt>
      <trkpt lat="44.50642" lon="1.36379">
        <ele>162.7</ele>
        <time>2021-10-07T19:21:10Z</time>
      </trkpt>
      <trkpt lat="44.5064" lon="1.3638">
        <ele>162.6</ele>
        <time>2021-10-07T19:21:12Z</time>
      </trkpt>
      <trkpt lat="44.50638" lon="1.3638">
        <ele>162.1</ele>
        <time>2021-10-07T19:21:13Z</time>
      </trkpt>
      <trkpt lat="44.50637" lon="1.36382">
        <ele>162.3</ele>
        <time>2021-10-07T19:21:14Z</time>
      </trkpt>
      <trkpt lat="44.50637" lon="1.36382">
        <ele>162.3</ele>
        <time>2021-10-07T19:21:16Z</time>
      </trkpt>
      <trkpt lat="44.50637" lon="1.36381">
        <ele>162.3</ele>
        <time>2021-10-07T19:21:17Z</time>
      </trkpt>
      <trkpt lat="44.50637" lon="1.36381">
        <ele>162.3</ele>
        <time>2021-10-07T19:21:18Z</time>
      </trkpt>
      <trkpt lat="44.50637" lon="1.36381">
        <ele>162.2</ele>
        <time>2021-10-07T19:21:19Z</time>
      </trkpt>
      <trkpt lat="44.50637" lon="1.36381">
        <ele>162.2</ele>
        <time>2021-10-07T19:21:21Z</time>
      </trkpt>
      <trkpt lat="44.50634" lon="1.36382">
        <ele>161.7</ele>
        <time>2021-10-07T19:21:22Z</time>
      </trkpt>
      <trkpt lat="44.50627" lon="1.36383">
        <ele>160.8</ele>
        <time>2021-10-07T19:21:24Z</time>
      </trkpt>
      <trkpt lat="44.50618" lon="1.3639">
        <ele>159.7</ele>
        <time>2021-10-07T19:21:25Z</time>
      </trkpt>
      <trkpt lat="44.50617" lon="1.36396">
        <ele>159.3</ele>
        <time>2021-10-07T19:21:27Z</time>
      </trkpt>
      <trkpt lat="44.50616" lon="1.36398">
        <ele>159.2</ele>
        <time>2021-10-07T19:21:28Z</time>
      </trkpt>
      <trkpt lat="44.50613" lon="1.36403">
        <ele>158.9</ele>
        <time>2021-10-07T19:21:29Z</time>
      </trkpt>
      <trkpt lat="44.50607" lon="1.36405">
        <ele>157.8</ele>
        <time>2021-10-07T19:21:31Z</time>
      </trkpt>
      <trkpt lat="44.50602" lon="1.36409">
        <ele>156.8</ele>
        <time>2021-10-07T19:21:32Z</time>
      </trkpt>
      <trkpt lat="44.50599" lon="1.36416">
        <ele>156.6</ele>
        <time>2021-10-07T19:21:34Z</time>
      </trkpt>
      <trkpt lat="44.50598" lon="1.36424">
        <ele>156.9</ele>
        <time>2021-10-07T19:21:35Z</time>
      </trkpt>
      <trkpt lat="44.50595" lon="1.3643">
        <ele>156.6</ele>
        <time>2021-10-07T19:21:36Z</time>
      </trkpt>
      <trkpt lat="44.50594" lon="1.36434">
        <ele>156.8</ele>
        <time>2021-10-07T19:21:37Z</time>
      </trkpt>
      <trkpt lat="44.50593" lon="1.3644">
        <ele>156.5</ele>
        <time>2021-10-07T19:21:39Z</time>
      </trkpt>
      <trkpt lat="44.5059" lon="1.36443">
        <ele>156.7</ele>
        <time>2021-10-07T19:21:40Z</time>
      </trkpt>
      <trkpt lat="44.5059" lon="1.36446">
        <ele>156.4</ele>
        <time>2021-10-07T19:21:41Z</time>
      </trkpt>
      <trkpt lat="44.5059" lon="1.36446">
        <ele>156.4</ele>
        <time>2021-10-07T19:21:42Z</time>
      </trkpt>
      <trkpt lat="44.5059" lon="1.36447">
        <ele>156.4</ele>
        <time>2021-10-07T19:21:44Z</time>
      </trkpt>
      <trkpt lat="44.5059" lon="1.36447">
        <ele>156.3</ele>
        <time>2021-10-07T19:21:45Z</time>
      </trkpt>
      <trkpt lat="44.5059" lon="1.36447">
        <ele>156.3</ele>
        <time>2021-10-07T19:21:46Z</time>
      </trkpt>
      <trkpt lat="44.5059" lon="1.36447">
        <ele>156.3</ele>
        <time>2021-10-07T19:21:47Z</time>
      </trkpt>
      <trkpt lat="44.5059" lon="1.36447">
        <ele>156.3</ele>
        <time>2021-10-07T19:21:49Z</time>
      </trkpt>
      <trkpt lat="44.5059" lon="1.36447">
        <ele>156.3</ele>
        <time>2021-10-07T19:21:51Z</time>
      </trkpt>
      <trkpt lat="44.50579" lon="1.36456">
        <ele>155.2</ele>
        <time>2021-10-07T19:23:03Z</time>
      </trkpt>
      <trkpt lat="44.50572" lon="1.36453">
        <ele>154.2</ele>
        <time>2021-10-07T19:23:05Z</time>
      </trkpt>
      <trkpt lat="44.50569" lon="1.36453">
        <ele>153.5</ele>
        <time>2021-10-07T19:23:06Z</time>
      </trkpt>
      <trkpt lat="44.50564" lon="1.36452">
        <ele>153.1</ele>
        <time>2021-10-07T19:23:08Z</time>
      </trkpt>
      <trkpt lat="44.5056" lon="1.36452">
        <ele>152.8</ele>
        <time>2021-10-07T19:23:09Z</time>
      </trkpt>
      <trkpt lat="44.50552" lon="1.36451">
        <ele>151.7</ele>
        <time>2021-10-07T19:23:10Z</time>
      </trkpt>
      <trkpt lat="44.50541" lon="1.36448">
        <ele>150.7</ele>
        <time>2021-10-07T19:23:12Z</time>
      </trkpt>
      <trkpt lat="44.50536" lon="1.36447">
        <ele>150.2</ele>
        <time>2021-10-07T19:23:13Z</time>
      </trkpt>
      <trkpt lat="44.50531" lon="1.36446">
        <ele>149.5</ele>
        <time>2021-10-07T19:23:14Z</time>
      </trkpt>
      <trkpt lat="44.50526" lon="1.36443">
        <ele>149</ele>
        <time>2021-10-07T19:23:15Z</time>
      </trkpt>
      <trkpt lat="44.50521" lon="1.36441">
        <ele>148.3</ele>
        <time>2021-10-07T19:23:16Z</time>
      </trkpt>
      <trkpt lat="44.50516" lon="1.36439">
        <ele>147.5</ele>
        <time>2021-10-07T19:23:17Z</time>
      </trkpt>
      <trkpt lat="44.50503" lon="1.36434">
        <ele>146.3</ele>
        <time>2021-10-07T19:23:19Z</time>
      </trkpt>
      <trkpt lat="44.50497" lon="1.36432">
        <ele>145.6</ele>
        <time>2021-10-07T19:23:20Z</time>
      </trkpt>
      <trkpt lat="44.50484" lon="1.36426">
        <ele>144.2</ele>
        <time>2021-10-07T19:23:22Z</time>
      </trkpt>
      <trkpt lat="44.50471" lon="1.36419">
        <ele>142.5</ele>
        <time>2021-10-07T19:23:24Z</time>
      </trkpt>
      <trkpt lat="44.50466" lon="1.36415">
        <ele>141.5</ele>
        <time>2021-10-07T19:23:25Z</time>
      </trkpt>
      <trkpt lat="44.50457" lon="1.36404">
        <ele>140.7</ele>
        <time>2021-10-07T19:23:27Z</time>
      </trkpt>
      <trkpt lat="44.50452" lon="1.36399">
        <ele>140.4</ele>
        <time>2021-10-07T19:23:28Z</time>
      </trkpt>
      <trkpt lat="44.50447" lon="1.36396">
        <ele>140.4</ele>
        <time>2021-10-07T19:23:29Z</time>
      </trkpt>
      <trkpt lat="44.50443" lon="1.36396">
        <ele>140.1</ele>
        <time>2021-10-07T19:23:30Z</time>
      </trkpt>
      <trkpt lat="44.50436" lon="1.36401">
        <ele>139.7</ele>
        <time>2021-10-07T19:23:32Z</time>
      </trkpt>
      <trkpt lat="44.50432" lon="1.36409">
        <ele>139.4</ele>
        <time>2021-10-07T19:23:34Z</time>
      </trkpt>
      <trkpt lat="44.50429" lon="1.36415">
        <ele>139.2</ele>
        <time>2021-10-07T19:23:35Z</time>
      </trkpt>
      <trkpt lat="44.50425" lon="1.3642">
        <ele>139.1</ele>
        <time>2021-10-07T19:23:37Z</time>
      </trkpt>
      <trkpt lat="44.50424" lon="1.36424">
        <ele>139</ele>
        <time>2021-10-07T19:23:38Z</time>
      </trkpt>
      <trkpt lat="44.5042" lon="1.36431">
        <ele>138.8</ele>
        <time>2021-10-07T19:23:40Z</time>
      </trkpt>
      <trkpt lat="44.50417" lon="1.36438">
        <ele>138.7</ele>
        <time>2021-10-07T19:23:42Z</time>
      </trkpt>
      <trkpt lat="44.50414" lon="1.36443">
        <ele>138.7</ele>
        <time>2021-10-07T19:23:43Z</time>
      </trkpt>
      <trkpt lat="44.50412" lon="1.36447">
        <ele>138.6</ele>
        <time>2021-10-07T19:23:44Z</time>
      </trkpt>
      <trkpt lat="44.50409" lon="1.36455">
        <ele>138.6</ele>
        <time>2021-10-07T19:23:46Z</time>
      </trkpt>
      <trkpt lat="44.50407" lon="1.3646">
        <ele>138.6</ele>
        <time>2021-10-07T19:23:47Z</time>
      </trkpt>
      <trkpt lat="44.50405" lon="1.36463">
        <ele>138.6</ele>
        <time>2021-10-07T19:23:48Z</time>
      </trkpt>
      <trkpt lat="44.50403" lon="1.36469">
        <ele>138.6</ele>
        <time>2021-10-07T19:23:50Z</time>
      </trkpt>
      <trkpt lat="44.50402" lon="1.36473">
        <ele>138.5</ele>
        <time>2021-10-07T19:23:51Z</time>
      </trkpt>
      <trkpt lat="44.504" lon="1.36478">
        <ele>138.5</ele>
        <time>2021-10-07T19:23:53Z</time>
      </trkpt>
      <trkpt lat="44.50399" lon="1.36481">
        <ele>138.5</ele>
        <time>2021-10-07T19:23:54Z</time>
      </trkpt>
      <trkpt lat="44.50397" lon="1.36486">
        <ele>138.5</ele>
        <time>2021-10-07T19:23:55Z</time>
      </trkpt>
      <trkpt lat="44.50395" lon="1.36487">
        <ele>138.5</ele>
        <time>2021-10-07T19:23:56Z</time>
      </trkpt>
      <trkpt lat="44.50394" lon="1.36492">
        <ele>138.5</ele>
        <time>2021-10-07T19:23:58Z</time>
      </trkpt>
      <trkpt lat="44.50393" lon="1.36497">
        <ele>138.5</ele>
        <time>2021-10-07T19:23:59Z</time>
      </trkpt>
      <trkpt lat="44.50391" lon="1.36502">
        <ele>138.5</ele>
        <time>2021-10-07T19:24:00Z</time>
      </trkpt>
      <trkpt lat="44.50388" lon="1.36508">
        <ele>138.4</ele>
        <time>2021-10-07T19:24:02Z</time>
      </trkpt>
      <trkpt lat="44.50386" lon="1.36512">
        <ele>138.4</ele>
        <time>2021-10-07T19:24:03Z</time>
      </trkpt>
      <trkpt lat="44.50384" lon="1.36518">
        <ele>138.4</ele>
        <time>2021-10-07T19:24:05Z</time>
      </trkpt>
      <trkpt lat="44.50384" lon="1.36522">
        <ele>138.4</ele>
        <time>2021-10-07T19:24:06Z</time>
      </trkpt>
      <trkpt lat="44.50383" lon="1.36526">
        <ele>138.4</ele>
        <time>2021-10-07T19:24:07Z</time>
      </trkpt>
      <trkpt lat="44.50382" lon="1.36529">
        <ele>138.4</ele>
        <time>2021-10-07T19:24:08Z</time>
      </trkpt>
      <trkpt lat="44.50381" lon="1.36534">
        <ele>138.4</ele>
        <time>2021-10-07T19:24:10Z</time>
      </trkpt>
      <trkpt lat="44.5038" lon="1.36538">
        <ele>138.3</ele>
        <time>2021-10-07T19:24:11Z</time>
      </trkpt>
      <trkpt lat="44.5038" lon="1.36541">
        <ele>138.3</ele>
        <time>2021-10-07T19:24:12Z</time>
      </trkpt>
      <trkpt lat="44.50378" lon="1.36546">
        <ele>138.3</ele>
        <time>2021-10-07T19:24:14Z</time>
      </trkpt>
      <trkpt lat="44.50378" lon="1.36551">
        <ele>138.3</ele>
        <time>2021-10-07T19:24:15Z</time>
      </trkpt>
      <trkpt lat="44.50377" lon="1.36553">
        <ele>138.2</ele>
        <time>2021-10-07T19:24:16Z</time>
      </trkpt>
      <trkpt lat="44.50377" lon="1.36557">
        <ele>138.2</ele>
        <time>2021-10-07T19:24:17Z</time>
      </trkpt>
      <trkpt lat="44.50376" lon="1.36562">
        <ele>138.1</ele>
        <time>2021-10-07T19:24:19Z</time>
      </trkpt>
      <trkpt lat="44.50375" lon="1.36567">
        <ele>138.1</ele>
        <time>2021-10-07T19:24:20Z</time>
      </trkpt>
      <trkpt lat="44.50374" lon="1.36574">
        <ele>137.9</ele>
        <time>2021-10-07T19:24:22Z</time>
      </trkpt>
      <trkpt lat="44.50373" lon="1.3658">
        <ele>137.8</ele>
        <time>2021-10-07T19:24:23Z</time>
      </trkpt>
      <trkpt lat="44.50371" lon="1.36587">
        <ele>137.7</ele>
        <time>2021-10-07T19:24:25Z</time>
      </trkpt>
      <trkpt lat="44.5037" lon="1.36595">
        <ele>137.5</ele>
        <time>2021-10-07T19:24:26Z</time>
      </trkpt>
      <trkpt lat="44.50368" lon="1.36601">
        <ele>137.4</ele>
        <time>2021-10-07T19:24:27Z</time>
      </trkpt>
      <trkpt lat="44.50365" lon="1.36611">
        <ele>137.2</ele>
        <time>2021-10-07T19:24:29Z</time>
      </trkpt>
      <trkpt lat="44.50364" lon="1.36617">
        <ele>137.1</ele>
        <time>2021-10-07T19:24:30Z</time>
      </trkpt>
      <trkpt lat="44.50361" lon="1.36625">
        <ele>137</ele>
        <time>2021-10-07T19:24:32Z</time>
      </trkpt>
      <trkpt lat="44.50359" lon="1.36633">
        <ele>136.9</ele>
        <time>2021-10-07T19:24:33Z</time>
      </trkpt>
      <trkpt lat="44.50356" lon="1.3664">
        <ele>136.7</ele>
        <time>2021-10-07T19:24:34Z</time>
      </trkpt>
      <trkpt lat="44.50354" lon="1.36649">
        <ele>136.6</ele>
        <time>2021-10-07T19:24:36Z</time>
      </trkpt>
      <trkpt lat="44.50352" lon="1.36655">
        <ele>136.6</ele>
        <time>2021-10-07T19:24:37Z</time>
      </trkpt>
      <trkpt lat="44.50349" lon="1.36663">
        <ele>136.5</ele>
        <time>2021-10-07T19:24:39Z</time>
      </trkpt>
      <trkpt lat="44.50346" lon="1.36671">
        <ele>136.5</ele>
        <time>2021-10-07T19:24:40Z</time>
      </trkpt>
      <trkpt lat="44.50343" lon="1.36678">
        <ele>136.5</ele>
        <time>2021-10-07T19:24:42Z</time>
      </trkpt>
      <trkpt lat="44.50342" lon="1.36683">
        <ele>136.5</ele>
        <time>2021-10-07T19:24:43Z</time>
      </trkpt>
      <trkpt lat="44.5034" lon="1.36689">
        <ele>136.5</ele>
        <time>2021-10-07T19:24:44Z</time>
      </trkpt>
      <trkpt lat="44.50339" lon="1.36694">
        <ele>136.5</ele>
        <time>2021-10-07T19:24:45Z</time>
      </trkpt>
      <trkpt lat="44.50337" lon="1.36698">
        <ele>136.6</ele>
        <time>2021-10-07T19:24:46Z</time>
      </trkpt>
      <trkpt lat="44.50336" lon="1.36703">
        <ele>136.6</ele>
        <time>2021-10-07T19:24:48Z</time>
      </trkpt>
      <trkpt lat="44.50336" lon="1.36708">
        <ele>136.6</ele>
        <time>2021-10-07T19:24:49Z</time>
      </trkpt>
      <trkpt lat="44.50335" lon="1.36712">
        <ele>136.6</ele>
        <time>2021-10-07T19:24:50Z</time>
      </trkpt>
      <trkpt lat="44.50337" lon="1.36719">
        <ele>136.8</ele>
        <time>2021-10-07T19:24:51Z</time>
      </trkpt>
      <trkpt lat="44.5034" lon="1.36726">
        <ele>137.3</ele>
        <time>2021-10-07T19:24:53Z</time>
      </trkpt>
      <trkpt lat="44.50343" lon="1.3673">
        <ele>137.6</ele>
        <time>2021-10-07T19:24:55Z</time>
      </trkpt>
      <trkpt lat="44.50346" lon="1.36734">
        <ele>137.9</ele>
        <time>2021-10-07T19:24:56Z</time>
      </trkpt>
      <trkpt lat="44.50349" lon="1.36738">
        <ele>138.3</ele>
        <time>2021-10-07T19:24:57Z</time>
      </trkpt>
      <trkpt lat="44.5035" lon="1.3674">
        <ele>138.4</ele>
        <time>2021-10-07T19:24:58Z</time>
      </trkpt>
      <trkpt lat="44.50352" lon="1.36745">
        <ele>138.8</ele>
        <time>2021-10-07T19:25:00Z</time>
      </trkpt>
      <trkpt lat="44.50356" lon="1.3675">
        <ele>139.2</ele>
        <time>2021-10-07T19:25:02Z</time>
      </trkpt>
      <trkpt lat="44.50358" lon="1.36753">
        <ele>139.4</ele>
        <time>2021-10-07T19:25:04Z</time>
      </trkpt>
      <trkpt lat="44.50361" lon="1.36757">
        <ele>139.7</ele>
        <time>2021-10-07T19:25:05Z</time>
      </trkpt>
      <trkpt lat="44.50363" lon="1.3676">
        <ele>139.9</ele>
        <time>2021-10-07T19:25:06Z</time>
      </trkpt>
      <trkpt lat="44.50363" lon="1.36761">
        <ele>140</ele>
        <time>2021-10-07T19:25:07Z</time>
      </trkpt>
      <trkpt lat="44.50365" lon="1.36764">
        <ele>140.2</ele>
        <time>2021-10-07T19:25:08Z</time>
      </trkpt>
      <trkpt lat="44.50367" lon="1.36767">
        <ele>140.5</ele>
        <time>2021-10-07T19:25:10Z</time>
      </trkpt>
      <trkpt lat="44.5037" lon="1.36772">
        <ele>140.8</ele>
        <time>2021-10-07T19:25:11Z</time>
      </trkpt>
      <trkpt lat="44.50372" lon="1.36775">
        <ele>141.1</ele>
        <time>2021-10-07T19:25:12Z</time>
      </trkpt>
      <trkpt lat="44.50374" lon="1.36777">
        <ele>141.2</ele>
        <time>2021-10-07T19:25:13Z</time>
      </trkpt>
      <trkpt lat="44.50376" lon="1.36781">
        <ele>141.5</ele>
        <time>2021-10-07T19:25:15Z</time>
      </trkpt>
      <trkpt lat="44.50379" lon="1.36785">
        <ele>141.8</ele>
        <time>2021-10-07T19:25:16Z</time>
      </trkpt>
      <trkpt lat="44.5038" lon="1.36788">
        <ele>142</ele>
        <time>2021-10-07T19:25:17Z</time>
      </trkpt>
      <trkpt lat="44.50382" lon="1.36793">
        <ele>142.2</ele>
        <time>2021-10-07T19:25:19Z</time>
      </trkpt>
      <trkpt lat="44.50384" lon="1.36797">
        <ele>142.5</ele>
        <time>2021-10-07T19:25:20Z</time>
      </trkpt>
      <trkpt lat="44.50384" lon="1.36798">
        <ele>142.6</ele>
        <time>2021-10-07T19:25:21Z</time>
      </trkpt>
      <trkpt lat="44.50387" lon="1.36802">
        <ele>142.8</ele>
        <time>2021-10-07T19:25:22Z</time>
      </trkpt>
      <trkpt lat="44.50388" lon="1.36803">
        <ele>142.9</ele>
        <time>2021-10-07T19:25:23Z</time>
      </trkpt>
      <trkpt lat="44.5039" lon="1.36808">
        <ele>143.1</ele>
        <time>2021-10-07T19:25:25Z</time>
      </trkpt>
      <trkpt lat="44.50393" lon="1.36811">
        <ele>143.3</ele>
        <time>2021-10-07T19:25:26Z</time>
      </trkpt>
      <trkpt lat="44.50393" lon="1.36812">
        <ele>143.4</ele>
        <time>2021-10-07T19:25:27Z</time>
      </trkpt>
      <trkpt lat="44.50395" lon="1.36816">
        <ele>143.5</ele>
        <time>2021-10-07T19:25:29Z</time>
      </trkpt>
      <trkpt lat="44.50397" lon="1.3682">
        <ele>143.7</ele>
        <time>2021-10-07T19:25:30Z</time>
      </trkpt>
      <trkpt lat="44.50399" lon="1.36826">
        <ele>144</ele>
        <time>2021-10-07T19:25:32Z</time>
      </trkpt>
      <trkpt lat="44.50401" lon="1.36831">
        <ele>144.2</ele>
        <time>2021-10-07T19:25:34Z</time>
      </trkpt>
      <trkpt lat="44.50403" lon="1.36836">
        <ele>144.3</ele>
        <time>2021-10-07T19:25:36Z</time>
      </trkpt>
      <trkpt lat="44.50405" lon="1.3684">
        <ele>144.5</ele>
        <time>2021-10-07T19:25:37Z</time>
      </trkpt>
      <trkpt lat="44.50406" lon="1.36843">
        <ele>144.6</ele>
        <time>2021-10-07T19:25:38Z</time>
      </trkpt>
      <trkpt lat="44.50408" lon="1.36848">
        <ele>144.7</ele>
        <time>2021-10-07T19:25:40Z</time>
      </trkpt>
      <trkpt lat="44.50411" lon="1.36851">
        <ele>144.8</ele>
        <time>2021-10-07T19:25:41Z</time>
      </trkpt>
      <trkpt lat="44.50414" lon="1.36855">
        <ele>144.9</ele>
        <time>2021-10-07T19:25:42Z</time>
      </trkpt>
      <trkpt lat="44.50418" lon="1.36861">
        <ele>145</ele>
        <time>2021-10-07T19:25:44Z</time>
      </trkpt>
      <trkpt lat="44.5042" lon="1.36865">
        <ele>145</ele>
        <time>2021-10-07T19:25:45Z</time>
      </trkpt>
      <trkpt lat="44.50423" lon="1.36868">
        <ele>145.1</ele>
        <time>2021-10-07T19:25:46Z</time>
      </trkpt>
      <trkpt lat="44.50428" lon="1.36875">
        <ele>145.1</ele>
        <time>2021-10-07T19:25:48Z</time>
      </trkpt>
      <trkpt lat="44.50431" lon="1.36879">
        <ele>145.2</ele>
        <time>2021-10-07T19:25:49Z</time>
      </trkpt>
      <trkpt lat="44.50433" lon="1.36881">
        <ele>145.2</ele>
        <time>2021-10-07T19:25:50Z</time>
      </trkpt>
      <trkpt lat="44.50436" lon="1.36884">
        <ele>145.2</ele>
        <time>2021-10-07T19:25:51Z</time>
      </trkpt>
      <trkpt lat="44.50439" lon="1.36887">
        <ele>145.2</ele>
        <time>2021-10-07T19:25:53Z</time>
      </trkpt>
      <trkpt lat="44.50442" lon="1.36891">
        <ele>145.2</ele>
        <time>2021-10-07T19:25:54Z</time>
      </trkpt>
      <trkpt lat="44.50446" lon="1.36896">
        <ele>145.3</ele>
        <time>2021-10-07T19:25:55Z</time>
      </trkpt>
      <trkpt lat="44.50451" lon="1.36902">
        <ele>145.3</ele>
        <time>2021-10-07T19:25:57Z</time>
      </trkpt>
      <trkpt lat="44.50455" lon="1.36906">
        <ele>145.4</ele>
        <time>2021-10-07T19:25:58Z</time>
      </trkpt>
      <trkpt lat="44.50458" lon="1.3691">
        <ele>145.4</ele>
        <time>2021-10-07T19:26:00Z</time>
      </trkpt>
      <trkpt lat="44.50462" lon="1.36916">
        <ele>145.5</ele>
        <time>2021-10-07T19:26:01Z</time>
      </trkpt>
      <trkpt lat="44.50467" lon="1.36922">
        <ele>145.5</ele>
        <time>2021-10-07T19:26:03Z</time>
      </trkpt>
      <trkpt lat="44.50471" lon="1.36927">
        <ele>145.6</ele>
        <time>2021-10-07T19:26:04Z</time>
      </trkpt>
      <trkpt lat="44.50475" lon="1.36931">
        <ele>145.6</ele>
        <time>2021-10-07T19:26:06Z</time>
      </trkpt>
      <trkpt lat="44.50479" lon="1.36936">
        <ele>145.6</ele>
        <time>2021-10-07T19:26:07Z</time>
      </trkpt>
      <trkpt lat="44.50482" lon="1.3694">
        <ele>145.7</ele>
        <time>2021-10-07T19:26:08Z</time>
      </trkpt>
      <trkpt lat="44.50486" lon="1.36943">
        <ele>145.7</ele>
        <time>2021-10-07T19:26:09Z</time>
      </trkpt>
      <trkpt lat="44.50489" lon="1.36947">
        <ele>145.7</ele>
        <time>2021-10-07T19:26:10Z</time>
      </trkpt>
      <trkpt lat="44.50492" lon="1.36951">
        <ele>145.7</ele>
        <time>2021-10-07T19:26:11Z</time>
      </trkpt>
      <trkpt lat="44.50498" lon="1.36956">
        <ele>145.7</ele>
        <time>2021-10-07T19:26:13Z</time>
      </trkpt>
      <trkpt lat="44.50501" lon="1.36958">
        <ele>145.7</ele>
        <time>2021-10-07T19:26:14Z</time>
      </trkpt>
      <trkpt lat="44.50504" lon="1.36962">
        <ele>145.8</ele>
        <time>2021-10-07T19:26:15Z</time>
      </trkpt>
      <trkpt lat="44.50509" lon="1.36967">
        <ele>145.8</ele>
        <time>2021-10-07T19:26:17Z</time>
      </trkpt>
      <trkpt lat="44.50514" lon="1.36972">
        <ele>145.8</ele>
        <time>2021-10-07T19:26:18Z</time>
      </trkpt>
      <trkpt lat="44.50518" lon="1.36977">
        <ele>145.8</ele>
        <time>2021-10-07T19:26:20Z</time>
      </trkpt>
      <trkpt lat="44.50522" lon="1.3698">
        <ele>145.8</ele>
        <time>2021-10-07T19:26:21Z</time>
      </trkpt>
      <trkpt lat="44.50527" lon="1.36984">
        <ele>145.9</ele>
        <time>2021-10-07T19:26:22Z</time>
      </trkpt>
      <trkpt lat="44.50532" lon="1.36987">
        <ele>146</ele>
        <time>2021-10-07T19:26:24Z</time>
      </trkpt>
      <trkpt lat="44.50538" lon="1.3699">
        <ele>146</ele>
        <time>2021-10-07T19:26:25Z</time>
      </trkpt>
      <trkpt lat="44.50544" lon="1.36993">
        <ele>146.1</ele>
        <time>2021-10-07T19:26:27Z</time>
      </trkpt>
      <trkpt lat="44.50549" lon="1.36996">
        <ele>146.2</ele>
        <time>2021-10-07T19:26:28Z</time>
      </trkpt>
      <trkpt lat="44.50554" lon="1.36999">
        <ele>146.3</ele>
        <time>2021-10-07T19:26:29Z</time>
      </trkpt>
      <trkpt lat="44.50557" lon="1.37001">
        <ele>146.4</ele>
        <time>2021-10-07T19:26:30Z</time>
      </trkpt>
      <trkpt lat="44.50562" lon="1.37004">
        <ele>146.5</ele>
        <time>2021-10-07T19:26:32Z</time>
      </trkpt>
      <trkpt lat="44.50567" lon="1.37007">
        <ele>146.5</ele>
        <time>2021-10-07T19:26:33Z</time>
      </trkpt>
      <trkpt lat="44.50571" lon="1.37009">
        <ele>146.6</ele>
        <time>2021-10-07T19:26:34Z</time>
      </trkpt>
      <trkpt lat="44.50574" lon="1.37011">
        <ele>146.7</ele>
        <time>2021-10-07T19:26:35Z</time>
      </trkpt>
      <trkpt lat="44.50579" lon="1.37013">
        <ele>146.8</ele>
        <time>2021-10-07T19:26:37Z</time>
      </trkpt>
      <trkpt lat="44.50583" lon="1.37016">
        <ele>146.9</ele>
        <time>2021-10-07T19:26:38Z</time>
      </trkpt>
      <trkpt lat="44.50588" lon="1.37018">
        <ele>146.9</ele>
        <time>2021-10-07T19:26:39Z</time>
      </trkpt>
      <trkpt lat="44.50594" lon="1.37021">
        <ele>147.1</ele>
        <time>2021-10-07T19:26:41Z</time>
      </trkpt>
      <trkpt lat="44.50599" lon="1.37024">
        <ele>147.2</ele>
        <time>2021-10-07T19:26:42Z</time>
      </trkpt>
      <trkpt lat="44.50603" lon="1.37027">
        <ele>147.3</ele>
        <time>2021-10-07T19:26:44Z</time>
      </trkpt>
      <trkpt lat="44.50608" lon="1.3703">
        <ele>147.3</ele>
        <time>2021-10-07T19:26:45Z</time>
      </trkpt>
      <trkpt lat="44.50612" lon="1.37032">
        <ele>147.4</ele>
        <time>2021-10-07T19:26:46Z</time>
      </trkpt>
      <trkpt lat="44.50616" lon="1.37035">
        <ele>147.5</ele>
        <time>2021-10-07T19:26:47Z</time>
      </trkpt>
      <trkpt lat="44.50622" lon="1.37039">
        <ele>147.5</ele>
        <time>2021-10-07T19:26:49Z</time>
      </trkpt>
      <trkpt lat="44.50626" lon="1.37042">
        <ele>147.6</ele>
        <time>2021-10-07T19:26:50Z</time>
      </trkpt>
      <trkpt lat="44.50633" lon="1.37046">
        <ele>147.7</ele>
        <time>2021-10-07T19:26:52Z</time>
      </trkpt>
      <trkpt lat="44.50636" lon="1.37048">
        <ele>147.8</ele>
        <time>2021-10-07T19:26:53Z</time>
      </trkpt>
      <trkpt lat="44.50641" lon="1.37052">
        <ele>147.9</ele>
        <time>2021-10-07T19:26:55Z</time>
      </trkpt>
      <trkpt lat="44.50648" lon="1.37056">
        <ele>148.1</ele>
        <time>2021-10-07T19:26:57Z</time>
      </trkpt>
      <trkpt lat="44.50652" lon="1.37059">
        <ele>148.3</ele>
        <time>2021-10-07T19:26:58Z</time>
      </trkpt>
      <trkpt lat="44.50658" lon="1.37063">
        <ele>148.5</ele>
        <time>2021-10-07T19:27:00Z</time>
      </trkpt>
      <trkpt lat="44.50663" lon="1.37066">
        <ele>148.7</ele>
        <time>2021-10-07T19:27:01Z</time>
      </trkpt>
      <trkpt lat="44.50669" lon="1.3707">
        <ele>149</ele>
        <time>2021-10-07T19:27:03Z</time>
      </trkpt>
      <trkpt lat="44.50673" lon="1.37072">
        <ele>149.1</ele>
        <time>2021-10-07T19:27:04Z</time>
      </trkpt>
      <trkpt lat="44.50676" lon="1.37074">
        <ele>149.2</ele>
        <time>2021-10-07T19:27:05Z</time>
      </trkpt>
      <trkpt lat="44.50682" lon="1.37076">
        <ele>149.2</ele>
        <time>2021-10-07T19:27:07Z</time>
      </trkpt>
      <trkpt lat="44.50686" lon="1.37078">
        <ele>149.3</ele>
        <time>2021-10-07T19:27:08Z</time>
      </trkpt>
      <trkpt lat="44.5069" lon="1.3708">
        <ele>149.4</ele>
        <time>2021-10-07T19:27:09Z</time>
      </trkpt>
      <trkpt lat="44.50694" lon="1.37081">
        <ele>149.4</ele>
        <time>2021-10-07T19:27:10Z</time>
      </trkpt>
      <trkpt lat="44.50697" lon="1.37083">
        <ele>149.4</ele>
        <time>2021-10-07T19:27:11Z</time>
      </trkpt>
      <trkpt lat="44.50703" lon="1.37085">
        <ele>149.5</ele>
        <time>2021-10-07T19:27:13Z</time>
      </trkpt>
      <trkpt lat="44.50707" lon="1.37087">
        <ele>149.6</ele>
        <time>2021-10-07T19:27:14Z</time>
      </trkpt>
      <trkpt lat="44.5071" lon="1.37088">
        <ele>149.6</ele>
        <time>2021-10-07T19:27:15Z</time>
      </trkpt>
      <trkpt lat="44.50714" lon="1.37091">
        <ele>149.7</ele>
        <time>2021-10-07T19:27:17Z</time>
      </trkpt>
      <trkpt lat="44.50717" lon="1.37093">
        <ele>149.7</ele>
        <time>2021-10-07T19:27:18Z</time>
      </trkpt>
      <trkpt lat="44.50721" lon="1.37096">
        <ele>149.8</ele>
        <time>2021-10-07T19:27:19Z</time>
      </trkpt>
      <trkpt lat="44.50726" lon="1.37099">
        <ele>149.9</ele>
        <time>2021-10-07T19:27:21Z</time>
      </trkpt>
      <trkpt lat="44.50731" lon="1.371">
        <ele>149.9</ele>
        <time>2021-10-07T19:27:22Z</time>
      </trkpt>
      <trkpt lat="44.50736" lon="1.37103">
        <ele>150</ele>
        <time>2021-10-07T19:27:24Z</time>
      </trkpt>
      <trkpt lat="44.5074" lon="1.37105">
        <ele>150.1</ele>
        <time>2021-10-07T19:27:25Z</time>
      </trkpt>
      <trkpt lat="44.50744" lon="1.37107">
        <ele>150.1</ele>
        <time>2021-10-07T19:27:26Z</time>
      </trkpt>
      <trkpt lat="44.5075" lon="1.37109">
        <ele>150.3</ele>
        <time>2021-10-07T19:27:28Z</time>
      </trkpt>
      <trkpt lat="44.50754" lon="1.3711">
        <ele>150.3</ele>
        <time>2021-10-07T19:27:29Z</time>
      </trkpt>
      <trkpt lat="44.5076" lon="1.37113">
        <ele>150.5</ele>
        <time>2021-10-07T19:27:31Z</time>
      </trkpt>
      <trkpt lat="44.50764" lon="1.37115">
        <ele>150.5</ele>
        <time>2021-10-07T19:27:32Z</time>
      </trkpt>
      <trkpt lat="44.5077" lon="1.37119">
        <ele>150.7</ele>
        <time>2021-10-07T19:27:34Z</time>
      </trkpt>
      <trkpt lat="44.50775" lon="1.37122">
        <ele>150.7</ele>
        <time>2021-10-07T19:27:36Z</time>
      </trkpt>
      <trkpt lat="44.50778" lon="1.37124">
        <ele>150.8</ele>
        <time>2021-10-07T19:27:37Z</time>
      </trkpt>
      <trkpt lat="44.50782" lon="1.37127">
        <ele>150.8</ele>
        <time>2021-10-07T19:27:38Z</time>
      </trkpt>
      <trkpt lat="44.50786" lon="1.3713">
        <ele>150.8</ele>
        <time>2021-10-07T19:27:39Z</time>
      </trkpt>
      <trkpt lat="44.50789" lon="1.37131">
        <ele>150.8</ele>
        <time>2021-10-07T19:27:40Z</time>
      </trkpt>
      <trkpt lat="44.50795" lon="1.37135">
        <ele>150.9</ele>
        <time>2021-10-07T19:27:42Z</time>
      </trkpt>
      <trkpt lat="44.508" lon="1.37137">
        <ele>150.9</ele>
        <time>2021-10-07T19:27:44Z</time>
      </trkpt>
      <trkpt lat="44.50805" lon="1.37139">
        <ele>150.9</ele>
        <time>2021-10-07T19:27:45Z</time>
      </trkpt>
      <trkpt lat="44.50808" lon="1.37141">
        <ele>150.9</ele>
        <time>2021-10-07T19:27:46Z</time>
      </trkpt>
      <trkpt lat="44.50811" lon="1.37142">
        <ele>150.9</ele>
        <time>2021-10-07T19:27:47Z</time>
      </trkpt>
      <trkpt lat="44.50814" lon="1.37144">
        <ele>150.9</ele>
        <time>2021-10-07T19:27:48Z</time>
      </trkpt>
      <trkpt lat="44.50818" lon="1.37146">
        <ele>150.8</ele>
        <time>2021-10-07T19:27:50Z</time>
      </trkpt>
      <trkpt lat="44.50822" lon="1.37148">
        <ele>150.8</ele>
        <time>2021-10-07T19:27:51Z</time>
      </trkpt>
      <trkpt lat="44.50826" lon="1.3715">
        <ele>150.8</ele>
        <time>2021-10-07T19:27:52Z</time>
      </trkpt>
      <trkpt lat="44.50831" lon="1.37152">
        <ele>150.7</ele>
        <time>2021-10-07T19:27:53Z</time>
      </trkpt>
      <trkpt lat="44.50836" lon="1.37154">
        <ele>150.6</ele>
        <time>2021-10-07T19:27:55Z</time>
      </trkpt>
      <trkpt lat="44.50841" lon="1.37155">
        <ele>150.5</ele>
        <time>2021-10-07T19:27:56Z</time>
      </trkpt>
      <trkpt lat="44.50847" lon="1.37159">
        <ele>150.4</ele>
        <time>2021-10-07T19:27:58Z</time>
      </trkpt>
      <trkpt lat="44.5085" lon="1.37161">
        <ele>150.3</ele>
        <time>2021-10-07T19:27:59Z</time>
      </trkpt>
      <trkpt lat="44.50854" lon="1.37162">
        <ele>150.2</ele>
        <time>2021-10-07T19:28:00Z</time>
      </trkpt>
      <trkpt lat="44.50858" lon="1.37164">
        <ele>150.1</ele>
        <time>2021-10-07T19:28:01Z</time>
      </trkpt>
      <trkpt lat="44.50862" lon="1.37166">
        <ele>149.9</ele>
        <time>2021-10-07T19:28:02Z</time>
      </trkpt>
      <trkpt lat="44.5087" lon="1.37169">
        <ele>149.6</ele>
        <time>2021-10-07T19:28:04Z</time>
      </trkpt>
      <trkpt lat="44.50875" lon="1.37171">
        <ele>149.5</ele>
        <time>2021-10-07T19:28:05Z</time>
      </trkpt>
      <trkpt lat="44.50884" lon="1.37176">
        <ele>149</ele>
        <time>2021-10-07T19:28:07Z</time>
      </trkpt>
      <trkpt lat="44.50892" lon="1.37184">
        <ele>148.6</ele>
        <time>2021-10-07T19:28:09Z</time>
      </trkpt>
      <trkpt lat="44.50894" lon="1.3719">
        <ele>148.4</ele>
        <time>2021-10-07T19:28:10Z</time>
      </trkpt>
      <trkpt lat="44.50897" lon="1.37202">
        <ele>147.8</ele>
        <time>2021-10-07T19:28:12Z</time>
      </trkpt>
      <trkpt lat="44.50897" lon="1.37206">
        <ele>147.8</ele>
        <time>2021-10-07T19:28:13Z</time>
      </trkpt>
      <trkpt lat="44.50898" lon="1.37212">
        <ele>147.7</ele>
        <time>2021-10-07T19:28:15Z</time>
      </trkpt>
      <trkpt lat="44.50897" lon="1.37215">
        <ele>147.6</ele>
        <time>2021-10-07T19:28:16Z</time>
      </trkpt>
      <trkpt lat="44.50897" lon="1.37215">
        <ele>147.6</ele>
        <time>2021-10-07T19:28:18Z</time>
      </trkpt>
      <trkpt lat="44.50897" lon="1.37216">
        <ele>147.6</ele>
        <time>2021-10-07T19:28:20Z</time>
      </trkpt>
      <trkpt lat="44.50896" lon="1.37215">
        <ele>147.6</ele>
        <time>2021-10-07T19:28:22Z</time>
      </trkpt>
      <trkpt lat="44.50896" lon="1.37215">
        <ele>147.6</ele>
        <time>2021-10-07T19:28:23Z</time>
      </trkpt>
      <trkpt lat="44.50896" lon="1.37213">
        <ele>147.6</ele>
        <time>2021-10-07T19:28:24Z</time>
      </trkpt>
      <trkpt lat="44.50896" lon="1.37213">
        <ele>147.6</ele>
        <time>2021-10-07T19:28:25Z</time>
      </trkpt>
      <trkpt lat="44.50896" lon="1.37213">
        <ele>147.6</ele>
        <time>2021-10-07T19:28:27Z</time>
      </trkpt>
      <trkpt lat="44.50896" lon="1.37212">
        <ele>147.6</ele>
        <time>2021-10-07T19:28:29Z</time>
      </trkpt>
      <trkpt lat="44.50896" lon="1.37212">
        <ele>147.5</ele>
        <time>2021-10-07T19:28:31Z</time>
      </trkpt>
      <trkpt lat="44.50896" lon="1.37212">
        <ele>147.5</ele>
        <time>2021-10-07T19:28:32Z</time>
      </trkpt>
      <trkpt lat="44.50895" lon="1.37212">
        <ele>147.5</ele>
        <time>2021-10-07T19:28:34Z</time>
      </trkpt>
      <trkpt lat="44.50893" lon="1.37218">
        <ele>147.4</ele>
        <time>2021-10-07T19:28:41Z</time>
      </trkpt>
      <trkpt lat="44.50892" lon="1.37222">
        <ele>147.4</ele>
        <time>2021-10-07T19:28:42Z</time>
      </trkpt>
      <trkpt lat="44.5089" lon="1.37226">
        <ele>147.3</ele>
        <time>2021-10-07T19:28:43Z</time>
      </trkpt>
      <trkpt lat="44.50889" lon="1.37232">
        <ele>147.1</ele>
        <time>2021-10-07T19:28:44Z</time>
      </trkpt>
      <trkpt lat="44.50887" lon="1.37235">
        <ele>147</ele>
        <time>2021-10-07T19:28:46Z</time>
      </trkpt>
      <trkpt lat="44.50886" lon="1.37239">
        <ele>146.9</ele>
        <time>2021-10-07T19:28:47Z</time>
      </trkpt>
      <trkpt lat="44.50885" lon="1.37244">
        <ele>146.7</ele>
        <time>2021-10-07T19:28:48Z</time>
      </trkpt>
      <trkpt lat="44.50885" lon="1.37247">
        <ele>146.6</ele>
        <time>2021-10-07T19:28:49Z</time>
      </trkpt>
      <trkpt lat="44.50882" lon="1.37255">
        <ele>146.2</ele>
        <time>2021-10-07T19:28:51Z</time>
      </trkpt>
      <trkpt lat="44.50881" lon="1.37261">
        <ele>146</ele>
        <time>2021-10-07T19:28:52Z</time>
      </trkpt>
      <trkpt lat="44.5088" lon="1.37269">
        <ele>145.6</ele>
        <time>2021-10-07T19:28:54Z</time>
      </trkpt>
      <trkpt lat="44.50878" lon="1.37277">
        <ele>145.2</ele>
        <time>2021-10-07T19:28:55Z</time>
      </trkpt>
      <trkpt lat="44.50875" lon="1.37288">
        <ele>144.7</ele>
        <time>2021-10-07T19:28:56Z</time>
      </trkpt>
      <trkpt lat="44.50874" lon="1.37295">
        <ele>144.3</ele>
        <time>2021-10-07T19:28:57Z</time>
      </trkpt>
      <trkpt lat="44.50872" lon="1.37303">
        <ele>143.9</ele>
        <time>2021-10-07T19:28:58Z</time>
      </trkpt>
      <trkpt lat="44.50868" lon="1.37319">
        <ele>143.1</ele>
        <time>2021-10-07T19:29:00Z</time>
      </trkpt>
      <trkpt lat="44.50866" lon="1.37328">
        <ele>142.7</ele>
        <time>2021-10-07T19:29:01Z</time>
      </trkpt>
      <trkpt lat="44.50863" lon="1.37344">
        <ele>142.1</ele>
        <time>2021-10-07T19:29:03Z</time>
      </trkpt>
      <trkpt lat="44.50859" lon="1.37361">
        <ele>141.4</ele>
        <time>2021-10-07T19:29:05Z</time>
      </trkpt>
      <trkpt lat="44.50857" lon="1.37369">
        <ele>141.1</ele>
        <time>2021-10-07T19:29:06Z</time>
      </trkpt>
      <trkpt lat="44.50855" lon="1.37378">
        <ele>140.8</ele>
        <time>2021-10-07T19:29:07Z</time>
      </trkpt>
      <trkpt lat="44.50851" lon="1.37395">
        <ele>140.2</ele>
        <time>2021-10-07T19:29:09Z</time>
      </trkpt>
      <trkpt lat="44.50847" lon="1.37412">
        <ele>139.7</ele>
        <time>2021-10-07T19:29:11Z</time>
      </trkpt>
      <trkpt lat="44.50844" lon="1.3742">
        <ele>139.4</ele>
        <time>2021-10-07T19:29:12Z</time>
      </trkpt>
      <trkpt lat="44.50841" lon="1.37428">
        <ele>139.1</ele>
        <time>2021-10-07T19:29:13Z</time>
      </trkpt>
      <trkpt lat="44.50834" lon="1.37442">
        <ele>138.6</ele>
        <time>2021-10-07T19:29:15Z</time>
      </trkpt>
      <trkpt lat="44.50827" lon="1.37456">
        <ele>138</ele>
        <time>2021-10-07T19:29:17Z</time>
      </trkpt>
      <trkpt lat="44.5082" lon="1.37472">
        <ele>137.3</ele>
        <time>2021-10-07T19:29:19Z</time>
      </trkpt>
      <trkpt lat="44.50815" lon="1.3749">
        <ele>136.6</ele>
        <time>2021-10-07T19:29:21Z</time>
      </trkpt>
      <trkpt lat="44.5081" lon="1.37509">
        <ele>136</ele>
        <time>2021-10-07T19:29:23Z</time>
      </trkpt>
      <trkpt lat="44.50805" lon="1.37527">
        <ele>135.4</ele>
        <time>2021-10-07T19:29:25Z</time>
      </trkpt>
      <trkpt lat="44.50799" lon="1.37544">
        <ele>134.9</ele>
        <time>2021-10-07T19:29:27Z</time>
      </trkpt>
      <trkpt lat="44.50792" lon="1.3756">
        <ele>134.4</ele>
        <time>2021-10-07T19:29:29Z</time>
      </trkpt>
      <trkpt lat="44.50789" lon="1.37568">
        <ele>134.2</ele>
        <time>2021-10-07T19:29:30Z</time>
      </trkpt>
      <trkpt lat="44.50786" lon="1.37577">
        <ele>134</ele>
        <time>2021-10-07T19:29:31Z</time>
      </trkpt>
      <trkpt lat="44.50781" lon="1.37592">
        <ele>133.7</ele>
        <time>2021-10-07T19:29:33Z</time>
      </trkpt>
      <trkpt lat="44.50779" lon="1.376">
        <ele>133.6</ele>
        <time>2021-10-07T19:29:34Z</time>
      </trkpt>
      <trkpt lat="44.50776" lon="1.37608">
        <ele>133.6</ele>
        <time>2021-10-07T19:29:35Z</time>
      </trkpt>
      <trkpt lat="44.50773" lon="1.37621">
        <ele>133.5</ele>
        <time>2021-10-07T19:29:37Z</time>
      </trkpt>
      <trkpt lat="44.50773" lon="1.37625">
        <ele>133.5</ele>
        <time>2021-10-07T19:29:38Z</time>
      </trkpt>
      <trkpt lat="44.50771" lon="1.37633">
        <ele>133.5</ele>
        <time>2021-10-07T19:29:40Z</time>
      </trkpt>
      <trkpt lat="44.5077" lon="1.37638">
        <ele>133.5</ele>
        <time>2021-10-07T19:29:41Z</time>
      </trkpt>
      <trkpt lat="44.50771" lon="1.37644">
        <ele>133.5</ele>
        <time>2021-10-07T19:29:43Z</time>
      </trkpt>
      <trkpt lat="44.50771" lon="1.37649">
        <ele>133.5</ele>
        <time>2021-10-07T19:29:44Z</time>
      </trkpt>
      <trkpt lat="44.50771" lon="1.37653">
        <ele>133.3</ele>
        <time>2021-10-07T19:29:45Z</time>
      </trkpt>
      <trkpt lat="44.50771" lon="1.37656">
        <ele>133.3</ele>
        <time>2021-10-07T19:29:46Z</time>
      </trkpt>
      <trkpt lat="44.50769" lon="1.37659">
        <ele>133.2</ele>
        <time>2021-10-07T19:29:47Z</time>
      </trkpt>
      <trkpt lat="44.50766" lon="1.37665">
        <ele>133.1</ele>
        <time>2021-10-07T19:29:49Z</time>
      </trkpt>
      <trkpt lat="44.50762" lon="1.3767">
        <ele>133</ele>
        <time>2021-10-07T19:29:51Z</time>
      </trkpt>
      <trkpt lat="44.5076" lon="1.37673">
        <ele>133</ele>
        <time>2021-10-07T19:29:52Z</time>
      </trkpt>
      <trkpt lat="44.50755" lon="1.37679">
        <ele>132.8</ele>
        <time>2021-10-07T19:29:54Z</time>
      </trkpt>
      <trkpt lat="44.50752" lon="1.37685">
        <ele>132.8</ele>
        <time>2021-10-07T19:29:56Z</time>
      </trkpt>
      <trkpt lat="44.5075" lon="1.37689">
        <ele>132.7</ele>
        <time>2021-10-07T19:29:57Z</time>
      </trkpt>
      <trkpt lat="44.50748" lon="1.37693">
        <ele>132.7</ele>
        <time>2021-10-07T19:29:58Z</time>
      </trkpt>
      <trkpt lat="44.50746" lon="1.37701">
        <ele>132.6</ele>
        <time>2021-10-07T19:30:00Z</time>
      </trkpt>
      <trkpt lat="44.50746" lon="1.37707">
        <ele>132.6</ele>
        <time>2021-10-07T19:30:01Z</time>
      </trkpt>
      <trkpt lat="44.50743" lon="1.3771">
        <ele>132.5</ele>
        <time>2021-10-07T19:30:02Z</time>
      </trkpt>
      <trkpt lat="44.50739" lon="1.37715">
        <ele>132.5</ele>
        <time>2021-10-07T19:30:04Z</time>
      </trkpt>
      <trkpt lat="44.50737" lon="1.37719">
        <ele>132.5</ele>
        <time>2021-10-07T19:30:05Z</time>
      </trkpt>
      <trkpt lat="44.50732" lon="1.37726">
        <ele>132.5</ele>
        <time>2021-10-07T19:30:07Z</time>
      </trkpt>
      <trkpt lat="44.50728" lon="1.37732">
        <ele>132.5</ele>
        <time>2021-10-07T19:30:08Z</time>
      </trkpt>
      <trkpt lat="44.50725" lon="1.37735">
        <ele>132.5</ele>
        <time>2021-10-07T19:30:09Z</time>
      </trkpt>
      <trkpt lat="44.50723" lon="1.37741">
        <ele>132.5</ele>
        <time>2021-10-07T19:30:11Z</time>
      </trkpt>
      <trkpt lat="44.5072" lon="1.37745">
        <ele>132.5</ele>
        <time>2021-10-07T19:30:12Z</time>
      </trkpt>
      <trkpt lat="44.50717" lon="1.37751">
        <ele>132.6</ele>
        <time>2021-10-07T19:30:13Z</time>
      </trkpt>
      <trkpt lat="44.50713" lon="1.37756">
        <ele>132.6</ele>
        <time>2021-10-07T19:30:14Z</time>
      </trkpt>
      <trkpt lat="44.5071" lon="1.3776">
        <ele>132.7</ele>
        <time>2021-10-07T19:30:15Z</time>
      </trkpt>
      <trkpt lat="44.50705" lon="1.37766">
        <ele>132.8</ele>
        <time>2021-10-07T19:30:16Z</time>
      </trkpt>
      <trkpt lat="44.50699" lon="1.37773">
        <ele>133.1</ele>
        <time>2021-10-07T19:30:18Z</time>
      </trkpt>
      <trkpt lat="44.50696" lon="1.37777">
        <ele>133.1</ele>
        <time>2021-10-07T19:30:19Z</time>
      </trkpt>
      <trkpt lat="44.50691" lon="1.37785">
        <ele>133.2</ele>
        <time>2021-10-07T19:30:21Z</time>
      </trkpt>
      <trkpt lat="44.50688" lon="1.37789">
        <ele>133.2</ele>
        <time>2021-10-07T19:30:22Z</time>
      </trkpt>
      <trkpt lat="44.50685" lon="1.37794">
        <ele>133.2</ele>
        <time>2021-10-07T19:30:23Z</time>
      </trkpt>
      <trkpt lat="44.50681" lon="1.37797">
        <ele>133.3</ele>
        <time>2021-10-07T19:30:24Z</time>
      </trkpt>
      <trkpt lat="44.50677" lon="1.37803">
        <ele>133.4</ele>
        <time>2021-10-07T19:30:26Z</time>
      </trkpt>
      <trkpt lat="44.50673" lon="1.37808">
        <ele>133.5</ele>
        <time>2021-10-07T19:30:27Z</time>
      </trkpt>
      <trkpt lat="44.50669" lon="1.37812">
        <ele>133.5</ele>
        <time>2021-10-07T19:30:28Z</time>
      </trkpt>
      <trkpt lat="44.50666" lon="1.37817">
        <ele>133.6</ele>
        <time>2021-10-07T19:30:29Z</time>
      </trkpt>
      <trkpt lat="44.50664" lon="1.3782">
        <ele>133.7</ele>
        <time>2021-10-07T19:30:30Z</time>
      </trkpt>
      <trkpt lat="44.50659" lon="1.37827">
        <ele>133.8</ele>
        <time>2021-10-07T19:30:32Z</time>
      </trkpt>
      <trkpt lat="44.50657" lon="1.3783">
        <ele>133.9</ele>
        <time>2021-10-07T19:30:33Z</time>
      </trkpt>
      <trkpt lat="44.50654" lon="1.37835">
        <ele>134</ele>
        <time>2021-10-07T19:30:35Z</time>
      </trkpt>
      <trkpt lat="44.50651" lon="1.37839">
        <ele>134.1</ele>
        <time>2021-10-07T19:30:36Z</time>
      </trkpt>
      <trkpt lat="44.50649" lon="1.37843">
        <ele>134.2</ele>
        <time>2021-10-07T19:30:37Z</time>
      </trkpt>
      <trkpt lat="44.50647" lon="1.37846">
        <ele>134.3</ele>
        <time>2021-10-07T19:30:38Z</time>
      </trkpt>
      <trkpt lat="44.50645" lon="1.37849">
        <ele>134.4</ele>
        <time>2021-10-07T19:30:39Z</time>
      </trkpt>
      <trkpt lat="44.50641" lon="1.37855">
        <ele>134.5</ele>
        <time>2021-10-07T19:30:41Z</time>
      </trkpt>
      <trkpt lat="44.50639" lon="1.37857">
        <ele>134.6</ele>
        <time>2021-10-07T19:30:42Z</time>
      </trkpt>
      <trkpt lat="44.50637" lon="1.37861">
        <ele>134.7</ele>
        <time>2021-10-07T19:30:44Z</time>
      </trkpt>
      <trkpt lat="44.50634" lon="1.37865">
        <ele>134.8</ele>
        <time>2021-10-07T19:30:45Z</time>
      </trkpt>
      <trkpt lat="44.50631" lon="1.37869">
        <ele>134.9</ele>
        <time>2021-10-07T19:30:47Z</time>
      </trkpt>
      <trkpt lat="44.50628" lon="1.37872">
        <ele>135</ele>
        <time>2021-10-07T19:30:48Z</time>
      </trkpt>
      <trkpt lat="44.50627" lon="1.37873">
        <ele>135.1</ele>
        <time>2021-10-07T19:30:49Z</time>
      </trkpt>
      <trkpt lat="44.50624" lon="1.37877">
        <ele>135.2</ele>
        <time>2021-10-07T19:30:51Z</time>
      </trkpt>
      <trkpt lat="44.50622" lon="1.3788">
        <ele>135.3</ele>
        <time>2021-10-07T19:30:53Z</time>
      </trkpt>
      <trkpt lat="44.50618" lon="1.37885">
        <ele>135.5</ele>
        <time>2021-10-07T19:30:54Z</time>
      </trkpt>
      <trkpt lat="44.50615" lon="1.3789">
        <ele>135.7</ele>
        <time>2021-10-07T19:30:56Z</time>
      </trkpt>
      <trkpt lat="44.50612" lon="1.37895">
        <ele>135.8</ele>
        <time>2021-10-07T19:30:58Z</time>
      </trkpt>
      <trkpt lat="44.5061" lon="1.379">
        <ele>135.9</ele>
        <time>2021-10-07T19:30:59Z</time>
      </trkpt>
      <trkpt lat="44.50608" lon="1.37906">
        <ele>136</ele>
        <time>2021-10-07T19:31:01Z</time>
      </trkpt>
      <trkpt lat="44.50606" lon="1.37909">
        <ele>136.1</ele>
        <time>2021-10-07T19:31:02Z</time>
      </trkpt>
      <trkpt lat="44.50605" lon="1.37913">
        <ele>136.2</ele>
        <time>2021-10-07T19:31:03Z</time>
      </trkpt>
      <trkpt lat="44.50603" lon="1.37917">
        <ele>136.3</ele>
        <time>2021-10-07T19:31:04Z</time>
      </trkpt>
      <trkpt lat="44.506" lon="1.37922">
        <ele>136.4</ele>
        <time>2021-10-07T19:31:06Z</time>
      </trkpt>
      <trkpt lat="44.50598" lon="1.37924">
        <ele>136.5</ele>
        <time>2021-10-07T19:31:07Z</time>
      </trkpt>
      <trkpt lat="44.50592" lon="1.37925">
        <ele>136.7</ele>
        <time>2021-10-07T19:31:09Z</time>
      </trkpt>
      <trkpt lat="44.50589" lon="1.37926">
        <ele>136.8</ele>
        <time>2021-10-07T19:31:11Z</time>
      </trkpt>
      <trkpt lat="44.50586" lon="1.37929">
        <ele>136.9</ele>
        <time>2021-10-07T19:31:12Z</time>
      </trkpt>
      <trkpt lat="44.50584" lon="1.37933">
        <ele>137.1</ele>
        <time>2021-10-07T19:31:13Z</time>
      </trkpt>
      <trkpt lat="44.5058" lon="1.37939">
        <ele>137.2</ele>
        <time>2021-10-07T19:31:15Z</time>
      </trkpt>
      <trkpt lat="44.50577" lon="1.37942">
        <ele>137.4</ele>
        <time>2021-10-07T19:31:17Z</time>
      </trkpt>
      <trkpt lat="44.50573" lon="1.37946">
        <ele>137.5</ele>
        <time>2021-10-07T19:31:18Z</time>
      </trkpt>
      <trkpt lat="44.50568" lon="1.3795">
        <ele>137.7</ele>
        <time>2021-10-07T19:31:20Z</time>
      </trkpt>
      <trkpt lat="44.50567" lon="1.37954">
        <ele>137.9</ele>
        <time>2021-10-07T19:31:21Z</time>
      </trkpt>
      <trkpt lat="44.50563" lon="1.37958">
        <ele>138</ele>
        <time>2021-10-07T19:31:23Z</time>
      </trkpt>
      <trkpt lat="44.50561" lon="1.37961">
        <ele>138.2</ele>
        <time>2021-10-07T19:31:24Z</time>
      </trkpt>
      <trkpt lat="44.50559" lon="1.37963">
        <ele>138.3</ele>
        <time>2021-10-07T19:31:25Z</time>
      </trkpt>
      <trkpt lat="44.50555" lon="1.37968">
        <ele>138.5</ele>
        <time>2021-10-07T19:31:27Z</time>
      </trkpt>
      <trkpt lat="44.50553" lon="1.3797">
        <ele>138.6</ele>
        <time>2021-10-07T19:31:28Z</time>
      </trkpt>
      <trkpt lat="44.5055" lon="1.37975">
        <ele>138.8</ele>
        <time>2021-10-07T19:31:30Z</time>
      </trkpt>
      <trkpt lat="44.50548" lon="1.37978">
        <ele>139</ele>
        <time>2021-10-07T19:31:31Z</time>
      </trkpt>
      <trkpt lat="44.50546" lon="1.3798">
        <ele>139.1</ele>
        <time>2021-10-07T19:31:32Z</time>
      </trkpt>
      <trkpt lat="44.50543" lon="1.37986">
        <ele>139.3</ele>
        <time>2021-10-07T19:31:34Z</time>
      </trkpt>
      <trkpt lat="44.50541" lon="1.37989">
        <ele>139.4</ele>
        <time>2021-10-07T19:31:36Z</time>
      </trkpt>
      <trkpt lat="44.50538" lon="1.37993">
        <ele>139.6</ele>
        <time>2021-10-07T19:31:37Z</time>
      </trkpt>
      <trkpt lat="44.50535" lon="1.37997">
        <ele>139.8</ele>
        <time>2021-10-07T19:31:38Z</time>
      </trkpt>
      <trkpt lat="44.50534" lon="1.37999">
        <ele>139.9</ele>
        <time>2021-10-07T19:31:39Z</time>
      </trkpt>
      <trkpt lat="44.50531" lon="1.38003">
        <ele>140.1</ele>
        <time>2021-10-07T19:31:41Z</time>
      </trkpt>
      <trkpt lat="44.50529" lon="1.38007">
        <ele>140.2</ele>
        <time>2021-10-07T19:31:42Z</time>
      </trkpt>
      <trkpt lat="44.50528" lon="1.38008">
        <ele>140.2</ele>
        <time>2021-10-07T19:31:43Z</time>
      </trkpt>
      <trkpt lat="44.50526" lon="1.3801">
        <ele>140.3</ele>
        <time>2021-10-07T19:31:44Z</time>
      </trkpt>
      <trkpt lat="44.50523" lon="1.38015">
        <ele>140.5</ele>
        <time>2021-10-07T19:31:46Z</time>
      </trkpt>
      <trkpt lat="44.50521" lon="1.38018">
        <ele>140.6</ele>
        <time>2021-10-07T19:31:47Z</time>
      </trkpt>
      <trkpt lat="44.50518" lon="1.38022">
        <ele>140.8</ele>
        <time>2021-10-07T19:31:49Z</time>
      </trkpt>
      <trkpt lat="44.50516" lon="1.38025">
        <ele>140.8</ele>
        <time>2021-10-07T19:31:50Z</time>
      </trkpt>
      <trkpt lat="44.50512" lon="1.38031">
        <ele>141</ele>
        <time>2021-10-07T19:31:52Z</time>
      </trkpt>
      <trkpt lat="44.50509" lon="1.38034">
        <ele>141</ele>
        <time>2021-10-07T19:31:53Z</time>
      </trkpt>
      <trkpt lat="44.50508" lon="1.38035">
        <ele>141.1</ele>
        <time>2021-10-07T19:31:54Z</time>
      </trkpt>
      <trkpt lat="44.50506" lon="1.38038">
        <ele>141.1</ele>
        <time>2021-10-07T19:31:55Z</time>
      </trkpt>
      <trkpt lat="44.50502" lon="1.38043">
        <ele>141.1</ele>
        <time>2021-10-07T19:31:57Z</time>
      </trkpt>
      <trkpt lat="44.50499" lon="1.38048">
        <ele>141.2</ele>
        <time>2021-10-07T19:31:59Z</time>
      </trkpt>
      <trkpt lat="44.50497" lon="1.38051">
        <ele>141.2</ele>
        <time>2021-10-07T19:32:00Z</time>
      </trkpt>
      <trkpt lat="44.50495" lon="1.38054">
        <ele>141.1</ele>
        <time>2021-10-07T19:32:01Z</time>
      </trkpt>
      <trkpt lat="44.50491" lon="1.3806">
        <ele>141.1</ele>
        <time>2021-10-07T19:32:03Z</time>
      </trkpt>
      <trkpt lat="44.50489" lon="1.38063">
        <ele>141.1</ele>
        <time>2021-10-07T19:32:04Z</time>
      </trkpt>
      <trkpt lat="44.50484" lon="1.3807">
        <ele>141</ele>
        <time>2021-10-07T19:32:06Z</time>
      </trkpt>
      <trkpt lat="44.5048" lon="1.38076">
        <ele>140.8</ele>
        <time>2021-10-07T19:32:08Z</time>
      </trkpt>
      <trkpt lat="44.50477" lon="1.38079">
        <ele>140.7</ele>
        <time>2021-10-07T19:32:09Z</time>
      </trkpt>
      <trkpt lat="44.50473" lon="1.38086">
        <ele>140.5</ele>
        <time>2021-10-07T19:32:11Z</time>
      </trkpt>
      <trkpt lat="44.5047" lon="1.3809">
        <ele>140.4</ele>
        <time>2021-10-07T19:32:12Z</time>
      </trkpt>
      <trkpt lat="44.50464" lon="1.38098">
        <ele>140</ele>
        <time>2021-10-07T19:32:14Z</time>
      </trkpt>
      <trkpt lat="44.50457" lon="1.38108">
        <ele>139.6</ele>
        <time>2021-10-07T19:32:16Z</time>
      </trkpt>
      <trkpt lat="44.50453" lon="1.38113">
        <ele>139.3</ele>
        <time>2021-10-07T19:32:17Z</time>
      </trkpt>
      <trkpt lat="44.5045" lon="1.38118">
        <ele>139.1</ele>
        <time>2021-10-07T19:32:18Z</time>
      </trkpt>
      <trkpt lat="44.50442" lon="1.38128">
        <ele>138.7</ele>
        <time>2021-10-07T19:32:20Z</time>
      </trkpt>
      <trkpt lat="44.50433" lon="1.38138">
        <ele>138.3</ele>
        <time>2021-10-07T19:32:22Z</time>
      </trkpt>
      <trkpt lat="44.50424" lon="1.38148">
        <ele>137.9</ele>
        <time>2021-10-07T19:32:24Z</time>
      </trkpt>
      <trkpt lat="44.50414" lon="1.38157">
        <ele>137.6</ele>
        <time>2021-10-07T19:32:26Z</time>
      </trkpt>
      <trkpt lat="44.50403" lon="1.38167">
        <ele>137.4</ele>
        <time>2021-10-07T19:32:28Z</time>
      </trkpt>
      <trkpt lat="44.50397" lon="1.38171">
        <ele>137.2</ele>
        <time>2021-10-07T19:32:29Z</time>
      </trkpt>
      <trkpt lat="44.50391" lon="1.38176">
        <ele>137.1</ele>
        <time>2021-10-07T19:32:30Z</time>
      </trkpt>
      <trkpt lat="44.50385" lon="1.3818">
        <ele>137</ele>
        <time>2021-10-07T19:32:31Z</time>
      </trkpt>
      <trkpt lat="44.50373" lon="1.38188">
        <ele>136.7</ele>
        <time>2021-10-07T19:32:33Z</time>
      </trkpt>
      <trkpt lat="44.50367" lon="1.38191">
        <ele>136.6</ele>
        <time>2021-10-07T19:32:34Z</time>
      </trkpt>
      <trkpt lat="44.50361" lon="1.38195">
        <ele>136.6</ele>
        <time>2021-10-07T19:32:35Z</time>
      </trkpt>
      <trkpt lat="44.5035" lon="1.38202">
        <ele>136.6</ele>
        <time>2021-10-07T19:32:37Z</time>
      </trkpt>
      <trkpt lat="44.50345" lon="1.38205">
        <ele>136.7</ele>
        <time>2021-10-07T19:32:38Z</time>
      </trkpt>
      <trkpt lat="44.50339" lon="1.38208">
        <ele>136.8</ele>
        <time>2021-10-07T19:32:39Z</time>
      </trkpt>
      <trkpt lat="44.50329" lon="1.38213">
        <ele>137.1</ele>
        <time>2021-10-07T19:32:41Z</time>
      </trkpt>
      <trkpt lat="44.50324" lon="1.38215">
        <ele>137.2</ele>
        <time>2021-10-07T19:32:42Z</time>
      </trkpt>
      <trkpt lat="44.50314" lon="1.3822">
        <ele>137.7</ele>
        <time>2021-10-07T19:32:44Z</time>
      </trkpt>
      <trkpt lat="44.50302" lon="1.38226">
        <ele>138.2</ele>
        <time>2021-10-07T19:32:46Z</time>
      </trkpt>
      <trkpt lat="44.50297" lon="1.38229">
        <ele>138.5</ele>
        <time>2021-10-07T19:32:47Z</time>
      </trkpt>
      <trkpt lat="44.50285" lon="1.38235">
        <ele>139.1</ele>
        <time>2021-10-07T19:32:49Z</time>
      </trkpt>
      <trkpt lat="44.50274" lon="1.38242">
        <ele>139.7</ele>
        <time>2021-10-07T19:32:51Z</time>
      </trkpt>
      <trkpt lat="44.50262" lon="1.38249">
        <ele>140.3</ele>
        <time>2021-10-07T19:32:53Z</time>
      </trkpt>
      <trkpt lat="44.5025" lon="1.38255">
        <ele>140.9</ele>
        <time>2021-10-07T19:32:55Z</time>
      </trkpt>
      <trkpt lat="44.50237" lon="1.3826">
        <ele>141.5</ele>
        <time>2021-10-07T19:32:57Z</time>
      </trkpt>
      <trkpt lat="44.50232" lon="1.38263">
        <ele>141.8</ele>
        <time>2021-10-07T19:32:58Z</time>
      </trkpt>
      <trkpt lat="44.50221" lon="1.38269">
        <ele>142.3</ele>
        <time>2021-10-07T19:33:00Z</time>
      </trkpt>
      <trkpt lat="44.50212" lon="1.38274">
        <ele>142.7</ele>
        <time>2021-10-07T19:33:02Z</time>
      </trkpt>
      <trkpt lat="44.50203" lon="1.38279">
        <ele>143.1</ele>
        <time>2021-10-07T19:33:04Z</time>
      </trkpt>
      <trkpt lat="44.50194" lon="1.38285">
        <ele>143.3</ele>
        <time>2021-10-07T19:33:06Z</time>
      </trkpt>
      <trkpt lat="44.50189" lon="1.38287">
        <ele>143.5</ele>
        <time>2021-10-07T19:33:07Z</time>
      </trkpt>
      <trkpt lat="44.50179" lon="1.38292">
        <ele>143.6</ele>
        <time>2021-10-07T19:33:09Z</time>
      </trkpt>
      <trkpt lat="44.50174" lon="1.38295">
        <ele>143.7</ele>
        <time>2021-10-07T19:33:10Z</time>
      </trkpt>
      <trkpt lat="44.50165" lon="1.383">
        <ele>143.8</ele>
        <time>2021-10-07T19:33:12Z</time>
      </trkpt>
      <trkpt lat="44.5016" lon="1.38303">
        <ele>143.8</ele>
        <time>2021-10-07T19:33:13Z</time>
      </trkpt>
      <trkpt lat="44.50149" lon="1.38309">
        <ele>143.9</ele>
        <time>2021-10-07T19:33:15Z</time>
      </trkpt>
      <trkpt lat="44.50144" lon="1.38312">
        <ele>143.9</ele>
        <time>2021-10-07T19:33:16Z</time>
      </trkpt>
      <trkpt lat="44.50138" lon="1.38315">
        <ele>143.9</ele>
        <time>2021-10-07T19:33:17Z</time>
      </trkpt>
      <trkpt lat="44.50128" lon="1.3832">
        <ele>144</ele>
        <time>2021-10-07T19:33:19Z</time>
      </trkpt>
      <trkpt lat="44.50122" lon="1.38323">
        <ele>144</ele>
        <time>2021-10-07T19:33:20Z</time>
      </trkpt>
      <trkpt lat="44.50112" lon="1.38328">
        <ele>143.9</ele>
        <time>2021-10-07T19:33:22Z</time>
      </trkpt>
      <trkpt lat="44.50106" lon="1.38331">
        <ele>143.9</ele>
        <time>2021-10-07T19:33:23Z</time>
      </trkpt>
      <trkpt lat="44.50101" lon="1.38334">
        <ele>143.9</ele>
        <time>2021-10-07T19:33:24Z</time>
      </trkpt>
      <trkpt lat="44.50096" lon="1.38337">
        <ele>143.9</ele>
        <time>2021-10-07T19:33:25Z</time>
      </trkpt>
      <trkpt lat="44.50085" lon="1.38343">
        <ele>143.9</ele>
        <time>2021-10-07T19:33:27Z</time>
      </trkpt>
      <trkpt lat="44.50074" lon="1.38349">
        <ele>143.8</ele>
        <time>2021-10-07T19:33:29Z</time>
      </trkpt>
      <trkpt lat="44.50069" lon="1.38352">
        <ele>143.8</ele>
        <time>2021-10-07T19:33:30Z</time>
      </trkpt>
      <trkpt lat="44.50059" lon="1.3836">
        <ele>143.8</ele>
        <time>2021-10-07T19:33:32Z</time>
      </trkpt>
      <trkpt lat="44.50054" lon="1.38364">
        <ele>143.8</ele>
        <time>2021-10-07T19:33:33Z</time>
      </trkpt>
      <trkpt lat="44.50044" lon="1.38369">
        <ele>143.9</ele>
        <time>2021-10-07T19:33:35Z</time>
      </trkpt>
      <trkpt lat="44.50039" lon="1.38369">
        <ele>143.9</ele>
        <time>2021-10-07T19:33:36Z</time>
      </trkpt>
      <trkpt lat="44.50028" lon="1.38371">
        <ele>143.8</ele>
        <time>2021-10-07T19:33:38Z</time>
      </trkpt>
      <trkpt lat="44.50024" lon="1.38374">
        <ele>143.8</ele>
        <time>2021-10-07T19:33:39Z</time>
      </trkpt>
      <trkpt lat="44.50015" lon="1.38379">
        <ele>143.7</ele>
        <time>2021-10-07T19:33:41Z</time>
      </trkpt>
      <trkpt lat="44.50006" lon="1.38383">
        <ele>143.7</ele>
        <time>2021-10-07T19:33:43Z</time>
      </trkpt>
      <trkpt lat="44.50002" lon="1.38385">
        <ele>143.7</ele>
        <time>2021-10-07T19:33:44Z</time>
      </trkpt>
      <trkpt lat="44.49994" lon="1.38391">
        <ele>143.6</ele>
        <time>2021-10-07T19:33:46Z</time>
      </trkpt>
      <trkpt lat="44.49989" lon="1.38393">
        <ele>143.6</ele>
        <time>2021-10-07T19:33:47Z</time>
      </trkpt>
      <trkpt lat="44.49981" lon="1.38398">
        <ele>143.5</ele>
        <time>2021-10-07T19:33:49Z</time>
      </trkpt>
      <trkpt lat="44.49976" lon="1.38401">
        <ele>143.5</ele>
        <time>2021-10-07T19:33:50Z</time>
      </trkpt>
      <trkpt lat="44.49969" lon="1.38405">
        <ele>143.5</ele>
        <time>2021-10-07T19:33:52Z</time>
      </trkpt>
      <trkpt lat="44.49964" lon="1.38407">
        <ele>143.5</ele>
        <time>2021-10-07T19:33:53Z</time>
      </trkpt>
      <trkpt lat="44.49955" lon="1.38412">
        <ele>143.5</ele>
        <time>2021-10-07T19:33:55Z</time>
      </trkpt>
      <trkpt lat="44.49946" lon="1.38417">
        <ele>143.6</ele>
        <time>2021-10-07T19:33:57Z</time>
      </trkpt>
      <trkpt lat="44.49942" lon="1.38419">
        <ele>143.6</ele>
        <time>2021-10-07T19:33:58Z</time>
      </trkpt>
      <trkpt lat="44.49933" lon="1.38423">
        <ele>143.8</ele>
        <time>2021-10-07T19:34:00Z</time>
      </trkpt>
      <trkpt lat="44.49924" lon="1.38427">
        <ele>144</ele>
        <time>2021-10-07T19:34:02Z</time>
      </trkpt>
      <trkpt lat="44.49919" lon="1.3843">
        <ele>144.1</ele>
        <time>2021-10-07T19:34:03Z</time>
      </trkpt>
      <trkpt lat="44.49912" lon="1.38436">
        <ele>144.3</ele>
        <time>2021-10-07T19:34:05Z</time>
      </trkpt>
      <trkpt lat="44.49903" lon="1.3844">
        <ele>144.7</ele>
        <time>2021-10-07T19:34:07Z</time>
      </trkpt>
      <trkpt lat="44.49894" lon="1.38445">
        <ele>145</ele>
        <time>2021-10-07T19:34:09Z</time>
      </trkpt>
      <trkpt lat="44.49886" lon="1.3845">
        <ele>145.4</ele>
        <time>2021-10-07T19:34:11Z</time>
      </trkpt>
      <trkpt lat="44.49882" lon="1.38452">
        <ele>145.5</ele>
        <time>2021-10-07T19:34:12Z</time>
      </trkpt>
      <trkpt lat="44.49879" lon="1.38454">
        <ele>145.7</ele>
        <time>2021-10-07T19:34:13Z</time>
      </trkpt>
      <trkpt lat="44.49871" lon="1.38458">
        <ele>146.1</ele>
        <time>2021-10-07T19:34:15Z</time>
      </trkpt>
      <trkpt lat="44.49868" lon="1.3846">
        <ele>146.2</ele>
        <time>2021-10-07T19:34:16Z</time>
      </trkpt>
      <trkpt lat="44.49864" lon="1.38462">
        <ele>146.4</ele>
        <time>2021-10-07T19:34:17Z</time>
      </trkpt>
      <trkpt lat="44.49857" lon="1.38466">
        <ele>146.7</ele>
        <time>2021-10-07T19:34:19Z</time>
      </trkpt>
      <trkpt lat="44.4985" lon="1.3847">
        <ele>147.1</ele>
        <time>2021-10-07T19:34:21Z</time>
      </trkpt>
      <trkpt lat="44.49847" lon="1.38472">
        <ele>147.3</ele>
        <time>2021-10-07T19:34:22Z</time>
      </trkpt>
      <trkpt lat="44.49843" lon="1.38473">
        <ele>147.5</ele>
        <time>2021-10-07T19:34:23Z</time>
      </trkpt>
      <trkpt lat="44.49837" lon="1.38476">
        <ele>147.8</ele>
        <time>2021-10-07T19:34:25Z</time>
      </trkpt>
      <trkpt lat="44.49831" lon="1.38479">
        <ele>148.2</ele>
        <time>2021-10-07T19:34:27Z</time>
      </trkpt>
      <trkpt lat="44.49828" lon="1.38481">
        <ele>148.4</ele>
        <time>2021-10-07T19:34:28Z</time>
      </trkpt>
      <trkpt lat="44.49827" lon="1.38482">
        <ele>148.4</ele>
        <time>2021-10-07T19:34:29Z</time>
      </trkpt>
      <trkpt lat="44.49822" lon="1.38486">
        <ele>148.7</ele>
        <time>2021-10-07T19:34:31Z</time>
      </trkpt>
      <trkpt lat="44.49819" lon="1.38488">
        <ele>148.8</ele>
        <time>2021-10-07T19:34:32Z</time>
      </trkpt>
      <trkpt lat="44.49813" lon="1.38492">
        <ele>149</ele>
        <time>2021-10-07T19:34:34Z</time>
      </trkpt>
      <trkpt lat="44.49807" lon="1.38495">
        <ele>149.1</ele>
        <time>2021-10-07T19:34:36Z</time>
      </trkpt>
      <trkpt lat="44.49802" lon="1.38497">
        <ele>149.2</ele>
        <time>2021-10-07T19:34:38Z</time>
      </trkpt>
      <trkpt lat="44.49795" lon="1.385">
        <ele>149.4</ele>
        <time>2021-10-07T19:34:40Z</time>
      </trkpt>
      <trkpt lat="44.4979" lon="1.38503">
        <ele>149.5</ele>
        <time>2021-10-07T19:34:42Z</time>
      </trkpt>
      <trkpt lat="44.49786" lon="1.38505">
        <ele>149.5</ele>
        <time>2021-10-07T19:34:43Z</time>
      </trkpt>
      <trkpt lat="44.49781" lon="1.38508">
        <ele>149.6</ele>
        <time>2021-10-07T19:34:45Z</time>
      </trkpt>
      <trkpt lat="44.49777" lon="1.3851">
        <ele>149.6</ele>
        <time>2021-10-07T19:34:46Z</time>
      </trkpt>
      <trkpt lat="44.49775" lon="1.38511">
        <ele>149.6</ele>
        <time>2021-10-07T19:34:47Z</time>
      </trkpt>
      <trkpt lat="44.4977" lon="1.38514">
        <ele>149.7</ele>
        <time>2021-10-07T19:34:49Z</time>
      </trkpt>
      <trkpt lat="44.49766" lon="1.38517">
        <ele>149.7</ele>
        <time>2021-10-07T19:34:51Z</time>
      </trkpt>
      <trkpt lat="44.49761" lon="1.3852">
        <ele>149.7</ele>
        <time>2021-10-07T19:34:52Z</time>
      </trkpt>
      <trkpt lat="44.49758" lon="1.38521">
        <ele>149.7</ele>
        <time>2021-10-07T19:34:53Z</time>
      </trkpt>
      <trkpt lat="44.49755" lon="1.38523">
        <ele>149.7</ele>
        <time>2021-10-07T19:34:54Z</time>
      </trkpt>
      <trkpt lat="44.49749" lon="1.38526">
        <ele>149.6</ele>
        <time>2021-10-07T19:34:56Z</time>
      </trkpt>
      <trkpt lat="44.49745" lon="1.38527">
        <ele>149.6</ele>
        <time>2021-10-07T19:34:57Z</time>
      </trkpt>
      <trkpt lat="44.49742" lon="1.3853">
        <ele>149.6</ele>
        <time>2021-10-07T19:34:58Z</time>
      </trkpt>
      <trkpt lat="44.49735" lon="1.38533">
        <ele>149.6</ele>
        <time>2021-10-07T19:35:00Z</time>
      </trkpt>
      <trkpt lat="44.49731" lon="1.38535">
        <ele>149.6</ele>
        <time>2021-10-07T19:35:01Z</time>
      </trkpt>
      <trkpt lat="44.49727" lon="1.38537">
        <ele>149.6</ele>
        <time>2021-10-07T19:35:02Z</time>
      </trkpt>
      <trkpt lat="44.49722" lon="1.38541">
        <ele>149.5</ele>
        <time>2021-10-07T19:35:04Z</time>
      </trkpt>
      <trkpt lat="44.49716" lon="1.38544">
        <ele>149.5</ele>
        <time>2021-10-07T19:35:05Z</time>
      </trkpt>
      <trkpt lat="44.49712" lon="1.38546">
        <ele>149.5</ele>
        <time>2021-10-07T19:35:06Z</time>
      </trkpt>
      <trkpt lat="44.49709" lon="1.38548">
        <ele>149.5</ele>
        <time>2021-10-07T19:35:07Z</time>
      </trkpt>
      <trkpt lat="44.49704" lon="1.38553">
        <ele>149.5</ele>
        <time>2021-10-07T19:35:09Z</time>
      </trkpt>
      <trkpt lat="44.49702" lon="1.38558">
        <ele>149.5</ele>
        <time>2021-10-07T19:35:10Z</time>
      </trkpt>
      <trkpt lat="44.49701" lon="1.38567">
        <ele>149.5</ele>
        <time>2021-10-07T19:35:12Z</time>
      </trkpt>
      <trkpt lat="44.49701" lon="1.38573">
        <ele>149.5</ele>
        <time>2021-10-07T19:35:13Z</time>
      </trkpt>
      <trkpt lat="44.497" lon="1.38581">
        <ele>149.5</ele>
        <time>2021-10-07T19:35:15Z</time>
      </trkpt>
      <trkpt lat="44.49698" lon="1.38588">
        <ele>149.5</ele>
        <time>2021-10-07T19:35:17Z</time>
      </trkpt>
      <trkpt lat="44.49697" lon="1.38594">
        <ele>149.5</ele>
        <time>2021-10-07T19:35:19Z</time>
      </trkpt>
      <trkpt lat="44.49697" lon="1.38597">
        <ele>149.5</ele>
        <time>2021-10-07T19:35:20Z</time>
      </trkpt>
      <trkpt lat="44.49696" lon="1.38603">
        <ele>149.5</ele>
        <time>2021-10-07T19:35:22Z</time>
      </trkpt>
      <trkpt lat="44.49695" lon="1.38609">
        <ele>149.5</ele>
        <time>2021-10-07T19:35:24Z</time>
      </trkpt>
      <trkpt lat="44.49694" lon="1.38614">
        <ele>149.5</ele>
        <time>2021-10-07T19:35:25Z</time>
      </trkpt>
      <trkpt lat="44.49694" lon="1.38616">
        <ele>149.6</ele>
        <time>2021-10-07T19:35:26Z</time>
      </trkpt>
      <trkpt lat="44.49692" lon="1.38621">
        <ele>149.6</ele>
        <time>2021-10-07T19:35:27Z</time>
      </trkpt>
      <trkpt lat="44.49692" lon="1.38623">
        <ele>149.6</ele>
        <time>2021-10-07T19:35:28Z</time>
      </trkpt>
      <trkpt lat="44.49691" lon="1.38628">
        <ele>149.6</ele>
        <time>2021-10-07T19:35:29Z</time>
      </trkpt>
      <trkpt lat="44.4969" lon="1.38629">
        <ele>149.6</ele>
        <time>2021-10-07T19:35:30Z</time>
      </trkpt>
      <trkpt lat="44.49689" lon="1.38636">
        <ele>149.6</ele>
        <time>2021-10-07T19:35:32Z</time>
      </trkpt>
      <trkpt lat="44.49689" lon="1.38639">
        <ele>149.6</ele>
        <time>2021-10-07T19:35:33Z</time>
      </trkpt>
      <trkpt lat="44.49688" lon="1.38646">
        <ele>149.7</ele>
        <time>2021-10-07T19:35:35Z</time>
      </trkpt>
      <trkpt lat="44.49688" lon="1.3865">
        <ele>149.7</ele>
        <time>2021-10-07T19:35:36Z</time>
      </trkpt>
      <trkpt lat="44.49688" lon="1.38652">
        <ele>149.8</ele>
        <time>2021-10-07T19:35:37Z</time>
      </trkpt>
      <trkpt lat="44.49689" lon="1.38658">
        <ele>149.8</ele>
        <time>2021-10-07T19:35:39Z</time>
      </trkpt>
      <trkpt lat="44.4969" lon="1.38663">
        <ele>149.9</ele>
        <time>2021-10-07T19:35:41Z</time>
      </trkpt>
      <trkpt lat="44.49691" lon="1.38665">
        <ele>149.9</ele>
        <time>2021-10-07T19:35:42Z</time>
      </trkpt>
      <trkpt lat="44.49692" lon="1.38668">
        <ele>150</ele>
        <time>2021-10-07T19:35:44Z</time>
      </trkpt>
      <trkpt lat="44.49693" lon="1.38671">
        <ele>150</ele>
        <time>2021-10-07T19:35:45Z</time>
      </trkpt>
      <trkpt lat="44.49693" lon="1.38672">
        <ele>150</ele>
        <time>2021-10-07T19:35:46Z</time>
      </trkpt>
      <trkpt lat="44.49695" lon="1.38675">
        <ele>150.1</ele>
        <time>2021-10-07T19:35:48Z</time>
      </trkpt>
      <trkpt lat="44.49697" lon="1.38678">
        <ele>150.2</ele>
        <time>2021-10-07T19:35:50Z</time>
      </trkpt>
      <trkpt lat="44.49698" lon="1.38681">
        <ele>150.2</ele>
        <time>2021-10-07T19:35:52Z</time>
      </trkpt>
      <trkpt lat="44.49699" lon="1.38684">
        <ele>150.3</ele>
        <time>2021-10-07T19:35:54Z</time>
      </trkpt>
      <trkpt lat="44.49698" lon="1.38685">
        <ele>150.3</ele>
        <time>2021-10-07T19:35:55Z</time>
      </trkpt>
      <trkpt lat="44.49697" lon="1.38685">
        <ele>150.3</ele>
        <time>2021-10-07T19:35:57Z</time>
      </trkpt>
      <trkpt lat="44.49697" lon="1.38685">
        <ele>150.3</ele>
        <time>2021-10-07T19:35:58Z</time>
      </trkpt>
      <trkpt lat="44.49697" lon="1.38685">
        <ele>150.3</ele>
        <time>2021-10-07T19:36:00Z</time>
      </trkpt>
      <trkpt lat="44.49697" lon="1.38685">
        <ele>150.3</ele>
        <time>2021-10-07T19:36:02Z</time>
      </trkpt>
      <trkpt lat="44.49697" lon="1.38685">
        <ele>150.3</ele>
        <time>2021-10-07T19:36:04Z</time>
      </trkpt>
    </trkseg>
  </trk>
</gpx>